<?xml version='1.0' encoding='UTF-8'?><gpx version="1.1" creator="JPX - https://github.com/jenetics/jpx" xmlns="http://www.topografix.com/GPX/1/1"><trk><trkseg><trkpt lat="44.3216272" lon="8.3241035"><ele>409.00000000000006</ele><time>2026-04-15T13:46:02.174Z</time></trkpt><trkpt lat="44.3216987" lon="8.3240562"><ele>409.0</ele><time>2026-04-15T13:46:12.173Z</time></trkpt><trkpt lat="44.3217497" lon="8.3239973"><ele>409.0</ele><time>2026-04-15T13:46:16.173Z</time></trkpt><trkpt lat="44.3217944" lon="8.3239343"><ele>409.0</ele><time>2026-04-15T13:46:39.173Z</time></trkpt><trkpt lat="44.3217664" lon="8.3238297"><ele>409.00000000000006</ele><time>2026-04-15T13:46:43.172Z</time></trkpt><trkpt lat="44.3216883" lon="8.3237887"><ele>409.0</ele><time>2026-04-15T13:46:46.174Z</time></trkpt><trkpt lat="44.3216056" lon="8.3237437"><ele>409.0</ele><time>2026-04-15T13:46:49.173Z</time></trkpt><trkpt lat="44.3215458" lon="8.3237053"><ele>409.0</ele><time>2026-04-15T13:46:51.173Z</time></trkpt><trkpt lat="44.3214803" lon="8.3236695"><ele>409.0</ele><time>2026-04-15T13:46:53.173Z</time></trkpt><trkpt lat="44.3214135" lon="8.323635"><ele>409.0</ele><time>2026-04-15T13:46:55.173Z</time></trkpt><trkpt lat="44.3213455" lon="8.323605"><ele>409.0</ele><time>2026-04-15T13:46:57.173Z</time></trkpt><trkpt lat="44.321275" lon="8.3235698"><ele>409.0</ele><time>2026-04-15T13:46:59.174Z</time></trkpt><trkpt lat="44.3211981" lon="8.3235389"><ele>409.0</ele><time>2026-04-15T13:47:01.173Z</time></trkpt><trkpt lat="44.3211209" lon="8.3235046"><ele>409.1666666666667</ele><time>2026-04-15T13:47:03.173Z</time></trkpt><trkpt lat="44.3210429" lon="8.3234655"><ele>409.33333333333337</ele><time>2026-04-15T13:47:05.174Z</time></trkpt><trkpt lat="44.3209657" lon="8.3234319"><ele>409.5</ele><time>2026-04-15T13:47:07.173Z</time></trkpt><trkpt lat="44.3208837" lon="8.3233969"><ele>409.66666666666663</ele><time>2026-04-15T13:47:09.174Z</time></trkpt><trkpt lat="44.3208034" lon="8.3233688"><ele>409.8333333333333</ele><time>2026-04-15T13:47:11.174Z</time></trkpt><trkpt lat="44.3207253" lon="8.3233354"><ele>410.0</ele><time>2026-04-15T13:47:13.174Z</time></trkpt><trkpt lat="44.3206495" lon="8.3232959"><ele>409.99999999999994</ele><time>2026-04-15T13:47:15.173Z</time></trkpt><trkpt lat="44.3205779" lon="8.3232579"><ele>410.0</ele><time>2026-04-15T13:47:17.172Z</time></trkpt><trkpt lat="44.320497" lon="8.3232192"><ele>410.0</ele><time>2026-04-15T13:47:19.174Z</time></trkpt><trkpt lat="44.3204103" lon="8.3231726"><ele>410.0</ele><time>2026-04-15T13:47:21.172Z</time></trkpt><trkpt lat="44.3203318" lon="8.3231134"><ele>409.99999999999994</ele><time>2026-04-15T13:47:23.174Z</time></trkpt><trkpt lat="44.3202463" lon="8.3230713"><ele>410.0</ele><time>2026-04-15T13:47:25.174Z</time></trkpt><trkpt lat="44.3201728" lon="8.3230234"><ele>410.16666666666663</ele><time>2026-04-15T13:47:27.173Z</time></trkpt><trkpt lat="44.3201008" lon="8.3229766"><ele>410.3333333333333</ele><time>2026-04-15T13:47:29.173Z</time></trkpt><trkpt lat="44.3200153" lon="8.322943"><ele>410.5</ele><time>2026-04-15T13:47:31.172Z</time></trkpt><trkpt lat="44.3199303" lon="8.3228837"><ele>410.66666666666663</ele><time>2026-04-15T13:47:33.174Z</time></trkpt><trkpt lat="44.3198564" lon="8.3228213"><ele>410.8333333333333</ele><time>2026-04-15T13:47:35.173Z</time></trkpt><trkpt lat="44.3197799" lon="8.3227409"><ele>411.0</ele><time>2026-04-15T13:47:37.173Z</time></trkpt><trkpt lat="44.319711" lon="8.3226713"><ele>411.3333333333333</ele><time>2026-04-15T13:47:39.174Z</time></trkpt><trkpt lat="44.3196407" lon="8.3225845"><ele>411.66666666666663</ele><time>2026-04-15T13:47:41.172Z</time></trkpt><trkpt lat="44.3195717" lon="8.3225115"><ele>412.0</ele><time>2026-04-15T13:47:43.173Z</time></trkpt><trkpt lat="44.319502" lon="8.3224237"><ele>412.3333333333333</ele><time>2026-04-15T13:47:45.173Z</time></trkpt><trkpt lat="44.3194377" lon="8.3223655"><ele>412.66666666666663</ele><time>2026-04-15T13:47:47.173Z</time></trkpt><trkpt lat="44.3193747" lon="8.3222763"><ele>413.0</ele><time>2026-04-15T13:47:49.174Z</time></trkpt><trkpt lat="44.3193095" lon="8.3221875"><ele>412.99999999999994</ele><time>2026-04-15T13:47:51.173Z</time></trkpt><trkpt lat="44.3192437" lon="8.322107"><ele>413.0</ele><time>2026-04-15T13:47:53.174Z</time></trkpt><trkpt lat="44.3191747" lon="8.3220287"><ele>413.0</ele><time>2026-04-15T13:47:55.172Z</time></trkpt><trkpt lat="44.3191178" lon="8.3219654"><ele>413.0</ele><time>2026-04-15T13:47:57.173Z</time></trkpt><trkpt lat="44.3190599" lon="8.3218962"><ele>412.99999999999994</ele><time>2026-04-15T13:47:59.174Z</time></trkpt><trkpt lat="44.3190048" lon="8.3218162"><ele>413.0</ele><time>2026-04-15T13:48:01.174Z</time></trkpt><trkpt lat="44.3189541" lon="8.3217271"><ele>412.99999999999994</ele><time>2026-04-15T13:48:03.173Z</time></trkpt><trkpt lat="44.3189053" lon="8.3216203"><ele>413.0</ele><time>2026-04-15T13:48:05.172Z</time></trkpt><trkpt lat="44.3188607" lon="8.3215211"><ele>413.0</ele><time>2026-04-15T13:48:07.173Z</time></trkpt><trkpt lat="44.3188207" lon="8.3214074"><ele>413.0</ele><time>2026-04-15T13:48:09.172Z</time></trkpt><trkpt lat="44.3187758" lon="8.3212986"><ele>412.99999999999994</ele><time>2026-04-15T13:48:11.174Z</time></trkpt><trkpt lat="44.3187247" lon="8.3211962"><ele>413.0</ele><time>2026-04-15T13:48:13.174Z</time></trkpt><trkpt lat="44.3186853" lon="8.3210868"><ele>412.8333333333333</ele><time>2026-04-15T13:48:15.172Z</time></trkpt><trkpt lat="44.3186459" lon="8.32098"><ele>412.66666666666663</ele><time>2026-04-15T13:48:17.173Z</time></trkpt><trkpt lat="44.3185991" lon="8.3208766"><ele>412.5</ele><time>2026-04-15T13:48:19.173Z</time></trkpt><trkpt lat="44.3185565" lon="8.3207815"><ele>412.33333333333337</ele><time>2026-04-15T13:48:21.174Z</time></trkpt><trkpt lat="44.318521" lon="8.3206779"><ele>412.1666666666667</ele><time>2026-04-15T13:48:23.172Z</time></trkpt><trkpt lat="44.3184848" lon="8.3205776"><ele>412.0</ele><time>2026-04-15T13:48:25.174Z</time></trkpt><trkpt lat="44.3184481" lon="8.3204754"><ele>412.00000000000006</ele><time>2026-04-15T13:48:27.174Z</time></trkpt><trkpt lat="44.3184073" lon="8.3203817"><ele>412.0</ele><time>2026-04-15T13:48:29.171Z</time></trkpt><trkpt lat="44.3183528" lon="8.3202955"><ele>412.0</ele><time>2026-04-15T13:48:31.172Z</time></trkpt><trkpt lat="44.3182873" lon="8.3202236"><ele>412.0</ele><time>2026-04-15T13:48:33.172Z</time></trkpt><trkpt lat="44.3182107" lon="8.3201788"><ele>412.00000000000006</ele><time>2026-04-15T13:48:35.173Z</time></trkpt><trkpt lat="44.3181263" lon="8.320162"><ele>412.0</ele><time>2026-04-15T13:48:37.173Z</time></trkpt><trkpt lat="44.3180451" lon="8.3201432"><ele>413.33333333333337</ele><time>2026-04-15T13:48:39.173Z</time></trkpt><trkpt lat="44.3179674" lon="8.3201384"><ele>414.6666666666667</ele><time>2026-04-15T13:48:41.173Z</time></trkpt><trkpt lat="44.3178879" lon="8.320128"><ele>416.0</ele><time>2026-04-15T13:48:43.173Z</time></trkpt><trkpt lat="44.3177965" lon="8.3201195"><ele>417.33333333333337</ele><time>2026-04-15T13:48:45.173Z</time></trkpt><trkpt lat="44.3177009" lon="8.3201166"><ele>418.6666666666667</ele><time>2026-04-15T13:48:47.172Z</time></trkpt><trkpt lat="44.3176195" lon="8.3200854"><ele>420.0</ele><time>2026-04-15T13:48:49.173Z</time></trkpt><trkpt lat="44.3175315" lon="8.3200614"><ele>420.0</ele><time>2026-04-15T13:48:51.174Z</time></trkpt><trkpt lat="44.3174541" lon="8.3199902"><ele>420.0</ele><time>2026-04-15T13:48:53.174Z</time></trkpt><trkpt lat="44.3173799" lon="8.319923"><ele>420.0</ele><time>2026-04-15T13:48:55.174Z</time></trkpt><trkpt lat="44.3173256" lon="8.3198225"><ele>420.0</ele><time>2026-04-15T13:48:57.174Z</time></trkpt><trkpt lat="44.3172613" lon="8.3197182"><ele>420.0</ele><time>2026-04-15T13:48:59.174Z</time></trkpt><trkpt lat="44.3172089" lon="8.3196277"><ele>421.0</ele><time>2026-04-15T13:49:01.172Z</time></trkpt><trkpt lat="44.3171571" lon="8.3195492"><ele>422.0</ele><time>2026-04-15T13:49:03.173Z</time></trkpt><trkpt lat="44.3171034" lon="8.3194671"><ele>423.0</ele><time>2026-04-15T13:49:05.173Z</time></trkpt><trkpt lat="44.3170563" lon="8.3193856"><ele>424.0</ele><time>2026-04-15T13:49:07.174Z</time></trkpt><trkpt lat="44.3170105" lon="8.3193078"><ele>425.0</ele><time>2026-04-15T13:49:09.173Z</time></trkpt><trkpt lat="44.3169657" lon="8.3192331"><ele>426.0</ele><time>2026-04-15T13:49:11.173Z</time></trkpt><trkpt lat="44.3169181" lon="8.3191586"><ele>427.0</ele><time>2026-04-15T13:49:13.173Z</time></trkpt><trkpt lat="44.3168746" lon="8.3190947"><ele>427.00000000000006</ele><time>2026-04-15T13:49:15.173Z</time></trkpt><trkpt lat="44.316834" lon="8.3190025"><ele>427.0</ele><time>2026-04-15T13:49:17.172Z</time></trkpt><trkpt lat="44.3167919" lon="8.3189223"><ele>427.0</ele><time>2026-04-15T13:49:19.172Z</time></trkpt><trkpt lat="44.3167485" lon="8.3188439"><ele>427.0</ele><time>2026-04-15T13:49:21.171Z</time></trkpt><trkpt lat="44.3167035" lon="8.3187723"><ele>427.00000000000006</ele><time>2026-04-15T13:49:23.173Z</time></trkpt><trkpt lat="44.3166371" lon="8.3186813"><ele>427.0</ele><time>2026-04-15T13:49:26.173Z</time></trkpt><trkpt lat="44.3165718" lon="8.3185859"><ele>425.85714285714283</ele><time>2026-04-15T13:49:29.173Z</time></trkpt><trkpt lat="44.3165302" lon="8.318513"><ele>424.7142857142857</ele><time>2026-04-15T13:49:31.173Z</time></trkpt><trkpt lat="44.3164929" lon="8.31844"><ele>423.57142857142856</ele><time>2026-04-15T13:49:33.172Z</time></trkpt><trkpt lat="44.3164604" lon="8.3183644"><ele>422.42857142857144</ele><time>2026-04-15T13:49:35.173Z</time></trkpt><trkpt lat="44.3164295" lon="8.3182538"><ele>421.2857142857143</ele><time>2026-04-15T13:49:38.174Z</time></trkpt><trkpt lat="44.3164295" lon="8.3181359"><ele>420.1428571428571</ele><time>2026-04-15T13:49:41.173Z</time></trkpt><trkpt lat="44.3164376" lon="8.3180316"><ele>419.0</ele><time>2026-04-15T13:49:44.173Z</time></trkpt><trkpt lat="44.3164602" lon="8.3179319"><ele>418.99999999999994</ele><time>2026-04-15T13:49:47.174Z</time></trkpt><trkpt lat="44.3164823" lon="8.3178099"><ele>419.0</ele><time>2026-04-15T13:49:50.173Z</time></trkpt><trkpt lat="44.3164969" lon="8.3177229"><ele>419.0</ele><time>2026-04-15T13:49:52.173Z</time></trkpt><trkpt lat="44.3165233" lon="8.3175966"><ele>419.0</ele><time>2026-04-15T13:49:55.172Z</time></trkpt><trkpt lat="44.3165394" lon="8.3175115"><ele>418.99999999999994</ele><time>2026-04-15T13:49:57.172Z</time></trkpt><trkpt lat="44.3165541" lon="8.3173923"><ele>419.0</ele><time>2026-04-15T13:50:00.173Z</time></trkpt><trkpt lat="44.3165564" lon="8.317294"><ele>419.99999999999994</ele><time>2026-04-15T13:50:03.174Z</time></trkpt><trkpt lat="44.316557" lon="8.3171952"><ele>421.0</ele><time>2026-04-15T13:50:06.174Z</time></trkpt><trkpt lat="44.3165665" lon="8.3170765"><ele>422.0</ele><time>2026-04-15T13:50:09.174Z</time></trkpt><trkpt lat="44.3165797" lon="8.3169617"><ele>423.0</ele><time>2026-04-15T13:50:11.174Z</time></trkpt><trkpt lat="44.3165923" lon="8.3168453"><ele>423.99999999999994</ele><time>2026-04-15T13:50:13.173Z</time></trkpt><trkpt lat="44.3166002" lon="8.3167452"><ele>425.0</ele><time>2026-04-15T13:50:15.172Z</time></trkpt><trkpt lat="44.3166057" lon="8.3166461"><ele>425.0</ele><time>2026-04-15T13:50:17.172Z</time></trkpt><trkpt lat="44.3166063" lon="8.3165492"><ele>425.0</ele><time>2026-04-15T13:50:19.173Z</time></trkpt><trkpt lat="44.3166134" lon="8.3164485"><ele>425.0</ele><time>2026-04-15T13:50:21.173Z</time></trkpt><trkpt lat="44.3166208" lon="8.3163568"><ele>425.0</ele><time>2026-04-15T13:50:23.173Z</time></trkpt><trkpt lat="44.3166248" lon="8.3162665"><ele>425.0</ele><time>2026-04-15T13:50:25.173Z</time></trkpt><trkpt lat="44.3166266" lon="8.3161403"><ele>425.0</ele><time>2026-04-15T13:50:28.172Z</time></trkpt><trkpt lat="44.3166251" lon="8.3160478"><ele>425.0</ele><time>2026-04-15T13:50:30.173Z</time></trkpt><trkpt lat="44.3166202" lon="8.315944"><ele>425.49999999999994</ele><time>2026-04-15T13:50:32.173Z</time></trkpt><trkpt lat="44.3166113" lon="8.3158286"><ele>426.0</ele><time>2026-04-15T13:50:34.173Z</time></trkpt><trkpt lat="44.3166104" lon="8.3157207"><ele>426.5</ele><time>2026-04-15T13:50:36.173Z</time></trkpt><trkpt lat="44.316609" lon="8.3156216"><ele>427.0</ele><time>2026-04-15T13:50:38.174Z</time></trkpt><trkpt lat="44.316597" lon="8.3155194"><ele>427.49999999999994</ele><time>2026-04-15T13:50:40.173Z</time></trkpt><trkpt lat="44.3165943" lon="8.315425"><ele>428.0</ele><time>2026-04-15T13:50:42.173Z</time></trkpt><trkpt lat="44.3165954" lon="8.3153028"><ele>428.00000000000006</ele><time>2026-04-15T13:50:45.173Z</time></trkpt><trkpt lat="44.3165963" lon="8.3152014"><ele>428.0</ele><time>2026-04-15T13:50:47.172Z</time></trkpt><trkpt lat="44.3166005" lon="8.3151037"><ele>428.0</ele><time>2026-04-15T13:50:49.172Z</time></trkpt><trkpt lat="44.3166014" lon="8.3149916"><ele>428.0</ele><time>2026-04-15T13:50:51.172Z</time></trkpt><trkpt lat="44.3166038" lon="8.3148869"><ele>428.0</ele><time>2026-04-15T13:50:53.173Z</time></trkpt><trkpt lat="44.3166028" lon="8.3147965"><ele>428.00000000000006</ele><time>2026-04-15T13:50:55.172Z</time></trkpt><trkpt lat="44.3165973" lon="8.3147073"><ele>428.0</ele><time>2026-04-15T13:50:57.174Z</time></trkpt><trkpt lat="44.3165881" lon="8.3146176"><ele>428.14285714285717</ele><time>2026-04-15T13:50:59.174Z</time></trkpt><trkpt lat="44.3165685" lon="8.3144983"><ele>428.2857142857143</ele><time>2026-04-15T13:51:02.174Z</time></trkpt><trkpt lat="44.3165524" lon="8.3144066"><ele>428.42857142857144</ele><time>2026-04-15T13:51:04.174Z</time></trkpt><trkpt lat="44.3165401" lon="8.3142994"><ele>428.57142857142856</ele><time>2026-04-15T13:51:06.172Z</time></trkpt><trkpt lat="44.3165188" lon="8.3142062"><ele>428.7142857142857</ele><time>2026-04-15T13:51:08.173Z</time></trkpt><trkpt lat="44.3164938" lon="8.3141223"><ele>428.8571428571429</ele><time>2026-04-15T13:51:10.172Z</time></trkpt><trkpt lat="44.3164673" lon="8.3140217"><ele>429.0</ele><time>2026-04-15T13:51:12.173Z</time></trkpt><trkpt lat="44.3164408" lon="8.3139342"><ele>428.8333333333333</ele><time>2026-04-15T13:51:14.173Z</time></trkpt><trkpt lat="44.3164114" lon="8.3138382"><ele>428.66666666666663</ele><time>2026-04-15T13:51:16.174Z</time></trkpt><trkpt lat="44.3163471" lon="8.3137415"><ele>428.5</ele><time>2026-04-15T13:51:19.173Z</time></trkpt><trkpt lat="44.3162886" lon="8.3136941"><ele>428.3333333333333</ele><time>2026-04-15T13:51:21.173Z</time></trkpt><trkpt lat="44.3162201" lon="8.3136619"><ele>428.16666666666663</ele><time>2026-04-15T13:51:23.174Z</time></trkpt><trkpt lat="44.3161465" lon="8.3136316"><ele>428.0</ele><time>2026-04-15T13:51:25.173Z</time></trkpt><trkpt lat="44.3160686" lon="8.3136142"><ele>427.99999999999994</ele><time>2026-04-15T13:51:27.173Z</time></trkpt><trkpt lat="44.315999" lon="8.3136201"><ele>428.0</ele><time>2026-04-15T13:51:29.173Z</time></trkpt><trkpt lat="44.3159263" lon="8.3136393"><ele>428.0</ele><time>2026-04-15T13:51:31.173Z</time></trkpt><trkpt lat="44.3158431" lon="8.3136442"><ele>428.0</ele><time>2026-04-15T13:51:33.173Z</time></trkpt><trkpt lat="44.3157467" lon="8.3136495"><ele>427.99999999999994</ele><time>2026-04-15T13:51:35.174Z</time></trkpt><trkpt lat="44.3156495" lon="8.3136804"><ele>428.0</ele><time>2026-04-15T13:51:37.172Z</time></trkpt><trkpt lat="44.3155372" lon="8.313713"><ele>427.4</ele><time>2026-04-15T13:51:40.173Z</time></trkpt><trkpt lat="44.3154247" lon="8.3137378"><ele>426.79999999999995</ele><time>2026-04-15T13:51:42.174Z</time></trkpt><trkpt lat="44.3153397" lon="8.3137759"><ele>426.2</ele><time>2026-04-15T13:51:44.173Z</time></trkpt><trkpt lat="44.3152542" lon="8.3137934"><ele>425.6</ele><time>2026-04-15T13:51:46.174Z</time></trkpt><trkpt lat="44.3151709" lon="8.3138257"><ele>425.0</ele><time>2026-04-15T13:51:48.174Z</time></trkpt><trkpt lat="44.3150704" lon="8.3138719"><ele>425.0</ele><time>2026-04-15T13:51:50.172Z</time></trkpt><trkpt lat="44.3149693" lon="8.3138955"><ele>425.0</ele><time>2026-04-15T13:51:52.174Z</time></trkpt><trkpt lat="44.3148634" lon="8.3138801"><ele>425.0</ele><time>2026-04-15T13:51:54.174Z</time></trkpt><trkpt lat="44.3147782" lon="8.3138834"><ele>425.0</ele><time>2026-04-15T13:51:56.172Z</time></trkpt><trkpt lat="44.3146814" lon="8.3138144"><ele>425.0</ele><time>2026-04-15T13:51:58.172Z</time></trkpt><trkpt lat="44.3146003" lon="8.3137888"><ele>424.49999999999994</ele><time>2026-04-15T13:52:00.173Z</time></trkpt><trkpt lat="44.314505" lon="8.3137397"><ele>424.0</ele><time>2026-04-15T13:52:02.173Z</time></trkpt><trkpt lat="44.3144225" lon="8.3137257"><ele>423.5</ele><time>2026-04-15T13:52:04.173Z</time></trkpt><trkpt lat="44.3143348" lon="8.3137373"><ele>423.0</ele><time>2026-04-15T13:52:06.173Z</time></trkpt><trkpt lat="44.3142479" lon="8.3137444"><ele>422.49999999999994</ele><time>2026-04-15T13:52:08.174Z</time></trkpt><trkpt lat="44.3141676" lon="8.3137661"><ele>422.0</ele><time>2026-04-15T13:52:10.172Z</time></trkpt><trkpt lat="44.3140608" lon="8.3137904"><ele>421.99999999999994</ele><time>2026-04-15T13:52:12.173Z</time></trkpt><trkpt lat="44.3139977" lon="8.3138018"><ele>422.0</ele><time>2026-04-15T13:52:14.172Z</time></trkpt><trkpt lat="44.3139265" lon="8.313782"><ele>422.0</ele><time>2026-04-15T13:52:15.172Z</time></trkpt><trkpt lat="44.3138523" lon="8.3137742"><ele>422.0</ele><time>2026-04-15T13:52:17.172Z</time></trkpt><trkpt lat="44.3137752" lon="8.3137561"><ele>421.99999999999994</ele><time>2026-04-15T13:52:19.173Z</time></trkpt><trkpt lat="44.3136997" lon="8.3137209"><ele>422.0</ele><time>2026-04-15T13:52:21.173Z</time></trkpt><trkpt lat="44.313626" lon="8.3136726"><ele>424.49999999999994</ele><time>2026-04-15T13:52:23.173Z</time></trkpt><trkpt lat="44.3135562" lon="8.3135971"><ele>427.0</ele><time>2026-04-15T13:52:25.173Z</time></trkpt><trkpt lat="44.3135196" lon="8.313518"><ele>429.5</ele><time>2026-04-15T13:52:27.172Z</time></trkpt><trkpt lat="44.3134851" lon="8.3134125"><ele>432.0</ele><time>2026-04-15T13:52:30.173Z</time></trkpt><trkpt lat="44.3134297" lon="8.3133265"><ele>434.49999999999994</ele><time>2026-04-15T13:52:32.173Z</time></trkpt><trkpt lat="44.3133807" lon="8.3132376"><ele>437.0</ele><time>2026-04-15T13:52:34.173Z</time></trkpt><trkpt lat="44.313341" lon="8.313155"><ele>435.49999999999994</ele><time>2026-04-15T13:52:36.174Z</time></trkpt><trkpt lat="44.3132931" lon="8.3130627"><ele>434.0</ele><time>2026-04-15T13:52:38.173Z</time></trkpt><trkpt lat="44.3132453" lon="8.3129843"><ele>432.5</ele><time>2026-04-15T13:52:40.172Z</time></trkpt><trkpt lat="44.3131802" lon="8.3128846"><ele>431.0</ele><time>2026-04-15T13:52:42.171Z</time></trkpt><trkpt lat="44.3131173" lon="8.3127837"><ele>429.49999999999994</ele><time>2026-04-15T13:52:44.173Z</time></trkpt><trkpt lat="44.3130606" lon="8.3126844"><ele>428.0</ele><time>2026-04-15T13:52:46.172Z</time></trkpt><trkpt lat="44.3129897" lon="8.3125605"><ele>427.99999999999994</ele><time>2026-04-15T13:52:48.173Z</time></trkpt><trkpt lat="44.3129243" lon="8.3124653"><ele>428.0</ele><time>2026-04-15T13:52:50.174Z</time></trkpt><trkpt lat="44.3128512" lon="8.3124146"><ele>428.0</ele><time>2026-04-15T13:52:52.172Z</time></trkpt><trkpt lat="44.312773" lon="8.3123896"><ele>428.0</ele><time>2026-04-15T13:52:54.172Z</time></trkpt><trkpt lat="44.3126821" lon="8.3123791"><ele>427.99999999999994</ele><time>2026-04-15T13:52:56.172Z</time></trkpt><trkpt lat="44.3125963" lon="8.3123943"><ele>428.0</ele><time>2026-04-15T13:52:58.174Z</time></trkpt><trkpt lat="44.3125214" lon="8.3124245"><ele>427.99999999999994</ele><time>2026-04-15T13:53:00.173Z</time></trkpt><trkpt lat="44.3124461" lon="8.3124746"><ele>428.0</ele><time>2026-04-15T13:53:02.173Z</time></trkpt><trkpt lat="44.3123726" lon="8.3125309"><ele>428.0</ele><time>2026-04-15T13:53:04.173Z</time></trkpt><trkpt lat="44.3122984" lon="8.3125968"><ele>428.0</ele><time>2026-04-15T13:53:06.172Z</time></trkpt><trkpt lat="44.3122243" lon="8.312657"><ele>427.99999999999994</ele><time>2026-04-15T13:53:08.173Z</time></trkpt><trkpt lat="44.3121552" lon="8.3127294"><ele>428.0</ele><time>2026-04-15T13:53:10.172Z</time></trkpt><trkpt lat="44.3120941" lon="8.312814"><ele>427.16666666666663</ele><time>2026-04-15T13:53:12.173Z</time></trkpt><trkpt lat="44.3120264" lon="8.312892"><ele>426.3333333333333</ele><time>2026-04-15T13:53:14.174Z</time></trkpt><trkpt lat="44.3119771" lon="8.3129792"><ele>425.5</ele><time>2026-04-15T13:53:16.172Z</time></trkpt><trkpt lat="44.3119249" lon="8.3130448"><ele>424.66666666666663</ele><time>2026-04-15T13:53:18.173Z</time></trkpt><trkpt lat="44.3118507" lon="8.313112"><ele>423.8333333333333</ele><time>2026-04-15T13:53:20.174Z</time></trkpt><trkpt lat="44.3117777" lon="8.3131604"><ele>423.0</ele><time>2026-04-15T13:53:22.173Z</time></trkpt><trkpt lat="44.3117046" lon="8.3132329"><ele>424.3333333333333</ele><time>2026-04-15T13:53:24.173Z</time></trkpt><trkpt lat="44.3116323" lon="8.3132929"><ele>425.66666666666663</ele><time>2026-04-15T13:53:26.172Z</time></trkpt><trkpt lat="44.3115615" lon="8.3133345"><ele>427.0</ele><time>2026-04-15T13:53:28.172Z</time></trkpt><trkpt lat="44.311484" lon="8.3133589"><ele>428.3333333333333</ele><time>2026-04-15T13:53:30.173Z</time></trkpt><trkpt lat="44.3114107" lon="8.3133673"><ele>429.66666666666663</ele><time>2026-04-15T13:53:32.172Z</time></trkpt><trkpt lat="44.3113355" lon="8.3133694"><ele>431.0</ele><time>2026-04-15T13:53:34.172Z</time></trkpt><trkpt lat="44.3112587" lon="8.3133726"><ele>430.99999999999994</ele><time>2026-04-15T13:53:36.173Z</time></trkpt><trkpt lat="44.3111759" lon="8.3133761"><ele>431.0</ele><time>2026-04-15T13:53:38.174Z</time></trkpt><trkpt lat="44.3110934" lon="8.3133694"><ele>431.0</ele><time>2026-04-15T13:53:40.173Z</time></trkpt><trkpt lat="44.3110147" lon="8.313371"><ele>431.0</ele><time>2026-04-15T13:53:42.173Z</time></trkpt><trkpt lat="44.3109414" lon="8.3133686"><ele>430.99999999999994</ele><time>2026-04-15T13:53:44.173Z</time></trkpt><trkpt lat="44.3108674" lon="8.3133676"><ele>431.0</ele><time>2026-04-15T13:53:46.173Z</time></trkpt><trkpt lat="44.310795" lon="8.3133734"><ele>430.99999999999994</ele><time>2026-04-15T13:53:48.172Z</time></trkpt><trkpt lat="44.3107252" lon="8.313372"><ele>431.0</ele><time>2026-04-15T13:53:50.173Z</time></trkpt><trkpt lat="44.3106485" lon="8.3133682"><ele>431.0</ele><time>2026-04-15T13:53:52.173Z</time></trkpt><trkpt lat="44.3105675" lon="8.3133665"><ele>431.0</ele><time>2026-04-15T13:53:54.173Z</time></trkpt><trkpt lat="44.3104869" lon="8.3133594"><ele>430.99999999999994</ele><time>2026-04-15T13:53:56.172Z</time></trkpt><trkpt lat="44.3104068" lon="8.3133627"><ele>431.0</ele><time>2026-04-15T13:53:58.172Z</time></trkpt><trkpt lat="44.3103265" lon="8.3133681"><ele>430.99999999999994</ele><time>2026-04-15T13:54:00.172Z</time></trkpt><trkpt lat="44.3102472" lon="8.3133588"><ele>431.0</ele><time>2026-04-15T13:54:02.173Z</time></trkpt><trkpt lat="44.3101741" lon="8.3133226"><ele>431.0</ele><time>2026-04-15T13:54:04.173Z</time></trkpt><trkpt lat="44.3101044" lon="8.3132717"><ele>431.0</ele><time>2026-04-15T13:54:06.173Z</time></trkpt><trkpt lat="44.3100427" lon="8.3132128"><ele>430.99999999999994</ele><time>2026-04-15T13:54:08.173Z</time></trkpt><trkpt lat="44.3099887" lon="8.313139"><ele>431.0</ele><time>2026-04-15T13:54:10.173Z</time></trkpt><trkpt lat="44.3099418" lon="8.3130392"><ele>430.99999999999994</ele><time>2026-04-15T13:54:12.173Z</time></trkpt><trkpt lat="44.3099036" lon="8.3129365"><ele>431.0</ele><time>2026-04-15T13:54:14.172Z</time></trkpt><trkpt lat="44.3098705" lon="8.3128376"><ele>431.0</ele><time>2026-04-15T13:54:16.172Z</time></trkpt><trkpt lat="44.309841" lon="8.3127401"><ele>431.0</ele><time>2026-04-15T13:54:18.172Z</time></trkpt><trkpt lat="44.3098099" lon="8.3126397"><ele>430.99999999999994</ele><time>2026-04-15T13:54:20.173Z</time></trkpt><trkpt lat="44.3097826" lon="8.3125346"><ele>431.0</ele><time>2026-04-15T13:54:22.174Z</time></trkpt><trkpt lat="44.3097556" lon="8.3124265"><ele>431.99999999999994</ele><time>2026-04-15T13:54:24.173Z</time></trkpt><trkpt lat="44.3097338" lon="8.3123212"><ele>433.0</ele><time>2026-04-15T13:54:26.171Z</time></trkpt><trkpt lat="44.3097202" lon="8.3122185"><ele>434.0</ele><time>2026-04-15T13:54:28.172Z</time></trkpt><trkpt lat="44.3097173" lon="8.3121097"><ele>435.0</ele><time>2026-04-15T13:54:30.173Z</time></trkpt><trkpt lat="44.3097292" lon="8.3120073"><ele>435.99999999999994</ele><time>2026-04-15T13:54:32.173Z</time></trkpt><trkpt lat="44.3097468" lon="8.3119057"><ele>437.0</ele><time>2026-04-15T13:54:34.174Z</time></trkpt><trkpt lat="44.3097676" lon="8.3118124"><ele>437.0</ele><time>2026-04-15T13:54:36.173Z</time></trkpt><trkpt lat="44.3097992" lon="8.3117142"><ele>437.0</ele><time>2026-04-15T13:54:38.173Z</time></trkpt><trkpt lat="44.309821" lon="8.3116247"><ele>437.0</ele><time>2026-04-15T13:54:40.173Z</time></trkpt><trkpt lat="44.3098389" lon="8.3115362"><ele>437.0</ele><time>2026-04-15T13:54:42.173Z</time></trkpt><trkpt lat="44.3098567" lon="8.31145"><ele>437.0</ele><time>2026-04-15T13:54:44.172Z</time></trkpt><trkpt lat="44.3098687" lon="8.3113571"><ele>437.0</ele><time>2026-04-15T13:54:46.173Z</time></trkpt><trkpt lat="44.3098733" lon="8.3112507"><ele>437.0</ele><time>2026-04-15T13:54:48.173Z</time></trkpt><trkpt lat="44.3098692" lon="8.3111413"><ele>437.1428571428571</ele><time>2026-04-15T13:54:50.173Z</time></trkpt><trkpt lat="44.3098475" lon="8.3110391"><ele>437.28571428571433</ele><time>2026-04-15T13:54:52.172Z</time></trkpt><trkpt lat="44.3098235" lon="8.310952"><ele>437.42857142857144</ele><time>2026-04-15T13:54:54.173Z</time></trkpt><trkpt lat="44.3097894" lon="8.3108527"><ele>437.57142857142856</ele><time>2026-04-15T13:54:57.173Z</time></trkpt><trkpt lat="44.3097504" lon="8.3107666"><ele>437.71428571428567</ele><time>2026-04-15T13:54:59.173Z</time></trkpt><trkpt lat="44.3097003" lon="8.3106817"><ele>437.8571428571429</ele><time>2026-04-15T13:55:01.172Z</time></trkpt><trkpt lat="44.3096486" lon="8.3106061"><ele>438.0</ele><time>2026-04-15T13:55:03.174Z</time></trkpt><trkpt lat="44.3096009" lon="8.3105344"><ele>438.0</ele><time>2026-04-15T13:55:05.173Z</time></trkpt><trkpt lat="44.309557" lon="8.3104583"><ele>438.0</ele><time>2026-04-15T13:55:07.173Z</time></trkpt><trkpt lat="44.3094973" lon="8.3103762"><ele>438.0</ele><time>2026-04-15T13:55:09.172Z</time></trkpt><trkpt lat="44.3094264" lon="8.3102959"><ele>438.0</ele><time>2026-04-15T13:55:11.172Z</time></trkpt><trkpt lat="44.3093541" lon="8.3102187"><ele>438.0</ele><time>2026-04-15T13:55:13.172Z</time></trkpt><trkpt lat="44.309265" lon="8.3101415"><ele>438.0</ele><time>2026-04-15T13:55:15.173Z</time></trkpt><trkpt lat="44.3091882" lon="8.3100776"><ele>438.0</ele><time>2026-04-15T13:55:17.174Z</time></trkpt><trkpt lat="44.3091193" lon="8.3100067"><ele>438.0</ele><time>2026-04-15T13:55:19.173Z</time></trkpt><trkpt lat="44.309053" lon="8.3099358"><ele>438.0</ele><time>2026-04-15T13:55:21.173Z</time></trkpt><trkpt lat="44.3089877" lon="8.3098647"><ele>438.0</ele><time>2026-04-15T13:55:23.173Z</time></trkpt><trkpt lat="44.3089311" lon="8.3098034"><ele>438.0</ele><time>2026-04-15T13:55:25.173Z</time></trkpt><trkpt lat="44.3088734" lon="8.309748"><ele>438.0</ele><time>2026-04-15T13:55:27.172Z</time></trkpt><trkpt lat="44.3088146" lon="8.3096823"><ele>438.8333333333333</ele><time>2026-04-15T13:55:29.173Z</time></trkpt><trkpt lat="44.3087618" lon="8.3096073"><ele>439.66666666666663</ele><time>2026-04-15T13:55:31.173Z</time></trkpt><trkpt lat="44.3087047" lon="8.30953"><ele>440.5</ele><time>2026-04-15T13:55:33.173Z</time></trkpt><trkpt lat="44.3086522" lon="8.3094584"><ele>441.3333333333333</ele><time>2026-04-15T13:55:35.173Z</time></trkpt><trkpt lat="44.308595" lon="8.3093973"><ele>442.16666666666663</ele><time>2026-04-15T13:55:37.173Z</time></trkpt><trkpt lat="44.3085369" lon="8.3093461"><ele>443.0</ele><time>2026-04-15T13:55:39.173Z</time></trkpt><trkpt lat="44.3084505" lon="8.3092832"><ele>443.0</ele><time>2026-04-15T13:55:42.173Z</time></trkpt><trkpt lat="44.3083808" lon="8.3092451"><ele>443.0</ele><time>2026-04-15T13:55:44.173Z</time></trkpt><trkpt lat="44.3083037" lon="8.3092154"><ele>443.0</ele><time>2026-04-15T13:55:46.171Z</time></trkpt><trkpt lat="44.3082348" lon="8.3091787"><ele>443.0</ele><time>2026-04-15T13:55:48.172Z</time></trkpt><trkpt lat="44.3081636" lon="8.3091397"><ele>443.0</ele><time>2026-04-15T13:55:50.173Z</time></trkpt><trkpt lat="44.3081023" lon="8.3090997"><ele>443.0</ele><time>2026-04-15T13:55:52.172Z</time></trkpt><trkpt lat="44.3080397" lon="8.3090506"><ele>443.0</ele><time>2026-04-15T13:55:54.172Z</time></trkpt><trkpt lat="44.3079739" lon="8.3090088"><ele>441.99999999999994</ele><time>2026-04-15T13:55:56.173Z</time></trkpt><trkpt lat="44.3078892" lon="8.3089536"><ele>441.0</ele><time>2026-04-15T13:55:59.173Z</time></trkpt><trkpt lat="44.3078248" lon="8.308922"><ele>440.0</ele><time>2026-04-15T13:56:01.172Z</time></trkpt><trkpt lat="44.3077555" lon="8.3088909"><ele>439.0</ele><time>2026-04-15T13:56:03.172Z</time></trkpt><trkpt lat="44.3076689" lon="8.3088363"><ele>437.99999999999994</ele><time>2026-04-15T13:56:06.433Z</time></trkpt><trkpt lat="44.3075965" lon="8.3087794"><ele>437.0</ele><time>2026-04-15T13:56:08.173Z</time></trkpt><trkpt lat="44.3075293" lon="8.3087264"><ele>437.0</ele><time>2026-04-15T13:56:10.172Z</time></trkpt><trkpt lat="44.3074661" lon="8.3086763"><ele>437.0</ele><time>2026-04-15T13:56:12.173Z</time></trkpt><trkpt lat="44.307402" lon="8.308628"><ele>437.0</ele><time>2026-04-15T13:56:14.173Z</time></trkpt><trkpt lat="44.3073394" lon="8.308579"><ele>437.0</ele><time>2026-04-15T13:56:16.172Z</time></trkpt><trkpt lat="44.3072787" lon="8.3085225"><ele>437.0</ele><time>2026-04-15T13:56:18.172Z</time></trkpt><trkpt lat="44.3072047" lon="8.3084805"><ele>437.0</ele><time>2026-04-15T13:56:20.173Z</time></trkpt><trkpt lat="44.3071408" lon="8.3084425"><ele>437.0</ele><time>2026-04-15T13:56:22.172Z</time></trkpt><trkpt lat="44.3070767" lon="8.3084165"><ele>440.49999999999994</ele><time>2026-04-15T13:56:24.172Z</time></trkpt><trkpt lat="44.306984" lon="8.3083722"><ele>444.0</ele><time>2026-04-15T13:56:27.172Z</time></trkpt><trkpt lat="44.3069146" lon="8.3083314"><ele>447.5</ele><time>2026-04-15T13:56:29.173Z</time></trkpt><trkpt lat="44.306844" lon="8.308296"><ele>451.0</ele><time>2026-04-15T13:56:31.173Z</time></trkpt><trkpt lat="44.3067757" lon="8.3082677"><ele>454.49999999999994</ele><time>2026-04-15T13:56:33.171Z</time></trkpt><trkpt lat="44.306706" lon="8.3082266"><ele>458.0</ele><time>2026-04-15T13:56:35.171Z</time></trkpt><trkpt lat="44.3066434" lon="8.30818"><ele>458.0</ele><time>2026-04-15T13:56:37.172Z</time></trkpt><trkpt lat="44.3065844" lon="8.3081207"><ele>458.0</ele><time>2026-04-15T13:56:39.173Z</time></trkpt><trkpt lat="44.3065379" lon="8.3080327"><ele>458.0</ele><time>2026-04-15T13:56:41.172Z</time></trkpt><trkpt lat="44.3065088" lon="8.3079354"><ele>458.0</ele><time>2026-04-15T13:56:43.172Z</time></trkpt><trkpt lat="44.3064802" lon="8.3078511"><ele>458.0</ele><time>2026-04-15T13:56:45.172Z</time></trkpt><trkpt lat="44.3064649" lon="8.3077599"><ele>458.0</ele><time>2026-04-15T13:56:47.172Z</time></trkpt><trkpt lat="44.3064574" lon="8.3076603"><ele>458.0</ele><time>2026-04-15T13:56:49.173Z</time></trkpt><trkpt lat="44.3064506" lon="8.3075536"><ele>455.66666666666663</ele><time>2026-04-15T13:56:51.173Z</time></trkpt><trkpt lat="44.3064457" lon="8.3074468"><ele>453.3333333333333</ele><time>2026-04-15T13:56:53.173Z</time></trkpt><trkpt lat="44.3064415" lon="8.3073475"><ele>451.0</ele><time>2026-04-15T13:56:55.173Z</time></trkpt><trkpt lat="44.306439" lon="8.3072453"><ele>448.66666666666663</ele><time>2026-04-15T13:56:57.171Z</time></trkpt><trkpt lat="44.3064369" lon="8.3071386"><ele>446.3333333333333</ele><time>2026-04-15T13:56:59.172Z</time></trkpt><trkpt lat="44.3064315" lon="8.3070331"><ele>444.0</ele><time>2026-04-15T13:57:01.173Z</time></trkpt><trkpt lat="44.3064231" lon="8.3069251"><ele>444.0</ele><time>2026-04-15T13:57:03.172Z</time></trkpt><trkpt lat="44.3064214" lon="8.3068124"><ele>444.0</ele><time>2026-04-15T13:57:05.173Z</time></trkpt><trkpt lat="44.3064251" lon="8.3067164"><ele>444.0</ele><time>2026-04-15T13:57:07.172Z</time></trkpt><trkpt lat="44.306424" lon="8.3066075"><ele>444.0</ele><time>2026-04-15T13:57:09.173Z</time></trkpt><trkpt lat="44.3064211" lon="8.3064979"><ele>444.0</ele><time>2026-04-15T13:57:11.173Z</time></trkpt><trkpt lat="44.3064225" lon="8.3063947"><ele>444.0</ele><time>2026-04-15T13:57:13.173Z</time></trkpt><trkpt lat="44.306421" lon="8.3062903"><ele>444.2857142857143</ele><time>2026-04-15T13:57:15.172Z</time></trkpt><trkpt lat="44.3064169" lon="8.3061885"><ele>444.5714285714286</ele><time>2026-04-15T13:57:17.173Z</time></trkpt><trkpt lat="44.3064122" lon="8.3060909"><ele>444.8571428571429</ele><time>2026-04-15T13:57:19.171Z</time></trkpt><trkpt lat="44.3064095" lon="8.3059911"><ele>445.1428571428571</ele><time>2026-04-15T13:57:21.172Z</time></trkpt><trkpt lat="44.3064086" lon="8.3058897"><ele>445.42857142857144</ele><time>2026-04-15T13:57:23.172Z</time></trkpt><trkpt lat="44.3064088" lon="8.3057865"><ele>445.7142857142857</ele><time>2026-04-15T13:57:25.173Z</time></trkpt><trkpt lat="44.3064091" lon="8.3056818"><ele>446.0</ele><time>2026-04-15T13:57:27.173Z</time></trkpt><trkpt lat="44.3064059" lon="8.3055779"><ele>451.2857142857143</ele><time>2026-04-15T13:57:29.172Z</time></trkpt><trkpt lat="44.3064008" lon="8.3054768"><ele>456.57142857142856</ele><time>2026-04-15T13:57:31.173Z</time></trkpt><trkpt lat="44.3063984" lon="8.3053717"><ele>461.8571428571429</ele><time>2026-04-15T13:57:33.173Z</time></trkpt><trkpt lat="44.3063989" lon="8.3052677"><ele>467.1428571428571</ele><time>2026-04-15T13:57:35.172Z</time></trkpt><trkpt lat="44.3063978" lon="8.3051616"><ele>472.42857142857144</ele><time>2026-04-15T13:57:37.173Z</time></trkpt><trkpt lat="44.3063893" lon="8.305059"><ele>477.7142857142857</ele><time>2026-04-15T13:57:39.173Z</time></trkpt><trkpt lat="44.3063853" lon="8.3049577"><ele>483.0</ele><time>2026-04-15T13:57:41.171Z</time></trkpt><trkpt lat="44.3063763" lon="8.3048617"><ele>483.0</ele><time>2026-04-15T13:57:43.172Z</time></trkpt><trkpt lat="44.3063618" lon="8.3047593"><ele>483.0</ele><time>2026-04-15T13:57:45.172Z</time></trkpt><trkpt lat="44.3063411" lon="8.3046614"><ele>483.0</ele><time>2026-04-15T13:57:47.173Z</time></trkpt><trkpt lat="44.3063165" lon="8.3045517"><ele>483.0</ele><time>2026-04-15T13:57:49.172Z</time></trkpt><trkpt lat="44.3062981" lon="8.3044577"><ele>483.0</ele><time>2026-04-15T13:57:51.173Z</time></trkpt><trkpt lat="44.3062695" lon="8.3043558"><ele>483.0</ele><time>2026-04-15T13:57:53.172Z</time></trkpt><trkpt lat="44.3062307" lon="8.3042498"><ele>481.5</ele><time>2026-04-15T13:57:55.173Z</time></trkpt><trkpt lat="44.3061919" lon="8.3041551"><ele>480.0</ele><time>2026-04-15T13:57:57.171Z</time></trkpt><trkpt lat="44.3061474" lon="8.3040633"><ele>478.5</ele><time>2026-04-15T13:57:59.171Z</time></trkpt><trkpt lat="44.3061079" lon="8.3039689"><ele>477.0</ele><time>2026-04-15T13:58:01.172Z</time></trkpt><trkpt lat="44.3060289" lon="8.3038396"><ele>475.5</ele><time>2026-04-15T13:58:03.173Z</time></trkpt><trkpt lat="44.3059955" lon="8.303756"><ele>474.0</ele><time>2026-04-15T13:58:05.173Z</time></trkpt><trkpt lat="44.3059486" lon="8.3036843"><ele>473.3333333333333</ele><time>2026-04-15T13:58:07.173Z</time></trkpt><trkpt lat="44.305904" lon="8.3035912"><ele>472.66666666666663</ele><time>2026-04-15T13:58:09.172Z</time></trkpt><trkpt lat="44.305847" lon="8.3035043"><ele>472.0</ele><time>2026-04-15T13:58:11.173Z</time></trkpt><trkpt lat="44.3057793" lon="8.3034483"><ele>471.3333333333333</ele><time>2026-04-15T13:58:13.173Z</time></trkpt><trkpt lat="44.30571" lon="8.3033946"><ele>470.66666666666663</ele><time>2026-04-15T13:58:15.172Z</time></trkpt><trkpt lat="44.3056465" lon="8.3033098"><ele>470.0</ele><time>2026-04-15T13:58:17.172Z</time></trkpt><trkpt lat="44.3055771" lon="8.3032319"><ele>469.99999999999994</ele><time>2026-04-15T13:58:20.172Z</time></trkpt><trkpt lat="44.3055071" lon="8.3031551"><ele>470.0</ele><time>2026-04-15T13:58:22.173Z</time></trkpt><trkpt lat="44.3054404" lon="8.3030795"><ele>470.0</ele><time>2026-04-15T13:58:24.173Z</time></trkpt><trkpt lat="44.3053665" lon="8.3030041"><ele>470.0</ele><time>2026-04-15T13:58:26.173Z</time></trkpt><trkpt lat="44.3053116" lon="8.3029195"><ele>469.99999999999994</ele><time>2026-04-15T13:58:28.171Z</time></trkpt><trkpt lat="44.3052591" lon="8.3028453"><ele>470.0</ele><time>2026-04-15T13:58:30.171Z</time></trkpt><trkpt lat="44.3051839" lon="8.302753"><ele>467.0</ele><time>2026-04-15T13:58:32.173Z</time></trkpt><trkpt lat="44.3051331" lon="8.3026624"><ele>464.0</ele><time>2026-04-15T13:58:34.172Z</time></trkpt><trkpt lat="44.3050711" lon="8.3025751"><ele>461.0</ele><time>2026-04-15T13:58:36.173Z</time></trkpt><trkpt lat="44.3049995" lon="8.3024881"><ele>458.0</ele><time>2026-04-15T13:58:38.171Z</time></trkpt><trkpt lat="44.3049421" lon="8.3023627"><ele>455.0</ele><time>2026-04-15T13:58:40.173Z</time></trkpt><trkpt lat="44.3048913" lon="8.302265"><ele>455.66666666666663</ele><time>2026-04-15T13:58:42.173Z</time></trkpt><trkpt lat="44.3048412" lon="8.3021772"><ele>456.3333333333333</ele><time>2026-04-15T13:58:44.172Z</time></trkpt><trkpt lat="44.3047928" lon="8.3020973"><ele>457.0</ele><time>2026-04-15T13:58:46.173Z</time></trkpt><trkpt lat="44.3047552" lon="8.3019975"><ele>457.66666666666663</ele><time>2026-04-15T13:58:48.17Z</time></trkpt><trkpt lat="44.3047151" lon="8.3019129"><ele>458.3333333333333</ele><time>2026-04-15T13:58:50.172Z</time></trkpt><trkpt lat="44.3046847" lon="8.3018283"><ele>459.0</ele><time>2026-04-15T13:58:52.173Z</time></trkpt><trkpt lat="44.3046438" lon="8.3017421"><ele>459.0</ele><time>2026-04-15T13:58:54.173Z</time></trkpt><trkpt lat="44.3045913" lon="8.3016697"><ele>459.0</ele><time>2026-04-15T13:58:56.173Z</time></trkpt><trkpt lat="44.3045371" lon="8.3016014"><ele>459.0</ele><time>2026-04-15T13:58:58.172Z</time></trkpt><trkpt lat="44.3044686" lon="8.3015493"><ele>459.0</ele><time>2026-04-15T13:59:00.17Z</time></trkpt><trkpt lat="44.3043862" lon="8.3015155"><ele>459.0</ele><time>2026-04-15T13:59:02.172Z</time></trkpt><trkpt lat="44.3042967" lon="8.3014914"><ele>459.0</ele><time>2026-04-15T13:59:04.171Z</time></trkpt><trkpt lat="44.3041926" lon="8.3014915"><ele>459.0</ele><time>2026-04-15T13:59:06.171Z</time></trkpt><trkpt lat="44.3040962" lon="8.3014838"><ele>459.0</ele><time>2026-04-15T13:59:08.172Z</time></trkpt><trkpt lat="44.3039781" lon="8.3014614"><ele>459.0</ele><time>2026-04-15T13:59:10.171Z</time></trkpt><trkpt lat="44.3038841" lon="8.3014273"><ele>459.0</ele><time>2026-04-15T13:59:12.173Z</time></trkpt><trkpt lat="44.3037799" lon="8.3013942"><ele>459.0</ele><time>2026-04-15T13:59:14.173Z</time></trkpt><trkpt lat="44.3036696" lon="8.3013703"><ele>455.79999999999995</ele><time>2026-04-15T13:59:16.172Z</time></trkpt><trkpt lat="44.3035572" lon="8.3013255"><ele>452.59999999999997</ele><time>2026-04-15T13:59:18.172Z</time></trkpt><trkpt lat="44.3034334" lon="8.3012824"><ele>449.4</ele><time>2026-04-15T13:59:20.172Z</time></trkpt><trkpt lat="44.3033659" lon="8.3012711"><ele>446.2</ele><time>2026-04-15T13:59:21.172Z</time></trkpt><trkpt lat="44.3033028" lon="8.3012818"><ele>443.0</ele><time>2026-04-15T13:59:22.172Z</time></trkpt><trkpt lat="44.3031991" lon="8.3013506"><ele>443.8333333333333</ele><time>2026-04-15T13:59:24.172Z</time></trkpt><trkpt lat="44.303125" lon="8.301472"><ele>444.66666666666663</ele><time>2026-04-15T13:59:26.171Z</time></trkpt><trkpt lat="44.3031017" lon="8.3015632"><ele>445.5</ele><time>2026-04-15T13:59:27.172Z</time></trkpt><trkpt lat="44.3030824" lon="8.3016598"><ele>446.33333333333337</ele><time>2026-04-15T13:59:28.172Z</time></trkpt><trkpt lat="44.3030607" lon="8.3017481"><ele>447.1666666666667</ele><time>2026-04-15T13:59:29.171Z</time></trkpt><trkpt lat="44.3030308" lon="8.3018577"><ele>448.0</ele><time>2026-04-15T13:59:30.173Z</time></trkpt><trkpt lat="44.3030075" lon="8.3019509"><ele>448.00000000000006</ele><time>2026-04-15T13:59:31.172Z</time></trkpt><trkpt lat="44.3029486" lon="8.3021227"><ele>448.0</ele><time>2026-04-15T13:59:33.173Z</time></trkpt><trkpt lat="44.3029154" lon="8.3022105"><ele>448.0</ele><time>2026-04-15T13:59:34.173Z</time></trkpt><trkpt lat="44.3028914" lon="8.3022929"><ele>448.0</ele><time>2026-04-15T13:59:35.172Z</time></trkpt><trkpt lat="44.3028543" lon="8.3024323"><ele>448.00000000000006</ele><time>2026-04-15T13:59:37.173Z</time></trkpt><trkpt lat="44.3028324" lon="8.3025281"><ele>448.0</ele><time>2026-04-15T13:59:38.173Z</time></trkpt><trkpt lat="44.3027957" lon="8.3026321"><ele>447.7142857142857</ele><time>2026-04-15T13:59:39.173Z</time></trkpt><trkpt lat="44.3027685" lon="8.302712"><ele>447.42857142857144</ele><time>2026-04-15T13:59:40.171Z</time></trkpt><trkpt lat="44.3027327" lon="8.3027903"><ele>447.1428571428571</ele><time>2026-04-15T13:59:41.171Z</time></trkpt><trkpt lat="44.3026923" lon="8.3028694"><ele>446.8571428571429</ele><time>2026-04-15T13:59:42.172Z</time></trkpt><trkpt lat="44.3026464" lon="8.302931"><ele>446.57142857142856</ele><time>2026-04-15T13:59:43.173Z</time></trkpt><trkpt lat="44.302607" lon="8.303049"><ele>446.2857142857143</ele><time>2026-04-15T13:59:45.173Z</time></trkpt><trkpt lat="44.3025542" lon="8.3031136"><ele>446.0</ele><time>2026-04-15T13:59:46.172Z</time></trkpt><trkpt lat="44.3024877" lon="8.3031712"><ele>446.6</ele><time>2026-04-15T13:59:47.172Z</time></trkpt><trkpt lat="44.3023828" lon="8.3032889"><ele>447.20000000000005</ele><time>2026-04-15T13:59:49.173Z</time></trkpt><trkpt lat="44.3023274" lon="8.3033342"><ele>447.79999999999995</ele><time>2026-04-15T13:59:50.172Z</time></trkpt><trkpt lat="44.3022724" lon="8.3033853"><ele>448.4</ele><time>2026-04-15T13:59:51.172Z</time></trkpt><trkpt lat="44.3021635" lon="8.3034582"><ele>449.0</ele><time>2026-04-15T13:59:53.172Z</time></trkpt><trkpt lat="44.3021007" lon="8.3034782"><ele>448.99999999999994</ele><time>2026-04-15T13:59:54.172Z</time></trkpt><trkpt lat="44.3020365" lon="8.3034835"><ele>449.0</ele><time>2026-04-15T13:59:55.173Z</time></trkpt><trkpt lat="44.301906" lon="8.303473"><ele>449.0</ele><time>2026-04-15T13:59:57.172Z</time></trkpt><trkpt lat="44.3018382" lon="8.3034634"><ele>449.0</ele><time>2026-04-15T13:59:58.173Z</time></trkpt><trkpt lat="44.3017725" lon="8.3034508"><ele>448.99999999999994</ele><time>2026-04-15T13:59:59.172Z</time></trkpt><trkpt lat="44.301704" lon="8.3034316"><ele>449.0</ele><time>2026-04-15T14:00:00.171Z</time></trkpt><trkpt lat="44.3016273" lon="8.303427"><ele>449.0</ele><time>2026-04-15T14:00:01.171Z</time></trkpt><trkpt lat="44.301521" lon="8.3034237"><ele>449.0</ele><time>2026-04-15T14:00:03.172Z</time></trkpt><trkpt lat="44.301456" lon="8.3034253"><ele>449.0</ele><time>2026-04-15T14:00:04.172Z</time></trkpt><trkpt lat="44.3013329" lon="8.3034371"><ele>449.0</ele><time>2026-04-15T14:00:06.173Z</time></trkpt><trkpt lat="44.3012503" lon="8.3034648"><ele>449.0</ele><time>2026-04-15T14:00:07.173Z</time></trkpt><trkpt lat="44.3011837" lon="8.303505"><ele>448.75</ele><time>2026-04-15T14:00:08.172Z</time></trkpt><trkpt lat="44.3010773" lon="8.3035912"><ele>448.5</ele><time>2026-04-15T14:00:10.173Z</time></trkpt><trkpt lat="44.3009807" lon="8.3036738"><ele>448.25</ele><time>2026-04-15T14:00:12.172Z</time></trkpt><trkpt lat="44.3008751" lon="8.3037304"><ele>448.0</ele><time>2026-04-15T14:00:14.172Z</time></trkpt><trkpt lat="44.3007641" lon="8.3037711"><ele>448.0</ele><time>2026-04-15T14:00:16.173Z</time></trkpt><trkpt lat="44.300665" lon="8.3038142"><ele>447.99999999999994</ele><time>2026-04-15T14:00:18.172Z</time></trkpt><trkpt lat="44.3005642" lon="8.3038376"><ele>447.99999999999994</ele><time>2026-04-15T14:00:20.172Z</time></trkpt><trkpt lat="44.3004651" lon="8.3038459"><ele>448.0</ele><time>2026-04-15T14:00:22.172Z</time></trkpt><trkpt lat="44.30038" lon="8.3038259"><ele>448.0</ele><time>2026-04-15T14:00:24.172Z</time></trkpt><trkpt lat="44.3002893" lon="8.3038074"><ele>447.50000000000006</ele><time>2026-04-15T14:00:26.171Z</time></trkpt><trkpt lat="44.3002024" lon="8.3037945"><ele>447.0</ele><time>2026-04-15T14:00:28.173Z</time></trkpt><trkpt lat="44.300124" lon="8.3037817"><ele>446.5</ele><time>2026-04-15T14:00:30.172Z</time></trkpt><trkpt lat="44.3000343" lon="8.3037468"><ele>446.0</ele><time>2026-04-15T14:00:32.171Z</time></trkpt><trkpt lat="44.2999496" lon="8.303715"><ele>445.50000000000006</ele><time>2026-04-15T14:00:34.172Z</time></trkpt><trkpt lat="44.2998654" lon="8.3036814"><ele>445.0</ele><time>2026-04-15T14:00:36.173Z</time></trkpt><trkpt lat="44.2997809" lon="8.3036553"><ele>445.33333333333337</ele><time>2026-04-15T14:00:38.171Z</time></trkpt><trkpt lat="44.2996961" lon="8.303656"><ele>445.6666666666667</ele><time>2026-04-15T14:00:40.172Z</time></trkpt><trkpt lat="44.2996157" lon="8.3037049"><ele>446.0</ele><time>2026-04-15T14:00:42.172Z</time></trkpt><trkpt lat="44.2995321" lon="8.3037599"><ele>446.33333333333337</ele><time>2026-04-15T14:00:44.172Z</time></trkpt><trkpt lat="44.2994492" lon="8.3038094"><ele>446.6666666666667</ele><time>2026-04-15T14:00:46.172Z</time></trkpt><trkpt lat="44.299366" lon="8.3038472"><ele>447.0</ele><time>2026-04-15T14:00:48.171Z</time></trkpt><trkpt lat="44.299279" lon="8.3038768"><ele>447.0</ele><time>2026-04-15T14:00:50.173Z</time></trkpt><trkpt lat="44.2991907" lon="8.3038918"><ele>447.0</ele><time>2026-04-15T14:00:52.171Z</time></trkpt><trkpt lat="44.2991124" lon="8.3039146"><ele>447.0</ele><time>2026-04-15T14:00:54.173Z</time></trkpt><trkpt lat="44.2990394" lon="8.3039137"><ele>447.0</ele><time>2026-04-15T14:00:56.172Z</time></trkpt><trkpt lat="44.2989667" lon="8.3039192"><ele>447.0</ele><time>2026-04-15T14:00:58.172Z</time></trkpt><trkpt lat="44.2988868" lon="8.3039206"><ele>447.0</ele><time>2026-04-15T14:01:00.173Z</time></trkpt><trkpt lat="44.2988053" lon="8.3039206"><ele>448.5</ele><time>2026-04-15T14:01:02.172Z</time></trkpt><trkpt lat="44.2987262" lon="8.3039257"><ele>450.0</ele><time>2026-04-15T14:01:04.172Z</time></trkpt><trkpt lat="44.2986442" lon="8.303928"><ele>451.5</ele><time>2026-04-15T14:01:06.17Z</time></trkpt><trkpt lat="44.2985636" lon="8.3039293"><ele>453.0</ele><time>2026-04-15T14:01:08.172Z</time></trkpt><trkpt lat="44.2984863" lon="8.3039318"><ele>454.5</ele><time>2026-04-15T14:01:10.172Z</time></trkpt><trkpt lat="44.2984105" lon="8.3039452"><ele>456.0</ele><time>2026-04-15T14:01:12.172Z</time></trkpt><trkpt lat="44.298332" lon="8.303967"><ele>456.0</ele><time>2026-04-15T14:01:14.172Z</time></trkpt><trkpt lat="44.2982515" lon="8.3039974"><ele>456.0</ele><time>2026-04-15T14:01:16.171Z</time></trkpt><trkpt lat="44.2981749" lon="8.3040238"><ele>456.0</ele><time>2026-04-15T14:01:18.173Z</time></trkpt><trkpt lat="44.2980985" lon="8.30405"><ele>456.0</ele><time>2026-04-15T14:01:20.173Z</time></trkpt><trkpt lat="44.2980162" lon="8.3040609"><ele>456.0</ele><time>2026-04-15T14:01:22.173Z</time></trkpt><trkpt lat="44.2979299" lon="8.3040399"><ele>456.0</ele><time>2026-04-15T14:01:24.172Z</time></trkpt><trkpt lat="44.2978474" lon="8.3040035"><ele>456.1666666666667</ele><time>2026-04-15T14:01:26.173Z</time></trkpt><trkpt lat="44.2977627" lon="8.3039597"><ele>456.33333333333337</ele><time>2026-04-15T14:01:28.171Z</time></trkpt><trkpt lat="44.2976878" lon="8.3039213"><ele>456.5</ele><time>2026-04-15T14:01:30.172Z</time></trkpt><trkpt lat="44.2975962" lon="8.3038744"><ele>456.6666666666667</ele><time>2026-04-15T14:01:32.171Z</time></trkpt><trkpt lat="44.2975473" lon="8.3038144"><ele>456.83333333333337</ele><time>2026-04-15T14:01:34.172Z</time></trkpt><trkpt lat="44.2974873" lon="8.3037374"><ele>457.0</ele><time>2026-04-15T14:01:37.173Z</time></trkpt><trkpt lat="44.2974355" lon="8.3036392"><ele>455.6</ele><time>2026-04-15T14:01:39.173Z</time></trkpt><trkpt lat="44.2974129" lon="8.3035259"><ele>454.20000000000005</ele><time>2026-04-15T14:01:41.171Z</time></trkpt><trkpt lat="44.2973957" lon="8.3034005"><ele>452.8</ele><time>2026-04-15T14:01:43.171Z</time></trkpt><trkpt lat="44.2974029" lon="8.3032746"><ele>451.4</ele><time>2026-04-15T14:01:45.171Z</time></trkpt><trkpt lat="44.2974157" lon="8.3031477"><ele>450.0</ele><time>2026-04-15T14:01:47.171Z</time></trkpt><trkpt lat="44.2974279" lon="8.3030075"><ele>449.6</ele><time>2026-04-15T14:01:49.172Z</time></trkpt><trkpt lat="44.2974567" lon="8.3028545"><ele>449.2</ele><time>2026-04-15T14:01:51.172Z</time></trkpt><trkpt lat="44.2974884" lon="8.3026945"><ele>448.79999999999995</ele><time>2026-04-15T14:01:53.172Z</time></trkpt><trkpt lat="44.2975076" lon="8.3025461"><ele>448.4</ele><time>2026-04-15T14:01:55.17Z</time></trkpt><trkpt lat="44.2975235" lon="8.3024552"><ele>448.0</ele><time>2026-04-15T14:01:56.173Z</time></trkpt><trkpt lat="44.2975379" lon="8.3023612"><ele>448.0</ele><time>2026-04-15T14:01:57.172Z</time></trkpt><trkpt lat="44.2975544" lon="8.302269"><ele>448.0</ele><time>2026-04-15T14:01:58.172Z</time></trkpt><trkpt lat="44.2975756" lon="8.3021725"><ele>448.0</ele><time>2026-04-15T14:01:59.172Z</time></trkpt><trkpt lat="44.2975856" lon="8.3020792"><ele>448.0</ele><time>2026-04-15T14:02:00.172Z</time></trkpt><trkpt lat="44.2976014" lon="8.301982"><ele>448.0</ele><time>2026-04-15T14:02:01.173Z</time></trkpt><trkpt lat="44.2976158" lon="8.3018797"><ele>448.0</ele><time>2026-04-15T14:02:02.171Z</time></trkpt><trkpt lat="44.2976285" lon="8.3017754"><ele>448.0</ele><time>2026-04-15T14:02:03.173Z</time></trkpt><trkpt lat="44.2976511" lon="8.3016699"><ele>447.85714285714283</ele><time>2026-04-15T14:02:04.173Z</time></trkpt><trkpt lat="44.2976697" lon="8.3015675"><ele>447.7142857142857</ele><time>2026-04-15T14:02:05.171Z</time></trkpt><trkpt lat="44.2976996" lon="8.3014641"><ele>447.57142857142856</ele><time>2026-04-15T14:02:06.172Z</time></trkpt><trkpt lat="44.2977234" lon="8.3013649"><ele>447.42857142857144</ele><time>2026-04-15T14:02:07.17Z</time></trkpt><trkpt lat="44.2977425" lon="8.3012683"><ele>447.2857142857143</ele><time>2026-04-15T14:02:08.171Z</time></trkpt><trkpt lat="44.2977603" lon="8.3011713"><ele>447.1428571428571</ele><time>2026-04-15T14:02:09.17Z</time></trkpt><trkpt lat="44.2977761" lon="8.3010771"><ele>447.0</ele><time>2026-04-15T14:02:10.171Z</time></trkpt><trkpt lat="44.2977911" lon="8.3009866"><ele>447.0</ele><time>2026-04-15T14:02:11.173Z</time></trkpt><trkpt lat="44.297805" lon="8.3008886"><ele>447.00000000000006</ele><time>2026-04-15T14:02:12.172Z</time></trkpt><trkpt lat="44.2978348" lon="8.3007141"><ele>447.00000000000006</ele><time>2026-04-15T14:02:14.172Z</time></trkpt><trkpt lat="44.2978459" lon="8.3006153"><ele>447.0</ele><time>2026-04-15T14:02:15.172Z</time></trkpt><trkpt lat="44.2978491" lon="8.3005192"><ele>447.0</ele><time>2026-04-15T14:02:16.171Z</time></trkpt><trkpt lat="44.2978217" lon="8.3003562"><ele>448.0</ele><time>2026-04-15T14:02:18.173Z</time></trkpt><trkpt lat="44.2977702" lon="8.3002296"><ele>449.0</ele><time>2026-04-15T14:02:20.172Z</time></trkpt><trkpt lat="44.2977165" lon="8.3001438"><ele>450.0</ele><time>2026-04-15T14:02:22.173Z</time></trkpt><trkpt lat="44.297667" lon="8.3000711"><ele>451.0</ele><time>2026-04-15T14:02:24.172Z</time></trkpt><trkpt lat="44.2976171" lon="8.2999975"><ele>452.0</ele><time>2026-04-15T14:02:26.171Z</time></trkpt><trkpt lat="44.2975658" lon="8.2999285"><ele>453.0</ele><time>2026-04-15T14:02:28.172Z</time></trkpt><trkpt lat="44.2975155" lon="8.2998612"><ele>452.99999999999994</ele><time>2026-04-15T14:02:30.172Z</time></trkpt><trkpt lat="44.2974737" lon="8.2997947"><ele>453.0</ele><time>2026-04-15T14:02:32.171Z</time></trkpt><trkpt lat="44.2974234" lon="8.2997293"><ele>452.99999999999994</ele><time>2026-04-15T14:02:34.172Z</time></trkpt><trkpt lat="44.2973597" lon="8.2996394"><ele>452.99999999999994</ele><time>2026-04-15T14:02:37.171Z</time></trkpt><trkpt lat="44.2973128" lon="8.2995782"><ele>453.0</ele><time>2026-04-15T14:02:40.172Z</time></trkpt><trkpt lat="44.2972614" lon="8.2995251"><ele>452.99999999999994</ele><time>2026-04-15T14:02:42.171Z</time></trkpt><trkpt lat="44.2971865" lon="8.2994597"><ele>452.99999999999994</ele><time>2026-04-15T14:02:45.172Z</time></trkpt><trkpt lat="44.2971344" lon="8.2993985"><ele>453.8333333333333</ele><time>2026-04-15T14:02:47.171Z</time></trkpt><trkpt lat="44.2970753" lon="8.299331"><ele>454.66666666666663</ele><time>2026-04-15T14:02:49.172Z</time></trkpt><trkpt lat="44.2970185" lon="8.2992705"><ele>455.5</ele><time>2026-04-15T14:02:51.173Z</time></trkpt><trkpt lat="44.2969538" lon="8.2991926"><ele>456.3333333333333</ele><time>2026-04-15T14:02:54.172Z</time></trkpt><trkpt lat="44.296885" lon="8.2991141"><ele>457.16666666666663</ele><time>2026-04-15T14:02:57.172Z</time></trkpt><trkpt lat="44.2968133" lon="8.2990275"><ele>458.0</ele><time>2026-04-15T14:03:00.171Z</time></trkpt><trkpt lat="44.2967628" lon="8.29896"><ele>459.16666666666663</ele><time>2026-04-15T14:03:02.172Z</time></trkpt><trkpt lat="44.2967141" lon="8.2988939"><ele>460.3333333333333</ele><time>2026-04-15T14:03:04.171Z</time></trkpt><trkpt lat="44.2966457" lon="8.2988057"><ele>461.5</ele><time>2026-04-15T14:03:06.172Z</time></trkpt><trkpt lat="44.2965779" lon="8.2987218"><ele>462.66666666666663</ele><time>2026-04-15T14:03:08.171Z</time></trkpt><trkpt lat="44.2965068" lon="8.2986149"><ele>463.8333333333333</ele><time>2026-04-15T14:03:10.171Z</time></trkpt><trkpt lat="44.296437" lon="8.2985429"><ele>465.0</ele><time>2026-04-15T14:03:12.171Z</time></trkpt><trkpt lat="44.2963652" lon="8.2984939"><ele>465.0</ele><time>2026-04-15T14:03:14.171Z</time></trkpt><trkpt lat="44.2962929" lon="8.2984326"><ele>465.0</ele><time>2026-04-15T14:03:16.172Z</time></trkpt><trkpt lat="44.2961999" lon="8.2983827"><ele>465.0</ele><time>2026-04-15T14:03:18.172Z</time></trkpt><trkpt lat="44.2961041" lon="8.2983348"><ele>465.0</ele><time>2026-04-15T14:03:20.17Z</time></trkpt><trkpt lat="44.2959988" lon="8.2982941"><ele>465.0</ele><time>2026-04-15T14:03:22.172Z</time></trkpt><trkpt lat="44.2958971" lon="8.2982353"><ele>465.0</ele><time>2026-04-15T14:03:24.171Z</time></trkpt><trkpt lat="44.2958055" lon="8.2981991"><ele>465.0</ele><time>2026-04-15T14:03:26.171Z</time></trkpt><trkpt lat="44.2957152" lon="8.2981686"><ele>465.0</ele><time>2026-04-15T14:03:28.171Z</time></trkpt><trkpt lat="44.2956335" lon="8.2981266"><ele>465.0</ele><time>2026-04-15T14:03:30.172Z</time></trkpt><trkpt lat="44.2955511" lon="8.2981054"><ele>465.0</ele><time>2026-04-15T14:03:32.173Z</time></trkpt><trkpt lat="44.2954711" lon="8.2980836"><ele>465.0</ele><time>2026-04-15T14:03:34.171Z</time></trkpt><trkpt lat="44.2953894" lon="8.2980374"><ele>467.3333333333333</ele><time>2026-04-15T14:03:36.171Z</time></trkpt><trkpt lat="44.2953108" lon="8.2979745"><ele>469.66666666666663</ele><time>2026-04-15T14:03:38.172Z</time></trkpt><trkpt lat="44.295232" lon="8.2979272"><ele>472.0</ele><time>2026-04-15T14:03:40.171Z</time></trkpt><trkpt lat="44.2951574" lon="8.2978929"><ele>474.3333333333333</ele><time>2026-04-15T14:03:42.172Z</time></trkpt><trkpt lat="44.2950837" lon="8.2978608"><ele>476.66666666666663</ele><time>2026-04-15T14:03:44.172Z</time></trkpt><trkpt lat="44.2950152" lon="8.2978202"><ele>479.0</ele><time>2026-04-15T14:03:46.17Z</time></trkpt><trkpt lat="44.2949455" lon="8.2977604"><ele>478.99999999999994</ele><time>2026-04-15T14:03:48.171Z</time></trkpt><trkpt lat="44.2948704" lon="8.2977193"><ele>479.0</ele><time>2026-04-15T14:03:50.172Z</time></trkpt><trkpt lat="44.2947953" lon="8.2976809"><ele>479.0</ele><time>2026-04-15T14:03:52.172Z</time></trkpt><trkpt lat="44.2947127" lon="8.2976447"><ele>479.0</ele><time>2026-04-15T14:03:54.172Z</time></trkpt><trkpt lat="44.2946318" lon="8.2976046"><ele>478.99999999999994</ele><time>2026-04-15T14:03:56.171Z</time></trkpt><trkpt lat="44.2945462" lon="8.2975672"><ele>479.0</ele><time>2026-04-15T14:03:58.172Z</time></trkpt><trkpt lat="44.2944687" lon="8.2975112"><ele>476.6</ele><time>2026-04-15T14:04:00.171Z</time></trkpt><trkpt lat="44.2943849" lon="8.2974448"><ele>474.2</ele><time>2026-04-15T14:04:02.172Z</time></trkpt><trkpt lat="44.2943011" lon="8.2973593"><ele>471.80000000000007</ele><time>2026-04-15T14:04:04.172Z</time></trkpt><trkpt lat="44.2942089" lon="8.2972646"><ele>469.40000000000003</ele><time>2026-04-15T14:04:06.172Z</time></trkpt><trkpt lat="44.2941259" lon="8.2971571"><ele>467.0</ele><time>2026-04-15T14:04:08.172Z</time></trkpt><trkpt lat="44.2940385" lon="8.2970597"><ele>467.0</ele><time>2026-04-15T14:04:10.172Z</time></trkpt><trkpt lat="44.2939542" lon="8.2969659"><ele>467.00000000000006</ele><time>2026-04-15T14:04:12.172Z</time></trkpt><trkpt lat="44.2938619" lon="8.2968895"><ele>467.00000000000006</ele><time>2026-04-15T14:04:14.172Z</time></trkpt><trkpt lat="44.2937833" lon="8.2968253"><ele>467.0</ele><time>2026-04-15T14:04:16.171Z</time></trkpt><trkpt lat="44.2936985" lon="8.2967672"><ele>467.0</ele><time>2026-04-15T14:04:18.171Z</time></trkpt><trkpt lat="44.2936111" lon="8.2967089"><ele>465.49999999999994</ele><time>2026-04-15T14:04:20.171Z</time></trkpt><trkpt lat="44.2935278" lon="8.2966596"><ele>464.0</ele><time>2026-04-15T14:04:22.17Z</time></trkpt><trkpt lat="44.2934524" lon="8.2966169"><ele>462.5</ele><time>2026-04-15T14:04:24.17Z</time></trkpt><trkpt lat="44.2933761" lon="8.2965637"><ele>461.0</ele><time>2026-04-15T14:04:26.171Z</time></trkpt><trkpt lat="44.2933005" lon="8.2965119"><ele>459.49999999999994</ele><time>2026-04-15T14:04:28.172Z</time></trkpt><trkpt lat="44.2932255" lon="8.2964575"><ele>458.0</ele><time>2026-04-15T14:04:30.172Z</time></trkpt><trkpt lat="44.2931535" lon="8.2964046"><ele>457.16666666666663</ele><time>2026-04-15T14:04:32.171Z</time></trkpt><trkpt lat="44.2930802" lon="8.2963533"><ele>456.3333333333333</ele><time>2026-04-15T14:04:34.172Z</time></trkpt><trkpt lat="44.2930057" lon="8.2962975"><ele>455.5</ele><time>2026-04-15T14:04:36.172Z</time></trkpt><trkpt lat="44.2929324" lon="8.296242"><ele>454.66666666666663</ele><time>2026-04-15T14:04:38.172Z</time></trkpt><trkpt lat="44.2928578" lon="8.2961908"><ele>453.8333333333333</ele><time>2026-04-15T14:04:40.172Z</time></trkpt><trkpt lat="44.2927772" lon="8.2961445"><ele>453.0</ele><time>2026-04-15T14:04:42.172Z</time></trkpt><trkpt lat="44.2926975" lon="8.2961046"><ele>453.0</ele><time>2026-04-15T14:04:44.172Z</time></trkpt><trkpt lat="44.2926165" lon="8.2960468"><ele>453.0</ele><time>2026-04-15T14:04:46.171Z</time></trkpt><trkpt lat="44.2925386" lon="8.2959895"><ele>453.0</ele><time>2026-04-15T14:04:48.172Z</time></trkpt><trkpt lat="44.2924603" lon="8.295935"><ele>453.0</ele><time>2026-04-15T14:04:50.172Z</time></trkpt><trkpt lat="44.2923796" lon="8.29588"><ele>453.0</ele><time>2026-04-15T14:04:52.171Z</time></trkpt><trkpt lat="44.2923076" lon="8.2958166"><ele>453.0</ele><time>2026-04-15T14:04:54.171Z</time></trkpt><trkpt lat="44.2922398" lon="8.2957461"><ele>453.1666666666667</ele><time>2026-04-15T14:04:56.172Z</time></trkpt><trkpt lat="44.2921748" lon="8.2956768"><ele>453.33333333333337</ele><time>2026-04-15T14:04:58.171Z</time></trkpt><trkpt lat="44.2921106" lon="8.2956107"><ele>453.5</ele><time>2026-04-15T14:05:00.171Z</time></trkpt><trkpt lat="44.2920447" lon="8.2955419"><ele>453.6666666666667</ele><time>2026-04-15T14:05:02.171Z</time></trkpt><trkpt lat="44.2919784" lon="8.2954548"><ele>453.83333333333337</ele><time>2026-04-15T14:05:04.171Z</time></trkpt><trkpt lat="44.2919035" lon="8.2953644"><ele>454.0</ele><time>2026-04-15T14:05:06.172Z</time></trkpt><trkpt lat="44.2918328" lon="8.2952725"><ele>454.1666666666667</ele><time>2026-04-15T14:05:08.172Z</time></trkpt><trkpt lat="44.2917768" lon="8.2951771"><ele>454.33333333333337</ele><time>2026-04-15T14:05:10.172Z</time></trkpt><trkpt lat="44.2917379" lon="8.2950849"><ele>454.5</ele><time>2026-04-15T14:05:12.172Z</time></trkpt><trkpt lat="44.2916934" lon="8.294962"><ele>454.66666666666663</ele><time>2026-04-15T14:05:15.172Z</time></trkpt><trkpt lat="44.2916706" lon="8.2948579"><ele>454.8333333333333</ele><time>2026-04-15T14:05:17.17Z</time></trkpt><trkpt lat="44.2916631" lon="8.2947517"><ele>455.0</ele><time>2026-04-15T14:05:19.172Z</time></trkpt><trkpt lat="44.2916508" lon="8.2946495"><ele>455.1428571428571</ele><time>2026-04-15T14:05:21.17Z</time></trkpt><trkpt lat="44.2916427" lon="8.294545"><ele>455.2857142857143</ele><time>2026-04-15T14:05:23.172Z</time></trkpt><trkpt lat="44.2916405" lon="8.2944469"><ele>455.42857142857144</ele><time>2026-04-15T14:05:25.172Z</time></trkpt><trkpt lat="44.2916378" lon="8.2943228"><ele>455.57142857142856</ele><time>2026-04-15T14:05:28.172Z</time></trkpt><trkpt lat="44.2916322" lon="8.2942351"><ele>455.71428571428567</ele><time>2026-04-15T14:05:30.172Z</time></trkpt><trkpt lat="44.2916404" lon="8.2941396"><ele>455.85714285714283</ele><time>2026-04-15T14:05:32.172Z</time></trkpt><trkpt lat="44.2916461" lon="8.2940328"><ele>456.0</ele><time>2026-04-15T14:05:34.172Z</time></trkpt><trkpt lat="44.2916544" lon="8.29391"><ele>456.1666666666667</ele><time>2026-04-15T14:05:36.172Z</time></trkpt><trkpt lat="44.2916663" lon="8.2937897"><ele>456.33333333333337</ele><time>2026-04-15T14:05:38.172Z</time></trkpt><trkpt lat="44.2916715" lon="8.2936732"><ele>456.5</ele><time>2026-04-15T14:05:40.172Z</time></trkpt><trkpt lat="44.2916773" lon="8.2935591"><ele>456.6666666666667</ele><time>2026-04-15T14:05:42.172Z</time></trkpt><trkpt lat="44.2916773" lon="8.2934499"><ele>456.83333333333337</ele><time>2026-04-15T14:05:44.172Z</time></trkpt><trkpt lat="44.291682" lon="8.293344"><ele>457.0</ele><time>2026-04-15T14:05:46.171Z</time></trkpt><trkpt lat="44.2917068" lon="8.2932432"><ele>457.00000000000006</ele><time>2026-04-15T14:05:48.171Z</time></trkpt><trkpt lat="44.2917312" lon="8.2931368"><ele>457.0</ele><time>2026-04-15T14:05:50.172Z</time></trkpt><trkpt lat="44.2917651" lon="8.2930366"><ele>457.0</ele><time>2026-04-15T14:05:52.171Z</time></trkpt><trkpt lat="44.291803" lon="8.2929423"><ele>457.0</ele><time>2026-04-15T14:05:54.171Z</time></trkpt><trkpt lat="44.2918375" lon="8.2928555"><ele>457.00000000000006</ele><time>2026-04-15T14:05:56.171Z</time></trkpt><trkpt lat="44.2918755" lon="8.292764"><ele>457.0</ele><time>2026-04-15T14:05:58.172Z</time></trkpt><trkpt lat="44.2919076" lon="8.2926798"><ele>457.1428571428572</ele><time>2026-04-15T14:06:00.172Z</time></trkpt><trkpt lat="44.2919397" lon="8.2925949"><ele>457.28571428571433</ele><time>2026-04-15T14:06:02.172Z</time></trkpt><trkpt lat="44.2919792" lon="8.2925055"><ele>457.42857142857144</ele><time>2026-04-15T14:06:04.172Z</time></trkpt><trkpt lat="44.2920239" lon="8.292419"><ele>457.5714285714286</ele><time>2026-04-15T14:06:06.172Z</time></trkpt><trkpt lat="44.2920592" lon="8.2923306"><ele>457.7142857142858</ele><time>2026-04-15T14:06:08.172Z</time></trkpt><trkpt lat="44.2920945" lon="8.2922421"><ele>457.85714285714283</ele><time>2026-04-15T14:06:10.17Z</time></trkpt><trkpt lat="44.2921336" lon="8.29216"><ele>458.0</ele><time>2026-04-15T14:06:12.171Z</time></trkpt><trkpt lat="44.2921718" lon="8.2920769"><ele>458.2857142857143</ele><time>2026-04-15T14:06:14.172Z</time></trkpt><trkpt lat="44.2922088" lon="8.2919908"><ele>458.57142857142856</ele><time>2026-04-15T14:06:16.172Z</time></trkpt><trkpt lat="44.2922413" lon="8.2918994"><ele>458.85714285714283</ele><time>2026-04-15T14:06:18.172Z</time></trkpt><trkpt lat="44.2922769" lon="8.2918149"><ele>459.1428571428571</ele><time>2026-04-15T14:06:20.171Z</time></trkpt><trkpt lat="44.2923186" lon="8.2917315"><ele>459.42857142857144</ele><time>2026-04-15T14:06:22.171Z</time></trkpt><trkpt lat="44.2923596" lon="8.2916494"><ele>459.71428571428567</ele><time>2026-04-15T14:06:24.172Z</time></trkpt><trkpt lat="44.2924004" lon="8.2915722"><ele>459.99999999999994</ele><time>2026-04-15T14:06:26.172Z</time></trkpt><trkpt lat="44.2924384" lon="8.2914803"><ele>460.5714285714285</ele><time>2026-04-15T14:06:28.171Z</time></trkpt><trkpt lat="44.2924646" lon="8.2913866"><ele>461.1428571428571</ele><time>2026-04-15T14:06:30.17Z</time></trkpt><trkpt lat="44.292493" lon="8.2912998"><ele>461.7142857142857</ele><time>2026-04-15T14:06:32.171Z</time></trkpt><trkpt lat="44.292521" lon="8.2912144"><ele>462.2857142857143</ele><time>2026-04-15T14:06:34.172Z</time></trkpt><trkpt lat="44.292549" lon="8.2910868"><ele>462.8571428571429</ele><time>2026-04-15T14:06:37.171Z</time></trkpt><trkpt lat="44.2925549" lon="8.2909963"><ele>463.4285714285715</ele><time>2026-04-15T14:06:39.172Z</time></trkpt><trkpt lat="44.292567" lon="8.2909048"><ele>464.00000000000006</ele><time>2026-04-15T14:06:41.172Z</time></trkpt><trkpt lat="44.2925797" lon="8.2908121"><ele>464.00000000000006</ele><time>2026-04-15T14:06:43.172Z</time></trkpt><trkpt lat="44.2925892" lon="8.2907144"><ele>464.0</ele><time>2026-04-15T14:06:45.172Z</time></trkpt><trkpt lat="44.2925945" lon="8.2906109"><ele>464.00000000000006</ele><time>2026-04-15T14:06:47.172Z</time></trkpt><trkpt lat="44.2925991" lon="8.2905063"><ele>464.00000000000006</ele><time>2026-04-15T14:06:49.172Z</time></trkpt><trkpt lat="44.292602" lon="8.2904051"><ele>464.0</ele><time>2026-04-15T14:06:51.17Z</time></trkpt><trkpt lat="44.2926005" lon="8.2903032"><ele>464.00000000000006</ele><time>2026-04-15T14:06:53.17Z</time></trkpt><trkpt lat="44.2925961" lon="8.290201"><ele>464.00000000000006</ele><time>2026-04-15T14:06:55.171Z</time></trkpt><trkpt lat="44.2925941" lon="8.2901001"><ele>464.16666666666663</ele><time>2026-04-15T14:06:57.172Z</time></trkpt><trkpt lat="44.2925992" lon="8.2899975"><ele>464.3333333333333</ele><time>2026-04-15T14:06:59.17Z</time></trkpt><trkpt lat="44.292606" lon="8.2898878"><ele>464.5</ele><time>2026-04-15T14:07:01.171Z</time></trkpt><trkpt lat="44.2926174" lon="8.2897882"><ele>464.66666666666663</ele><time>2026-04-15T14:07:03.172Z</time></trkpt><trkpt lat="44.2926282" lon="8.2896752"><ele>464.8333333333333</ele><time>2026-04-15T14:07:05.17Z</time></trkpt><trkpt lat="44.2926322" lon="8.2895573"><ele>465.0</ele><time>2026-04-15T14:07:07.17Z</time></trkpt><trkpt lat="44.2926378" lon="8.2894428"><ele>465.0</ele><time>2026-04-15T14:07:09.171Z</time></trkpt><trkpt lat="44.2926376" lon="8.2893325"><ele>465.0</ele><time>2026-04-15T14:07:11.17Z</time></trkpt><trkpt lat="44.2926449" lon="8.2892294"><ele>465.0</ele><time>2026-04-15T14:07:13.172Z</time></trkpt><trkpt lat="44.2926484" lon="8.2891341"><ele>465.0</ele><time>2026-04-15T14:07:15.172Z</time></trkpt><trkpt lat="44.292647" lon="8.2890349"><ele>465.0</ele><time>2026-04-15T14:07:17.171Z</time></trkpt><trkpt lat="44.2926614" lon="8.2889313"><ele>465.0</ele><time>2026-04-15T14:07:19.172Z</time></trkpt><trkpt lat="44.2926725" lon="8.2888269"><ele>465.0</ele><time>2026-04-15T14:07:21.171Z</time></trkpt><trkpt lat="44.292686" lon="8.2887226"><ele>465.0</ele><time>2026-04-15T14:07:23.172Z</time></trkpt><trkpt lat="44.2927098" lon="8.2886148"><ele>465.0</ele><time>2026-04-15T14:07:25.172Z</time></trkpt><trkpt lat="44.292738" lon="8.2885062"><ele>465.0</ele><time>2026-04-15T14:07:27.171Z</time></trkpt><trkpt lat="44.2927737" lon="8.2884073"><ele>465.0</ele><time>2026-04-15T14:07:29.172Z</time></trkpt><trkpt lat="44.2928158" lon="8.2883033"><ele>465.0</ele><time>2026-04-15T14:07:31.172Z</time></trkpt><trkpt lat="44.2928577" lon="8.2882147"><ele>465.0</ele><time>2026-04-15T14:07:33.171Z</time></trkpt><trkpt lat="44.2929071" lon="8.2881256"><ele>464.8333333333333</ele><time>2026-04-15T14:07:35.172Z</time></trkpt><trkpt lat="44.2929618" lon="8.2880442"><ele>464.66666666666663</ele><time>2026-04-15T14:07:37.172Z</time></trkpt><trkpt lat="44.2930058" lon="8.2879516"><ele>464.5</ele><time>2026-04-15T14:07:39.171Z</time></trkpt><trkpt lat="44.293053" lon="8.287857"><ele>464.3333333333333</ele><time>2026-04-15T14:07:41.171Z</time></trkpt><trkpt lat="44.2930945" lon="8.2877579"><ele>464.16666666666663</ele><time>2026-04-15T14:07:43.171Z</time></trkpt><trkpt lat="44.2931338" lon="8.2876556"><ele>464.0</ele><time>2026-04-15T14:07:45.171Z</time></trkpt><trkpt lat="44.2931769" lon="8.2875662"><ele>465.4285714285715</ele><time>2026-04-15T14:07:47.172Z</time></trkpt><trkpt lat="44.2932138" lon="8.2874767"><ele>466.8571428571429</ele><time>2026-04-15T14:07:49.17Z</time></trkpt><trkpt lat="44.2932411" lon="8.2873889"><ele>468.2857142857143</ele><time>2026-04-15T14:07:51.17Z</time></trkpt><trkpt lat="44.29327" lon="8.2872951"><ele>469.7142857142857</ele><time>2026-04-15T14:07:53.171Z</time></trkpt><trkpt lat="44.2932981" lon="8.2871973"><ele>471.1428571428571</ele><time>2026-04-15T14:07:55.171Z</time></trkpt><trkpt lat="44.293327" lon="8.2871062"><ele>472.5714285714285</ele><time>2026-04-15T14:07:57.171Z</time></trkpt><trkpt lat="44.2933506" lon="8.2870169"><ele>473.99999999999994</ele><time>2026-04-15T14:07:59.171Z</time></trkpt><trkpt lat="44.2933677" lon="8.286924"><ele>474.42857142857133</ele><time>2026-04-15T14:08:01.171Z</time></trkpt><trkpt lat="44.2933774" lon="8.2868251"><ele>474.85714285714283</ele><time>2026-04-15T14:08:03.17Z</time></trkpt><trkpt lat="44.2933832" lon="8.2867289"><ele>475.2857142857142</ele><time>2026-04-15T14:08:05.172Z</time></trkpt><trkpt lat="44.2933852" lon="8.2866318"><ele>475.71428571428567</ele><time>2026-04-15T14:08:07.172Z</time></trkpt><trkpt lat="44.2933841" lon="8.2865315"><ele>476.1428571428571</ele><time>2026-04-15T14:08:09.171Z</time></trkpt><trkpt lat="44.2933864" lon="8.2864313"><ele>476.57142857142856</ele><time>2026-04-15T14:08:11.172Z</time></trkpt><trkpt lat="44.2933785" lon="8.2863329"><ele>477.0</ele><time>2026-04-15T14:08:13.171Z</time></trkpt><trkpt lat="44.2933732" lon="8.2862337"><ele>478.0</ele><time>2026-04-15T14:08:15.171Z</time></trkpt><trkpt lat="44.2933628" lon="8.2861352"><ele>479.0</ele><time>2026-04-15T14:08:17.17Z</time></trkpt><trkpt lat="44.293352" lon="8.2860377"><ele>480.0</ele><time>2026-04-15T14:08:19.17Z</time></trkpt><trkpt lat="44.2933366" lon="8.2859393"><ele>481.0</ele><time>2026-04-15T14:08:21.172Z</time></trkpt><trkpt lat="44.2933129" lon="8.2858373"><ele>482.0</ele><time>2026-04-15T14:08:23.171Z</time></trkpt><trkpt lat="44.2932843" lon="8.2857302"><ele>483.0</ele><time>2026-04-15T14:08:25.171Z</time></trkpt><trkpt lat="44.2932498" lon="8.2856307"><ele>483.5</ele><time>2026-04-15T14:08:27.171Z</time></trkpt><trkpt lat="44.2932039" lon="8.2855343"><ele>484.0</ele><time>2026-04-15T14:08:29.171Z</time></trkpt><trkpt lat="44.2931527" lon="8.2854414"><ele>484.5</ele><time>2026-04-15T14:08:31.171Z</time></trkpt><trkpt lat="44.2931006" lon="8.2853532"><ele>485.0</ele><time>2026-04-15T14:08:33.171Z</time></trkpt><trkpt lat="44.2930477" lon="8.2852675"><ele>485.5</ele><time>2026-04-15T14:08:35.171Z</time></trkpt><trkpt lat="44.2929951" lon="8.2851857"><ele>486.0</ele><time>2026-04-15T14:08:37.172Z</time></trkpt><trkpt lat="44.2929447" lon="8.2851042"><ele>484.3333333333333</ele><time>2026-04-15T14:08:39.172Z</time></trkpt><trkpt lat="44.2928942" lon="8.285021"><ele>482.66666666666663</ele><time>2026-04-15T14:08:41.171Z</time></trkpt><trkpt lat="44.2928378" lon="8.28494"><ele>481.0</ele><time>2026-04-15T14:08:43.171Z</time></trkpt><trkpt lat="44.2927806" lon="8.284859"><ele>479.3333333333333</ele><time>2026-04-15T14:08:45.17Z</time></trkpt><trkpt lat="44.2927227" lon="8.2847787"><ele>477.66666666666663</ele><time>2026-04-15T14:08:47.171Z</time></trkpt><trkpt lat="44.2926669" lon="8.284703"><ele>476.0</ele><time>2026-04-15T14:08:49.17Z</time></trkpt><trkpt lat="44.2926143" lon="8.2846238"><ele>475.99999999999994</ele><time>2026-04-15T14:08:51.171Z</time></trkpt><trkpt lat="44.2925698" lon="8.2845346"><ele>476.0</ele><time>2026-04-15T14:08:53.171Z</time></trkpt><trkpt lat="44.2925181" lon="8.2844435"><ele>476.0</ele><time>2026-04-15T14:08:55.171Z</time></trkpt><trkpt lat="44.292467" lon="8.2843542"><ele>476.0</ele><time>2026-04-15T14:08:57.172Z</time></trkpt><trkpt lat="44.292412" lon="8.2842722"><ele>475.99999999999994</ele><time>2026-04-15T14:08:59.171Z</time></trkpt><trkpt lat="44.2923628" lon="8.2841886"><ele>476.0</ele><time>2026-04-15T14:09:01.171Z</time></trkpt><trkpt lat="44.2923147" lon="8.2841031"><ele>475.99999999999994</ele><time>2026-04-15T14:09:03.171Z</time></trkpt><trkpt lat="44.2922597" lon="8.2840226"><ele>476.0</ele><time>2026-04-15T14:09:05.171Z</time></trkpt><trkpt lat="44.2921968" lon="8.2839484"><ele>476.0</ele><time>2026-04-15T14:09:07.172Z</time></trkpt><trkpt lat="44.2921301" lon="8.2838735"><ele>476.0</ele><time>2026-04-15T14:09:09.17Z</time></trkpt><trkpt lat="44.2920656" lon="8.2837956"><ele>475.99999999999994</ele><time>2026-04-15T14:09:11.172Z</time></trkpt><trkpt lat="44.2920024" lon="8.2837147"><ele>476.0</ele><time>2026-04-15T14:09:13.171Z</time></trkpt><trkpt lat="44.291943" lon="8.2836375"><ele>476.49999999999994</ele><time>2026-04-15T14:09:15.17Z</time></trkpt><trkpt lat="44.2918818" lon="8.2835587"><ele>477.0</ele><time>2026-04-15T14:09:17.172Z</time></trkpt><trkpt lat="44.2918174" lon="8.2834848"><ele>477.5</ele><time>2026-04-15T14:09:19.172Z</time></trkpt><trkpt lat="44.291758" lon="8.2834109"><ele>478.0</ele><time>2026-04-15T14:09:21.171Z</time></trkpt><trkpt lat="44.2916939" lon="8.2833393"><ele>478.49999999999994</ele><time>2026-04-15T14:09:23.171Z</time></trkpt><trkpt lat="44.2916258" lon="8.2832754"><ele>479.0</ele><time>2026-04-15T14:09:25.172Z</time></trkpt><trkpt lat="44.291559" lon="8.2832054"><ele>478.99999999999994</ele><time>2026-04-15T14:09:27.171Z</time></trkpt><trkpt lat="44.2914923" lon="8.2831454"><ele>479.0</ele><time>2026-04-15T14:09:29.172Z</time></trkpt><trkpt lat="44.2914257" lon="8.2830977"><ele>479.0</ele><time>2026-04-15T14:09:31.17Z</time></trkpt><trkpt lat="44.291361" lon="8.2830457"><ele>479.0</ele><time>2026-04-15T14:09:33.171Z</time></trkpt><trkpt lat="44.291296" lon="8.2829907"><ele>478.99999999999994</ele><time>2026-04-15T14:09:35.172Z</time></trkpt><trkpt lat="44.2912307" lon="8.2829247"><ele>479.0</ele><time>2026-04-15T14:09:37.17Z</time></trkpt><trkpt lat="44.2911681" lon="8.2828588"><ele>479.66666666666663</ele><time>2026-04-15T14:09:39.17Z</time></trkpt><trkpt lat="44.2911048" lon="8.2827987"><ele>480.3333333333333</ele><time>2026-04-15T14:09:41.171Z</time></trkpt><trkpt lat="44.2910414" lon="8.2827365"><ele>481.0</ele><time>2026-04-15T14:09:43.172Z</time></trkpt><trkpt lat="44.2909751" lon="8.2826722"><ele>481.66666666666663</ele><time>2026-04-15T14:09:45.172Z</time></trkpt><trkpt lat="44.2909123" lon="8.2826084"><ele>482.3333333333333</ele><time>2026-04-15T14:09:47.17Z</time></trkpt><trkpt lat="44.2908516" lon="8.2825448"><ele>483.0</ele><time>2026-04-15T14:09:49.171Z</time></trkpt><trkpt lat="44.2907871" lon="8.2824778"><ele>483.0</ele><time>2026-04-15T14:09:51.172Z</time></trkpt><trkpt lat="44.290719" lon="8.282412"><ele>483.0</ele><time>2026-04-15T14:09:53.172Z</time></trkpt><trkpt lat="44.2906558" lon="8.282351"><ele>483.0</ele><time>2026-04-15T14:09:55.172Z</time></trkpt><trkpt lat="44.290594" lon="8.2822922"><ele>483.0</ele><time>2026-04-15T14:09:57.17Z</time></trkpt><trkpt lat="44.2905349" lon="8.2822237"><ele>483.0</ele><time>2026-04-15T14:09:59.17Z</time></trkpt><trkpt lat="44.2904799" lon="8.2821572"><ele>483.0</ele><time>2026-04-15T14:10:01.172Z</time></trkpt><trkpt lat="44.2904234" lon="8.2820922"><ele>483.0</ele><time>2026-04-15T14:10:03.17Z</time></trkpt><trkpt lat="44.2903669" lon="8.2820254"><ele>483.0</ele><time>2026-04-15T14:10:05.172Z</time></trkpt><trkpt lat="44.2903063" lon="8.2819598"><ele>483.0</ele><time>2026-04-15T14:10:07.171Z</time></trkpt><trkpt lat="44.2902397" lon="8.2818933"><ele>483.0</ele><time>2026-04-15T14:10:09.171Z</time></trkpt><trkpt lat="44.2901696" lon="8.2818364"><ele>483.0</ele><time>2026-04-15T14:10:11.171Z</time></trkpt><trkpt lat="44.2901008" lon="8.281783"><ele>483.0</ele><time>2026-04-15T14:10:13.172Z</time></trkpt><trkpt lat="44.2900314" lon="8.2817321"><ele>483.0</ele><time>2026-04-15T14:10:15.171Z</time></trkpt><trkpt lat="44.2899626" lon="8.2816874"><ele>483.0</ele><time>2026-04-15T14:10:17.171Z</time></trkpt><trkpt lat="44.2899023" lon="8.2816237"><ele>483.0</ele><time>2026-04-15T14:10:19.171Z</time></trkpt><trkpt lat="44.2898429" lon="8.2815503"><ele>483.0</ele><time>2026-04-15T14:10:21.171Z</time></trkpt><trkpt lat="44.289776" lon="8.2814754"><ele>483.0</ele><time>2026-04-15T14:10:23.171Z</time></trkpt><trkpt lat="44.2897123" lon="8.2813981"><ele>483.0</ele><time>2026-04-15T14:10:25.17Z</time></trkpt><trkpt lat="44.2896473" lon="8.2813192"><ele>484.0</ele><time>2026-04-15T14:10:27.169Z</time></trkpt><trkpt lat="44.2895819" lon="8.2812418"><ele>485.0</ele><time>2026-04-15T14:10:29.172Z</time></trkpt><trkpt lat="44.2895161" lon="8.2811704"><ele>486.0</ele><time>2026-04-15T14:10:31.171Z</time></trkpt><trkpt lat="44.2894512" lon="8.2811149"><ele>487.0</ele><time>2026-04-15T14:10:33.171Z</time></trkpt><trkpt lat="44.2893929" lon="8.2810706"><ele>488.0</ele><time>2026-04-15T14:10:35.169Z</time></trkpt><trkpt lat="44.289326" lon="8.2810268"><ele>489.0</ele><time>2026-04-15T14:10:37.17Z</time></trkpt><trkpt lat="44.2892565" lon="8.2809873"><ele>489.0</ele><time>2026-04-15T14:10:39.172Z</time></trkpt><trkpt lat="44.289191" lon="8.2809462"><ele>489.00000000000006</ele><time>2026-04-15T14:10:41.172Z</time></trkpt><trkpt lat="44.2891301" lon="8.2808979"><ele>489.0</ele><time>2026-04-15T14:10:43.17Z</time></trkpt><trkpt lat="44.2890613" lon="8.2808601"><ele>489.0</ele><time>2026-04-15T14:10:45.169Z</time></trkpt><trkpt lat="44.2889887" lon="8.2808361"><ele>489.00000000000006</ele><time>2026-04-15T14:10:47.17Z</time></trkpt><trkpt lat="44.2889133" lon="8.2808118"><ele>489.0</ele><time>2026-04-15T14:10:49.171Z</time></trkpt><trkpt lat="44.2888368" lon="8.2807863"><ele>489.0</ele><time>2026-04-15T14:10:51.171Z</time></trkpt><trkpt lat="44.2887631" lon="8.2807557"><ele>489.8333333333333</ele><time>2026-04-15T14:10:53.171Z</time></trkpt><trkpt lat="44.2886903" lon="8.2807241"><ele>490.66666666666663</ele><time>2026-04-15T14:10:55.171Z</time></trkpt><trkpt lat="44.2886135" lon="8.2806898"><ele>491.5</ele><time>2026-04-15T14:10:57.17Z</time></trkpt><trkpt lat="44.2885344" lon="8.2806431"><ele>492.3333333333333</ele><time>2026-04-15T14:10:59.171Z</time></trkpt><trkpt lat="44.2884518" lon="8.2805823"><ele>493.16666666666663</ele><time>2026-04-15T14:11:01.171Z</time></trkpt><trkpt lat="44.2883715" lon="8.2805344"><ele>494.0</ele><time>2026-04-15T14:11:03.171Z</time></trkpt><trkpt lat="44.2882914" lon="8.2805004"><ele>493.99999999999994</ele><time>2026-04-15T14:11:05.171Z</time></trkpt><trkpt lat="44.2882135" lon="8.2804507"><ele>494.0</ele><time>2026-04-15T14:11:07.172Z</time></trkpt><trkpt lat="44.2881396" lon="8.2804058"><ele>494.0</ele><time>2026-04-15T14:11:09.171Z</time></trkpt><trkpt lat="44.288066" lon="8.2803568"><ele>494.0</ele><time>2026-04-15T14:11:11.171Z</time></trkpt><trkpt lat="44.2879967" lon="8.2803026"><ele>493.99999999999994</ele><time>2026-04-15T14:11:13.171Z</time></trkpt><trkpt lat="44.2879193" lon="8.2802557"><ele>494.0</ele><time>2026-04-15T14:11:15.171Z</time></trkpt><trkpt lat="44.2878397" lon="8.2802098"><ele>492.16666666666663</ele><time>2026-04-15T14:11:17.171Z</time></trkpt><trkpt lat="44.2877591" lon="8.2801677"><ele>490.3333333333333</ele><time>2026-04-15T14:11:19.171Z</time></trkpt><trkpt lat="44.28768" lon="8.28013"><ele>488.5</ele><time>2026-04-15T14:11:21.171Z</time></trkpt><trkpt lat="44.2876019" lon="8.2801005"><ele>486.66666666666663</ele><time>2026-04-15T14:11:23.171Z</time></trkpt><trkpt lat="44.2875282" lon="8.2800596"><ele>484.8333333333333</ele><time>2026-04-15T14:11:25.172Z</time></trkpt><trkpt lat="44.2874589" lon="8.2800166"><ele>483.0</ele><time>2026-04-15T14:11:27.17Z</time></trkpt><trkpt lat="44.2873903" lon="8.2799727"><ele>483.0</ele><time>2026-04-15T14:11:29.171Z</time></trkpt><trkpt lat="44.2873182" lon="8.279925"><ele>483.0</ele><time>2026-04-15T14:11:31.171Z</time></trkpt><trkpt lat="44.2872464" lon="8.2798651"><ele>483.0</ele><time>2026-04-15T14:11:33.17Z</time></trkpt><trkpt lat="44.2871851" lon="8.2797969"><ele>483.0</ele><time>2026-04-15T14:11:35.172Z</time></trkpt><trkpt lat="44.287136" lon="8.2797189"><ele>483.0</ele><time>2026-04-15T14:11:37.171Z</time></trkpt><trkpt lat="44.287095" lon="8.2796323"><ele>483.0</ele><time>2026-04-15T14:11:39.171Z</time></trkpt><trkpt lat="44.2870664" lon="8.2795433"><ele>483.0</ele><time>2026-04-15T14:11:41.171Z</time></trkpt><trkpt lat="44.2870354" lon="8.2794593"><ele>483.0</ele><time>2026-04-15T14:11:43.17Z</time></trkpt><trkpt lat="44.2870094" lon="8.2793704"><ele>483.0</ele><time>2026-04-15T14:11:45.172Z</time></trkpt><trkpt lat="44.2869886" lon="8.2792775"><ele>483.0</ele><time>2026-04-15T14:11:47.171Z</time></trkpt><trkpt lat="44.2869566" lon="8.2791891"><ele>483.0</ele><time>2026-04-15T14:11:49.171Z</time></trkpt><trkpt lat="44.2869268" lon="8.2791031"><ele>483.0</ele><time>2026-04-15T14:11:51.17Z</time></trkpt><trkpt lat="44.2868985" lon="8.2790194"><ele>483.0</ele><time>2026-04-15T14:11:53.17Z</time></trkpt><trkpt lat="44.2868726" lon="8.2789351"><ele>484.0</ele><time>2026-04-15T14:11:55.171Z</time></trkpt><trkpt lat="44.286845" lon="8.278847"><ele>485.0</ele><time>2026-04-15T14:11:57.172Z</time></trkpt><trkpt lat="44.2868194" lon="8.2787607"><ele>486.0</ele><time>2026-04-15T14:11:59.171Z</time></trkpt><trkpt lat="44.2867928" lon="8.2786772"><ele>487.0</ele><time>2026-04-15T14:12:01.171Z</time></trkpt><trkpt lat="44.2867618" lon="8.2785928"><ele>488.0</ele><time>2026-04-15T14:12:03.17Z</time></trkpt><trkpt lat="44.2867362" lon="8.2785073"><ele>489.0</ele><time>2026-04-15T14:12:05.171Z</time></trkpt><trkpt lat="44.2867204" lon="8.278419"><ele>490.0</ele><time>2026-04-15T14:12:07.17Z</time></trkpt><trkpt lat="44.2866937" lon="8.2783361"><ele>490.00000000000006</ele><time>2026-04-15T14:12:09.172Z</time></trkpt><trkpt lat="44.2866635" lon="8.2782518"><ele>490.0</ele><time>2026-04-15T14:12:11.169Z</time></trkpt><trkpt lat="44.2866341" lon="8.2781641"><ele>490.0</ele><time>2026-04-15T14:12:13.171Z</time></trkpt><trkpt lat="44.2866094" lon="8.2780804"><ele>490.0</ele><time>2026-04-15T14:12:15.171Z</time></trkpt><trkpt lat="44.2865684" lon="8.2779622"><ele>490.00000000000006</ele><time>2026-04-15T14:12:18.172Z</time></trkpt><trkpt lat="44.2865351" lon="8.27784"><ele>490.0</ele><time>2026-04-15T14:12:21.171Z</time></trkpt><trkpt lat="44.2864941" lon="8.2777198"><ele>489.8571428571429</ele><time>2026-04-15T14:12:24.171Z</time></trkpt><trkpt lat="44.2864612" lon="8.2776356"><ele>489.7142857142857</ele><time>2026-04-15T14:12:26.171Z</time></trkpt><trkpt lat="44.2864444" lon="8.2775424"><ele>489.57142857142856</ele><time>2026-04-15T14:12:28.169Z</time></trkpt><trkpt lat="44.2864222" lon="8.2774474"><ele>489.42857142857144</ele><time>2026-04-15T14:12:30.171Z</time></trkpt><trkpt lat="44.2864061" lon="8.2773558"><ele>489.28571428571433</ele><time>2026-04-15T14:12:32.171Z</time></trkpt><trkpt lat="44.2863902" lon="8.2772661"><ele>489.14285714285717</ele><time>2026-04-15T14:12:34.171Z</time></trkpt><trkpt lat="44.2863728" lon="8.277176"><ele>489.0</ele><time>2026-04-15T14:12:36.171Z</time></trkpt><trkpt lat="44.2863535" lon="8.2770869"><ele>489.0</ele><time>2026-04-15T14:12:38.17Z</time></trkpt><trkpt lat="44.2863298" lon="8.2770001"><ele>489.0</ele><time>2026-04-15T14:12:40.17Z</time></trkpt><trkpt lat="44.2863127" lon="8.2769136"><ele>489.0</ele><time>2026-04-15T14:12:42.17Z</time></trkpt><trkpt lat="44.2862892" lon="8.2767907"><ele>489.0</ele><time>2026-04-15T14:12:45.171Z</time></trkpt><trkpt lat="44.2862479" lon="8.2766815"><ele>489.0</ele><time>2026-04-15T14:12:48.171Z</time></trkpt><trkpt lat="44.2862178" lon="8.2765901"><ele>489.0</ele><time>2026-04-15T14:12:50.17Z</time></trkpt><trkpt lat="44.2861833" lon="8.2764827"><ele>489.5</ele><time>2026-04-15T14:12:52.171Z</time></trkpt><trkpt lat="44.2861507" lon="8.2763698"><ele>490.0</ele><time>2026-04-15T14:12:54.171Z</time></trkpt><trkpt lat="44.2861166" lon="8.2762583"><ele>490.5</ele><time>2026-04-15T14:12:56.17Z</time></trkpt><trkpt lat="44.2860853" lon="8.2761484"><ele>491.0</ele><time>2026-04-15T14:12:58.171Z</time></trkpt><trkpt lat="44.2860558" lon="8.2760384"><ele>491.5</ele><time>2026-04-15T14:13:00.171Z</time></trkpt><trkpt lat="44.2860272" lon="8.2759316"><ele>492.0</ele><time>2026-04-15T14:13:02.171Z</time></trkpt><trkpt lat="44.2860046" lon="8.2758233"><ele>492.0</ele><time>2026-04-15T14:13:04.17Z</time></trkpt><trkpt lat="44.2859962" lon="8.2757092"><ele>492.0</ele><time>2026-04-15T14:13:06.17Z</time></trkpt><trkpt lat="44.2859922" lon="8.2755926"><ele>492.0</ele><time>2026-04-15T14:13:08.17Z</time></trkpt><trkpt lat="44.2859893" lon="8.2754755"><ele>492.0</ele><time>2026-04-15T14:13:10.17Z</time></trkpt><trkpt lat="44.2859847" lon="8.2753569"><ele>492.0</ele><time>2026-04-15T14:13:12.17Z</time></trkpt><trkpt lat="44.2859846" lon="8.2752403"><ele>492.0</ele><time>2026-04-15T14:13:14.17Z</time></trkpt><trkpt lat="44.2859882" lon="8.2751274"><ele>492.6666666666667</ele><time>2026-04-15T14:13:16.17Z</time></trkpt><trkpt lat="44.2859966" lon="8.2750153"><ele>493.33333333333337</ele><time>2026-04-15T14:13:18.171Z</time></trkpt><trkpt lat="44.2859995" lon="8.2749072"><ele>494.0</ele><time>2026-04-15T14:13:20.17Z</time></trkpt><trkpt lat="44.2859957" lon="8.2747941"><ele>494.6666666666667</ele><time>2026-04-15T14:13:22.171Z</time></trkpt><trkpt lat="44.2859932" lon="8.2746796"><ele>495.33333333333337</ele><time>2026-04-15T14:13:24.17Z</time></trkpt><trkpt lat="44.2859961" lon="8.2745728"><ele>496.0</ele><time>2026-04-15T14:13:26.171Z</time></trkpt><trkpt lat="44.2859943" lon="8.274473"><ele>497.00000000000006</ele><time>2026-04-15T14:13:28.171Z</time></trkpt><trkpt lat="44.2859859" lon="8.2743842"><ele>498.0</ele><time>2026-04-15T14:13:30.171Z</time></trkpt><trkpt lat="44.2859731" lon="8.2742644"><ele>499.0</ele><time>2026-04-15T14:13:33.171Z</time></trkpt><trkpt lat="44.285963" lon="8.2741485"><ele>500.0</ele><time>2026-04-15T14:13:36.17Z</time></trkpt><trkpt lat="44.285952" lon="8.2740319"><ele>501.00000000000006</ele><time>2026-04-15T14:13:39.17Z</time></trkpt><trkpt lat="44.2859205" lon="8.2739192"><ele>502.0</ele><time>2026-04-15T14:13:42.171Z</time></trkpt><trkpt lat="44.28588" lon="8.2738119"><ele>502.6666666666667</ele><time>2026-04-15T14:13:45.17Z</time></trkpt><trkpt lat="44.2858472" lon="8.2737095"><ele>503.33333333333337</ele><time>2026-04-15T14:13:48.169Z</time></trkpt><trkpt lat="44.2857919" lon="8.2735898"><ele>504.0</ele><time>2026-04-15T14:13:51.17Z</time></trkpt><trkpt lat="44.2857358" lon="8.2735164"><ele>504.66666666666663</ele><time>2026-04-15T14:13:53.172Z</time></trkpt><trkpt lat="44.2856678" lon="8.2734456"><ele>505.3333333333333</ele><time>2026-04-15T14:13:56.171Z</time></trkpt><trkpt lat="44.2856089" lon="8.2733838"><ele>506.0</ele><time>2026-04-15T14:13:59.17Z</time></trkpt><trkpt lat="44.2855408" lon="8.2733466"><ele>505.99999999999994</ele><time>2026-04-15T14:14:03.172Z</time></trkpt><trkpt lat="44.2854658" lon="8.2733094"><ele>506.0</ele><time>2026-04-15T14:14:06.169Z</time></trkpt><trkpt lat="44.285392" lon="8.2732838"><ele>506.0</ele><time>2026-04-15T14:14:09.169Z</time></trkpt><trkpt lat="44.2853221" lon="8.2732518"><ele>506.0</ele><time>2026-04-15T14:14:12.17Z</time></trkpt><trkpt lat="44.2852471" lon="8.2732168"><ele>505.99999999999994</ele><time>2026-04-15T14:14:15.169Z</time></trkpt><trkpt lat="44.285178" lon="8.2731864"><ele>506.0</ele><time>2026-04-15T14:14:18.17Z</time></trkpt><trkpt lat="44.2851055" lon="8.2731564"><ele>506.00000000000006</ele><time>2026-04-15T14:14:21.171Z</time></trkpt><trkpt lat="44.285042" lon="8.273128"><ele>506.0</ele><time>2026-04-15T14:14:24.17Z</time></trkpt><trkpt lat="44.2849768" lon="8.2731005"><ele>506.00000000000006</ele><time>2026-04-15T14:14:27.171Z</time></trkpt><trkpt lat="44.2849066" lon="8.273066"><ele>506.00000000000006</ele><time>2026-04-15T14:14:30.17Z</time></trkpt><trkpt lat="44.2848369" lon="8.2730281"><ele>506.0</ele><time>2026-04-15T14:14:33.17Z</time></trkpt><trkpt lat="44.2847668" lon="8.2729758"><ele>506.00000000000006</ele><time>2026-04-15T14:14:36.171Z</time></trkpt><trkpt lat="44.2847098" lon="8.2729174"><ele>506.00000000000006</ele><time>2026-04-15T14:14:39.17Z</time></trkpt><trkpt lat="44.2846415" lon="8.2728732"><ele>507.00000000000006</ele><time>2026-04-15T14:14:42.17Z</time></trkpt><trkpt lat="44.2845791" lon="8.2728244"><ele>508.0</ele><time>2026-04-15T14:14:45.171Z</time></trkpt><trkpt lat="44.2845212" lon="8.272783"><ele>509.00000000000006</ele><time>2026-04-15T14:14:48.17Z</time></trkpt><trkpt lat="44.2844539" lon="8.2727521"><ele>510.00000000000006</ele><time>2026-04-15T14:14:51.171Z</time></trkpt><trkpt lat="44.2843925" lon="8.2727142"><ele>511.0</ele><time>2026-04-15T14:14:54.17Z</time></trkpt><trkpt lat="44.2843292" lon="8.2726814"><ele>512.0000000000001</ele><time>2026-04-15T14:14:57.17Z</time></trkpt><trkpt lat="44.2842612" lon="8.2726432"><ele>513.0</ele><time>2026-04-15T14:15:00.17Z</time></trkpt><trkpt lat="44.2842032" lon="8.27259"><ele>513.0000000000001</ele><time>2026-04-15T14:15:03.17Z</time></trkpt><trkpt lat="44.2841467" lon="8.2725347"><ele>513.0</ele><time>2026-04-15T14:15:06.171Z</time></trkpt><trkpt lat="44.2841042" lon="8.2724399"><ele>513.0</ele><time>2026-04-15T14:15:09.17Z</time></trkpt><trkpt lat="44.2840778" lon="8.2723347"><ele>513.0</ele><time>2026-04-15T14:15:12.17Z</time></trkpt><trkpt lat="44.2840519" lon="8.2722477"><ele>513.0</ele><time>2026-04-15T14:15:15.171Z</time></trkpt><trkpt lat="44.284024" lon="8.2721494"><ele>513.0000000000001</ele><time>2026-04-15T14:15:18.169Z</time></trkpt><trkpt lat="44.2839958" lon="8.2720584"><ele>513.0</ele><time>2026-04-15T14:15:21.17Z</time></trkpt><trkpt lat="44.2839742" lon="8.2719558"><ele>513.4285714285714</ele><time>2026-04-15T14:15:24.17Z</time></trkpt><trkpt lat="44.283945" lon="8.2718699"><ele>513.8571428571429</ele><time>2026-04-15T14:15:27.17Z</time></trkpt><trkpt lat="44.283904" lon="8.2717836"><ele>514.2857142857142</ele><time>2026-04-15T14:15:30.168Z</time></trkpt><trkpt lat="44.2838749" lon="8.271702"><ele>514.7142857142858</ele><time>2026-04-15T14:15:33.17Z</time></trkpt><trkpt lat="44.2838241" lon="8.271632"><ele>515.1428571428571</ele><time>2026-04-15T14:15:37.171Z</time></trkpt><trkpt lat="44.2837426" lon="8.2715711"><ele>515.5714285714286</ele><time>2026-04-15T14:15:41.17Z</time></trkpt><trkpt lat="44.2836985" lon="8.2715054"><ele>516.0</ele><time>2026-04-15T14:15:44.171Z</time></trkpt><trkpt lat="44.2836553" lon="8.2714308"><ele>520.7142857142857</ele><time>2026-04-15T14:15:47.171Z</time></trkpt><trkpt lat="44.283606" lon="8.2713627"><ele>525.4285714285714</ele><time>2026-04-15T14:15:50.171Z</time></trkpt><trkpt lat="44.2835446" lon="8.2712961"><ele>530.1428571428571</ele><time>2026-04-15T14:15:53.168Z</time></trkpt><trkpt lat="44.2834849" lon="8.271256"><ele>534.8571428571429</ele><time>2026-04-15T14:15:56.17Z</time></trkpt><trkpt lat="44.2834242" lon="8.2712158"><ele>539.5714285714286</ele><time>2026-04-15T14:15:59.168Z</time></trkpt><trkpt lat="44.2833631" lon="8.2711758"><ele>544.2857142857142</ele><time>2026-04-15T14:16:02.17Z</time></trkpt><trkpt lat="44.2833009" lon="8.2711403"><ele>549.0</ele><time>2026-04-15T14:16:05.17Z</time></trkpt><trkpt lat="44.2832448" lon="8.2710886"><ele>549.0</ele><time>2026-04-15T14:16:08.169Z</time></trkpt><trkpt lat="44.2831673" lon="8.2710512"><ele>549.0</ele><time>2026-04-15T14:16:12.171Z</time></trkpt><trkpt lat="44.283084" lon="8.2710296"><ele>549.0</ele><time>2026-04-15T14:16:16.17Z</time></trkpt><trkpt lat="44.2830066" lon="8.2709903"><ele>549.0</ele><time>2026-04-15T14:16:20.17Z</time></trkpt><trkpt lat="44.2829453" lon="8.2709651"><ele>549.0</ele><time>2026-04-15T14:16:23.169Z</time></trkpt><trkpt lat="44.2828822" lon="8.2709377"><ele>549.0</ele><time>2026-04-15T14:16:26.171Z</time></trkpt><trkpt lat="44.2828274" lon="8.2708911"><ele>549.0</ele><time>2026-04-15T14:16:29.169Z</time></trkpt><trkpt lat="44.2827856" lon="8.2707952"><ele>545.4285714285714</ele><time>2026-04-15T14:16:33.171Z</time></trkpt><trkpt lat="44.2828025" lon="8.2706793"><ele>541.8571428571429</ele><time>2026-04-15T14:16:37.17Z</time></trkpt><trkpt lat="44.2828326" lon="8.2705944"><ele>538.2857142857143</ele><time>2026-04-15T14:16:40.17Z</time></trkpt><trkpt lat="44.282869" lon="8.2705001"><ele>534.7142857142858</ele><time>2026-04-15T14:16:43.17Z</time></trkpt><trkpt lat="44.2828979" lon="8.2704186"><ele>531.1428571428572</ele><time>2026-04-15T14:16:46.169Z</time></trkpt><trkpt lat="44.2829269" lon="8.2703387"><ele>527.5714285714286</ele><time>2026-04-15T14:16:49.171Z</time></trkpt><trkpt lat="44.2829638" lon="8.2702545"><ele>524.0</ele><time>2026-04-15T14:16:52.169Z</time></trkpt><trkpt lat="44.2829952" lon="8.2701695"><ele>523.5714285714286</ele><time>2026-04-15T14:16:55.17Z</time></trkpt><trkpt lat="44.283028" lon="8.2700882"><ele>523.1428571428572</ele><time>2026-04-15T14:16:58.17Z</time></trkpt><trkpt lat="44.2830675" lon="8.269992"><ele>522.7142857142858</ele><time>2026-04-15T14:17:02.17Z</time></trkpt><trkpt lat="44.2830955" lon="8.2699081"><ele>522.2857142857143</ele><time>2026-04-15T14:17:05.17Z</time></trkpt><trkpt lat="44.2831256" lon="8.2698028"><ele>521.8571428571429</ele><time>2026-04-15T14:17:09.17Z</time></trkpt><trkpt lat="44.2831539" lon="8.2697158"><ele>521.4285714285714</ele><time>2026-04-15T14:17:12.168Z</time></trkpt><trkpt lat="44.2831784" lon="8.2696245"><ele>521.0</ele><time>2026-04-15T14:17:15.169Z</time></trkpt><trkpt lat="44.2832144" lon="8.2695359"><ele>525.0</ele><time>2026-04-15T14:17:18.169Z</time></trkpt><trkpt lat="44.2832581" lon="8.2694409"><ele>529.0</ele><time>2026-04-15T14:17:21.168Z</time></trkpt><trkpt lat="44.283305" lon="8.2693644"><ele>533.0</ele><time>2026-04-15T14:17:24.17Z</time></trkpt><trkpt lat="44.2833675" lon="8.2692971"><ele>537.0</ele><time>2026-04-15T14:17:27.171Z</time></trkpt><trkpt lat="44.2834338" lon="8.2692465"><ele>541.0</ele><time>2026-04-15T14:17:30.169Z</time></trkpt><trkpt lat="44.2834906" lon="8.2691814"><ele>545.0</ele><time>2026-04-15T14:17:33.17Z</time></trkpt><trkpt lat="44.2835437" lon="8.2691058"><ele>545.0</ele><time>2026-04-15T14:17:36.17Z</time></trkpt><trkpt lat="44.2835828" lon="8.2690191"><ele>545.0</ele><time>2026-04-15T14:17:39.17Z</time></trkpt><trkpt lat="44.2836128" lon="8.2689244"><ele>545.0</ele><time>2026-04-15T14:17:42.17Z</time></trkpt><trkpt lat="44.283627" lon="8.2688216"><ele>545.0</ele><time>2026-04-15T14:17:45.17Z</time></trkpt><trkpt lat="44.283644" lon="8.2687241"><ele>545.0</ele><time>2026-04-15T14:17:48.17Z</time></trkpt><trkpt lat="44.2836547" lon="8.2686257"><ele>545.0</ele><time>2026-04-15T14:17:51.169Z</time></trkpt><trkpt lat="44.2836704" lon="8.2685265"><ele>545.0</ele><time>2026-04-15T14:17:54.17Z</time></trkpt><trkpt lat="44.2836794" lon="8.2684197"><ele>545.1666666666666</ele><time>2026-04-15T14:17:57.168Z</time></trkpt><trkpt lat="44.2836878" lon="8.2683128"><ele>545.3333333333333</ele><time>2026-04-15T14:18:00.17Z</time></trkpt><trkpt lat="44.2836858" lon="8.2682042"><ele>545.5</ele><time>2026-04-15T14:18:03.171Z</time></trkpt><trkpt lat="44.2836803" lon="8.2680778"><ele>545.6666666666666</ele><time>2026-04-15T14:18:06.171Z</time></trkpt><trkpt lat="44.283666" lon="8.2679488"><ele>545.8333333333334</ele><time>2026-04-15T14:18:09.17Z</time></trkpt><trkpt lat="44.2836489" lon="8.2678635"><ele>546.0</ele><time>2026-04-15T14:18:11.171Z</time></trkpt><trkpt lat="44.2836418" lon="8.2677434"><ele>547.1666666666666</ele><time>2026-04-15T14:18:14.17Z</time></trkpt><trkpt lat="44.2836193" lon="8.2676607"><ele>548.3333333333334</ele><time>2026-04-15T14:18:16.17Z</time></trkpt><trkpt lat="44.2836" lon="8.2675381"><ele>549.5</ele><time>2026-04-15T14:18:19.17Z</time></trkpt><trkpt lat="44.2835804" lon="8.2674134"><ele>550.6666666666667</ele><time>2026-04-15T14:18:22.17Z</time></trkpt><trkpt lat="44.283561" lon="8.2673196"><ele>551.8333333333334</ele><time>2026-04-15T14:18:24.169Z</time></trkpt><trkpt lat="44.2835437" lon="8.2672302"><ele>553.0</ele><time>2026-04-15T14:18:26.171Z</time></trkpt><trkpt lat="44.2835246" lon="8.2671083"><ele>554.1666666666667</ele><time>2026-04-15T14:18:29.17Z</time></trkpt><trkpt lat="44.283506" lon="8.2669844"><ele>555.3333333333334</ele><time>2026-04-15T14:18:32.168Z</time></trkpt><trkpt lat="44.2834809" lon="8.2668633"><ele>556.5</ele><time>2026-04-15T14:18:35.17Z</time></trkpt><trkpt lat="44.2834676" lon="8.2667414"><ele>557.6666666666666</ele><time>2026-04-15T14:18:38.17Z</time></trkpt><trkpt lat="44.2834559" lon="8.2666239"><ele>558.8333333333333</ele><time>2026-04-15T14:18:41.17Z</time></trkpt><trkpt lat="44.283444" lon="8.2665111"><ele>560.0</ele><time>2026-04-15T14:18:44.17Z</time></trkpt><trkpt lat="44.2834485" lon="8.2663918"><ele>560.3333333333333</ele><time>2026-04-15T14:18:47.169Z</time></trkpt><trkpt lat="44.2834405" lon="8.2662798"><ele>560.6666666666666</ele><time>2026-04-15T14:18:50.169Z</time></trkpt><trkpt lat="44.2834302" lon="8.2661667"><ele>561.0</ele><time>2026-04-15T14:18:53.17Z</time></trkpt><trkpt lat="44.2834269" lon="8.2660564"><ele>561.3333333333334</ele><time>2026-04-15T14:18:56.17Z</time></trkpt><trkpt lat="44.2834173" lon="8.2659446"><ele>561.6666666666667</ele><time>2026-04-15T14:18:59.17Z</time></trkpt><trkpt lat="44.2834144" lon="8.2658305"><ele>562.0</ele><time>2026-04-15T14:19:02.17Z</time></trkpt><trkpt lat="44.2834212" lon="8.2657169"><ele>562.8333333333334</ele><time>2026-04-15T14:19:05.171Z</time></trkpt><trkpt lat="44.2834272" lon="8.2655961"><ele>563.6666666666667</ele><time>2026-04-15T14:19:08.171Z</time></trkpt><trkpt lat="44.2834516" lon="8.2654799"><ele>564.5</ele><time>2026-04-15T14:19:11.17Z</time></trkpt><trkpt lat="44.2834697" lon="8.2653612"><ele>565.3333333333334</ele><time>2026-04-15T14:19:14.171Z</time></trkpt><trkpt lat="44.2835063" lon="8.2652444"><ele>566.1666666666666</ele><time>2026-04-15T14:19:17.17Z</time></trkpt><trkpt lat="44.2835301" lon="8.2651289"><ele>567.0</ele><time>2026-04-15T14:19:20.171Z</time></trkpt><trkpt lat="44.2835431" lon="8.2650104"><ele>567.0</ele><time>2026-04-15T14:19:23.169Z</time></trkpt><trkpt lat="44.283534" lon="8.2648855"><ele>567.0</ele><time>2026-04-15T14:19:26.17Z</time></trkpt><trkpt lat="44.2835414" lon="8.2647616"><ele>567.0</ele><time>2026-04-15T14:19:29.17Z</time></trkpt><trkpt lat="44.2835338" lon="8.2646429"><ele>567.0</ele><time>2026-04-15T14:19:32.169Z</time></trkpt><trkpt lat="44.2835154" lon="8.2645163"><ele>567.0</ele><time>2026-04-15T14:19:35.17Z</time></trkpt><trkpt lat="44.2834999" lon="8.2644266"><ele>567.0</ele><time>2026-04-15T14:19:37.171Z</time></trkpt><trkpt lat="44.2834944" lon="8.264337"><ele>568.6666666666666</ele><time>2026-04-15T14:19:39.169Z</time></trkpt><trkpt lat="44.2835002" lon="8.2642239"><ele>570.3333333333334</ele><time>2026-04-15T14:19:42.17Z</time></trkpt><trkpt lat="44.283475" lon="8.2641229"><ele>572.0</ele><time>2026-04-15T14:19:45.168Z</time></trkpt><trkpt lat="44.2834611" lon="8.2640359"><ele>573.6666666666667</ele><time>2026-04-15T14:19:47.168Z</time></trkpt><trkpt lat="44.2834415" lon="8.2639105"><ele>575.3333333333334</ele><time>2026-04-15T14:19:50.17Z</time></trkpt><trkpt lat="44.2834367" lon="8.2637929"><ele>577.0</ele><time>2026-04-15T14:19:53.17Z</time></trkpt><trkpt lat="44.2834121" lon="8.2636811"><ele>579.0</ele><time>2026-04-15T14:19:56.17Z</time></trkpt><trkpt lat="44.2833926" lon="8.2635948"><ele>581.0</ele><time>2026-04-15T14:19:58.171Z</time></trkpt><trkpt lat="44.2833611" lon="8.2635051"><ele>583.0</ele><time>2026-04-15T14:20:00.169Z</time></trkpt><trkpt lat="44.2833318" lon="8.2634186"><ele>585.0</ele><time>2026-04-15T14:20:02.169Z</time></trkpt><trkpt lat="44.283289" lon="8.2633423"><ele>587.0</ele><time>2026-04-15T14:20:04.169Z</time></trkpt><trkpt lat="44.2832448" lon="8.2632743"><ele>589.0</ele><time>2026-04-15T14:20:06.17Z</time></trkpt><trkpt lat="44.2832013" lon="8.2632098"><ele>591.0</ele><time>2026-04-15T14:20:08.169Z</time></trkpt><trkpt lat="44.2831594" lon="8.2631416"><ele>591.0</ele><time>2026-04-15T14:20:10.167Z</time></trkpt><trkpt lat="44.2831244" lon="8.2630648"><ele>591.0</ele><time>2026-04-15T14:20:12.17Z</time></trkpt><trkpt lat="44.2830906" lon="8.2629529"><ele>591.0</ele><time>2026-04-15T14:20:15.168Z</time></trkpt><trkpt lat="44.2831293" lon="8.2628401"><ele>591.0</ele><time>2026-04-15T14:20:18.168Z</time></trkpt><trkpt lat="44.283176" lon="8.2627809"><ele>591.0</ele><time>2026-04-15T14:20:20.17Z</time></trkpt><trkpt lat="44.2832343" lon="8.2627402"><ele>591.0</ele><time>2026-04-15T14:20:22.168Z</time></trkpt><trkpt lat="44.2833023" lon="8.2627063"><ele>591.0</ele><time>2026-04-15T14:20:24.17Z</time></trkpt><trkpt lat="44.2833732" lon="8.2626896"><ele>591.0</ele><time>2026-04-15T14:20:26.169Z</time></trkpt><trkpt lat="44.2834406" lon="8.2626755"><ele>591.0</ele><time>2026-04-15T14:20:28.17Z</time></trkpt><trkpt lat="44.2835092" lon="8.2626675"><ele>591.0</ele><time>2026-04-15T14:20:30.169Z</time></trkpt><trkpt lat="44.2835866" lon="8.262657"><ele>591.0</ele><time>2026-04-15T14:20:32.168Z</time></trkpt><trkpt lat="44.2836816" lon="8.2626458"><ele>591.0</ele><time>2026-04-15T14:20:34.169Z</time></trkpt><trkpt lat="44.2837902" lon="8.2626284"><ele>591.0</ele><time>2026-04-15T14:20:36.169Z</time></trkpt><trkpt lat="44.2839141" lon="8.2626132"><ele>589.8333333333334</ele><time>2026-04-15T14:20:38.169Z</time></trkpt><trkpt lat="44.2839875" lon="8.2625937"><ele>588.6666666666666</ele><time>2026-04-15T14:20:39.169Z</time></trkpt><trkpt lat="44.2840522" lon="8.2625675"><ele>587.5</ele><time>2026-04-15T14:20:40.17Z</time></trkpt><trkpt lat="44.284125" lon="8.2625357"><ele>586.3333333333333</ele><time>2026-04-15T14:20:41.17Z</time></trkpt><trkpt lat="44.2842116" lon="8.2624933"><ele>585.1666666666666</ele><time>2026-04-15T14:20:42.17Z</time></trkpt><trkpt lat="44.2842911" lon="8.262443"><ele>584.0</ele><time>2026-04-15T14:20:43.169Z</time></trkpt><trkpt lat="44.2843675" lon="8.2623896"><ele>584.0</ele><time>2026-04-15T14:20:44.17Z</time></trkpt><trkpt lat="44.2844441" lon="8.2623273"><ele>584.0</ele><time>2026-04-15T14:20:45.169Z</time></trkpt><trkpt lat="44.2845231" lon="8.2622702"><ele>584.0</ele><time>2026-04-15T14:20:46.17Z</time></trkpt><trkpt lat="44.2846019" lon="8.2622262"><ele>584.0</ele><time>2026-04-15T14:20:47.168Z</time></trkpt><trkpt lat="44.2846901" lon="8.262192"><ele>584.0</ele><time>2026-04-15T14:20:48.17Z</time></trkpt><trkpt lat="44.2847815" lon="8.262169"><ele>584.0</ele><time>2026-04-15T14:20:49.168Z</time></trkpt><trkpt lat="44.2848509" lon="8.2621623"><ele>580.2</ele><time>2026-04-15T14:20:50.17Z</time></trkpt><trkpt lat="44.2849353" lon="8.2621548"><ele>576.4</ele><time>2026-04-15T14:20:51.168Z</time></trkpt><trkpt lat="44.2850018" lon="8.2621326"><ele>572.6</ele><time>2026-04-15T14:20:52.17Z</time></trkpt><trkpt lat="44.2850566" lon="8.2620517"><ele>568.8</ele><time>2026-04-15T14:20:54.169Z</time></trkpt><trkpt lat="44.2849847" lon="8.261901"><ele>565.0</ele><time>2026-04-15T14:20:56.167Z</time></trkpt><trkpt lat="44.2848942" lon="8.2618732"><ele>565.0</ele><time>2026-04-15T14:20:57.169Z</time></trkpt><trkpt lat="44.2848219" lon="8.2618824"><ele>565.0</ele><time>2026-04-15T14:20:58.169Z</time></trkpt><trkpt lat="44.2847403" lon="8.2618766"><ele>565.0</ele><time>2026-04-15T14:20:59.169Z</time></trkpt><trkpt lat="44.2846536" lon="8.2618774"><ele>565.0</ele><time>2026-04-15T14:21:00.169Z</time></trkpt><trkpt lat="44.2845758" lon="8.2619098"><ele>565.0</ele><time>2026-04-15T14:21:01.169Z</time></trkpt><trkpt lat="44.2845049" lon="8.2619272"><ele>565.0</ele><time>2026-04-15T14:21:02.17Z</time></trkpt><trkpt lat="44.284438" lon="8.2619646"><ele>564.5</ele><time>2026-04-15T14:21:03.168Z</time></trkpt><trkpt lat="44.2843679" lon="8.261964"><ele>564.0</ele><time>2026-04-15T14:21:04.169Z</time></trkpt><trkpt lat="44.2843062" lon="8.2619398"><ele>563.5</ele><time>2026-04-15T14:21:05.17Z</time></trkpt><trkpt lat="44.2843499" lon="8.2618447"><ele>563.0</ele><time>2026-04-15T14:21:06.169Z</time></trkpt><trkpt lat="44.28438" lon="8.2617661"><ele>562.5</ele><time>2026-04-15T14:21:07.169Z</time></trkpt><trkpt lat="44.2844974" lon="8.2616952"><ele>562.0</ele><time>2026-04-15T14:21:09.169Z</time></trkpt><trkpt lat="44.2845709" lon="8.2616688"><ele>562.0</ele><time>2026-04-15T14:21:10.169Z</time></trkpt><trkpt lat="44.2846515" lon="8.2616213"><ele>562.0</ele><time>2026-04-15T14:21:11.169Z</time></trkpt><trkpt lat="44.2847415" lon="8.2615686"><ele>562.0</ele><time>2026-04-15T14:21:12.169Z</time></trkpt><trkpt lat="44.2848273" lon="8.2615389"><ele>562.0</ele><time>2026-04-15T14:21:13.17Z</time></trkpt><trkpt lat="44.2849185" lon="8.2614951"><ele>562.0</ele><time>2026-04-15T14:21:14.169Z</time></trkpt><trkpt lat="44.2850295" lon="8.2614498"><ele>557.2</ele><time>2026-04-15T14:21:15.17Z</time></trkpt><trkpt lat="44.2851291" lon="8.2614125"><ele>552.4000000000001</ele><time>2026-04-15T14:21:16.17Z</time></trkpt><trkpt lat="44.2852546" lon="8.2614393"><ele>547.5999999999999</ele><time>2026-04-15T14:21:17.17Z</time></trkpt><trkpt lat="44.2853532" lon="8.2614353"><ele>542.8</ele><time>2026-04-15T14:21:18.17Z</time></trkpt><trkpt lat="44.2854462" lon="8.2614402"><ele>538.0</ele><time>2026-04-15T14:21:19.17Z</time></trkpt><trkpt lat="44.2855588" lon="8.2614433"><ele>538.0</ele><time>2026-04-15T14:21:20.168Z</time></trkpt><trkpt lat="44.2856553" lon="8.2614329"><ele>538.0</ele><time>2026-04-15T14:21:21.168Z</time></trkpt><trkpt lat="44.2857511" lon="8.2614259"><ele>538.0</ele><time>2026-04-15T14:21:22.17Z</time></trkpt><trkpt lat="44.2858344" lon="8.2614187"><ele>538.0</ele><time>2026-04-15T14:21:23.17Z</time></trkpt><trkpt lat="44.2859202" lon="8.2614151"><ele>538.0</ele><time>2026-04-15T14:21:24.168Z</time></trkpt><trkpt lat="44.2860012" lon="8.2614277"><ele>538.0</ele><time>2026-04-15T14:21:25.17Z</time></trkpt><trkpt lat="44.2860426" lon="8.261278"><ele>538.0</ele><time>2026-04-15T14:21:27.169Z</time></trkpt><trkpt lat="44.2860147" lon="8.2610756"><ele>538.0</ele><time>2026-04-15T14:21:29.17Z</time></trkpt><trkpt lat="44.2859162" lon="8.2610224"><ele>538.0</ele><time>2026-04-15T14:21:30.169Z</time></trkpt><trkpt lat="44.2858468" lon="8.2609644"><ele>538.0</ele><time>2026-04-15T14:21:31.168Z</time></trkpt><trkpt lat="44.2857625" lon="8.2608763"><ele>538.0</ele><time>2026-04-15T14:21:32.169Z</time></trkpt><trkpt lat="44.2856921" lon="8.2608227"><ele>538.0</ele><time>2026-04-15T14:21:33.169Z</time></trkpt><trkpt lat="44.28561" lon="8.2607583"><ele>538.0</ele><time>2026-04-15T14:21:34.169Z</time></trkpt><trkpt lat="44.28553" lon="8.2606976"><ele>538.0</ele><time>2026-04-15T14:21:35.17Z</time></trkpt><trkpt lat="44.2854047" lon="8.260653"><ele>538.0</ele><time>2026-04-15T14:21:36.17Z</time></trkpt><trkpt lat="44.2852802" lon="8.2607014"><ele>538.0</ele><time>2026-04-15T14:21:37.169Z</time></trkpt><trkpt lat="44.2851751" lon="8.2607321"><ele>538.0</ele><time>2026-04-15T14:21:38.169Z</time></trkpt><trkpt lat="44.285091" lon="8.2607656"><ele>538.0</ele><time>2026-04-15T14:21:39.167Z</time></trkpt><trkpt lat="44.2850207" lon="8.2608033"><ele>538.0</ele><time>2026-04-15T14:21:40.17Z</time></trkpt><trkpt lat="44.2849497" lon="8.2608358"><ele>538.0</ele><time>2026-04-15T14:21:41.168Z</time></trkpt><trkpt lat="44.2848747" lon="8.2608648"><ele>538.0</ele><time>2026-04-15T14:21:42.17Z</time></trkpt><trkpt lat="44.284862" lon="8.2607432"><ele>538.0</ele><time>2026-04-15T14:21:43.168Z</time></trkpt><trkpt lat="44.2849521" lon="8.260666"><ele>533.5</ele><time>2026-04-15T14:21:44.168Z</time></trkpt><trkpt lat="44.285012" lon="8.2606035"><ele>529.0</ele><time>2026-04-15T14:21:46.17Z</time></trkpt><trkpt lat="44.2850796" lon="8.2605536"><ele>524.5</ele><time>2026-04-15T14:21:47.168Z</time></trkpt><trkpt lat="44.2851652" lon="8.2605184"><ele>520.0</ele><time>2026-04-15T14:21:48.168Z</time></trkpt><trkpt lat="44.2852396" lon="8.26048"><ele>515.5</ele><time>2026-04-15T14:21:49.17Z</time></trkpt><trkpt lat="44.2853216" lon="8.2604321"><ele>511.0</ele><time>2026-04-15T14:21:50.168Z</time></trkpt><trkpt lat="44.2853965" lon="8.2603795"><ele>511.0</ele><time>2026-04-15T14:21:51.169Z</time></trkpt><trkpt lat="44.2854725" lon="8.2603308"><ele>511.0</ele><time>2026-04-15T14:21:52.169Z</time></trkpt><trkpt lat="44.2855641" lon="8.2602899"><ele>511.0</ele><time>2026-04-15T14:21:53.17Z</time></trkpt><trkpt lat="44.2856579" lon="8.2602275"><ele>511.0</ele><time>2026-04-15T14:21:54.17Z</time></trkpt><trkpt lat="44.2857514" lon="8.2601698"><ele>511.0</ele><time>2026-04-15T14:21:55.17Z</time></trkpt><trkpt lat="44.2858455" lon="8.2601391"><ele>512.0</ele><time>2026-04-15T14:21:56.171Z</time></trkpt><trkpt lat="44.28594" lon="8.260117"><ele>513.0</ele><time>2026-04-15T14:21:57.17Z</time></trkpt><trkpt lat="44.2860282" lon="8.26009"><ele>514.0</ele><time>2026-04-15T14:21:58.17Z</time></trkpt><trkpt lat="44.2861104" lon="8.2600826"><ele>515.0</ele><time>2026-04-15T14:21:59.17Z</time></trkpt><trkpt lat="44.2861875" lon="8.2601327"><ele>516.0</ele><time>2026-04-15T14:22:00.17Z</time></trkpt><trkpt lat="44.2862552" lon="8.2601925"><ele>517.0</ele><time>2026-04-15T14:22:01.169Z</time></trkpt><trkpt lat="44.2863196" lon="8.2602297"><ele>517.0</ele><time>2026-04-15T14:22:02.17Z</time></trkpt><trkpt lat="44.2863865" lon="8.2602669"><ele>517.0</ele><time>2026-04-15T14:22:03.168Z</time></trkpt><trkpt lat="44.2864346" lon="8.2601797"><ele>517.0</ele><time>2026-04-15T14:22:04.17Z</time></trkpt><trkpt lat="44.2864225" lon="8.2600425"><ele>517.0</ele><time>2026-04-15T14:22:06.169Z</time></trkpt><trkpt lat="44.286385" lon="8.2599591"><ele>517.0</ele><time>2026-04-15T14:22:07.17Z</time></trkpt><trkpt lat="44.2863257" lon="8.2598718"><ele>517.0</ele><time>2026-04-15T14:22:08.169Z</time></trkpt><trkpt lat="44.2862755" lon="8.259788"><ele>512.4</ele><time>2026-04-15T14:22:09.169Z</time></trkpt><trkpt lat="44.2862168" lon="8.2596922"><ele>507.80000000000007</ele><time>2026-04-15T14:22:10.168Z</time></trkpt><trkpt lat="44.2861632" lon="8.2595915"><ele>503.2</ele><time>2026-04-15T14:22:11.17Z</time></trkpt><trkpt lat="44.2860695" lon="8.2594972"><ele>498.6</ele><time>2026-04-15T14:22:12.169Z</time></trkpt><trkpt lat="44.2860052" lon="8.2593991"><ele>494.0</ele><time>2026-04-15T14:22:13.169Z</time></trkpt><trkpt lat="44.2858835" lon="8.2593817"><ele>494.0</ele><time>2026-04-15T14:22:14.169Z</time></trkpt><trkpt lat="44.2857696" lon="8.2593705"><ele>494.0</ele><time>2026-04-15T14:22:15.17Z</time></trkpt><trkpt lat="44.2856574" lon="8.2593659"><ele>494.0</ele><time>2026-04-15T14:22:16.169Z</time></trkpt><trkpt lat="44.2855335" lon="8.2593744"><ele>494.0</ele><time>2026-04-15T14:22:17.169Z</time></trkpt><trkpt lat="44.2854315" lon="8.2593987"><ele>493.8333333333333</ele><time>2026-04-15T14:22:18.169Z</time></trkpt><trkpt lat="44.2853392" lon="8.2594437"><ele>493.66666666666663</ele><time>2026-04-15T14:22:19.17Z</time></trkpt><trkpt lat="44.285271" lon="8.2594891"><ele>493.5</ele><time>2026-04-15T14:22:20.169Z</time></trkpt><trkpt lat="44.2852028" lon="8.2595017"><ele>493.33333333333337</ele><time>2026-04-15T14:22:21.17Z</time></trkpt><trkpt lat="44.2851406" lon="8.2595238"><ele>493.1666666666667</ele><time>2026-04-15T14:22:22.169Z</time></trkpt><trkpt lat="44.2850715" lon="8.2594453"><ele>493.0</ele><time>2026-04-15T14:22:24.17Z</time></trkpt><trkpt lat="44.2851558" lon="8.2593319"><ele>493.00000000000006</ele><time>2026-04-15T14:22:26.169Z</time></trkpt><trkpt lat="44.2852157" lon="8.259287"><ele>493.0</ele><time>2026-04-15T14:22:27.169Z</time></trkpt><trkpt lat="44.28528" lon="8.2592335"><ele>493.0</ele><time>2026-04-15T14:22:28.168Z</time></trkpt><trkpt lat="44.2853584" lon="8.2591816"><ele>493.0</ele><time>2026-04-15T14:22:29.169Z</time></trkpt><trkpt lat="44.2854314" lon="8.2591227"><ele>493.00000000000006</ele><time>2026-04-15T14:22:30.169Z</time></trkpt><trkpt lat="44.285504" lon="8.2590623"><ele>493.0</ele><time>2026-04-15T14:22:31.17Z</time></trkpt><trkpt lat="44.2855879" lon="8.2590124"><ele>493.2</ele><time>2026-04-15T14:22:32.17Z</time></trkpt><trkpt lat="44.2856834" lon="8.2589753"><ele>493.4</ele><time>2026-04-15T14:22:33.168Z</time></trkpt><trkpt lat="44.2857831" lon="8.2589491"><ele>493.59999999999997</ele><time>2026-04-15T14:22:34.169Z</time></trkpt><trkpt lat="44.285895" lon="8.2589515"><ele>493.79999999999995</ele><time>2026-04-15T14:22:35.17Z</time></trkpt><trkpt lat="44.2860101" lon="8.2589584"><ele>494.0</ele><time>2026-04-15T14:22:36.169Z</time></trkpt><trkpt lat="44.2861272" lon="8.2589668"><ele>494.0</ele><time>2026-04-15T14:22:37.169Z</time></trkpt><trkpt lat="44.2862557" lon="8.2589826"><ele>494.0</ele><time>2026-04-15T14:22:38.169Z</time></trkpt><trkpt lat="44.2863788" lon="8.2590026"><ele>494.0</ele><time>2026-04-15T14:22:39.169Z</time></trkpt><trkpt lat="44.2864965" lon="8.2590397"><ele>494.0</ele><time>2026-04-15T14:22:40.169Z</time></trkpt><trkpt lat="44.2866155" lon="8.2590966"><ele>490.0</ele><time>2026-04-15T14:22:41.169Z</time></trkpt><trkpt lat="44.2867339" lon="8.2591537"><ele>486.0</ele><time>2026-04-15T14:22:42.168Z</time></trkpt><trkpt lat="44.2868511" lon="8.2592396"><ele>482.0</ele><time>2026-04-15T14:22:43.17Z</time></trkpt><trkpt lat="44.2869626" lon="8.2593218"><ele>478.0</ele><time>2026-04-15T14:22:44.17Z</time></trkpt><trkpt lat="44.2870601" lon="8.2594352"><ele>478.0</ele><time>2026-04-15T14:22:45.168Z</time></trkpt><trkpt lat="44.2871504" lon="8.2595594"><ele>477.99999999999994</ele><time>2026-04-15T14:22:46.17Z</time></trkpt><trkpt lat="44.2872374" lon="8.2596586"><ele>477.99999999999994</ele><time>2026-04-15T14:22:47.169Z</time></trkpt><trkpt lat="44.2873288" lon="8.2597408"><ele>478.0</ele><time>2026-04-15T14:22:48.169Z</time></trkpt><trkpt lat="44.2874137" lon="8.25974"><ele>478.0</ele><time>2026-04-15T14:22:49.169Z</time></trkpt><trkpt lat="44.2875101" lon="8.2597092"><ele>476.1666666666667</ele><time>2026-04-15T14:22:50.168Z</time></trkpt><trkpt lat="44.2875785" lon="8.2596439"><ele>474.33333333333337</ele><time>2026-04-15T14:22:51.169Z</time></trkpt><trkpt lat="44.2876474" lon="8.2595692"><ele>472.5</ele><time>2026-04-15T14:22:52.169Z</time></trkpt><trkpt lat="44.2877015" lon="8.2594905"><ele>470.66666666666663</ele><time>2026-04-15T14:22:53.17Z</time></trkpt><trkpt lat="44.2877555" lon="8.2594075"><ele>468.8333333333333</ele><time>2026-04-15T14:22:54.17Z</time></trkpt><trkpt lat="44.2878056" lon="8.2593203"><ele>467.0</ele><time>2026-04-15T14:22:55.168Z</time></trkpt><trkpt lat="44.2878709" lon="8.259231"><ele>466.99999999999994</ele><time>2026-04-15T14:22:56.168Z</time></trkpt><trkpt lat="44.2879368" lon="8.2591538"><ele>467.0</ele><time>2026-04-15T14:22:57.169Z</time></trkpt><trkpt lat="44.2880068" lon="8.2590987"><ele>467.0</ele><time>2026-04-15T14:22:58.17Z</time></trkpt><trkpt lat="44.2880809" lon="8.2590816"><ele>467.0</ele><time>2026-04-15T14:22:59.17Z</time></trkpt><trkpt lat="44.2881576" lon="8.2590991"><ele>466.99999999999994</ele><time>2026-04-15T14:23:00.169Z</time></trkpt><trkpt lat="44.288219" lon="8.2591438"><ele>467.0</ele><time>2026-04-15T14:23:01.168Z</time></trkpt><trkpt lat="44.2882824" lon="8.2591895"><ele>467.99999999999994</ele><time>2026-04-15T14:23:02.169Z</time></trkpt><trkpt lat="44.2883463" lon="8.2592322"><ele>469.0</ele><time>2026-04-15T14:23:03.17Z</time></trkpt><trkpt lat="44.2884145" lon="8.2592778"><ele>469.99999999999994</ele><time>2026-04-15T14:23:04.169Z</time></trkpt><trkpt lat="44.28848" lon="8.2593199"><ele>470.99999999999994</ele><time>2026-04-15T14:23:05.17Z</time></trkpt><trkpt lat="44.2885438" lon="8.2593654"><ele>472.0</ele><time>2026-04-15T14:23:06.169Z</time></trkpt><trkpt lat="44.288608" lon="8.2593968"><ele>472.99999999999994</ele><time>2026-04-15T14:23:07.169Z</time></trkpt><trkpt lat="44.2886658" lon="8.2594344"><ele>473.99999999999994</ele><time>2026-04-15T14:23:08.17Z</time></trkpt><trkpt lat="44.2887527" lon="8.2595172"><ele>474.0</ele><time>2026-04-15T14:23:10.168Z</time></trkpt><trkpt lat="44.288821" lon="8.2595731"><ele>474.0</ele><time>2026-04-15T14:23:11.169Z</time></trkpt><trkpt lat="44.2889146" lon="8.259674"><ele>474.0</ele><time>2026-04-15T14:23:13.169Z</time></trkpt><trkpt lat="44.2889635" lon="8.2598242"><ele>474.0</ele><time>2026-04-15T14:23:15.169Z</time></trkpt><trkpt lat="44.2890009" lon="8.2599848"><ele>474.0</ele><time>2026-04-15T14:23:17.17Z</time></trkpt><trkpt lat="44.2890065" lon="8.2601419"><ele>473.5</ele><time>2026-04-15T14:23:19.169Z</time></trkpt><trkpt lat="44.2890144" lon="8.2602732"><ele>473.0</ele><time>2026-04-15T14:23:21.169Z</time></trkpt><trkpt lat="44.2890653" lon="8.260404"><ele>472.5</ele><time>2026-04-15T14:23:23.169Z</time></trkpt><trkpt lat="44.2890768" lon="8.2605013"><ele>472.0</ele><time>2026-04-15T14:23:24.168Z</time></trkpt><trkpt lat="44.289109" lon="8.2605806"><ele>471.5</ele><time>2026-04-15T14:23:25.169Z</time></trkpt><trkpt lat="44.2891705" lon="8.260711"><ele>471.0</ele><time>2026-04-15T14:23:27.169Z</time></trkpt><trkpt lat="44.2892428" lon="8.2608264"><ele>471.0</ele><time>2026-04-15T14:23:29.169Z</time></trkpt><trkpt lat="44.2893086" lon="8.2609271"><ele>471.0</ele><time>2026-04-15T14:23:31.169Z</time></trkpt><trkpt lat="44.289392" lon="8.2609309"><ele>471.0</ele><time>2026-04-15T14:23:32.17Z</time></trkpt><trkpt lat="44.2894615" lon="8.2609823"><ele>471.0</ele><time>2026-04-15T14:23:33.168Z</time></trkpt><trkpt lat="44.2895347" lon="8.2610125"><ele>471.0</ele><time>2026-04-15T14:23:34.168Z</time></trkpt><trkpt lat="44.2896036" lon="8.2610535"><ele>471.0</ele><time>2026-04-15T14:23:35.169Z</time></trkpt><trkpt lat="44.2896808" lon="8.2611417"><ele>471.5</ele><time>2026-04-15T14:23:37.17Z</time></trkpt><trkpt lat="44.2897874" lon="8.2612383"><ele>472.0</ele><time>2026-04-15T14:23:39.17Z</time></trkpt><trkpt lat="44.2898885" lon="8.2613261"><ele>472.5</ele><time>2026-04-15T14:23:41.169Z</time></trkpt><trkpt lat="44.289966" lon="8.2614035"><ele>473.0</ele><time>2026-04-15T14:23:43.17Z</time></trkpt><trkpt lat="44.2900658" lon="8.2615108"><ele>473.0</ele><time>2026-04-15T14:23:45.168Z</time></trkpt><trkpt lat="44.2901585" lon="8.2615578"><ele>472.99999999999994</ele><time>2026-04-15T14:23:47.168Z</time></trkpt><trkpt lat="44.2902544" lon="8.2616666"><ele>472.99999999999994</ele><time>2026-04-15T14:23:49.168Z</time></trkpt><trkpt lat="44.2903111" lon="8.2617631"><ele>473.0</ele><time>2026-04-15T14:23:51.169Z</time></trkpt><trkpt lat="44.2904078" lon="8.261839"><ele>473.0</ele><time>2026-04-15T14:23:53.169Z</time></trkpt><trkpt lat="44.2904907" lon="8.2619278"><ele>472.99999999999994</ele><time>2026-04-15T14:23:55.169Z</time></trkpt><trkpt lat="44.2905409" lon="8.2619947"><ele>473.0</ele><time>2026-04-15T14:23:56.169Z</time></trkpt><trkpt lat="44.2906307" lon="8.2620837"><ele>473.0</ele><time>2026-04-15T14:23:58.17Z</time></trkpt><trkpt lat="44.2906961" lon="8.2621618"><ele>473.0</ele><time>2026-04-15T14:24:00.168Z</time></trkpt><trkpt lat="44.290747" lon="8.2622192"><ele>472.99999999999994</ele><time>2026-04-15T14:24:02.17Z</time></trkpt><trkpt lat="44.2908385" lon="8.2622666"><ele>473.0</ele><time>2026-04-15T14:24:04.169Z</time></trkpt><trkpt lat="44.2909232" lon="8.2623184"><ele>473.0</ele><time>2026-04-15T14:24:06.171Z</time></trkpt><trkpt lat="44.2910297" lon="8.2624202"><ele>472.99999999999994</ele><time>2026-04-15T14:24:08.169Z</time></trkpt><trkpt lat="44.2911155" lon="8.2624738"><ele>472.99999999999994</ele><time>2026-04-15T14:24:10.169Z</time></trkpt><trkpt lat="44.2912169" lon="8.2625086"><ele>473.0</ele><time>2026-04-15T14:24:12.17Z</time></trkpt><trkpt lat="44.2913145" lon="8.2625639"><ele>473.0</ele><time>2026-04-15T14:24:14.168Z</time></trkpt><trkpt lat="44.2913774" lon="8.2625509"><ele>476.0</ele><time>2026-04-15T14:24:15.17Z</time></trkpt><trkpt lat="44.2914473" lon="8.2626393"><ele>478.99999999999994</ele><time>2026-04-15T14:24:17.168Z</time></trkpt><trkpt lat="44.2915496" lon="8.2626883"><ele>481.99999999999994</ele><time>2026-04-15T14:24:19.168Z</time></trkpt><trkpt lat="44.291672" lon="8.2627465"><ele>485.0</ele><time>2026-04-15T14:24:21.17Z</time></trkpt><trkpt lat="44.291756" lon="8.2628032"><ele>488.0</ele><time>2026-04-15T14:24:23.171Z</time></trkpt><trkpt lat="44.2918308" lon="8.2628142"><ele>488.0</ele><time>2026-04-15T14:24:24.169Z</time></trkpt><trkpt lat="44.2919503" lon="8.2628518"><ele>487.99999999999994</ele><time>2026-04-15T14:24:26.171Z</time></trkpt><trkpt lat="44.2920181" lon="8.2628297"><ele>487.99999999999994</ele><time>2026-04-15T14:24:27.169Z</time></trkpt><trkpt lat="44.2920978" lon="8.2627751"><ele>488.0</ele><time>2026-04-15T14:24:28.169Z</time></trkpt><trkpt lat="44.2921472" lon="8.2628975"><ele>488.0</ele><time>2026-04-15T14:24:32.169Z</time></trkpt><trkpt lat="44.2922234" lon="8.2629243"><ele>490.3333333333333</ele><time>2026-04-15T14:24:34.168Z</time></trkpt><trkpt lat="44.2922935" lon="8.2629359"><ele>492.66666666666663</ele><time>2026-04-15T14:24:35.168Z</time></trkpt><trkpt lat="44.2923815" lon="8.2629605"><ele>495.0</ele><time>2026-04-15T14:24:37.169Z</time></trkpt><trkpt lat="44.2924794" lon="8.2629889"><ele>497.33333333333337</ele><time>2026-04-15T14:24:39.168Z</time></trkpt><trkpt lat="44.2925683" lon="8.2630398"><ele>499.6666666666667</ele><time>2026-04-15T14:24:41.169Z</time></trkpt><trkpt lat="44.2926467" lon="8.2630605"><ele>502.0</ele><time>2026-04-15T14:24:44.169Z</time></trkpt><trkpt lat="44.292757" lon="8.2630818"><ele>502.0</ele><time>2026-04-15T14:24:46.169Z</time></trkpt><trkpt lat="44.2928399" lon="8.2631129"><ele>502.00000000000006</ele><time>2026-04-15T14:24:48.168Z</time></trkpt><trkpt lat="44.2929022" lon="8.2631409"><ele>502.00000000000006</ele><time>2026-04-15T14:24:49.17Z</time></trkpt><trkpt lat="44.2929867" lon="8.2631365"><ele>502.0</ele><time>2026-04-15T14:24:51.169Z</time></trkpt><trkpt lat="44.2930671" lon="8.2631479"><ele>502.0</ele><time>2026-04-15T14:24:53.17Z</time></trkpt><trkpt lat="44.2932088" lon="8.2631804"><ele>504.75</ele><time>2026-04-15T14:24:56.17Z</time></trkpt><trkpt lat="44.2932997" lon="8.2631661"><ele>507.5</ele><time>2026-04-15T14:24:58.169Z</time></trkpt><trkpt lat="44.2933874" lon="8.2631384"><ele>510.25</ele><time>2026-04-15T14:25:00.169Z</time></trkpt><trkpt lat="44.2935346" lon="8.2630949"><ele>513.0</ele><time>2026-04-15T14:25:02.169Z</time></trkpt><trkpt lat="44.2936885" lon="8.263067"><ele>513.0</ele><time>2026-04-15T14:25:04.169Z</time></trkpt><trkpt lat="44.2937564" lon="8.2630617"><ele>513.0</ele><time>2026-04-15T14:25:05.169Z</time></trkpt><trkpt lat="44.2938043" lon="8.2631684"><ele>513.0</ele><time>2026-04-15T14:25:06.169Z</time></trkpt><trkpt lat="44.2938656" lon="8.2632063"><ele>513.0</ele><time>2026-04-15T14:25:07.169Z</time></trkpt><trkpt lat="44.2939684" lon="8.263198"><ele>513.0</ele><time>2026-04-15T14:25:09.169Z</time></trkpt><trkpt lat="44.2940354" lon="8.2632365"><ele>513.0</ele><time>2026-04-15T14:25:11.168Z</time></trkpt><trkpt lat="44.2941353" lon="8.2632987"><ele>507.79999999999995</ele><time>2026-04-15T14:25:13.17Z</time></trkpt><trkpt lat="44.2942535" lon="8.2633674"><ele>502.59999999999997</ele><time>2026-04-15T14:25:15.17Z</time></trkpt><trkpt lat="44.2943433" lon="8.2633993"><ele>497.40000000000003</ele><time>2026-04-15T14:25:17.169Z</time></trkpt><trkpt lat="44.2943969" lon="8.263449"><ele>492.20000000000005</ele><time>2026-04-15T14:25:18.17Z</time></trkpt><trkpt lat="44.2945039" lon="8.2634703"><ele>487.0</ele><time>2026-04-15T14:25:20.17Z</time></trkpt><trkpt lat="44.294598" lon="8.2635673"><ele>487.0</ele><time>2026-04-15T14:25:22.169Z</time></trkpt><trkpt lat="44.2947095" lon="8.2636797"><ele>487.0</ele><time>2026-04-15T14:25:24.169Z</time></trkpt><trkpt lat="44.2948064" lon="8.2637676"><ele>487.0</ele><time>2026-04-15T14:25:26.168Z</time></trkpt><trkpt lat="44.2948837" lon="8.2638803"><ele>487.0</ele><time>2026-04-15T14:25:28.169Z</time></trkpt><trkpt lat="44.294969" lon="8.2639598"><ele>483.8</ele><time>2026-04-15T14:25:30.169Z</time></trkpt><trkpt lat="44.2950668" lon="8.2640261"><ele>480.6</ele><time>2026-04-15T14:25:32.169Z</time></trkpt><trkpt lat="44.2951597" lon="8.2640871"><ele>477.40000000000003</ele><time>2026-04-15T14:25:34.169Z</time></trkpt><trkpt lat="44.295259" lon="8.2641459"><ele>474.20000000000005</ele><time>2026-04-15T14:25:36.169Z</time></trkpt><trkpt lat="44.2953606" lon="8.2641979"><ele>471.0</ele><time>2026-04-15T14:25:38.169Z</time></trkpt><trkpt lat="44.2954497" lon="8.2642319"><ele>471.0</ele><time>2026-04-15T14:25:40.169Z</time></trkpt><trkpt lat="44.2955546" lon="8.2642756"><ele>471.0</ele><time>2026-04-15T14:25:42.169Z</time></trkpt><trkpt lat="44.2956721" lon="8.2643082"><ele>471.0</ele><time>2026-04-15T14:25:44.169Z</time></trkpt><trkpt lat="44.295768" lon="8.2643999"><ele>471.0</ele><time>2026-04-15T14:25:46.167Z</time></trkpt><trkpt lat="44.2958621" lon="8.2644986"><ele>469.4</ele><time>2026-04-15T14:25:48.168Z</time></trkpt><trkpt lat="44.2959485" lon="8.2646151"><ele>467.8</ele><time>2026-04-15T14:25:50.169Z</time></trkpt><trkpt lat="44.2960065" lon="8.2647444"><ele>466.19999999999993</ele><time>2026-04-15T14:25:52.169Z</time></trkpt><trkpt lat="44.2960873" lon="8.2648783"><ele>464.59999999999997</ele><time>2026-04-15T14:25:54.169Z</time></trkpt><trkpt lat="44.2961384" lon="8.2649483"><ele>463.0</ele><time>2026-04-15T14:25:55.168Z</time></trkpt><trkpt lat="44.2962006" lon="8.2650943"><ele>463.00000000000006</ele><time>2026-04-15T14:25:57.169Z</time></trkpt><trkpt lat="44.296249" lon="8.2651615"><ele>463.0</ele><time>2026-04-15T14:25:59.169Z</time></trkpt><trkpt lat="44.2962893" lon="8.265274"><ele>463.0</ele><time>2026-04-15T14:26:01.169Z</time></trkpt><trkpt lat="44.2963779" lon="8.2653555"><ele>463.0</ele><time>2026-04-15T14:26:03.169Z</time></trkpt><trkpt lat="44.2964464" lon="8.2653818"><ele>463.00000000000006</ele><time>2026-04-15T14:26:04.169Z</time></trkpt><trkpt lat="44.2965091" lon="8.2654359"><ele>463.0</ele><time>2026-04-15T14:26:06.168Z</time></trkpt><trkpt lat="44.296626" lon="8.2654549"><ele>467.59999999999997</ele><time>2026-04-15T14:26:08.17Z</time></trkpt><trkpt lat="44.2967002" lon="8.2654745"><ele>472.19999999999993</ele><time>2026-04-15T14:26:10.169Z</time></trkpt><trkpt lat="44.296809" lon="8.2654819"><ele>476.8</ele><time>2026-04-15T14:26:12.17Z</time></trkpt><trkpt lat="44.2969266" lon="8.2654619"><ele>481.4</ele><time>2026-04-15T14:26:14.17Z</time></trkpt><trkpt lat="44.2969987" lon="8.2654807"><ele>486.0</ele><time>2026-04-15T14:26:15.168Z</time></trkpt><trkpt lat="44.2971038" lon="8.2655309"><ele>486.0</ele><time>2026-04-15T14:26:17.169Z</time></trkpt><trkpt lat="44.297158" lon="8.2655791"><ele>486.0</ele><time>2026-04-15T14:26:18.169Z</time></trkpt><trkpt lat="44.2972563" lon="8.2655972"><ele>486.0</ele><time>2026-04-15T14:26:20.169Z</time></trkpt><trkpt lat="44.2973709" lon="8.2656067"><ele>486.0</ele><time>2026-04-15T14:26:22.169Z</time></trkpt><trkpt lat="44.2974826" lon="8.2656479"><ele>486.0</ele><time>2026-04-15T14:26:24.169Z</time></trkpt><trkpt lat="44.2975939" lon="8.2656731"><ele>481.6</ele><time>2026-04-15T14:26:26.168Z</time></trkpt><trkpt lat="44.2976913" lon="8.265723"><ele>477.20000000000005</ele><time>2026-04-15T14:26:28.169Z</time></trkpt><trkpt lat="44.2978145" lon="8.2657473"><ele>472.79999999999995</ele><time>2026-04-15T14:26:30.169Z</time></trkpt><trkpt lat="44.297935" lon="8.2657562"><ele>468.4</ele><time>2026-04-15T14:26:32.168Z</time></trkpt><trkpt lat="44.2980068" lon="8.2657484"><ele>464.0</ele><time>2026-04-15T14:26:33.168Z</time></trkpt><trkpt lat="44.2980767" lon="8.2657802"><ele>464.0</ele><time>2026-04-15T14:26:34.168Z</time></trkpt><trkpt lat="44.2981824" lon="8.265851"><ele>464.0</ele><time>2026-04-15T14:26:35.168Z</time></trkpt><trkpt lat="44.298268" lon="8.2658842"><ele>464.0</ele><time>2026-04-15T14:26:36.168Z</time></trkpt><trkpt lat="44.2983422" lon="8.2659071"><ele>464.0</ele><time>2026-04-15T14:26:37.167Z</time></trkpt><trkpt lat="44.298416" lon="8.2659341"><ele>464.0</ele><time>2026-04-15T14:26:38.169Z</time></trkpt><trkpt lat="44.2985065" lon="8.2659561"><ele>463.99999999999994</ele><time>2026-04-15T14:26:39.167Z</time></trkpt><trkpt lat="44.2985902" lon="8.2659807"><ele>464.0</ele><time>2026-04-15T14:26:40.169Z</time></trkpt><trkpt lat="44.2986724" lon="8.2660112"><ele>464.0</ele><time>2026-04-15T14:26:41.169Z</time></trkpt><trkpt lat="44.2987631" lon="8.2660498"><ele>464.0</ele><time>2026-04-15T14:26:42.169Z</time></trkpt><trkpt lat="44.2988543" lon="8.2660857"><ele>463.99999999999994</ele><time>2026-04-15T14:26:43.168Z</time></trkpt><trkpt lat="44.2989377" lon="8.2661252"><ele>464.0</ele><time>2026-04-15T14:26:44.169Z</time></trkpt><trkpt lat="44.299024" lon="8.2661595"><ele>464.99999999999994</ele><time>2026-04-15T14:26:45.169Z</time></trkpt><trkpt lat="44.2991222" lon="8.266202"><ele>466.0</ele><time>2026-04-15T14:26:46.17Z</time></trkpt><trkpt lat="44.2991918" lon="8.2662448"><ele>467.0</ele><time>2026-04-15T14:26:47.169Z</time></trkpt><trkpt lat="44.2992598" lon="8.2662713"><ele>468.0</ele><time>2026-04-15T14:26:48.169Z</time></trkpt><trkpt lat="44.2993514" lon="8.2663183"><ele>468.99999999999994</ele><time>2026-04-15T14:26:49.169Z</time></trkpt><trkpt lat="44.2994432" lon="8.2663549"><ele>470.0</ele><time>2026-04-15T14:26:50.169Z</time></trkpt><trkpt lat="44.2995323" lon="8.2663822"><ele>470.0</ele><time>2026-04-15T14:26:51.17Z</time></trkpt><trkpt lat="44.2996227" lon="8.2664231"><ele>470.0</ele><time>2026-04-15T14:26:52.169Z</time></trkpt><trkpt lat="44.299715" lon="8.2664505"><ele>470.0</ele><time>2026-04-15T14:26:53.169Z</time></trkpt><trkpt lat="44.2997939" lon="8.2664988"><ele>470.0</ele><time>2026-04-15T14:26:54.169Z</time></trkpt><trkpt lat="44.2998748" lon="8.2665367"><ele>470.0</ele><time>2026-04-15T14:26:55.168Z</time></trkpt><trkpt lat="44.2999744" lon="8.2665661"><ele>467.49999999999994</ele><time>2026-04-15T14:26:56.168Z</time></trkpt><trkpt lat="44.3000618" lon="8.2666"><ele>465.0</ele><time>2026-04-15T14:26:57.169Z</time></trkpt><trkpt lat="44.3001607" lon="8.2666359"><ele>462.5</ele><time>2026-04-15T14:26:58.169Z</time></trkpt><trkpt lat="44.3002446" lon="8.2666747"><ele>460.0</ele><time>2026-04-15T14:26:59.169Z</time></trkpt><trkpt lat="44.3003251" lon="8.2666788"><ele>457.49999999999994</ele><time>2026-04-15T14:27:00.169Z</time></trkpt><trkpt lat="44.3004001" lon="8.2667127"><ele>455.0</ele><time>2026-04-15T14:27:01.168Z</time></trkpt><trkpt lat="44.3005014" lon="8.2667633"><ele>454.99999999999994</ele><time>2026-04-15T14:27:02.168Z</time></trkpt><trkpt lat="44.3005749" lon="8.2667987"><ele>455.0</ele><time>2026-04-15T14:27:03.169Z</time></trkpt><trkpt lat="44.3006478" lon="8.266807"><ele>455.0</ele><time>2026-04-15T14:27:04.168Z</time></trkpt><trkpt lat="44.3007248" lon="8.2667965"><ele>455.0</ele><time>2026-04-15T14:27:05.169Z</time></trkpt><trkpt lat="44.3008059" lon="8.2667823"><ele>454.99999999999994</ele><time>2026-04-15T14:27:06.167Z</time></trkpt><trkpt lat="44.3008964" lon="8.266755"><ele>455.0</ele><time>2026-04-15T14:27:07.169Z</time></trkpt><trkpt lat="44.3009665" lon="8.2667485"><ele>455.16666666666663</ele><time>2026-04-15T14:27:08.168Z</time></trkpt><trkpt lat="44.3010567" lon="8.2667362"><ele>455.3333333333333</ele><time>2026-04-15T14:27:09.168Z</time></trkpt><trkpt lat="44.3011304" lon="8.2667257"><ele>455.5</ele><time>2026-04-15T14:27:10.168Z</time></trkpt><trkpt lat="44.3012197" lon="8.2667544"><ele>455.66666666666663</ele><time>2026-04-15T14:27:11.169Z</time></trkpt><trkpt lat="44.3013047" lon="8.2667719"><ele>455.8333333333333</ele><time>2026-04-15T14:27:12.168Z</time></trkpt><trkpt lat="44.3013752" lon="8.2668243"><ele>456.0</ele><time>2026-04-15T14:27:13.169Z</time></trkpt><trkpt lat="44.3014226" lon="8.2668829"><ele>456.0</ele><time>2026-04-15T14:27:14.169Z</time></trkpt><trkpt lat="44.3014938" lon="8.26694"><ele>456.0</ele><time>2026-04-15T14:27:15.168Z</time></trkpt><trkpt lat="44.301563" lon="8.2670078"><ele>456.0</ele><time>2026-04-15T14:27:16.169Z</time></trkpt><trkpt lat="44.3016206" lon="8.2670551"><ele>456.0</ele><time>2026-04-15T14:27:17.169Z</time></trkpt><trkpt lat="44.3016617" lon="8.2671271"><ele>456.0</ele><time>2026-04-15T14:27:18.169Z</time></trkpt><trkpt lat="44.3017566" lon="8.2671589"><ele>456.0</ele><time>2026-04-15T14:27:19.168Z</time></trkpt><trkpt lat="44.3018351" lon="8.2671834"><ele>456.0</ele><time>2026-04-15T14:27:20.169Z</time></trkpt><trkpt lat="44.3019388" lon="8.267242"><ele>456.0</ele><time>2026-04-15T14:27:22.169Z</time></trkpt><trkpt lat="44.3020185" lon="8.2672655"><ele>456.0</ele><time>2026-04-15T14:27:23.169Z</time></trkpt><trkpt lat="44.3021004" lon="8.2672936"><ele>456.0</ele><time>2026-04-15T14:27:24.169Z</time></trkpt><trkpt lat="44.302185" lon="8.267319"><ele>456.0</ele><time>2026-04-15T14:27:25.169Z</time></trkpt><trkpt lat="44.3022709" lon="8.2673623"><ele>454.3333333333333</ele><time>2026-04-15T14:27:26.168Z</time></trkpt><trkpt lat="44.3023604" lon="8.2673928"><ele>452.66666666666663</ele><time>2026-04-15T14:27:27.169Z</time></trkpt><trkpt lat="44.3024494" lon="8.2674023"><ele>451.0</ele><time>2026-04-15T14:27:28.168Z</time></trkpt><trkpt lat="44.3025226" lon="8.2674093"><ele>449.3333333333333</ele><time>2026-04-15T14:27:29.169Z</time></trkpt><trkpt lat="44.3026152" lon="8.2674154"><ele>447.66666666666663</ele><time>2026-04-15T14:27:30.169Z</time></trkpt><trkpt lat="44.302695" lon="8.2674343"><ele>446.0</ele><time>2026-04-15T14:27:31.169Z</time></trkpt><trkpt lat="44.3027669" lon="8.2674514"><ele>445.99999999999994</ele><time>2026-04-15T14:27:32.169Z</time></trkpt><trkpt lat="44.3028573" lon="8.2674921"><ele>446.0</ele><time>2026-04-15T14:27:33.168Z</time></trkpt><trkpt lat="44.302948" lon="8.2675254"><ele>446.0</ele><time>2026-04-15T14:27:34.166Z</time></trkpt><trkpt lat="44.303033" lon="8.2675486"><ele>446.0</ele><time>2026-04-15T14:27:35.169Z</time></trkpt><trkpt lat="44.3031182" lon="8.267577"><ele>445.99999999999994</ele><time>2026-04-15T14:27:36.168Z</time></trkpt><trkpt lat="44.3031829" lon="8.2675934"><ele>446.0</ele><time>2026-04-15T14:27:37.169Z</time></trkpt><trkpt lat="44.3032798" lon="8.2676152"><ele>447.16666666666663</ele><time>2026-04-15T14:27:38.168Z</time></trkpt><trkpt lat="44.3033613" lon="8.267611"><ele>448.3333333333333</ele><time>2026-04-15T14:27:39.169Z</time></trkpt><trkpt lat="44.3034521" lon="8.2676232"><ele>449.5</ele><time>2026-04-15T14:27:40.167Z</time></trkpt><trkpt lat="44.303527" lon="8.2676574"><ele>450.66666666666663</ele><time>2026-04-15T14:27:41.169Z</time></trkpt><trkpt lat="44.3035967" lon="8.2676831"><ele>451.8333333333333</ele><time>2026-04-15T14:27:42.169Z</time></trkpt><trkpt lat="44.3036607" lon="8.267714"><ele>453.0</ele><time>2026-04-15T14:27:43.168Z</time></trkpt><trkpt lat="44.3037229" lon="8.267762"><ele>453.0</ele><time>2026-04-15T14:27:44.168Z</time></trkpt><trkpt lat="44.3037842" lon="8.267805"><ele>452.99999999999994</ele><time>2026-04-15T14:27:45.169Z</time></trkpt><trkpt lat="44.3038705" lon="8.2679102"><ele>452.99999999999994</ele><time>2026-04-15T14:27:47.168Z</time></trkpt><trkpt lat="44.3039577" lon="8.2680339"><ele>453.0</ele><time>2026-04-15T14:27:49.168Z</time></trkpt><trkpt lat="44.3040243" lon="8.2681648"><ele>453.0</ele><time>2026-04-15T14:27:51.169Z</time></trkpt><trkpt lat="44.3040969" lon="8.268275"><ele>451.1666666666667</ele><time>2026-04-15T14:27:53.169Z</time></trkpt><trkpt lat="44.304175" lon="8.2683353"><ele>449.33333333333337</ele><time>2026-04-15T14:27:55.167Z</time></trkpt><trkpt lat="44.3042597" lon="8.2683829"><ele>447.5</ele><time>2026-04-15T14:27:57.168Z</time></trkpt><trkpt lat="44.3043249" lon="8.2683637"><ele>445.6666666666667</ele><time>2026-04-15T14:27:58.168Z</time></trkpt><trkpt lat="44.3044301" lon="8.2683852"><ele>443.83333333333337</ele><time>2026-04-15T14:28:00.168Z</time></trkpt><trkpt lat="44.3045137" lon="8.2683834"><ele>442.0</ele><time>2026-04-15T14:28:02.169Z</time></trkpt><trkpt lat="44.3046259" lon="8.2684199"><ele>442.0</ele><time>2026-04-15T14:28:04.169Z</time></trkpt><trkpt lat="44.3047226" lon="8.2684416"><ele>442.00000000000006</ele><time>2026-04-15T14:28:06.168Z</time></trkpt><trkpt lat="44.3048323" lon="8.2684553"><ele>442.00000000000006</ele><time>2026-04-15T14:28:08.169Z</time></trkpt><trkpt lat="44.3049412" lon="8.2684767"><ele>442.0</ele><time>2026-04-15T14:28:10.168Z</time></trkpt><trkpt lat="44.3050526" lon="8.2684986"><ele>442.0</ele><time>2026-04-15T14:28:12.168Z</time></trkpt><trkpt lat="44.3051639" lon="8.2685158"><ele>441.6</ele><time>2026-04-15T14:28:14.168Z</time></trkpt><trkpt lat="44.3052787" lon="8.2685265"><ele>441.20000000000005</ele><time>2026-04-15T14:28:16.168Z</time></trkpt><trkpt lat="44.3053743" lon="8.2685317"><ele>440.8</ele><time>2026-04-15T14:28:18.169Z</time></trkpt><trkpt lat="44.3054614" lon="8.2685107"><ele>440.4</ele><time>2026-04-15T14:28:20.167Z</time></trkpt><trkpt lat="44.3055403" lon="8.2684693"><ele>440.0</ele><time>2026-04-15T14:28:22.169Z</time></trkpt><trkpt lat="44.3056197" lon="8.2684436"><ele>439.8333333333333</ele><time>2026-04-15T14:28:24.168Z</time></trkpt><trkpt lat="44.3057067" lon="8.2683974"><ele>439.66666666666663</ele><time>2026-04-15T14:28:26.168Z</time></trkpt><trkpt lat="44.305793" lon="8.2683539"><ele>439.5</ele><time>2026-04-15T14:28:28.168Z</time></trkpt><trkpt lat="44.3058786" lon="8.2682937"><ele>439.33333333333337</ele><time>2026-04-15T14:28:30.169Z</time></trkpt><trkpt lat="44.3059627" lon="8.2682633"><ele>439.1666666666667</ele><time>2026-04-15T14:28:32.169Z</time></trkpt><trkpt lat="44.3060193" lon="8.2681937"><ele>439.0</ele><time>2026-04-15T14:28:34.168Z</time></trkpt><trkpt lat="44.306101" lon="8.2681401"><ele>442.0</ele><time>2026-04-15T14:28:36.168Z</time></trkpt><trkpt lat="44.3061965" lon="8.2680851"><ele>445.0</ele><time>2026-04-15T14:28:38.167Z</time></trkpt><trkpt lat="44.3062949" lon="8.2680236"><ele>448.0</ele><time>2026-04-15T14:28:40.166Z</time></trkpt><trkpt lat="44.3063798" lon="8.2679743"><ele>451.0</ele><time>2026-04-15T14:28:42.168Z</time></trkpt><trkpt lat="44.3064817" lon="8.2679377"><ele>454.0</ele><time>2026-04-15T14:28:44.169Z</time></trkpt><trkpt lat="44.3065879" lon="8.267881"><ele>454.0</ele><time>2026-04-15T14:28:46.167Z</time></trkpt><trkpt lat="44.3066388" lon="8.2678167"><ele>454.0</ele><time>2026-04-15T14:28:48.167Z</time></trkpt><trkpt lat="44.3067484" lon="8.2678009"><ele>454.0</ele><time>2026-04-15T14:28:50.168Z</time></trkpt><trkpt lat="44.3068624" lon="8.2677769"><ele>454.0</ele><time>2026-04-15T14:28:52.169Z</time></trkpt><trkpt lat="44.3069666" lon="8.2677494"><ele>454.0</ele><time>2026-04-15T14:28:54.169Z</time></trkpt><trkpt lat="44.307081" lon="8.2677195"><ele>454.00000000000006</ele><time>2026-04-15T14:28:56.168Z</time></trkpt><trkpt lat="44.3071466" lon="8.2677393"><ele>454.0</ele><time>2026-04-15T14:28:57.168Z</time></trkpt><trkpt lat="44.3072751" lon="8.2677357"><ele>454.0</ele><time>2026-04-15T14:28:59.167Z</time></trkpt><trkpt lat="44.307339" lon="8.2677413"><ele>454.0</ele><time>2026-04-15T14:29:00.167Z</time></trkpt><trkpt lat="44.3074137" lon="8.267745"><ele>454.00000000000006</ele><time>2026-04-15T14:29:01.169Z</time></trkpt><trkpt lat="44.3074827" lon="8.2677518"><ele>454.0</ele><time>2026-04-15T14:29:02.169Z</time></trkpt><trkpt lat="44.3075544" lon="8.267778"><ele>454.14285714285717</ele><time>2026-04-15T14:29:03.168Z</time></trkpt><trkpt lat="44.3076227" lon="8.2677961"><ele>454.28571428571433</ele><time>2026-04-15T14:29:04.169Z</time></trkpt><trkpt lat="44.3076915" lon="8.2678183"><ele>454.42857142857144</ele><time>2026-04-15T14:29:05.169Z</time></trkpt><trkpt lat="44.3077594" lon="8.2678411"><ele>454.57142857142856</ele><time>2026-04-15T14:29:06.169Z</time></trkpt><trkpt lat="44.3078327" lon="8.2678797"><ele>454.7142857142857</ele><time>2026-04-15T14:29:07.169Z</time></trkpt><trkpt lat="44.3079027" lon="8.2679212"><ele>454.8571428571429</ele><time>2026-04-15T14:29:08.168Z</time></trkpt><trkpt lat="44.3079761" lon="8.2679692"><ele>455.0</ele><time>2026-04-15T14:29:09.168Z</time></trkpt><trkpt lat="44.308049" lon="8.2680125"><ele>456.99999999999994</ele><time>2026-04-15T14:29:10.168Z</time></trkpt><trkpt lat="44.3081228" lon="8.2680677"><ele>459.0</ele><time>2026-04-15T14:29:11.168Z</time></trkpt><trkpt lat="44.3082058" lon="8.2681231"><ele>461.0</ele><time>2026-04-15T14:29:12.168Z</time></trkpt><trkpt lat="44.3082831" lon="8.2681591"><ele>463.0</ele><time>2026-04-15T14:29:13.168Z</time></trkpt><trkpt lat="44.308351" lon="8.2681861"><ele>464.99999999999994</ele><time>2026-04-15T14:29:14.169Z</time></trkpt><trkpt lat="44.308419" lon="8.2682112"><ele>467.0</ele><time>2026-04-15T14:29:15.167Z</time></trkpt><trkpt lat="44.3084852" lon="8.2682323"><ele>462.49999999999994</ele><time>2026-04-15T14:29:16.169Z</time></trkpt><trkpt lat="44.3085979" lon="8.2682484"><ele>458.0</ele><time>2026-04-15T14:29:18.168Z</time></trkpt><trkpt lat="44.308662" lon="8.2682348"><ele>453.5</ele><time>2026-04-15T14:29:19.168Z</time></trkpt><trkpt lat="44.3087239" lon="8.2682572"><ele>449.0</ele><time>2026-04-15T14:29:20.168Z</time></trkpt><trkpt lat="44.3088348" lon="8.2682696"><ele>444.49999999999994</ele><time>2026-04-15T14:29:22.168Z</time></trkpt><trkpt lat="44.308926" lon="8.268285"><ele>440.0</ele><time>2026-04-15T14:29:24.168Z</time></trkpt><trkpt lat="44.3090289" lon="8.2682833"><ele>440.0</ele><time>2026-04-15T14:29:26.169Z</time></trkpt><trkpt lat="44.3091377" lon="8.2682989"><ele>440.0</ele><time>2026-04-15T14:29:28.169Z</time></trkpt><trkpt lat="44.3092281" lon="8.2682959"><ele>440.0</ele><time>2026-04-15T14:29:30.168Z</time></trkpt><trkpt lat="44.3092903" lon="8.2683187"><ele>440.0</ele><time>2026-04-15T14:29:31.169Z</time></trkpt><trkpt lat="44.3094159" lon="8.2682992"><ele>440.0</ele><time>2026-04-15T14:29:33.168Z</time></trkpt><trkpt lat="44.3094911" lon="8.2683087"><ele>439.99999999999994</ele><time>2026-04-15T14:29:34.169Z</time></trkpt><trkpt lat="44.3095939" lon="8.2683347"><ele>440.0</ele><time>2026-04-15T14:29:36.167Z</time></trkpt><trkpt lat="44.3096578" lon="8.268361"><ele>440.0</ele><time>2026-04-15T14:29:37.169Z</time></trkpt><trkpt lat="44.3097238" lon="8.268385"><ele>440.0</ele><time>2026-04-15T14:29:38.168Z</time></trkpt><trkpt lat="44.3097878" lon="8.2684016"><ele>439.99999999999994</ele><time>2026-04-15T14:29:39.168Z</time></trkpt><trkpt lat="44.3099192" lon="8.2684077"><ele>440.0</ele><time>2026-04-15T14:29:41.168Z</time></trkpt><trkpt lat="44.310025" lon="8.2684159"><ele>441.0</ele><time>2026-04-15T14:29:43.168Z</time></trkpt><trkpt lat="44.3100923" lon="8.2684229"><ele>442.0</ele><time>2026-04-15T14:29:44.167Z</time></trkpt><trkpt lat="44.310204" lon="8.2684682"><ele>443.0</ele><time>2026-04-15T14:29:46.167Z</time></trkpt><trkpt lat="44.310306" lon="8.2684828"><ele>444.0</ele><time>2026-04-15T14:29:48.169Z</time></trkpt><trkpt lat="44.3103779" lon="8.2684517"><ele>445.0</ele><time>2026-04-15T14:29:49.169Z</time></trkpt><trkpt lat="44.3104924" lon="8.2684605"><ele>444.0</ele><time>2026-04-15T14:29:51.168Z</time></trkpt><trkpt lat="44.3106157" lon="8.2684715"><ele>443.0</ele><time>2026-04-15T14:29:53.167Z</time></trkpt><trkpt lat="44.3107294" lon="8.2685213"><ele>442.0</ele><time>2026-04-15T14:29:55.168Z</time></trkpt><trkpt lat="44.3108467" lon="8.268566"><ele>441.0</ele><time>2026-04-15T14:29:57.168Z</time></trkpt><trkpt lat="44.3109651" lon="8.2685852"><ele>441.0</ele><time>2026-04-15T14:29:59.168Z</time></trkpt><trkpt lat="44.3110862" lon="8.2686244"><ele>441.0</ele><time>2026-04-15T14:30:01.167Z</time></trkpt><trkpt lat="44.3112012" lon="8.2686643"><ele>441.0</ele><time>2026-04-15T14:30:03.167Z</time></trkpt><trkpt lat="44.3113221" lon="8.2686829"><ele>441.0</ele><time>2026-04-15T14:30:05.169Z</time></trkpt><trkpt lat="44.3114308" lon="8.2686914"><ele>440.4</ele><time>2026-04-15T14:30:07.168Z</time></trkpt><trkpt lat="44.3115037" lon="8.2686995"><ele>439.8</ele><time>2026-04-15T14:30:08.168Z</time></trkpt><trkpt lat="44.311612" lon="8.268694"><ele>439.19999999999993</ele><time>2026-04-15T14:30:10.168Z</time></trkpt><trkpt lat="44.3117256" lon="8.2686991"><ele>438.59999999999997</ele><time>2026-04-15T14:30:12.169Z</time></trkpt><trkpt lat="44.3118384" lon="8.2686906"><ele>438.0</ele><time>2026-04-15T14:30:14.168Z</time></trkpt><trkpt lat="44.3119525" lon="8.2686773"><ele>438.0</ele><time>2026-04-15T14:30:16.169Z</time></trkpt><trkpt lat="44.3120696" lon="8.2686706"><ele>437.99999999999994</ele><time>2026-04-15T14:30:18.166Z</time></trkpt><trkpt lat="44.3121646" lon="8.2686624"><ele>437.99999999999994</ele><time>2026-04-15T14:30:20.169Z</time></trkpt><trkpt lat="44.31227" lon="8.2686658"><ele>438.0</ele><time>2026-04-15T14:30:22.169Z</time></trkpt><trkpt lat="44.3123962" lon="8.2686598"><ele>438.0</ele><time>2026-04-15T14:30:24.168Z</time></trkpt><trkpt lat="44.3124599" lon="8.2686631"><ele>439.79999999999995</ele><time>2026-04-15T14:30:25.167Z</time></trkpt><trkpt lat="44.3125879" lon="8.2686707"><ele>441.59999999999997</ele><time>2026-04-15T14:30:27.167Z</time></trkpt><trkpt lat="44.312651" lon="8.2686703"><ele>443.40000000000003</ele><time>2026-04-15T14:30:28.169Z</time></trkpt><trkpt lat="44.3127722" lon="8.2686647"><ele>445.20000000000005</ele><time>2026-04-15T14:30:30.168Z</time></trkpt><trkpt lat="44.3128421" lon="8.2686699"><ele>447.0</ele><time>2026-04-15T14:30:31.167Z</time></trkpt><trkpt lat="44.312913" lon="8.2686859"><ele>447.0</ele><time>2026-04-15T14:30:32.168Z</time></trkpt><trkpt lat="44.3129795" lon="8.2686972"><ele>447.0</ele><time>2026-04-15T14:30:33.168Z</time></trkpt><trkpt lat="44.3130442" lon="8.2687216"><ele>447.0</ele><time>2026-04-15T14:30:34.169Z</time></trkpt><trkpt lat="44.313171" lon="8.268756"><ele>447.0</ele><time>2026-04-15T14:30:36.169Z</time></trkpt><trkpt lat="44.3132451" lon="8.2687764"><ele>447.0</ele><time>2026-04-15T14:30:37.169Z</time></trkpt><trkpt lat="44.3133494" lon="8.2687943"><ele>447.0</ele><time>2026-04-15T14:30:39.168Z</time></trkpt><trkpt lat="44.3134173" lon="8.2687988"><ele>447.0</ele><time>2026-04-15T14:30:40.167Z</time></trkpt><trkpt lat="44.3134816" lon="8.2688021"><ele>447.0</ele><time>2026-04-15T14:30:41.168Z</time></trkpt><trkpt lat="44.3135473" lon="8.2688069"><ele>447.0</ele><time>2026-04-15T14:30:42.167Z</time></trkpt><trkpt lat="44.3136722" lon="8.2688227"><ele>447.0</ele><time>2026-04-15T14:30:44.168Z</time></trkpt><trkpt lat="44.3137391" lon="8.2688345"><ele>447.0</ele><time>2026-04-15T14:30:45.169Z</time></trkpt><trkpt lat="44.3138571" lon="8.2688257"><ele>447.0</ele><time>2026-04-15T14:30:47.168Z</time></trkpt><trkpt lat="44.3139352" lon="8.2688226"><ele>447.0</ele><time>2026-04-15T14:30:48.168Z</time></trkpt><trkpt lat="44.314018" lon="8.2687689"><ele>447.00000000000006</ele><time>2026-04-15T14:30:49.168Z</time></trkpt><trkpt lat="44.3140832" lon="8.268754"><ele>447.00000000000006</ele><time>2026-04-15T14:30:50.168Z</time></trkpt><trkpt lat="44.3141654" lon="8.2687055"><ele>447.0</ele><time>2026-04-15T14:30:52.168Z</time></trkpt><trkpt lat="44.3142785" lon="8.2686929"><ele>447.0</ele><time>2026-04-15T14:30:54.168Z</time></trkpt><trkpt lat="44.3144002" lon="8.2686441"><ele>447.0</ele><time>2026-04-15T14:30:56.168Z</time></trkpt><trkpt lat="44.3144844" lon="8.2686134"><ele>447.0</ele><time>2026-04-15T14:30:58.17Z</time></trkpt><trkpt lat="44.3145486" lon="8.2685841"><ele>447.0</ele><time>2026-04-15T14:30:59.167Z</time></trkpt><trkpt lat="44.3146232" lon="8.2685565"><ele>447.0</ele><time>2026-04-15T14:31:00.168Z</time></trkpt><trkpt lat="44.3147326" lon="8.268535"><ele>447.0</ele><time>2026-04-15T14:31:02.168Z</time></trkpt><trkpt lat="44.3148287" lon="8.2684805"><ele>447.0</ele><time>2026-04-15T14:31:04.169Z</time></trkpt><trkpt lat="44.3148804" lon="8.2684276"><ele>449.6</ele><time>2026-04-15T14:31:05.168Z</time></trkpt><trkpt lat="44.3149917" lon="8.2683412"><ele>452.20000000000005</ele><time>2026-04-15T14:31:07.167Z</time></trkpt><trkpt lat="44.3150798" lon="8.2682147"><ele>454.8</ele><time>2026-04-15T14:31:09.169Z</time></trkpt><trkpt lat="44.3151326" lon="8.2681613"><ele>457.4</ele><time>2026-04-15T14:31:10.167Z</time></trkpt><trkpt lat="44.3151788" lon="8.2680854"><ele>460.0</ele><time>2026-04-15T14:31:11.167Z</time></trkpt><trkpt lat="44.3152768" lon="8.2680112"><ele>460.0</ele><time>2026-04-15T14:31:13.168Z</time></trkpt><trkpt lat="44.3153667" lon="8.2679214"><ele>460.0</ele><time>2026-04-15T14:31:15.169Z</time></trkpt><trkpt lat="44.315466" lon="8.2678401"><ele>460.0</ele><time>2026-04-15T14:31:17.168Z</time></trkpt><trkpt lat="44.3155551" lon="8.2677706"><ele>460.0</ele><time>2026-04-15T14:31:19.168Z</time></trkpt><trkpt lat="44.3156376" lon="8.2676969"><ele>460.0</ele><time>2026-04-15T14:31:21.168Z</time></trkpt><trkpt lat="44.3157467" lon="8.2676398"><ele>453.2</ele><time>2026-04-15T14:31:23.168Z</time></trkpt><trkpt lat="44.3158099" lon="8.2676167"><ele>446.4</ele><time>2026-04-15T14:31:24.167Z</time></trkpt><trkpt lat="44.3159109" lon="8.2675938"><ele>439.6</ele><time>2026-04-15T14:31:26.168Z</time></trkpt><trkpt lat="44.3160062" lon="8.2675602"><ele>432.8</ele><time>2026-04-15T14:31:28.168Z</time></trkpt><trkpt lat="44.3160992" lon="8.2675207"><ele>426.0</ele><time>2026-04-15T14:31:30.168Z</time></trkpt><trkpt lat="44.3161994" lon="8.2674658"><ele>426.0</ele><time>2026-04-15T14:31:32.166Z</time></trkpt><trkpt lat="44.3162585" lon="8.2674278"><ele>426.0</ele><time>2026-04-15T14:31:33.168Z</time></trkpt><trkpt lat="44.3163673" lon="8.2673862"><ele>426.0</ele><time>2026-04-15T14:31:35.168Z</time></trkpt><trkpt lat="44.3164908" lon="8.2673687"><ele>426.0</ele><time>2026-04-15T14:31:37.167Z</time></trkpt><trkpt lat="44.3166152" lon="8.2673372"><ele>426.0</ele><time>2026-04-15T14:31:39.168Z</time></trkpt><trkpt lat="44.3166821" lon="8.2673219"><ele>425.99999999999994</ele><time>2026-04-15T14:31:40.169Z</time></trkpt><trkpt lat="44.3167462" lon="8.267306"><ele>426.0</ele><time>2026-04-15T14:31:41.168Z</time></trkpt><trkpt lat="44.3168138" lon="8.2672877"><ele>426.0</ele><time>2026-04-15T14:31:42.169Z</time></trkpt><trkpt lat="44.3168905" lon="8.2672695"><ele>426.0</ele><time>2026-04-15T14:31:43.168Z</time></trkpt><trkpt lat="44.3169614" lon="8.2672556"><ele>426.0</ele><time>2026-04-15T14:31:44.167Z</time></trkpt><trkpt lat="44.3170246" lon="8.2672358"><ele>425.99999999999994</ele><time>2026-04-15T14:31:45.167Z</time></trkpt><trkpt lat="44.3170908" lon="8.2672161"><ele>426.0</ele><time>2026-04-15T14:31:46.168Z</time></trkpt><trkpt lat="44.3171578" lon="8.2671963"><ele>425.99999999999994</ele><time>2026-04-15T14:31:47.168Z</time></trkpt><trkpt lat="44.3172278" lon="8.2671695"><ele>426.0</ele><time>2026-04-15T14:31:48.168Z</time></trkpt><trkpt lat="44.3172903" lon="8.2671479"><ele>426.0</ele><time>2026-04-15T14:31:49.168Z</time></trkpt><trkpt lat="44.3173607" lon="8.2671271"><ele>426.0</ele><time>2026-04-15T14:31:50.167Z</time></trkpt><trkpt lat="44.3174349" lon="8.2671042"><ele>426.0</ele><time>2026-04-15T14:31:51.168Z</time></trkpt><trkpt lat="44.3175016" lon="8.2670831"><ele>425.99999999999994</ele><time>2026-04-15T14:31:52.168Z</time></trkpt><trkpt lat="44.3175712" lon="8.2670608"><ele>426.0</ele><time>2026-04-15T14:31:53.167Z</time></trkpt><trkpt lat="44.3176447" lon="8.267046"><ele>425.99999999999994</ele><time>2026-04-15T14:31:54.168Z</time></trkpt><trkpt lat="44.3177125" lon="8.2670254"><ele>426.0</ele><time>2026-04-15T14:31:55.168Z</time></trkpt><trkpt lat="44.3177842" lon="8.2670126"><ele>426.0</ele><time>2026-04-15T14:31:56.167Z</time></trkpt><trkpt lat="44.3178539" lon="8.266993"><ele>426.0</ele><time>2026-04-15T14:31:57.169Z</time></trkpt><trkpt lat="44.3179256" lon="8.2669901"><ele>426.0</ele><time>2026-04-15T14:31:58.169Z</time></trkpt><trkpt lat="44.3179963" lon="8.2669918"><ele>425.99999999999994</ele><time>2026-04-15T14:31:59.167Z</time></trkpt><trkpt lat="44.3180695" lon="8.2669925"><ele>426.0</ele><time>2026-04-15T14:32:00.168Z</time></trkpt><trkpt lat="44.3181361" lon="8.2669926"><ele>426.3333333333333</ele><time>2026-04-15T14:32:01.168Z</time></trkpt><trkpt lat="44.318203" lon="8.2670026"><ele>426.66666666666663</ele><time>2026-04-15T14:32:02.169Z</time></trkpt><trkpt lat="44.3182765" lon="8.2670215"><ele>427.0</ele><time>2026-04-15T14:32:03.169Z</time></trkpt><trkpt lat="44.3183435" lon="8.2670308"><ele>427.3333333333333</ele><time>2026-04-15T14:32:04.168Z</time></trkpt><trkpt lat="44.3184105" lon="8.2670409"><ele>427.66666666666663</ele><time>2026-04-15T14:32:05.169Z</time></trkpt><trkpt lat="44.3185429" lon="8.267061"><ele>428.0</ele><time>2026-04-15T14:32:07.167Z</time></trkpt><trkpt lat="44.3186055" lon="8.2670726"><ele>428.0</ele><time>2026-04-15T14:32:08.168Z</time></trkpt><trkpt lat="44.3187362" lon="8.267112"><ele>427.99999999999994</ele><time>2026-04-15T14:32:10.168Z</time></trkpt><trkpt lat="44.3188493" lon="8.2671113"><ele>427.99999999999994</ele><time>2026-04-15T14:32:12.169Z</time></trkpt><trkpt lat="44.3189595" lon="8.2671297"><ele>428.0</ele><time>2026-04-15T14:32:14.167Z</time></trkpt><trkpt lat="44.3190275" lon="8.2671201"><ele>428.0</ele><time>2026-04-15T14:32:15.168Z</time></trkpt><trkpt lat="44.3190907" lon="8.2671308"><ele>426.49999999999994</ele><time>2026-04-15T14:32:16.168Z</time></trkpt><trkpt lat="44.3192113" lon="8.2671485"><ele>425.0</ele><time>2026-04-15T14:32:18.169Z</time></trkpt><trkpt lat="44.3192811" lon="8.267172"><ele>423.5</ele><time>2026-04-15T14:32:19.168Z</time></trkpt><trkpt lat="44.319343" lon="8.2671982"><ele>422.0</ele><time>2026-04-15T14:32:20.168Z</time></trkpt><trkpt lat="44.3194012" lon="8.2672319"><ele>420.49999999999994</ele><time>2026-04-15T14:32:21.168Z</time></trkpt><trkpt lat="44.3195021" lon="8.267329"><ele>419.0</ele><time>2026-04-15T14:32:23.167Z</time></trkpt><trkpt lat="44.3195488" lon="8.2674025"><ele>418.99999999999994</ele><time>2026-04-15T14:32:24.168Z</time></trkpt><trkpt lat="44.3196049" lon="8.2674528"><ele>419.0</ele><time>2026-04-15T14:32:25.168Z</time></trkpt><trkpt lat="44.3196543" lon="8.2675115"><ele>419.0</ele><time>2026-04-15T14:32:26.167Z</time></trkpt><trkpt lat="44.319727" lon="8.2675765"><ele>419.0</ele><time>2026-04-15T14:32:27.167Z</time></trkpt><trkpt lat="44.3198145" lon="8.2676833"><ele>418.99999999999994</ele><time>2026-04-15T14:32:29.169Z</time></trkpt><trkpt lat="44.3198667" lon="8.2677455"><ele>419.0</ele><time>2026-04-15T14:32:30.166Z</time></trkpt><trkpt lat="44.3199225" lon="8.2678055"><ele>418.3333333333333</ele><time>2026-04-15T14:32:31.169Z</time></trkpt><trkpt lat="44.3199764" lon="8.2678657"><ele>417.66666666666663</ele><time>2026-04-15T14:32:32.168Z</time></trkpt><trkpt lat="44.3200643" lon="8.2679676"><ele>417.0</ele><time>2026-04-15T14:32:34.168Z</time></trkpt><trkpt lat="44.320114" lon="8.2680489"><ele>416.33333333333337</ele><time>2026-04-15T14:32:35.169Z</time></trkpt><trkpt lat="44.3201601" lon="8.2681133"><ele>415.6666666666667</ele><time>2026-04-15T14:32:36.168Z</time></trkpt><trkpt lat="44.3202042" lon="8.2681821"><ele>415.0</ele><time>2026-04-15T14:32:37.168Z</time></trkpt><trkpt lat="44.3202518" lon="8.2682517"><ele>415.00000000000006</ele><time>2026-04-15T14:32:38.168Z</time></trkpt><trkpt lat="44.3202987" lon="8.2683183"><ele>415.0</ele><time>2026-04-15T14:32:39.168Z</time></trkpt><trkpt lat="44.3203931" lon="8.2684236"><ele>415.0</ele><time>2026-04-15T14:32:41.169Z</time></trkpt><trkpt lat="44.3204475" lon="8.2684882"><ele>415.0</ele><time>2026-04-15T14:32:42.168Z</time></trkpt><trkpt lat="44.3204992" lon="8.268543"><ele>415.00000000000006</ele><time>2026-04-15T14:32:43.168Z</time></trkpt><trkpt lat="44.3205832" lon="8.2686733"><ele>415.0</ele><time>2026-04-15T14:32:45.167Z</time></trkpt><trkpt lat="44.3206237" lon="8.2687527"><ele>415.2</ele><time>2026-04-15T14:32:46.167Z</time></trkpt><trkpt lat="44.3207218" lon="8.268854"><ele>415.4</ele><time>2026-04-15T14:32:48.167Z</time></trkpt><trkpt lat="44.3207983" lon="8.2689635"><ele>415.6</ele><time>2026-04-15T14:32:50.168Z</time></trkpt><trkpt lat="44.3208851" lon="8.2690837"><ele>415.8</ele><time>2026-04-15T14:32:52.169Z</time></trkpt><trkpt lat="44.3209328" lon="8.2691444"><ele>416.0</ele><time>2026-04-15T14:32:53.168Z</time></trkpt><trkpt lat="44.3210202" lon="8.2692638"><ele>416.0</ele><time>2026-04-15T14:32:55.168Z</time></trkpt><trkpt lat="44.3211017" lon="8.2693796"><ele>416.0</ele><time>2026-04-15T14:32:57.169Z</time></trkpt><trkpt lat="44.3211902" lon="8.2694978"><ele>416.0</ele><time>2026-04-15T14:32:59.169Z</time></trkpt><trkpt lat="44.3212742" lon="8.2696096"><ele>416.0</ele><time>2026-04-15T14:33:01.166Z</time></trkpt><trkpt lat="44.3213593" lon="8.2697124"><ele>416.20000000000005</ele><time>2026-04-15T14:33:03.168Z</time></trkpt><trkpt lat="44.3214608" lon="8.2697915"><ele>416.40000000000003</ele><time>2026-04-15T14:33:05.168Z</time></trkpt><trkpt lat="44.3215698" lon="8.2698321"><ele>416.6</ele><time>2026-04-15T14:33:07.168Z</time></trkpt><trkpt lat="44.3216381" lon="8.2698436"><ele>416.8</ele><time>2026-04-15T14:33:08.169Z</time></trkpt><trkpt lat="44.3217618" lon="8.2698589"><ele>417.0</ele><time>2026-04-15T14:33:10.169Z</time></trkpt><trkpt lat="44.321869" lon="8.2699038"><ele>417.0</ele><time>2026-04-15T14:33:12.169Z</time></trkpt><trkpt lat="44.3219392" lon="8.2699369"><ele>417.0</ele><time>2026-04-15T14:33:13.167Z</time></trkpt><trkpt lat="44.32206" lon="8.2699551"><ele>417.0</ele><time>2026-04-15T14:33:15.168Z</time></trkpt><trkpt lat="44.3221256" lon="8.2699562"><ele>417.0</ele><time>2026-04-15T14:33:16.168Z</time></trkpt><trkpt lat="44.3222202" lon="8.2699839"><ele>417.0</ele><time>2026-04-15T14:33:18.169Z</time></trkpt><trkpt lat="44.3223098" lon="8.2700148"><ele>417.0</ele><time>2026-04-15T14:33:20.168Z</time></trkpt><trkpt lat="44.3224163" lon="8.2700467"><ele>417.0</ele><time>2026-04-15T14:33:22.168Z</time></trkpt><trkpt lat="44.32254" lon="8.2700794"><ele>417.0</ele><time>2026-04-15T14:33:24.168Z</time></trkpt><trkpt lat="44.3226504" lon="8.2701018"><ele>417.0</ele><time>2026-04-15T14:33:26.167Z</time></trkpt><trkpt lat="44.3227543" lon="8.2701371"><ele>417.0</ele><time>2026-04-15T14:33:28.168Z</time></trkpt><trkpt lat="44.322861" lon="8.2701782"><ele>417.0</ele><time>2026-04-15T14:33:30.168Z</time></trkpt><trkpt lat="44.3229726" lon="8.2702277"><ele>417.0</ele><time>2026-04-15T14:33:32.168Z</time></trkpt><trkpt lat="44.323073" lon="8.2703209"><ele>417.0</ele><time>2026-04-15T14:33:34.169Z</time></trkpt><trkpt lat="44.3231296" lon="8.2703612"><ele>417.0</ele><time>2026-04-15T14:33:35.168Z</time></trkpt><trkpt lat="44.3232116" lon="8.2704597"><ele>418.0</ele><time>2026-04-15T14:33:37.168Z</time></trkpt><trkpt lat="44.3232935" lon="8.2705625"><ele>419.0</ele><time>2026-04-15T14:33:39.168Z</time></trkpt><trkpt lat="44.3233778" lon="8.2706473"><ele>420.0</ele><time>2026-04-15T14:33:41.169Z</time></trkpt><trkpt lat="44.3234622" lon="8.2707368"><ele>421.0</ele><time>2026-04-15T14:33:43.169Z</time></trkpt><trkpt lat="44.3235587" lon="8.270824"><ele>422.0</ele><time>2026-04-15T14:33:45.168Z</time></trkpt><trkpt lat="44.3236508" lon="8.270906"><ele>420.75</ele><time>2026-04-15T14:33:47.167Z</time></trkpt><trkpt lat="44.3237515" lon="8.2709776"><ele>419.5</ele><time>2026-04-15T14:33:49.168Z</time></trkpt><trkpt lat="44.3238494" lon="8.2710461"><ele>418.25</ele><time>2026-04-15T14:33:51.168Z</time></trkpt><trkpt lat="44.3239627" lon="8.2711169"><ele>417.0</ele><time>2026-04-15T14:33:53.168Z</time></trkpt><trkpt lat="44.324071" lon="8.2711775"><ele>417.0</ele><time>2026-04-15T14:33:55.169Z</time></trkpt><trkpt lat="44.3241898" lon="8.2712414"><ele>417.0</ele><time>2026-04-15T14:33:57.169Z</time></trkpt><trkpt lat="44.3243114" lon="8.2712976"><ele>417.0</ele><time>2026-04-15T14:33:59.168Z</time></trkpt><trkpt lat="44.3243761" lon="8.2713306"><ele>417.0</ele><time>2026-04-15T14:34:00.167Z</time></trkpt><trkpt lat="44.3244407" lon="8.2713569"><ele>417.0</ele><time>2026-04-15T14:34:01.167Z</time></trkpt><trkpt lat="44.3245041" lon="8.271397"><ele>417.0</ele><time>2026-04-15T14:34:02.167Z</time></trkpt><trkpt lat="44.3245726" lon="8.2714295"><ele>417.0</ele><time>2026-04-15T14:34:03.168Z</time></trkpt><trkpt lat="44.324644" lon="8.2714573"><ele>417.0</ele><time>2026-04-15T14:34:04.169Z</time></trkpt><trkpt lat="44.3247146" lon="8.271499"><ele>417.0</ele><time>2026-04-15T14:34:05.169Z</time></trkpt><trkpt lat="44.3247818" lon="8.2715405"><ele>417.0</ele><time>2026-04-15T14:34:06.168Z</time></trkpt><trkpt lat="44.3248495" lon="8.271583"><ele>417.0</ele><time>2026-04-15T14:34:07.168Z</time></trkpt><trkpt lat="44.3249154" lon="8.2716289"><ele>417.0</ele><time>2026-04-15T14:34:08.168Z</time></trkpt><trkpt lat="44.3249799" lon="8.2716889"><ele>416.5</ele><time>2026-04-15T14:34:09.168Z</time></trkpt><trkpt lat="44.3250434" lon="8.2717451"><ele>416.0</ele><time>2026-04-15T14:34:10.167Z</time></trkpt><trkpt lat="44.3251062" lon="8.2718087"><ele>415.5</ele><time>2026-04-15T14:34:11.168Z</time></trkpt><trkpt lat="44.3251701" lon="8.2718681"><ele>415.0</ele><time>2026-04-15T14:34:12.168Z</time></trkpt><trkpt lat="44.32523" lon="8.2719312"><ele>414.5</ele><time>2026-04-15T14:34:13.167Z</time></trkpt><trkpt lat="44.3252968" lon="8.2719957"><ele>414.0</ele><time>2026-04-15T14:34:14.168Z</time></trkpt><trkpt lat="44.325362" lon="8.2720686"><ele>414.0</ele><time>2026-04-15T14:34:15.167Z</time></trkpt><trkpt lat="44.3254085" lon="8.2721374"><ele>414.0</ele><time>2026-04-15T14:34:16.168Z</time></trkpt><trkpt lat="44.3254755" lon="8.2722088"><ele>414.0</ele><time>2026-04-15T14:34:17.167Z</time></trkpt><trkpt lat="44.3255412" lon="8.2722739"><ele>414.0</ele><time>2026-04-15T14:34:18.167Z</time></trkpt><trkpt lat="44.3256145" lon="8.2723513"><ele>414.0</ele><time>2026-04-15T14:34:19.169Z</time></trkpt><trkpt lat="44.3256867" lon="8.2724157"><ele>414.0</ele><time>2026-04-15T14:34:20.168Z</time></trkpt><trkpt lat="44.3257366" lon="8.2724992"><ele>413.5</ele><time>2026-04-15T14:34:21.168Z</time></trkpt><trkpt lat="44.3257936" lon="8.2725847"><ele>413.0</ele><time>2026-04-15T14:34:22.168Z</time></trkpt><trkpt lat="44.3258398" lon="8.2726944"><ele>412.5</ele><time>2026-04-15T14:34:23.168Z</time></trkpt><trkpt lat="44.3258755" lon="8.2727896"><ele>412.0</ele><time>2026-04-15T14:34:24.167Z</time></trkpt><trkpt lat="44.3259219" lon="8.2728905"><ele>411.5</ele><time>2026-04-15T14:34:25.169Z</time></trkpt><trkpt lat="44.325982" lon="8.2729885"><ele>411.0</ele><time>2026-04-15T14:34:26.166Z</time></trkpt><trkpt lat="44.3260479" lon="8.2730645"><ele>409.8333333333333</ele><time>2026-04-15T14:34:27.168Z</time></trkpt><trkpt lat="44.3261176" lon="8.2731195"><ele>408.66666666666663</ele><time>2026-04-15T14:34:28.169Z</time></trkpt><trkpt lat="44.3262339" lon="8.2731981"><ele>407.5</ele><time>2026-04-15T14:34:30.168Z</time></trkpt><trkpt lat="44.326296" lon="8.2732287"><ele>406.3333333333333</ele><time>2026-04-15T14:34:31.168Z</time></trkpt><trkpt lat="44.3263557" lon="8.2732573"><ele>405.16666666666663</ele><time>2026-04-15T14:34:32.166Z</time></trkpt><trkpt lat="44.326416" lon="8.2732937"><ele>404.0</ele><time>2026-04-15T14:34:33.167Z</time></trkpt><trkpt lat="44.3265176" lon="8.273361"><ele>404.0</ele><time>2026-04-15T14:34:35.168Z</time></trkpt><trkpt lat="44.326627" lon="8.2734159"><ele>404.0</ele><time>2026-04-15T14:34:37.167Z</time></trkpt><trkpt lat="44.3267252" lon="8.2734991"><ele>404.0</ele><time>2026-04-15T14:34:39.169Z</time></trkpt><trkpt lat="44.3268109" lon="8.2736054"><ele>404.0</ele><time>2026-04-15T14:34:41.168Z</time></trkpt><trkpt lat="44.3268709" lon="8.2737112"><ele>404.0</ele><time>2026-04-15T14:34:43.168Z</time></trkpt><trkpt lat="44.3269423" lon="8.2738261"><ele>403.6</ele><time>2026-04-15T14:34:45.169Z</time></trkpt><trkpt lat="44.3270085" lon="8.273943"><ele>403.2</ele><time>2026-04-15T14:34:47.169Z</time></trkpt><trkpt lat="44.3270717" lon="8.2740741"><ele>402.8</ele><time>2026-04-15T14:34:49.169Z</time></trkpt><trkpt lat="44.3271316" lon="8.2742083"><ele>402.40000000000003</ele><time>2026-04-15T14:34:51.168Z</time></trkpt><trkpt lat="44.327159" lon="8.274289"><ele>402.0</ele><time>2026-04-15T14:34:52.167Z</time></trkpt><trkpt lat="44.3271847" lon="8.2743786"><ele>402.0</ele><time>2026-04-15T14:34:53.167Z</time></trkpt><trkpt lat="44.3272161" lon="8.2745471"><ele>402.0</ele><time>2026-04-15T14:34:55.168Z</time></trkpt><trkpt lat="44.3272324" lon="8.2746442"><ele>402.0</ele><time>2026-04-15T14:34:56.168Z</time></trkpt><trkpt lat="44.327251" lon="8.2747286"><ele>402.0</ele><time>2026-04-15T14:34:57.168Z</time></trkpt><trkpt lat="44.3272685" lon="8.2748244"><ele>402.0</ele><time>2026-04-15T14:34:58.168Z</time></trkpt><trkpt lat="44.3272867" lon="8.2749182"><ele>402.0</ele><time>2026-04-15T14:34:59.167Z</time></trkpt><trkpt lat="44.3273062" lon="8.275011"><ele>402.7142857142857</ele><time>2026-04-15T14:35:00.167Z</time></trkpt><trkpt lat="44.3273287" lon="8.2751141"><ele>403.42857142857144</ele><time>2026-04-15T14:35:01.168Z</time></trkpt><trkpt lat="44.3273448" lon="8.2752128"><ele>404.14285714285717</ele><time>2026-04-15T14:35:02.167Z</time></trkpt><trkpt lat="44.3273629" lon="8.2753128"><ele>404.8571428571429</ele><time>2026-04-15T14:35:03.168Z</time></trkpt><trkpt lat="44.3273814" lon="8.275416"><ele>405.57142857142856</ele><time>2026-04-15T14:35:04.168Z</time></trkpt><trkpt lat="44.3273929" lon="8.2755149"><ele>406.28571428571433</ele><time>2026-04-15T14:35:05.168Z</time></trkpt><trkpt lat="44.3274143" lon="8.2756024"><ele>407.0</ele><time>2026-04-15T14:35:06.169Z</time></trkpt><trkpt lat="44.3274369" lon="8.2756887"><ele>407.0</ele><time>2026-04-15T14:35:07.169Z</time></trkpt><trkpt lat="44.3274567" lon="8.2757782"><ele>407.0</ele><time>2026-04-15T14:35:08.167Z</time></trkpt><trkpt lat="44.3275221" lon="8.2759274"><ele>407.0</ele><time>2026-04-15T14:35:10.167Z</time></trkpt><trkpt lat="44.3275848" lon="8.2760796"><ele>407.0</ele><time>2026-04-15T14:35:12.169Z</time></trkpt><trkpt lat="44.3276374" lon="8.2762322"><ele>407.0</ele><time>2026-04-15T14:35:14.166Z</time></trkpt><trkpt lat="44.327701" lon="8.2763728"><ele>405.8</ele><time>2026-04-15T14:35:16.168Z</time></trkpt><trkpt lat="44.3277597" lon="8.2765002"><ele>404.6</ele><time>2026-04-15T14:35:18.167Z</time></trkpt><trkpt lat="44.3278256" lon="8.2766275"><ele>403.40000000000003</ele><time>2026-04-15T14:35:20.167Z</time></trkpt><trkpt lat="44.3278592" lon="8.2767044"><ele>402.20000000000005</ele><time>2026-04-15T14:35:21.168Z</time></trkpt><trkpt lat="44.3279236" lon="8.2768393"><ele>401.0</ele><time>2026-04-15T14:35:23.168Z</time></trkpt><trkpt lat="44.327962" lon="8.2769761"><ele>401.0</ele><time>2026-04-15T14:35:25.168Z</time></trkpt><trkpt lat="44.3280327" lon="8.2771159"><ele>401.0</ele><time>2026-04-15T14:35:27.168Z</time></trkpt><trkpt lat="44.328095" lon="8.2772545"><ele>401.0</ele><time>2026-04-15T14:35:29.169Z</time></trkpt><trkpt lat="44.3281281" lon="8.2773302"><ele>401.0</ele><time>2026-04-15T14:35:30.168Z</time></trkpt><trkpt lat="44.3281992" lon="8.2774646"><ele>401.0</ele><time>2026-04-15T14:35:32.169Z</time></trkpt><trkpt lat="44.3282417" lon="8.2775364"><ele>401.4</ele><time>2026-04-15T14:35:33.168Z</time></trkpt><trkpt lat="44.3283249" lon="8.2776795"><ele>401.8</ele><time>2026-04-15T14:35:35.167Z</time></trkpt><trkpt lat="44.3283653" lon="8.277747"><ele>402.2</ele><time>2026-04-15T14:35:36.167Z</time></trkpt><trkpt lat="44.3284501" lon="8.2778788"><ele>402.59999999999997</ele><time>2026-04-15T14:35:38.169Z</time></trkpt><trkpt lat="44.3284946" lon="8.2779458"><ele>403.0</ele><time>2026-04-15T14:35:39.167Z</time></trkpt><trkpt lat="44.3285721" lon="8.2780687"><ele>402.2</ele><time>2026-04-15T14:35:41.167Z</time></trkpt><trkpt lat="44.3286505" lon="8.2781897"><ele>401.4</ele><time>2026-04-15T14:35:43.168Z</time></trkpt><trkpt lat="44.3286945" lon="8.278256"><ele>400.59999999999997</ele><time>2026-04-15T14:35:44.168Z</time></trkpt><trkpt lat="44.328768" lon="8.2783769"><ele>399.79999999999995</ele><time>2026-04-15T14:35:46.169Z</time></trkpt><trkpt lat="44.3288331" lon="8.2785045"><ele>399.0</ele><time>2026-04-15T14:35:48.167Z</time></trkpt><trkpt lat="44.3288973" lon="8.278638"><ele>400.75</ele><time>2026-04-15T14:35:50.167Z</time></trkpt><trkpt lat="44.328954" lon="8.278775"><ele>402.5</ele><time>2026-04-15T14:35:52.169Z</time></trkpt><trkpt lat="44.3290169" lon="8.278911"><ele>404.25</ele><time>2026-04-15T14:35:54.168Z</time></trkpt><trkpt lat="44.3290666" lon="8.2790664"><ele>406.0</ele><time>2026-04-15T14:35:56.168Z</time></trkpt><trkpt lat="44.3291101" lon="8.2792218"><ele>406.0</ele><time>2026-04-15T14:35:58.167Z</time></trkpt><trkpt lat="44.329157" lon="8.2793533"><ele>406.0</ele><time>2026-04-15T14:36:00.168Z</time></trkpt><trkpt lat="44.3292004" lon="8.2794851"><ele>406.0</ele><time>2026-04-15T14:36:02.167Z</time></trkpt><trkpt lat="44.3292329" lon="8.2796148"><ele>406.0</ele><time>2026-04-15T14:36:04.168Z</time></trkpt><trkpt lat="44.3292841" lon="8.2797317"><ele>406.0</ele><time>2026-04-15T14:36:06.167Z</time></trkpt><trkpt lat="44.32933" lon="8.2798697"><ele>404.8</ele><time>2026-04-15T14:36:08.169Z</time></trkpt><trkpt lat="44.3293774" lon="8.279998"><ele>403.6</ele><time>2026-04-15T14:36:10.168Z</time></trkpt><trkpt lat="44.32942" lon="8.2801293"><ele>402.4</ele><time>2026-04-15T14:36:12.167Z</time></trkpt><trkpt lat="44.3294661" lon="8.280264"><ele>401.2</ele><time>2026-04-15T14:36:14.169Z</time></trkpt><trkpt lat="44.3295096" lon="8.2803375"><ele>400.0</ele><time>2026-04-15T14:36:15.168Z</time></trkpt><trkpt lat="44.3295556" lon="8.2804784"><ele>400.0</ele><time>2026-04-15T14:36:17.168Z</time></trkpt><trkpt lat="44.3295941" lon="8.2805501"><ele>400.0</ele><time>2026-04-15T14:36:18.168Z</time></trkpt><trkpt lat="44.3296484" lon="8.2806925"><ele>400.0</ele><time>2026-04-15T14:36:20.168Z</time></trkpt><trkpt lat="44.3296969" lon="8.2808426"><ele>400.0</ele><time>2026-04-15T14:36:22.168Z</time></trkpt><trkpt lat="44.3297254" lon="8.2809235"><ele>400.0</ele><time>2026-04-15T14:36:23.168Z</time></trkpt><trkpt lat="44.3297569" lon="8.2810712"><ele>400.33333333333337</ele><time>2026-04-15T14:36:25.168Z</time></trkpt><trkpt lat="44.3297912" lon="8.2811469"><ele>400.6666666666667</ele><time>2026-04-15T14:36:26.168Z</time></trkpt><trkpt lat="44.3298312" lon="8.2813088"><ele>401.0</ele><time>2026-04-15T14:36:28.167Z</time></trkpt><trkpt lat="44.3298639" lon="8.2813866"><ele>401.33333333333337</ele><time>2026-04-15T14:36:29.168Z</time></trkpt><trkpt lat="44.3299009" lon="8.2814661"><ele>401.6666666666667</ele><time>2026-04-15T14:36:30.167Z</time></trkpt><trkpt lat="44.3299427" lon="8.2815489"><ele>402.0</ele><time>2026-04-15T14:36:31.166Z</time></trkpt><trkpt lat="44.3299895" lon="8.2816221"><ele>401.1666666666667</ele><time>2026-04-15T14:36:32.168Z</time></trkpt><trkpt lat="44.3300366" lon="8.2816842"><ele>400.33333333333337</ele><time>2026-04-15T14:36:33.168Z</time></trkpt><trkpt lat="44.3300934" lon="8.281746"><ele>399.5</ele><time>2026-04-15T14:36:34.168Z</time></trkpt><trkpt lat="44.3301813" lon="8.2818689"><ele>398.6666666666667</ele><time>2026-04-15T14:36:36.168Z</time></trkpt><trkpt lat="44.33023" lon="8.281925"><ele>397.83333333333337</ele><time>2026-04-15T14:36:37.168Z</time></trkpt><trkpt lat="44.3303172" lon="8.2820394"><ele>397.0</ele><time>2026-04-15T14:36:39.167Z</time></trkpt><trkpt lat="44.330412" lon="8.2821581"><ele>397.25</ele><time>2026-04-15T14:36:41.168Z</time></trkpt><trkpt lat="44.3304989" lon="8.2822662"><ele>397.5</ele><time>2026-04-15T14:36:43.168Z</time></trkpt><trkpt lat="44.3305901" lon="8.282383"><ele>397.75</ele><time>2026-04-15T14:36:45.168Z</time></trkpt><trkpt lat="44.3306808" lon="8.2825031"><ele>398.0</ele><time>2026-04-15T14:36:47.167Z</time></trkpt><trkpt lat="44.3307704" lon="8.2826085"><ele>398.0</ele><time>2026-04-15T14:36:49.168Z</time></trkpt><trkpt lat="44.3308643" lon="8.2827179"><ele>398.0</ele><time>2026-04-15T14:36:51.168Z</time></trkpt><trkpt lat="44.3309624" lon="8.2828275"><ele>398.0</ele><time>2026-04-15T14:36:53.168Z</time></trkpt><trkpt lat="44.3310399" lon="8.2829326"><ele>398.0</ele><time>2026-04-15T14:36:55.167Z</time></trkpt><trkpt lat="44.3310938" lon="8.2829932"><ele>398.0</ele><time>2026-04-15T14:36:56.168Z</time></trkpt><trkpt lat="44.3311846" lon="8.2831035"><ele>396.75</ele><time>2026-04-15T14:36:58.167Z</time></trkpt><trkpt lat="44.3312626" lon="8.2832102"><ele>395.5</ele><time>2026-04-15T14:37:00.168Z</time></trkpt><trkpt lat="44.3313477" lon="8.2833197"><ele>394.25</ele><time>2026-04-15T14:37:02.168Z</time></trkpt><trkpt lat="44.3314385" lon="8.2834263"><ele>393.0</ele><time>2026-04-15T14:37:04.167Z</time></trkpt><trkpt lat="44.3315233" lon="8.2835334"><ele>393.75</ele><time>2026-04-15T14:37:06.167Z</time></trkpt><trkpt lat="44.3316109" lon="8.2836459"><ele>394.5</ele><time>2026-04-15T14:37:08.168Z</time></trkpt><trkpt lat="44.3316991" lon="8.2837465"><ele>395.25</ele><time>2026-04-15T14:37:10.168Z</time></trkpt><trkpt lat="44.3317852" lon="8.2838544"><ele>396.0</ele><time>2026-04-15T14:37:12.168Z</time></trkpt><trkpt lat="44.3318939" lon="8.2839499"><ele>396.0</ele><time>2026-04-15T14:37:14.167Z</time></trkpt><trkpt lat="44.3319496" lon="8.284005"><ele>396.0</ele><time>2026-04-15T14:37:15.167Z</time></trkpt><trkpt lat="44.3320489" lon="8.2840974"><ele>396.0</ele><time>2026-04-15T14:37:17.167Z</time></trkpt><trkpt lat="44.3321062" lon="8.2841396"><ele>396.0</ele><time>2026-04-15T14:37:18.168Z</time></trkpt><trkpt lat="44.3322071" lon="8.284232"><ele>396.0</ele><time>2026-04-15T14:37:20.167Z</time></trkpt><trkpt lat="44.3322642" lon="8.2842779"><ele>396.0</ele><time>2026-04-15T14:37:21.168Z</time></trkpt><trkpt lat="44.3323528" lon="8.2843698"><ele>395.7142857142857</ele><time>2026-04-15T14:37:23.167Z</time></trkpt><trkpt lat="44.332406" lon="8.2844309"><ele>395.4285714285714</ele><time>2026-04-15T14:37:24.168Z</time></trkpt><trkpt lat="44.3324611" lon="8.2844964"><ele>395.1428571428571</ele><time>2026-04-15T14:37:25.167Z</time></trkpt><trkpt lat="44.3325205" lon="8.2845533"><ele>394.8571428571429</ele><time>2026-04-15T14:37:26.167Z</time></trkpt><trkpt lat="44.3325786" lon="8.2846184"><ele>394.57142857142856</ele><time>2026-04-15T14:37:27.166Z</time></trkpt><trkpt lat="44.3326329" lon="8.2846804"><ele>394.2857142857143</ele><time>2026-04-15T14:37:28.167Z</time></trkpt><trkpt lat="44.3326863" lon="8.2847378"><ele>394.0</ele><time>2026-04-15T14:37:29.168Z</time></trkpt><trkpt lat="44.3327612" lon="8.2848881"><ele>394.0</ele><time>2026-04-15T14:37:31.168Z</time></trkpt><trkpt lat="44.3328029" lon="8.2849737"><ele>394.0</ele><time>2026-04-15T14:37:32.168Z</time></trkpt><trkpt lat="44.3328422" lon="8.2850598"><ele>394.0</ele><time>2026-04-15T14:37:33.167Z</time></trkpt><trkpt lat="44.3328829" lon="8.2851525"><ele>394.0</ele><time>2026-04-15T14:37:34.167Z</time></trkpt><trkpt lat="44.3329171" lon="8.2852417"><ele>394.0</ele><time>2026-04-15T14:37:35.167Z</time></trkpt><trkpt lat="44.3329489" lon="8.2853307"><ele>394.0</ele><time>2026-04-15T14:37:36.168Z</time></trkpt><trkpt lat="44.332977" lon="8.2854168"><ele>394.0</ele><time>2026-04-15T14:37:37.167Z</time></trkpt><trkpt lat="44.333003" lon="8.2855014"><ele>393.42857142857144</ele><time>2026-04-15T14:37:38.167Z</time></trkpt><trkpt lat="44.3330326" lon="8.285602"><ele>392.8571428571429</ele><time>2026-04-15T14:37:39.167Z</time></trkpt><trkpt lat="44.3330534" lon="8.2856951"><ele>392.2857142857143</ele><time>2026-04-15T14:37:40.168Z</time></trkpt><trkpt lat="44.3330877" lon="8.285775"><ele>391.7142857142857</ele><time>2026-04-15T14:37:41.167Z</time></trkpt><trkpt lat="44.3331062" lon="8.2858708"><ele>391.1428571428571</ele><time>2026-04-15T14:37:42.168Z</time></trkpt><trkpt lat="44.3331315" lon="8.2859586"><ele>390.57142857142856</ele><time>2026-04-15T14:37:43.168Z</time></trkpt><trkpt lat="44.3331489" lon="8.2860436"><ele>390.0</ele><time>2026-04-15T14:37:44.166Z</time></trkpt><trkpt lat="44.333182" lon="8.2861307"><ele>390.7142857142857</ele><time>2026-04-15T14:37:45.168Z</time></trkpt><trkpt lat="44.3332081" lon="8.2862137"><ele>391.42857142857144</ele><time>2026-04-15T14:37:46.168Z</time></trkpt><trkpt lat="44.3332425" lon="8.2862984"><ele>392.1428571428571</ele><time>2026-04-15T14:37:47.168Z</time></trkpt><trkpt lat="44.3332765" lon="8.2863821"><ele>392.8571428571429</ele><time>2026-04-15T14:37:48.166Z</time></trkpt><trkpt lat="44.3333054" lon="8.2864649"><ele>393.5714285714286</ele><time>2026-04-15T14:37:49.168Z</time></trkpt><trkpt lat="44.3333375" lon="8.2865458"><ele>394.2857142857143</ele><time>2026-04-15T14:37:50.168Z</time></trkpt><trkpt lat="44.3333767" lon="8.2866241"><ele>395.0</ele><time>2026-04-15T14:37:51.167Z</time></trkpt><trkpt lat="44.3334152" lon="8.2866998"><ele>395.0</ele><time>2026-04-15T14:37:52.168Z</time></trkpt><trkpt lat="44.3334554" lon="8.2867759"><ele>395.0</ele><time>2026-04-15T14:37:53.168Z</time></trkpt><trkpt lat="44.3335425" lon="8.2869092"><ele>395.0</ele><time>2026-04-15T14:37:55.166Z</time></trkpt><trkpt lat="44.3336051" lon="8.2869791"><ele>395.0</ele><time>2026-04-15T14:37:56.168Z</time></trkpt><trkpt lat="44.333679" lon="8.2871216"><ele>395.0</ele><time>2026-04-15T14:37:58.167Z</time></trkpt><trkpt lat="44.3337221" lon="8.2871887"><ele>393.6</ele><time>2026-04-15T14:37:59.168Z</time></trkpt><trkpt lat="44.3337802" lon="8.2873363"><ele>392.2</ele><time>2026-04-15T14:38:01.168Z</time></trkpt><trkpt lat="44.3338694" lon="8.2874544"><ele>390.79999999999995</ele><time>2026-04-15T14:38:03.167Z</time></trkpt><trkpt lat="44.3339342" lon="8.2875728"><ele>389.4</ele><time>2026-04-15T14:38:05.166Z</time></trkpt><trkpt lat="44.3339689" lon="8.2876478"><ele>388.0</ele><time>2026-04-15T14:38:06.168Z</time></trkpt><trkpt lat="44.3340058" lon="8.2877229"><ele>390.0</ele><time>2026-04-15T14:38:07.168Z</time></trkpt><trkpt lat="44.3340717" lon="8.2878597"><ele>392.0</ele><time>2026-04-15T14:38:09.167Z</time></trkpt><trkpt lat="44.3341149" lon="8.2879477"><ele>394.0</ele><time>2026-04-15T14:38:10.168Z</time></trkpt><trkpt lat="44.3341779" lon="8.28805"><ele>396.0</ele><time>2026-04-15T14:38:12.167Z</time></trkpt><trkpt lat="44.3342145" lon="8.2881219"><ele>398.0</ele><time>2026-04-15T14:38:13.167Z</time></trkpt><trkpt lat="44.3342694" lon="8.2883004"><ele>397.99999999999994</ele><time>2026-04-15T14:38:15.168Z</time></trkpt><trkpt lat="44.334281" lon="8.2884138"><ele>398.0</ele><time>2026-04-15T14:38:16.167Z</time></trkpt><trkpt lat="44.3343086" lon="8.2884962"><ele>398.0</ele><time>2026-04-15T14:38:17.168Z</time></trkpt><trkpt lat="44.3343337" lon="8.2885936"><ele>398.0</ele><time>2026-04-15T14:38:18.167Z</time></trkpt><trkpt lat="44.3343525" lon="8.2886849"><ele>398.0</ele><time>2026-04-15T14:38:19.168Z</time></trkpt><trkpt lat="44.3343822" lon="8.2887645"><ele>397.99999999999994</ele><time>2026-04-15T14:38:20.168Z</time></trkpt><trkpt lat="44.3344038" lon="8.2888714"><ele>398.0</ele><time>2026-04-15T14:38:21.168Z</time></trkpt><trkpt lat="44.3344291" lon="8.2889557"><ele>395.59999999999997</ele><time>2026-04-15T14:38:22.168Z</time></trkpt><trkpt lat="44.3344501" lon="8.2890387"><ele>393.2</ele><time>2026-04-15T14:38:23.167Z</time></trkpt><trkpt lat="44.3344649" lon="8.2891384"><ele>390.8</ele><time>2026-04-15T14:38:24.168Z</time></trkpt><trkpt lat="44.3344983" lon="8.2893127"><ele>388.4</ele><time>2026-04-15T14:38:26.167Z</time></trkpt><trkpt lat="44.3345139" lon="8.289399"><ele>386.0</ele><time>2026-04-15T14:38:27.168Z</time></trkpt><trkpt lat="44.3345985" lon="8.2895233"><ele>385.99999999999994</ele><time>2026-04-15T14:38:29.168Z</time></trkpt><trkpt lat="44.3346443" lon="8.2895911"><ele>386.0</ele><time>2026-04-15T14:38:30.168Z</time></trkpt><trkpt lat="44.3346953" lon="8.2896427"><ele>386.0</ele><time>2026-04-15T14:38:31.168Z</time></trkpt><trkpt lat="44.3347572" lon="8.2896864"><ele>386.0</ele><time>2026-04-15T14:38:32.167Z</time></trkpt><trkpt lat="44.3348133" lon="8.2897343"><ele>385.99999999999994</ele><time>2026-04-15T14:38:33.168Z</time></trkpt><trkpt lat="44.3348718" lon="8.2897857"><ele>386.0</ele><time>2026-04-15T14:38:34.168Z</time></trkpt><trkpt lat="44.3349851" lon="8.2898426"><ele>385.7142857142857</ele><time>2026-04-15T14:38:36.167Z</time></trkpt><trkpt lat="44.3350529" lon="8.2898518"><ele>385.42857142857144</ele><time>2026-04-15T14:38:37.168Z</time></trkpt><trkpt lat="44.3351183" lon="8.2898481"><ele>385.1428571428571</ele><time>2026-04-15T14:38:38.168Z</time></trkpt><trkpt lat="44.3351818" lon="8.2898419"><ele>384.8571428571429</ele><time>2026-04-15T14:38:39.168Z</time></trkpt><trkpt lat="44.3352584" lon="8.289824"><ele>384.57142857142856</ele><time>2026-04-15T14:38:40.167Z</time></trkpt><trkpt lat="44.3353254" lon="8.2898089"><ele>384.2857142857143</ele><time>2026-04-15T14:38:41.167Z</time></trkpt><trkpt lat="44.3353893" lon="8.289818"><ele>384.0</ele><time>2026-04-15T14:38:42.168Z</time></trkpt><trkpt lat="44.3355042" lon="8.2897518"><ele>386.6</ele><time>2026-04-15T14:38:44.167Z</time></trkpt><trkpt lat="44.335589" lon="8.2896697"><ele>389.2</ele><time>2026-04-15T14:38:46.168Z</time></trkpt><trkpt lat="44.3356408" lon="8.2896163"><ele>391.8</ele><time>2026-04-15T14:38:47.168Z</time></trkpt><trkpt lat="44.3357269" lon="8.2895294"><ele>394.40000000000003</ele><time>2026-04-15T14:38:49.167Z</time></trkpt><trkpt lat="44.3358224" lon="8.2894407"><ele>397.0</ele><time>2026-04-15T14:38:51.168Z</time></trkpt><trkpt lat="44.3359161" lon="8.2893364"><ele>397.0</ele><time>2026-04-15T14:38:53.168Z</time></trkpt><trkpt lat="44.3360197" lon="8.289239"><ele>397.0</ele><time>2026-04-15T14:38:55.168Z</time></trkpt><trkpt lat="44.3361174" lon="8.2891406"><ele>397.0</ele><time>2026-04-15T14:38:57.168Z</time></trkpt><trkpt lat="44.3361886" lon="8.2890295"><ele>397.0</ele><time>2026-04-15T14:38:59.168Z</time></trkpt><trkpt lat="44.3362846" lon="8.2889304"><ele>395.50000000000006</ele><time>2026-04-15T14:39:01.168Z</time></trkpt><trkpt lat="44.3363428" lon="8.2888836"><ele>394.0</ele><time>2026-04-15T14:39:02.167Z</time></trkpt><trkpt lat="44.3363927" lon="8.2888281"><ele>392.5</ele><time>2026-04-15T14:39:03.168Z</time></trkpt><trkpt lat="44.3364467" lon="8.2887769"><ele>391.0</ele><time>2026-04-15T14:39:04.168Z</time></trkpt><trkpt lat="44.3365501" lon="8.2886799"><ele>389.50000000000006</ele><time>2026-04-15T14:39:06.166Z</time></trkpt><trkpt lat="44.3365993" lon="8.2886235"><ele>388.0</ele><time>2026-04-15T14:39:07.167Z</time></trkpt><trkpt lat="44.3366496" lon="8.2885635"><ele>388.0</ele><time>2026-04-15T14:39:08.167Z</time></trkpt><trkpt lat="44.3366942" lon="8.2885001"><ele>388.0</ele><time>2026-04-15T14:39:09.167Z</time></trkpt><trkpt lat="44.3367554" lon="8.2883883"><ele>388.0</ele><time>2026-04-15T14:39:11.167Z</time></trkpt><trkpt lat="44.3367937" lon="8.288253"><ele>388.0</ele><time>2026-04-15T14:39:13.168Z</time></trkpt><trkpt lat="44.3367997" lon="8.2880968"><ele>388.0</ele><time>2026-04-15T14:39:15.167Z</time></trkpt><trkpt lat="44.3367957" lon="8.2879617"><ele>388.4</ele><time>2026-04-15T14:39:17.168Z</time></trkpt><trkpt lat="44.3367926" lon="8.2878262"><ele>388.79999999999995</ele><time>2026-04-15T14:39:19.167Z</time></trkpt><trkpt lat="44.3368069" lon="8.2877"><ele>389.2</ele><time>2026-04-15T14:39:21.168Z</time></trkpt><trkpt lat="44.3368179" lon="8.2875477"><ele>389.6</ele><time>2026-04-15T14:39:23.167Z</time></trkpt><trkpt lat="44.33683" lon="8.2873838"><ele>390.0</ele><time>2026-04-15T14:39:25.168Z</time></trkpt><trkpt lat="44.3368296" lon="8.2872943"><ele>390.8</ele><time>2026-04-15T14:39:26.168Z</time></trkpt><trkpt lat="44.3368" lon="8.2871351"><ele>391.6</ele><time>2026-04-15T14:39:28.168Z</time></trkpt><trkpt lat="44.3367934" lon="8.2870471"><ele>392.4</ele><time>2026-04-15T14:39:29.168Z</time></trkpt><trkpt lat="44.3367589" lon="8.2868891"><ele>393.2</ele><time>2026-04-15T14:39:31.168Z</time></trkpt><trkpt lat="44.3367344" lon="8.2867229"><ele>394.0</ele><time>2026-04-15T14:39:33.168Z</time></trkpt><trkpt lat="44.3367071" lon="8.2865597"><ele>397.25</ele><time>2026-04-15T14:39:35.168Z</time></trkpt><trkpt lat="44.3366923" lon="8.2863944"><ele>400.5</ele><time>2026-04-15T14:39:37.168Z</time></trkpt><trkpt lat="44.3367007" lon="8.2862332"><ele>403.75</ele><time>2026-04-15T14:39:39.168Z</time></trkpt><trkpt lat="44.3367169" lon="8.2860746"><ele>407.0</ele><time>2026-04-15T14:39:41.167Z</time></trkpt><trkpt lat="44.3367393" lon="8.2859183"><ele>406.99999999999994</ele><time>2026-04-15T14:39:43.168Z</time></trkpt><trkpt lat="44.3367836" lon="8.285844"><ele>407.0</ele><time>2026-04-15T14:39:44.167Z</time></trkpt><trkpt lat="44.336837" lon="8.2857748"><ele>407.0</ele><time>2026-04-15T14:39:45.167Z</time></trkpt><trkpt lat="44.3368832" lon="8.2856935"><ele>407.0</ele><time>2026-04-15T14:39:46.168Z</time></trkpt><trkpt lat="44.3369281" lon="8.2856257"><ele>406.99999999999994</ele><time>2026-04-15T14:39:47.167Z</time></trkpt><trkpt lat="44.3370065" lon="8.2855122"><ele>407.0</ele><time>2026-04-15T14:39:49.168Z</time></trkpt><trkpt lat="44.337113" lon="8.2854178"><ele>406.00000000000006</ele><time>2026-04-15T14:39:51.167Z</time></trkpt><trkpt lat="44.3371716" lon="8.2853849"><ele>405.0</ele><time>2026-04-15T14:39:52.167Z</time></trkpt><trkpt lat="44.3372312" lon="8.2853475"><ele>404.0</ele><time>2026-04-15T14:39:53.168Z</time></trkpt><trkpt lat="44.3372929" lon="8.2853278"><ele>403.0</ele><time>2026-04-15T14:39:54.168Z</time></trkpt><trkpt lat="44.3373616" lon="8.2852995"><ele>402.0</ele><time>2026-04-15T14:39:55.167Z</time></trkpt><trkpt lat="44.3374228" lon="8.2852747"><ele>401.00000000000006</ele><time>2026-04-15T14:39:56.167Z</time></trkpt><trkpt lat="44.3374923" lon="8.2852649"><ele>400.0</ele><time>2026-04-15T14:39:57.168Z</time></trkpt><trkpt lat="44.3375631" lon="8.2852509"><ele>400.00000000000006</ele><time>2026-04-15T14:39:58.168Z</time></trkpt><trkpt lat="44.3376354" lon="8.2852473"><ele>400.0</ele><time>2026-04-15T14:39:59.168Z</time></trkpt><trkpt lat="44.3377195" lon="8.2852514"><ele>400.0</ele><time>2026-04-15T14:40:00.167Z</time></trkpt><trkpt lat="44.3377892" lon="8.2852613"><ele>400.0</ele><time>2026-04-15T14:40:01.168Z</time></trkpt><trkpt lat="44.3378527" lon="8.285282"><ele>400.0</ele><time>2026-04-15T14:40:02.168Z</time></trkpt><trkpt lat="44.3379171" lon="8.2853029"><ele>400.00000000000006</ele><time>2026-04-15T14:40:03.168Z</time></trkpt><trkpt lat="44.3379797" lon="8.2853296"><ele>400.0</ele><time>2026-04-15T14:40:04.168Z</time></trkpt><trkpt lat="44.3380404" lon="8.2853538"><ele>398.28571428571433</ele><time>2026-04-15T14:40:05.168Z</time></trkpt><trkpt lat="44.3381079" lon="8.2853906"><ele>396.57142857142856</ele><time>2026-04-15T14:40:06.168Z</time></trkpt><trkpt lat="44.3381724" lon="8.2854367"><ele>394.8571428571429</ele><time>2026-04-15T14:40:07.168Z</time></trkpt><trkpt lat="44.3382358" lon="8.2854824"><ele>393.14285714285717</ele><time>2026-04-15T14:40:08.168Z</time></trkpt><trkpt lat="44.3383059" lon="8.2855449"><ele>391.42857142857144</ele><time>2026-04-15T14:40:09.167Z</time></trkpt><trkpt lat="44.338362" lon="8.2856067"><ele>389.7142857142857</ele><time>2026-04-15T14:40:10.168Z</time></trkpt><trkpt lat="44.3384096" lon="8.2856736"><ele>388.0</ele><time>2026-04-15T14:40:11.168Z</time></trkpt><trkpt lat="44.3384663" lon="8.2857599"><ele>388.00000000000006</ele><time>2026-04-15T14:40:12.168Z</time></trkpt><trkpt lat="44.3385534" lon="8.2858804"><ele>388.0</ele><time>2026-04-15T14:40:14.168Z</time></trkpt><trkpt lat="44.338605" lon="8.2860336"><ele>388.0</ele><time>2026-04-15T14:40:16.168Z</time></trkpt><trkpt lat="44.3386465" lon="8.2861096"><ele>388.0</ele><time>2026-04-15T14:40:17.168Z</time></trkpt><trkpt lat="44.3386894" lon="8.2861785"><ele>388.00000000000006</ele><time>2026-04-15T14:40:18.168Z</time></trkpt><trkpt lat="44.3387354" lon="8.2862488"><ele>388.0</ele><time>2026-04-15T14:40:19.168Z</time></trkpt><trkpt lat="44.3387776" lon="8.2863211"><ele>388.0</ele><time>2026-04-15T14:40:20.166Z</time></trkpt><trkpt lat="44.3388225" lon="8.2863842"><ele>388.0</ele><time>2026-04-15T14:40:21.168Z</time></trkpt><trkpt lat="44.3388678" lon="8.2864456"><ele>388.0</ele><time>2026-04-15T14:40:22.166Z</time></trkpt><trkpt lat="44.3389162" lon="8.2865055"><ele>388.0</ele><time>2026-04-15T14:40:23.168Z</time></trkpt><trkpt lat="44.33897" lon="8.2865641"><ele>388.0</ele><time>2026-04-15T14:40:24.167Z</time></trkpt><trkpt lat="44.339013" lon="8.2866286"><ele>388.0</ele><time>2026-04-15T14:40:25.168Z</time></trkpt><trkpt lat="44.3391171" lon="8.2867099"><ele>388.0</ele><time>2026-04-15T14:40:27.167Z</time></trkpt><trkpt lat="44.3392226" lon="8.2867879"><ele>387.79999999999995</ele><time>2026-04-15T14:40:29.166Z</time></trkpt><trkpt lat="44.3392832" lon="8.286812"><ele>387.6</ele><time>2026-04-15T14:40:30.168Z</time></trkpt><trkpt lat="44.3393959" lon="8.2868346"><ele>387.4</ele><time>2026-04-15T14:40:32.167Z</time></trkpt><trkpt lat="44.3394651" lon="8.2868287"><ele>387.20000000000005</ele><time>2026-04-15T14:40:33.167Z</time></trkpt><trkpt lat="44.3395954" lon="8.2867752"><ele>387.0</ele><time>2026-04-15T14:40:35.168Z</time></trkpt><trkpt lat="44.3397144" lon="8.28671"><ele>388.0</ele><time>2026-04-15T14:40:37.168Z</time></trkpt><trkpt lat="44.3397729" lon="8.2866582"><ele>389.0</ele><time>2026-04-15T14:40:38.168Z</time></trkpt><trkpt lat="44.339851" lon="8.2865272"><ele>390.0</ele><time>2026-04-15T14:40:40.167Z</time></trkpt><trkpt lat="44.3399243" lon="8.2863853"><ele>391.0</ele><time>2026-04-15T14:40:42.168Z</time></trkpt><trkpt lat="44.3399834" lon="8.2862299"><ele>392.0</ele><time>2026-04-15T14:40:44.167Z</time></trkpt><trkpt lat="44.3400363" lon="8.2860833"><ele>391.99999999999994</ele><time>2026-04-15T14:40:46.167Z</time></trkpt><trkpt lat="44.3400624" lon="8.2859996"><ele>392.0</ele><time>2026-04-15T14:40:47.168Z</time></trkpt><trkpt lat="44.3400947" lon="8.2859227"><ele>392.0</ele><time>2026-04-15T14:40:48.167Z</time></trkpt><trkpt lat="44.3401231" lon="8.2858429"><ele>392.0</ele><time>2026-04-15T14:40:49.167Z</time></trkpt><trkpt lat="44.3401936" lon="8.285692"><ele>391.99999999999994</ele><time>2026-04-15T14:40:51.166Z</time></trkpt><trkpt lat="44.3402722" lon="8.2855548"><ele>392.0</ele><time>2026-04-15T14:40:53.167Z</time></trkpt><trkpt lat="44.3403185" lon="8.2854922"><ele>390.8</ele><time>2026-04-15T14:40:54.168Z</time></trkpt><trkpt lat="44.3403709" lon="8.2854347"><ele>389.6</ele><time>2026-04-15T14:40:55.167Z</time></trkpt><trkpt lat="44.3404265" lon="8.2853729"><ele>388.40000000000003</ele><time>2026-04-15T14:40:56.168Z</time></trkpt><trkpt lat="44.3404815" lon="8.2853206"><ele>387.20000000000005</ele><time>2026-04-15T14:40:57.167Z</time></trkpt><trkpt lat="44.3405919" lon="8.2852339"><ele>386.0</ele><time>2026-04-15T14:40:59.166Z</time></trkpt><trkpt lat="44.3407003" lon="8.285152"><ele>386.0</ele><time>2026-04-15T14:41:01.167Z</time></trkpt><trkpt lat="44.3408189" lon="8.2850859"><ele>386.0</ele><time>2026-04-15T14:41:03.168Z</time></trkpt><trkpt lat="44.3408835" lon="8.2850577"><ele>386.0</ele><time>2026-04-15T14:41:04.167Z</time></trkpt><trkpt lat="44.3409481" lon="8.2850308"><ele>386.0</ele><time>2026-04-15T14:41:05.167Z</time></trkpt><trkpt lat="44.341065" lon="8.2849702"><ele>386.0</ele><time>2026-04-15T14:41:07.167Z</time></trkpt><trkpt lat="44.3411558" lon="8.284968"><ele>385.99999999999994</ele><time>2026-04-15T14:41:08.167Z</time></trkpt><trkpt lat="44.3412171" lon="8.2849182"><ele>386.0</ele><time>2026-04-15T14:41:09.168Z</time></trkpt><trkpt lat="44.3412779" lon="8.2848877"><ele>386.0</ele><time>2026-04-15T14:41:10.167Z</time></trkpt><trkpt lat="44.3413453" lon="8.2848514"><ele>386.0</ele><time>2026-04-15T14:41:11.168Z</time></trkpt><trkpt lat="44.3414555" lon="8.2847981"><ele>385.99999999999994</ele><time>2026-04-15T14:41:13.166Z</time></trkpt><trkpt lat="44.3415162" lon="8.2847738"><ele>386.0</ele><time>2026-04-15T14:41:14.167Z</time></trkpt><trkpt lat="44.341586" lon="8.284741"><ele>388.16666666666663</ele><time>2026-04-15T14:41:15.168Z</time></trkpt><trkpt lat="44.3416477" lon="8.2846999"><ele>390.3333333333333</ele><time>2026-04-15T14:41:16.166Z</time></trkpt><trkpt lat="44.3417097" lon="8.2846642"><ele>392.5</ele><time>2026-04-15T14:41:17.168Z</time></trkpt><trkpt lat="44.3417731" lon="8.2846497"><ele>394.66666666666663</ele><time>2026-04-15T14:41:18.168Z</time></trkpt><trkpt lat="44.3418362" lon="8.2846176"><ele>396.8333333333333</ele><time>2026-04-15T14:41:19.168Z</time></trkpt><trkpt lat="44.3419248" lon="8.2845433"><ele>399.0</ele><time>2026-04-15T14:41:21.167Z</time></trkpt><trkpt lat="44.3420363" lon="8.2844753"><ele>399.0</ele><time>2026-04-15T14:41:23.167Z</time></trkpt><trkpt lat="44.3420989" lon="8.2844449"><ele>399.0</ele><time>2026-04-15T14:41:24.168Z</time></trkpt><trkpt lat="44.3422064" lon="8.284376"><ele>399.0</ele><time>2026-04-15T14:41:26.167Z</time></trkpt><trkpt lat="44.3423043" lon="8.2842884"><ele>399.0</ele><time>2026-04-15T14:41:28.167Z</time></trkpt><trkpt lat="44.3423782" lon="8.2841754"><ele>399.0</ele><time>2026-04-15T14:41:30.168Z</time></trkpt><trkpt lat="44.3424682" lon="8.2840676"><ele>394.75</ele><time>2026-04-15T14:41:32.167Z</time></trkpt><trkpt lat="44.3425456" lon="8.2839358"><ele>390.5</ele><time>2026-04-15T14:41:34.167Z</time></trkpt><trkpt lat="44.3425991" lon="8.2837917"><ele>386.25</ele><time>2026-04-15T14:41:36.168Z</time></trkpt><trkpt lat="44.3426549" lon="8.2836353"><ele>382.0</ele><time>2026-04-15T14:41:38.168Z</time></trkpt><trkpt lat="44.3427046" lon="8.2834786"><ele>382.0</ele><time>2026-04-15T14:41:40.167Z</time></trkpt><trkpt lat="44.3427485" lon="8.2833129"><ele>382.0</ele><time>2026-04-15T14:41:42.168Z</time></trkpt><trkpt lat="44.3427975" lon="8.283171"><ele>382.0</ele><time>2026-04-15T14:41:44.168Z</time></trkpt><trkpt lat="44.3428458" lon="8.2830326"><ele>382.0</ele><time>2026-04-15T14:41:46.168Z</time></trkpt><trkpt lat="44.3428982" lon="8.2828913"><ele>381.40000000000003</ele><time>2026-04-15T14:41:48.167Z</time></trkpt><trkpt lat="44.3429531" lon="8.2827451"><ele>380.8</ele><time>2026-04-15T14:41:50.167Z</time></trkpt><trkpt lat="44.3429948" lon="8.282621"><ele>380.2</ele><time>2026-04-15T14:41:52.167Z</time></trkpt><trkpt lat="44.343051" lon="8.2824782"><ele>379.6</ele><time>2026-04-15T14:41:54.167Z</time></trkpt><trkpt lat="44.3430416" lon="8.2823702"><ele>379.0</ele><time>2026-04-15T14:41:55.167Z</time></trkpt><trkpt lat="44.3431015" lon="8.2822477"><ele>379.0</ele><time>2026-04-15T14:41:57.167Z</time></trkpt><trkpt lat="44.3431535" lon="8.2821186"><ele>379.0</ele><time>2026-04-15T14:41:59.168Z</time></trkpt><trkpt lat="44.3431882" lon="8.2820277"><ele>379.0</ele><time>2026-04-15T14:42:00.168Z</time></trkpt><trkpt lat="44.3432319" lon="8.2818879"><ele>379.0</ele><time>2026-04-15T14:42:02.168Z</time></trkpt><trkpt lat="44.3432791" lon="8.2817621"><ele>379.0</ele><time>2026-04-15T14:42:04.166Z</time></trkpt><trkpt lat="44.3433279" lon="8.2816224"><ele>379.0</ele><time>2026-04-15T14:42:06.167Z</time></trkpt><trkpt lat="44.3433844" lon="8.2814947"><ele>379.0</ele><time>2026-04-15T14:42:08.167Z</time></trkpt><trkpt lat="44.343445" lon="8.2813165"><ele>379.0</ele><time>2026-04-15T14:42:10.168Z</time></trkpt><trkpt lat="44.3434897" lon="8.2811823"><ele>379.0</ele><time>2026-04-15T14:42:12.168Z</time></trkpt><trkpt lat="44.3435283" lon="8.2810287"><ele>381.4</ele><time>2026-04-15T14:42:14.166Z</time></trkpt><trkpt lat="44.3435665" lon="8.2809444"><ele>383.79999999999995</ele><time>2026-04-15T14:42:15.168Z</time></trkpt><trkpt lat="44.3436075" lon="8.2808114"><ele>386.20000000000005</ele><time>2026-04-15T14:42:17.167Z</time></trkpt><trkpt lat="44.3436573" lon="8.2806964"><ele>388.6</ele><time>2026-04-15T14:42:19.168Z</time></trkpt><trkpt lat="44.3437082" lon="8.2805486"><ele>391.0</ele><time>2026-04-15T14:42:21.167Z</time></trkpt><trkpt lat="44.343719" lon="8.2803806"><ele>393.20000000000005</ele><time>2026-04-15T14:42:23.168Z</time></trkpt><trkpt lat="44.343751" lon="8.2802254"><ele>395.40000000000003</ele><time>2026-04-15T14:42:25.169Z</time></trkpt><trkpt lat="44.3438211" lon="8.2800809"><ele>397.6</ele><time>2026-04-15T14:42:27.168Z</time></trkpt><trkpt lat="44.3438559" lon="8.2799595"><ele>399.8</ele><time>2026-04-15T14:42:29.168Z</time></trkpt><trkpt lat="44.3439082" lon="8.2798732"><ele>402.0</ele><time>2026-04-15T14:42:30.166Z</time></trkpt><trkpt lat="44.3439654" lon="8.2797561"><ele>396.8</ele><time>2026-04-15T14:42:32.168Z</time></trkpt><trkpt lat="44.3440289" lon="8.2797322"><ele>391.6</ele><time>2026-04-15T14:42:33.166Z</time></trkpt><trkpt lat="44.3440145" lon="8.2795939"><ele>386.40000000000003</ele><time>2026-04-15T14:42:35.168Z</time></trkpt><trkpt lat="44.344063" lon="8.2794715"><ele>381.20000000000005</ele><time>2026-04-15T14:42:37.166Z</time></trkpt><trkpt lat="44.3441278" lon="8.2793465"><ele>376.0</ele><time>2026-04-15T14:42:39.168Z</time></trkpt><trkpt lat="44.344189" lon="8.279227"><ele>376.0</ele><time>2026-04-15T14:42:41.167Z</time></trkpt><trkpt lat="44.344246" lon="8.2791063"><ele>376.0</ele><time>2026-04-15T14:42:43.166Z</time></trkpt><trkpt lat="44.3442884" lon="8.2790051"><ele>376.0</ele><time>2026-04-15T14:42:44.168Z</time></trkpt><trkpt lat="44.3443299" lon="8.2789043"><ele>376.0</ele><time>2026-04-15T14:42:45.167Z</time></trkpt><trkpt lat="44.3443661" lon="8.2788293"><ele>376.0</ele><time>2026-04-15T14:42:46.168Z</time></trkpt><trkpt lat="44.3444075" lon="8.2787261"><ele>376.0</ele><time>2026-04-15T14:42:48.166Z</time></trkpt><trkpt lat="44.344464" lon="8.2785668"><ele>377.20000000000005</ele><time>2026-04-15T14:42:50.167Z</time></trkpt><trkpt lat="44.3445099" lon="8.2784255"><ele>378.40000000000003</ele><time>2026-04-15T14:42:52.167Z</time></trkpt><trkpt lat="44.3445477" lon="8.2783052"><ele>379.6</ele><time>2026-04-15T14:42:54.167Z</time></trkpt><trkpt lat="44.3445949" lon="8.2781787"><ele>380.8</ele><time>2026-04-15T14:42:56.167Z</time></trkpt><trkpt lat="44.3446451" lon="8.2780504"><ele>382.0</ele><time>2026-04-15T14:42:58.167Z</time></trkpt><trkpt lat="44.3446869" lon="8.2779265"><ele>379.75</ele><time>2026-04-15T14:43:00.168Z</time></trkpt><trkpt lat="44.344755" lon="8.2777964"><ele>377.5</ele><time>2026-04-15T14:43:02.167Z</time></trkpt><trkpt lat="44.3448099" lon="8.2776681"><ele>375.25</ele><time>2026-04-15T14:43:04.167Z</time></trkpt><trkpt lat="44.3448827" lon="8.27753"><ele>373.0</ele><time>2026-04-15T14:43:06.168Z</time></trkpt><trkpt lat="44.3449584" lon="8.2774132"><ele>373.0</ele><time>2026-04-15T14:43:08.166Z</time></trkpt><trkpt lat="44.3450264" lon="8.2772906"><ele>373.0</ele><time>2026-04-15T14:43:10.167Z</time></trkpt><trkpt lat="44.3451013" lon="8.2771844"><ele>373.0</ele><time>2026-04-15T14:43:12.166Z</time></trkpt><trkpt lat="44.345185" lon="8.277083"><ele>373.0</ele><time>2026-04-15T14:43:14.166Z</time></trkpt><trkpt lat="44.3452808" lon="8.2769928"><ele>373.0</ele><time>2026-04-15T14:43:16.168Z</time></trkpt><trkpt lat="44.3453368" lon="8.2769487"><ele>372.59999999999997</ele><time>2026-04-15T14:43:17.168Z</time></trkpt><trkpt lat="44.3453915" lon="8.276903"><ele>372.2</ele><time>2026-04-15T14:43:18.167Z</time></trkpt><trkpt lat="44.3454853" lon="8.276839"><ele>371.8</ele><time>2026-04-15T14:43:20.168Z</time></trkpt><trkpt lat="44.3456055" lon="8.2767765"><ele>371.4</ele><time>2026-04-15T14:43:22.167Z</time></trkpt><trkpt lat="44.3457223" lon="8.2767416"><ele>371.0</ele><time>2026-04-15T14:43:24.167Z</time></trkpt><trkpt lat="44.3457842" lon="8.2767123"><ele>371.0</ele><time>2026-04-15T14:43:25.168Z</time></trkpt><trkpt lat="44.3458917" lon="8.2766922"><ele>371.0</ele><time>2026-04-15T14:43:27.168Z</time></trkpt><trkpt lat="44.3459522" lon="8.276666"><ele>371.0</ele><time>2026-04-15T14:43:28.168Z</time></trkpt><trkpt lat="44.3460158" lon="8.2766485"><ele>371.0</ele><time>2026-04-15T14:43:29.167Z</time></trkpt><trkpt lat="44.3460855" lon="8.2766533"><ele>371.0</ele><time>2026-04-15T14:43:30.167Z</time></trkpt><trkpt lat="44.3462017" lon="8.2766379"><ele>371.0</ele><time>2026-04-15T14:43:32.167Z</time></trkpt><trkpt lat="44.3462652" lon="8.2766289"><ele>371.0</ele><time>2026-04-15T14:43:33.167Z</time></trkpt><trkpt lat="44.3463303" lon="8.2766334"><ele>371.0</ele><time>2026-04-15T14:43:34.166Z</time></trkpt><trkpt lat="44.3464539" lon="8.2766474"><ele>371.0</ele><time>2026-04-15T14:43:36.168Z</time></trkpt><trkpt lat="44.346557" lon="8.2766685"><ele>371.0</ele><time>2026-04-15T14:43:38.169Z</time></trkpt><trkpt lat="44.3466265" lon="8.2766479"><ele>371.0</ele><time>2026-04-15T14:43:39.166Z</time></trkpt><trkpt lat="44.3467136" lon="8.2767191"><ele>370.20000000000005</ele><time>2026-04-15T14:43:41.168Z</time></trkpt><trkpt lat="44.3467798" lon="8.276715"><ele>369.40000000000003</ele><time>2026-04-15T14:43:42.168Z</time></trkpt><trkpt lat="44.3469059" lon="8.2766995"><ele>368.6</ele><time>2026-04-15T14:43:44.166Z</time></trkpt><trkpt lat="44.3470207" lon="8.2767048"><ele>367.8</ele><time>2026-04-15T14:43:46.168Z</time></trkpt><trkpt lat="44.3471391" lon="8.2767363"><ele>367.0</ele><time>2026-04-15T14:43:48.166Z</time></trkpt><trkpt lat="44.3472697" lon="8.2767308"><ele>366.75</ele><time>2026-04-15T14:43:50.168Z</time></trkpt><trkpt lat="44.3473892" lon="8.2767294"><ele>366.5</ele><time>2026-04-15T14:43:52.167Z</time></trkpt><trkpt lat="44.347506" lon="8.2767532"><ele>366.25</ele><time>2026-04-15T14:43:54.167Z</time></trkpt><trkpt lat="44.3476117" lon="8.2767642"><ele>366.0</ele><time>2026-04-15T14:43:56.167Z</time></trkpt><trkpt lat="44.3477221" lon="8.2767478"><ele>366.0</ele><time>2026-04-15T14:43:58.165Z</time></trkpt><trkpt lat="44.3478391" lon="8.2767116"><ele>366.0</ele><time>2026-04-15T14:44:00.167Z</time></trkpt><trkpt lat="44.3479464" lon="8.276705"><ele>366.0</ele><time>2026-04-15T14:44:02.168Z</time></trkpt><trkpt lat="44.3480421" lon="8.2766917"><ele>366.0</ele><time>2026-04-15T14:44:04.167Z</time></trkpt><trkpt lat="44.3481361" lon="8.2766829"><ele>366.0</ele><time>2026-04-15T14:44:06.167Z</time></trkpt><trkpt lat="44.3482249" lon="8.2766694"><ele>365.6</ele><time>2026-04-15T14:44:08.167Z</time></trkpt><trkpt lat="44.3483203" lon="8.2766626"><ele>365.20000000000005</ele><time>2026-04-15T14:44:10.168Z</time></trkpt><trkpt lat="44.3484224" lon="8.2766657"><ele>364.79999999999995</ele><time>2026-04-15T14:44:12.167Z</time></trkpt><trkpt lat="44.3485265" lon="8.276664"><ele>364.4</ele><time>2026-04-15T14:44:14.167Z</time></trkpt><trkpt lat="44.3486264" lon="8.2767128"><ele>364.0</ele><time>2026-04-15T14:44:16.166Z</time></trkpt><trkpt lat="44.3486751" lon="8.2767891"><ele>364.0</ele><time>2026-04-15T14:44:17.167Z</time></trkpt><trkpt lat="44.3487847" lon="8.2768403"><ele>364.0</ele><time>2026-04-15T14:44:19.165Z</time></trkpt><trkpt lat="44.3488794" lon="8.2768045"><ele>364.0</ele><time>2026-04-15T14:44:21.166Z</time></trkpt><trkpt lat="44.3489915" lon="8.2767661"><ele>364.0</ele><time>2026-04-15T14:44:23.166Z</time></trkpt><trkpt lat="44.3491063" lon="8.2767505"><ele>364.0</ele><time>2026-04-15T14:44:25.168Z</time></trkpt><trkpt lat="44.3492174" lon="8.2767471"><ele>364.4</ele><time>2026-04-15T14:44:27.168Z</time></trkpt><trkpt lat="44.3493325" lon="8.2767551"><ele>364.79999999999995</ele><time>2026-04-15T14:44:29.168Z</time></trkpt><trkpt lat="44.3494395" lon="8.2767598"><ele>365.20000000000005</ele><time>2026-04-15T14:44:31.166Z</time></trkpt><trkpt lat="44.3495475" lon="8.2767669"><ele>365.6</ele><time>2026-04-15T14:44:33.167Z</time></trkpt><trkpt lat="44.3496536" lon="8.276771"><ele>366.0</ele><time>2026-04-15T14:44:35.167Z</time></trkpt><trkpt lat="44.3497707" lon="8.276777"><ele>366.20000000000005</ele><time>2026-04-15T14:44:37.167Z</time></trkpt><trkpt lat="44.3498816" lon="8.2767917"><ele>366.40000000000003</ele><time>2026-04-15T14:44:39.167Z</time></trkpt><trkpt lat="44.3499902" lon="8.276804"><ele>366.6</ele><time>2026-04-15T14:44:41.167Z</time></trkpt><trkpt lat="44.3500982" lon="8.2768203"><ele>366.8</ele><time>2026-04-15T14:44:43.168Z</time></trkpt><trkpt lat="44.3501999" lon="8.2768241"><ele>367.0</ele><time>2026-04-15T14:44:45.167Z</time></trkpt><trkpt lat="44.3502971" lon="8.2768268"><ele>367.0</ele><time>2026-04-15T14:44:47.166Z</time></trkpt><trkpt lat="44.3503856" lon="8.2768207"><ele>367.0</ele><time>2026-04-15T14:44:49.168Z</time></trkpt><trkpt lat="44.3504778" lon="8.276825"><ele>367.0</ele><time>2026-04-15T14:44:51.167Z</time></trkpt><trkpt lat="44.350573" lon="8.2768306"><ele>367.0</ele><time>2026-04-15T14:44:53.167Z</time></trkpt><trkpt lat="44.3506756" lon="8.2768439"><ele>367.0</ele><time>2026-04-15T14:44:55.167Z</time></trkpt><trkpt lat="44.3507813" lon="8.2768479"><ele>367.0</ele><time>2026-04-15T14:44:57.167Z</time></trkpt><trkpt lat="44.3508808" lon="8.2768584"><ele>367.0</ele><time>2026-04-15T14:44:59.168Z</time></trkpt><trkpt lat="44.350982" lon="8.276866"><ele>367.0</ele><time>2026-04-15T14:45:01.167Z</time></trkpt><trkpt lat="44.3510863" lon="8.2768673"><ele>367.0</ele><time>2026-04-15T14:45:03.168Z</time></trkpt><trkpt lat="44.3511943" lon="8.2768756"><ele>367.0</ele><time>2026-04-15T14:45:05.167Z</time></trkpt><trkpt lat="44.3513013" lon="8.2768826"><ele>368.25</ele><time>2026-04-15T14:45:07.166Z</time></trkpt><trkpt lat="44.3514142" lon="8.2768808"><ele>369.5</ele><time>2026-04-15T14:45:09.167Z</time></trkpt><trkpt lat="44.3515203" lon="8.2768869"><ele>370.75</ele><time>2026-04-15T14:45:11.168Z</time></trkpt><trkpt lat="44.3516338" lon="8.2769001"><ele>372.0</ele><time>2026-04-15T14:45:13.165Z</time></trkpt><trkpt lat="44.3517503" lon="8.2769173"><ele>372.0</ele><time>2026-04-15T14:45:15.168Z</time></trkpt><trkpt lat="44.3518517" lon="8.2769059"><ele>372.0</ele><time>2026-04-15T14:45:17.167Z</time></trkpt><trkpt lat="44.3519387" lon="8.2769344"><ele>372.0</ele><time>2026-04-15T14:45:19.168Z</time></trkpt><trkpt lat="44.3520458" lon="8.2769483"><ele>372.0</ele><time>2026-04-15T14:45:21.167Z</time></trkpt><trkpt lat="44.3521515" lon="8.2769835"><ele>372.0</ele><time>2026-04-15T14:45:23.168Z</time></trkpt><trkpt lat="44.3522619" lon="8.2770195"><ele>372.25</ele><time>2026-04-15T14:45:25.167Z</time></trkpt><trkpt lat="44.3523751" lon="8.2770668"><ele>372.5</ele><time>2026-04-15T14:45:27.167Z</time></trkpt><trkpt lat="44.3524909" lon="8.2771359"><ele>372.75</ele><time>2026-04-15T14:45:29.166Z</time></trkpt><trkpt lat="44.3526015" lon="8.2772237"><ele>373.0</ele><time>2026-04-15T14:45:31.167Z</time></trkpt><trkpt lat="44.3527076" lon="8.2773097"><ele>370.79999999999995</ele><time>2026-04-15T14:45:33.167Z</time></trkpt><trkpt lat="44.3528057" lon="8.277402"><ele>368.6</ele><time>2026-04-15T14:45:35.165Z</time></trkpt><trkpt lat="44.3529124" lon="8.2775155"><ele>366.4</ele><time>2026-04-15T14:45:37.167Z</time></trkpt><trkpt lat="44.3530134" lon="8.2776242"><ele>364.20000000000005</ele><time>2026-04-15T14:45:39.167Z</time></trkpt><trkpt lat="44.3530685" lon="8.2776833"><ele>362.0</ele><time>2026-04-15T14:45:40.168Z</time></trkpt><trkpt lat="44.3531184" lon="8.2777431"><ele>362.0</ele><time>2026-04-15T14:45:41.167Z</time></trkpt><trkpt lat="44.3531679" lon="8.2778124"><ele>362.0</ele><time>2026-04-15T14:45:42.167Z</time></trkpt><trkpt lat="44.3532173" lon="8.2778743"><ele>362.0</ele><time>2026-04-15T14:45:43.167Z</time></trkpt><trkpt lat="44.3532625" lon="8.2779435"><ele>362.0</ele><time>2026-04-15T14:45:44.167Z</time></trkpt><trkpt lat="44.3533036" lon="8.2780229"><ele>362.0</ele><time>2026-04-15T14:45:45.167Z</time></trkpt><trkpt lat="44.3533329" lon="8.2781091"><ele>362.0</ele><time>2026-04-15T14:45:46.166Z</time></trkpt><trkpt lat="44.3533582" lon="8.2782069"><ele>362.0</ele><time>2026-04-15T14:45:47.168Z</time></trkpt><trkpt lat="44.3533721" lon="8.2782989"><ele>361.0</ele><time>2026-04-15T14:45:48.167Z</time></trkpt><trkpt lat="44.3534" lon="8.2784731"><ele>360.0</ele><time>2026-04-15T14:45:50.166Z</time></trkpt><trkpt lat="44.3534165" lon="8.2785605"><ele>359.0</ele><time>2026-04-15T14:45:51.166Z</time></trkpt><trkpt lat="44.3534413" lon="8.2787248"><ele>358.0</ele><time>2026-04-15T14:45:53.166Z</time></trkpt><trkpt lat="44.3534275" lon="8.2789021"><ele>357.0</ele><time>2026-04-15T14:45:55.167Z</time></trkpt><trkpt lat="44.3534085" lon="8.279073"><ele>356.6</ele><time>2026-04-15T14:45:57.166Z</time></trkpt><trkpt lat="44.3533928" lon="8.2792389"><ele>356.20000000000005</ele><time>2026-04-15T14:45:59.166Z</time></trkpt><trkpt lat="44.3533846" lon="8.2793896"><ele>355.8</ele><time>2026-04-15T14:46:01.167Z</time></trkpt><trkpt lat="44.3533566" lon="8.2795404"><ele>355.4</ele><time>2026-04-15T14:46:03.167Z</time></trkpt><trkpt lat="44.3533514" lon="8.279631"><ele>355.0</ele><time>2026-04-15T14:46:04.167Z</time></trkpt><trkpt lat="44.353342" lon="8.2797312"><ele>354.8</ele><time>2026-04-15T14:46:05.167Z</time></trkpt><trkpt lat="44.3533384" lon="8.2798212"><ele>354.6</ele><time>2026-04-15T14:46:06.166Z</time></trkpt><trkpt lat="44.3533276" lon="8.2799818"><ele>354.4</ele><time>2026-04-15T14:46:08.166Z</time></trkpt><trkpt lat="44.3533172" lon="8.2801321"><ele>354.2</ele><time>2026-04-15T14:46:10.167Z</time></trkpt><trkpt lat="44.3533031" lon="8.2802929"><ele>354.0</ele><time>2026-04-15T14:46:12.166Z</time></trkpt><trkpt lat="44.3532872" lon="8.2804441"><ele>354.0</ele><time>2026-04-15T14:46:14.167Z</time></trkpt><trkpt lat="44.3532746" lon="8.2805874"><ele>354.0</ele><time>2026-04-15T14:46:16.167Z</time></trkpt><trkpt lat="44.3532697" lon="8.2807259"><ele>354.0</ele><time>2026-04-15T14:46:18.166Z</time></trkpt><trkpt lat="44.3532714" lon="8.2808554"><ele>354.0</ele><time>2026-04-15T14:46:20.167Z</time></trkpt><trkpt lat="44.3532515" lon="8.2809996"><ele>354.0</ele><time>2026-04-15T14:46:22.167Z</time></trkpt><trkpt lat="44.3532369" lon="8.2811562"><ele>353.8571428571429</ele><time>2026-04-15T14:46:24.167Z</time></trkpt><trkpt lat="44.3532142" lon="8.28132"><ele>353.71428571428567</ele><time>2026-04-15T14:46:26.166Z</time></trkpt><trkpt lat="44.3532063" lon="8.2814074"><ele>353.57142857142856</ele><time>2026-04-15T14:46:27.166Z</time></trkpt><trkpt lat="44.3531973" lon="8.2814967"><ele>353.42857142857144</ele><time>2026-04-15T14:46:28.166Z</time></trkpt><trkpt lat="44.3531894" lon="8.28159"><ele>353.28571428571433</ele><time>2026-04-15T14:46:29.168Z</time></trkpt><trkpt lat="44.3531809" lon="8.2816809"><ele>353.1428571428571</ele><time>2026-04-15T14:46:30.166Z</time></trkpt><trkpt lat="44.3531687" lon="8.2817771"><ele>353.0</ele><time>2026-04-15T14:46:31.167Z</time></trkpt><trkpt lat="44.3531599" lon="8.2818745"><ele>353.0</ele><time>2026-04-15T14:46:32.167Z</time></trkpt><trkpt lat="44.3531513" lon="8.2819662"><ele>353.0</ele><time>2026-04-15T14:46:33.167Z</time></trkpt><trkpt lat="44.3531429" lon="8.2820562"><ele>353.0</ele><time>2026-04-15T14:46:34.166Z</time></trkpt><trkpt lat="44.3531385" lon="8.2821516"><ele>353.0</ele><time>2026-04-15T14:46:35.166Z</time></trkpt><trkpt lat="44.3531296" lon="8.2822487"><ele>353.0</ele><time>2026-04-15T14:46:36.168Z</time></trkpt><trkpt lat="44.3531135" lon="8.2824246"><ele>353.0</ele><time>2026-04-15T14:46:38.167Z</time></trkpt><trkpt lat="44.3531014" lon="8.2825156"><ele>353.0</ele><time>2026-04-15T14:46:39.165Z</time></trkpt><trkpt lat="44.3530964" lon="8.2826099"><ele>353.0</ele><time>2026-04-15T14:46:40.167Z</time></trkpt><trkpt lat="44.3530908" lon="8.2827017"><ele>353.0</ele><time>2026-04-15T14:46:41.166Z</time></trkpt><trkpt lat="44.3530835" lon="8.2828023"><ele>353.0</ele><time>2026-04-15T14:46:42.167Z</time></trkpt><trkpt lat="44.3530826" lon="8.2828999"><ele>353.0</ele><time>2026-04-15T14:46:43.166Z</time></trkpt><trkpt lat="44.3530809" lon="8.282996"><ele>353.0</ele><time>2026-04-15T14:46:44.167Z</time></trkpt><trkpt lat="44.3530813" lon="8.283089"><ele>353.0</ele><time>2026-04-15T14:46:45.166Z</time></trkpt><trkpt lat="44.3530765" lon="8.2831786"><ele>353.2</ele><time>2026-04-15T14:46:46.166Z</time></trkpt><trkpt lat="44.3530793" lon="8.2832682"><ele>353.4</ele><time>2026-04-15T14:46:47.167Z</time></trkpt><trkpt lat="44.3530835" lon="8.2834278"><ele>353.59999999999997</ele><time>2026-04-15T14:46:49.167Z</time></trkpt><trkpt lat="44.3530917" lon="8.2835866"><ele>353.79999999999995</ele><time>2026-04-15T14:46:51.167Z</time></trkpt><trkpt lat="44.3531033" lon="8.2837411"><ele>354.0</ele><time>2026-04-15T14:46:53.168Z</time></trkpt><trkpt lat="44.3531183" lon="8.2839084"><ele>354.0</ele><time>2026-04-15T14:46:55.168Z</time></trkpt><trkpt lat="44.3531136" lon="8.2839962"><ele>354.0</ele><time>2026-04-15T14:46:56.167Z</time></trkpt><trkpt lat="44.3531187" lon="8.2841568"><ele>354.0</ele><time>2026-04-15T14:46:58.167Z</time></trkpt><trkpt lat="44.3531252" lon="8.2843125"><ele>354.0</ele><time>2026-04-15T14:47:00.167Z</time></trkpt><trkpt lat="44.353129" lon="8.2844406"><ele>354.0</ele><time>2026-04-15T14:47:02.166Z</time></trkpt><trkpt lat="44.3531385" lon="8.2845633"><ele>354.0</ele><time>2026-04-15T14:47:04.166Z</time></trkpt><trkpt lat="44.3531537" lon="8.2846964"><ele>354.0</ele><time>2026-04-15T14:47:06.166Z</time></trkpt><trkpt lat="44.3531619" lon="8.2848391"><ele>354.0</ele><time>2026-04-15T14:47:08.166Z</time></trkpt><trkpt lat="44.3531723" lon="8.2849795"><ele>354.0</ele><time>2026-04-15T14:47:10.166Z</time></trkpt><trkpt lat="44.353187" lon="8.2851231"><ele>354.0</ele><time>2026-04-15T14:47:12.165Z</time></trkpt><trkpt lat="44.3531957" lon="8.2852702"><ele>354.0</ele><time>2026-04-15T14:47:14.167Z</time></trkpt><trkpt lat="44.3532295" lon="8.2854044"><ele>354.0</ele><time>2026-04-15T14:47:16.166Z</time></trkpt><trkpt lat="44.353302" lon="8.2854997"><ele>354.0</ele><time>2026-04-15T14:47:18.166Z</time></trkpt><trkpt lat="44.3533833" lon="8.2855186"><ele>354.0</ele><time>2026-04-15T14:47:20.166Z</time></trkpt><trkpt lat="44.3534842" lon="8.2855085"><ele>354.0</ele><time>2026-04-15T14:47:22.168Z</time></trkpt><trkpt lat="44.3535667" lon="8.2854957"><ele>354.0</ele><time>2026-04-15T14:47:24.167Z</time></trkpt><trkpt lat="44.3536624" lon="8.2854803"><ele>354.0</ele><time>2026-04-15T14:47:26.166Z</time></trkpt><trkpt lat="44.3537552" lon="8.2855136"><ele>354.0</ele><time>2026-04-15T14:47:28.167Z</time></trkpt><trkpt lat="44.3538553" lon="8.2855391"><ele>354.0</ele><time>2026-04-15T14:47:30.166Z</time></trkpt><trkpt lat="44.3539365" lon="8.2855693"><ele>354.0</ele><time>2026-04-15T14:47:32.167Z</time></trkpt><trkpt lat="44.3540281" lon="8.2855853"><ele>353.3333333333333</ele><time>2026-04-15T14:47:34.167Z</time></trkpt><trkpt lat="44.3541153" lon="8.2856103"><ele>352.6666666666667</ele><time>2026-04-15T14:47:36.167Z</time></trkpt><trkpt lat="44.3541915" lon="8.2856558"><ele>352.0</ele><time>2026-04-15T14:47:38.166Z</time></trkpt><trkpt lat="44.3542692" lon="8.2856773"><ele>351.33333333333337</ele><time>2026-04-15T14:47:40.166Z</time></trkpt><trkpt lat="44.3543632" lon="8.2856859"><ele>350.6666666666667</ele><time>2026-04-15T14:47:42.167Z</time></trkpt><trkpt lat="44.3544638" lon="8.2857153"><ele>350.0</ele><time>2026-04-15T14:47:44.166Z</time></trkpt><trkpt lat="44.3545663" lon="8.2857628"><ele>350.0</ele><time>2026-04-15T14:47:46.167Z</time></trkpt><trkpt lat="44.3546626" lon="8.2858508"><ele>350.0</ele><time>2026-04-15T14:47:48.168Z</time></trkpt><trkpt lat="44.3547559" lon="8.2859482"><ele>350.0</ele><time>2026-04-15T14:47:50.168Z</time></trkpt><trkpt lat="44.3548348" lon="8.2860408"><ele>350.0</ele><time>2026-04-15T14:47:52.167Z</time></trkpt><trkpt lat="44.354884" lon="8.2860961"><ele>350.0</ele><time>2026-04-15T14:47:53.167Z</time></trkpt><trkpt lat="44.3549652" lon="8.2861745"><ele>350.4</ele><time>2026-04-15T14:47:55.167Z</time></trkpt><trkpt lat="44.3550243" lon="8.2862693"><ele>350.8</ele><time>2026-04-15T14:47:57.166Z</time></trkpt><trkpt lat="44.355111" lon="8.2863478"><ele>351.20000000000005</ele><time>2026-04-15T14:47:59.166Z</time></trkpt><trkpt lat="44.3551937" lon="8.2864394"><ele>351.6</ele><time>2026-04-15T14:48:01.167Z</time></trkpt><trkpt lat="44.3552534" lon="8.2865617"><ele>352.0</ele><time>2026-04-15T14:48:03.166Z</time></trkpt><trkpt lat="44.3552871" lon="8.2866918"><ele>352.0</ele><time>2026-04-15T14:48:05.166Z</time></trkpt><trkpt lat="44.3553201" lon="8.2868223"><ele>352.0</ele><time>2026-04-15T14:48:07.167Z</time></trkpt><trkpt lat="44.355344" lon="8.2869483"><ele>352.0</ele><time>2026-04-15T14:48:09.167Z</time></trkpt><trkpt lat="44.3553621" lon="8.2870917"><ele>352.0</ele><time>2026-04-15T14:48:11.165Z</time></trkpt><trkpt lat="44.3553887" lon="8.2872464"><ele>352.0</ele><time>2026-04-15T14:48:13.167Z</time></trkpt><trkpt lat="44.3554044" lon="8.2873957"><ele>352.20000000000005</ele><time>2026-04-15T14:48:15.166Z</time></trkpt><trkpt lat="44.3554327" lon="8.2875229"><ele>352.4</ele><time>2026-04-15T14:48:17.167Z</time></trkpt><trkpt lat="44.3554598" lon="8.2876629"><ele>352.6</ele><time>2026-04-15T14:48:19.167Z</time></trkpt><trkpt lat="44.3554835" lon="8.2877939"><ele>352.79999999999995</ele><time>2026-04-15T14:48:21.166Z</time></trkpt><trkpt lat="44.3555059" lon="8.2879313"><ele>353.0</ele><time>2026-04-15T14:48:23.166Z</time></trkpt><trkpt lat="44.3555159" lon="8.2880625"><ele>353.2</ele><time>2026-04-15T14:48:25.166Z</time></trkpt><trkpt lat="44.3555306" lon="8.2881907"><ele>353.4</ele><time>2026-04-15T14:48:27.166Z</time></trkpt><trkpt lat="44.3555267" lon="8.2883322"><ele>353.59999999999997</ele><time>2026-04-15T14:48:29.167Z</time></trkpt><trkpt lat="44.355538" lon="8.2884834"><ele>353.79999999999995</ele><time>2026-04-15T14:48:31.166Z</time></trkpt><trkpt lat="44.3555505" lon="8.2886252"><ele>354.0</ele><time>2026-04-15T14:48:33.167Z</time></trkpt><trkpt lat="44.35556" lon="8.2887679"><ele>353.5</ele><time>2026-04-15T14:48:35.167Z</time></trkpt><trkpt lat="44.3555732" lon="8.2889047"><ele>353.0</ele><time>2026-04-15T14:48:37.167Z</time></trkpt><trkpt lat="44.3555828" lon="8.2890198"><ele>352.5</ele><time>2026-04-15T14:48:39.166Z</time></trkpt><trkpt lat="44.3555899" lon="8.2891366"><ele>352.0</ele><time>2026-04-15T14:48:41.166Z</time></trkpt><trkpt lat="44.3555881" lon="8.2892617"><ele>351.5</ele><time>2026-04-15T14:48:43.167Z</time></trkpt><trkpt lat="44.3555991" lon="8.2893819"><ele>351.0</ele><time>2026-04-15T14:48:45.166Z</time></trkpt><trkpt lat="44.3556131" lon="8.2894912"><ele>351.00000000000006</ele><time>2026-04-15T14:48:47.166Z</time></trkpt><trkpt lat="44.355622" lon="8.2895826"><ele>351.0</ele><time>2026-04-15T14:48:49.167Z</time></trkpt><trkpt lat="44.3556345" lon="8.2896729"><ele>351.0</ele><time>2026-04-15T14:48:51.167Z</time></trkpt><trkpt lat="44.3556487" lon="8.289769"><ele>351.0</ele><time>2026-04-15T14:48:53.166Z</time></trkpt><trkpt lat="44.3556565" lon="8.2898757"><ele>351.0</ele><time>2026-04-15T14:48:55.168Z</time></trkpt><trkpt lat="44.3556702" lon="8.2899865"><ele>351.00000000000006</ele><time>2026-04-15T14:48:57.167Z</time></trkpt><trkpt lat="44.3556887" lon="8.2900967"><ele>351.0</ele><time>2026-04-15T14:48:59.167Z</time></trkpt><trkpt lat="44.3557036" lon="8.2902073"><ele>351.6666666666667</ele><time>2026-04-15T14:49:01.166Z</time></trkpt><trkpt lat="44.3557255" lon="8.2903073"><ele>352.3333333333333</ele><time>2026-04-15T14:49:03.166Z</time></trkpt><trkpt lat="44.3557405" lon="8.2903956"><ele>353.0</ele><time>2026-04-15T14:49:05.166Z</time></trkpt><trkpt lat="44.3557179" lon="8.2905261"><ele>353.66666666666663</ele><time>2026-04-15T14:49:08.166Z</time></trkpt><trkpt lat="44.3556477" lon="8.2906035"><ele>354.3333333333333</ele><time>2026-04-15T14:49:10.167Z</time></trkpt><trkpt lat="44.3555726" lon="8.2906422"><ele>355.0</ele><time>2026-04-15T14:49:12.166Z</time></trkpt><trkpt lat="44.3554924" lon="8.2906099"><ele>355.5</ele><time>2026-04-15T14:49:14.166Z</time></trkpt><trkpt lat="44.355405" lon="8.2906427"><ele>356.0</ele><time>2026-04-15T14:49:16.167Z</time></trkpt><trkpt lat="44.3553193" lon="8.290669"><ele>356.5</ele><time>2026-04-15T14:49:18.167Z</time></trkpt><trkpt lat="44.3552414" lon="8.2907102"><ele>357.0</ele><time>2026-04-15T14:49:20.166Z</time></trkpt><trkpt lat="44.3551724" lon="8.2907673"><ele>357.5</ele><time>2026-04-15T14:49:22.167Z</time></trkpt><trkpt lat="44.3551074" lon="8.2908195"><ele>358.0</ele><time>2026-04-15T14:49:24.167Z</time></trkpt><trkpt lat="44.35504" lon="8.2908568"><ele>358.00000000000006</ele><time>2026-04-15T14:49:26.167Z</time></trkpt><trkpt lat="44.3549763" lon="8.2908955"><ele>358.0</ele><time>2026-04-15T14:49:28.167Z</time></trkpt><trkpt lat="44.3549212" lon="8.2909419"><ele>358.0</ele><time>2026-04-15T14:49:30.166Z</time></trkpt><trkpt lat="44.3548558" lon="8.2909918"><ele>358.0</ele><time>2026-04-15T14:49:32.167Z</time></trkpt><trkpt lat="44.3547957" lon="8.2910438"><ele>358.0</ele><time>2026-04-15T14:49:34.166Z</time></trkpt><trkpt lat="44.3547242" lon="8.2910927"><ele>358.00000000000006</ele><time>2026-04-15T14:49:36.167Z</time></trkpt><trkpt lat="44.354654" lon="8.2911381"><ele>358.0</ele><time>2026-04-15T14:49:38.166Z</time></trkpt><trkpt lat="44.3545834" lon="8.2912102"><ele>357.59999999999997</ele><time>2026-04-15T14:49:40.167Z</time></trkpt><trkpt lat="44.3545115" lon="8.2912857"><ele>357.2</ele><time>2026-04-15T14:49:42.165Z</time></trkpt><trkpt lat="44.3544366" lon="8.2913814"><ele>356.8</ele><time>2026-04-15T14:49:44.167Z</time></trkpt><trkpt lat="44.3543664" lon="8.291459"><ele>356.4</ele><time>2026-04-15T14:49:46.167Z</time></trkpt><trkpt lat="44.3542931" lon="8.2915482"><ele>356.0</ele><time>2026-04-15T14:49:48.167Z</time></trkpt><trkpt lat="44.3542245" lon="8.2916467"><ele>356.8</ele><time>2026-04-15T14:49:50.167Z</time></trkpt><trkpt lat="44.3541499" lon="8.2917343"><ele>357.6</ele><time>2026-04-15T14:49:52.166Z</time></trkpt><trkpt lat="44.3540825" lon="8.2918314"><ele>358.4</ele><time>2026-04-15T14:49:54.166Z</time></trkpt><trkpt lat="44.354015" lon="8.2919221"><ele>359.2</ele><time>2026-04-15T14:49:56.166Z</time></trkpt><trkpt lat="44.3539467" lon="8.292022"><ele>360.0</ele><time>2026-04-15T14:49:58.167Z</time></trkpt><trkpt lat="44.3538734" lon="8.2921082"><ele>360.0</ele><time>2026-04-15T14:50:00.167Z</time></trkpt><trkpt lat="44.3538113" lon="8.2922107"><ele>360.0</ele><time>2026-04-15T14:50:02.166Z</time></trkpt><trkpt lat="44.3537314" lon="8.2922983"><ele>360.0</ele><time>2026-04-15T14:50:04.167Z</time></trkpt><trkpt lat="44.3536302" lon="8.2923478"><ele>360.0</ele><time>2026-04-15T14:50:06.167Z</time></trkpt><trkpt lat="44.3535441" lon="8.292368"><ele>360.0</ele><time>2026-04-15T14:50:08.167Z</time></trkpt><trkpt lat="44.3534721" lon="8.2923246"><ele>359.8333333333333</ele><time>2026-04-15T14:50:10.167Z</time></trkpt><trkpt lat="44.3534169" lon="8.2922341"><ele>359.6666666666667</ele><time>2026-04-15T14:50:12.167Z</time></trkpt><trkpt lat="44.3533704" lon="8.2921283"><ele>359.5</ele><time>2026-04-15T14:50:14.167Z</time></trkpt><trkpt lat="44.3533204" lon="8.2920397"><ele>359.33333333333337</ele><time>2026-04-15T14:50:16.166Z</time></trkpt><trkpt lat="44.3532526" lon="8.2920813"><ele>359.1666666666667</ele><time>2026-04-15T14:50:19.166Z</time></trkpt><trkpt lat="44.3531836" lon="8.2921144"><ele>359.0</ele><time>2026-04-15T14:50:21.167Z</time></trkpt><trkpt lat="44.3531074" lon="8.2920682"><ele>360.33333333333337</ele><time>2026-04-15T14:50:23.166Z</time></trkpt><trkpt lat="44.3530261" lon="8.2920321"><ele>361.6666666666667</ele><time>2026-04-15T14:50:25.166Z</time></trkpt><trkpt lat="44.3529363" lon="8.2920365"><ele>363.0</ele><time>2026-04-15T14:50:27.167Z</time></trkpt><trkpt lat="44.3528591" lon="8.2920813"><ele>364.3333333333333</ele><time>2026-04-15T14:50:29.166Z</time></trkpt><trkpt lat="44.3527962" lon="8.2921642"><ele>365.66666666666663</ele><time>2026-04-15T14:50:31.167Z</time></trkpt><trkpt lat="44.3527281" lon="8.2922516"><ele>367.0</ele><time>2026-04-15T14:50:33.166Z</time></trkpt><trkpt lat="44.3526632" lon="8.2923464"><ele>367.0</ele><time>2026-04-15T14:50:35.167Z</time></trkpt><trkpt lat="44.3526042" lon="8.2924482"><ele>367.0</ele><time>2026-04-15T14:50:37.167Z</time></trkpt><trkpt lat="44.3525428" lon="8.2925443"><ele>367.0</ele><time>2026-04-15T14:50:39.166Z</time></trkpt><trkpt lat="44.3524804" lon="8.2926396"><ele>367.0</ele><time>2026-04-15T14:50:41.167Z</time></trkpt><trkpt lat="44.3524182" lon="8.2927313"><ele>367.0</ele><time>2026-04-15T14:50:43.166Z</time></trkpt><trkpt lat="44.3523528" lon="8.2928349"><ele>367.0</ele><time>2026-04-15T14:50:45.167Z</time></trkpt><trkpt lat="44.3522841" lon="8.2929365"><ele>367.0</ele><time>2026-04-15T14:50:47.167Z</time></trkpt><trkpt lat="44.352223" lon="8.293056"><ele>367.0</ele><time>2026-04-15T14:50:49.167Z</time></trkpt><trkpt lat="44.3521616" lon="8.2931654"><ele>367.0</ele><time>2026-04-15T14:50:51.167Z</time></trkpt><trkpt lat="44.3520824" lon="8.293262"><ele>367.0</ele><time>2026-04-15T14:50:53.166Z</time></trkpt><trkpt lat="44.3519738" lon="8.2933426"><ele>367.6</ele><time>2026-04-15T14:50:55.166Z</time></trkpt><trkpt lat="44.3518967" lon="8.2934513"><ele>368.20000000000005</ele><time>2026-04-15T14:50:57.167Z</time></trkpt><trkpt lat="44.3518257" lon="8.2935283"><ele>368.8</ele><time>2026-04-15T14:50:59.166Z</time></trkpt><trkpt lat="44.3517349" lon="8.2936235"><ele>369.4</ele><time>2026-04-15T14:51:01.166Z</time></trkpt><trkpt lat="44.3516544" lon="8.2937048"><ele>370.0</ele><time>2026-04-15T14:51:03.166Z</time></trkpt><trkpt lat="44.351586" lon="8.2937825"><ele>370.0</ele><time>2026-04-15T14:51:05.165Z</time></trkpt><trkpt lat="44.3515065" lon="8.2938794"><ele>370.0</ele><time>2026-04-15T14:51:07.167Z</time></trkpt><trkpt lat="44.3514324" lon="8.2939768"><ele>370.0</ele><time>2026-04-15T14:51:09.165Z</time></trkpt><trkpt lat="44.3513692" lon="8.2940822"><ele>370.0</ele><time>2026-04-15T14:51:11.167Z</time></trkpt><trkpt lat="44.3512855" lon="8.2941726"><ele>370.0</ele><time>2026-04-15T14:51:13.167Z</time></trkpt><trkpt lat="44.3511889" lon="8.2942332"><ele>370.2</ele><time>2026-04-15T14:51:15.167Z</time></trkpt><trkpt lat="44.3510969" lon="8.2943209"><ele>370.4</ele><time>2026-04-15T14:51:17.166Z</time></trkpt><trkpt lat="44.3510195" lon="8.2943909"><ele>370.6</ele><time>2026-04-15T14:51:19.167Z</time></trkpt><trkpt lat="44.3509391" lon="8.2944734"><ele>370.8</ele><time>2026-04-15T14:51:21.167Z</time></trkpt><trkpt lat="44.3508586" lon="8.2945551"><ele>371.0</ele><time>2026-04-15T14:51:23.167Z</time></trkpt><trkpt lat="44.3507621" lon="8.294628"><ele>371.0</ele><time>2026-04-15T14:51:25.166Z</time></trkpt><trkpt lat="44.350685" lon="8.2947213"><ele>371.0</ele><time>2026-04-15T14:51:27.167Z</time></trkpt><trkpt lat="44.3506094" lon="8.2948046"><ele>371.0</ele><time>2026-04-15T14:51:29.166Z</time></trkpt><trkpt lat="44.3505288" lon="8.2948869"><ele>371.0</ele><time>2026-04-15T14:51:31.167Z</time></trkpt><trkpt lat="44.3504546" lon="8.2949605"><ele>371.0</ele><time>2026-04-15T14:51:33.166Z</time></trkpt><trkpt lat="44.3503871" lon="8.2950415"><ele>370.6666666666667</ele><time>2026-04-15T14:51:35.167Z</time></trkpt><trkpt lat="44.3503119" lon="8.2951228"><ele>370.33333333333337</ele><time>2026-04-15T14:51:37.167Z</time></trkpt><trkpt lat="44.3502447" lon="8.2951854"><ele>370.0</ele><time>2026-04-15T14:51:39.165Z</time></trkpt><trkpt lat="44.3501633" lon="8.2952586"><ele>369.6666666666667</ele><time>2026-04-15T14:51:41.165Z</time></trkpt><trkpt lat="44.3501063" lon="8.295301"><ele>369.3333333333333</ele><time>2026-04-15T14:51:43.166Z</time></trkpt><trkpt lat="44.3500286" lon="8.2953252"><ele>369.0</ele><time>2026-04-15T14:51:45.167Z</time></trkpt><trkpt lat="44.3499513" lon="8.2953629"><ele>369.0</ele><time>2026-04-15T14:51:47.167Z</time></trkpt><trkpt lat="44.3498751" lon="8.2954131"><ele>369.0</ele><time>2026-04-15T14:51:49.166Z</time></trkpt><trkpt lat="44.3498017" lon="8.2954738"><ele>369.0</ele><time>2026-04-15T14:51:51.166Z</time></trkpt><trkpt lat="44.3497321" lon="8.2955309"><ele>369.0</ele><time>2026-04-15T14:51:53.166Z</time></trkpt><trkpt lat="44.3496629" lon="8.2955943"><ele>369.0</ele><time>2026-04-15T14:51:55.165Z</time></trkpt><trkpt lat="44.3496054" lon="8.2956588"><ele>369.0</ele><time>2026-04-15T14:51:57.167Z</time></trkpt><trkpt lat="44.3495482" lon="8.2957262"><ele>370.6</ele><time>2026-04-15T14:51:59.167Z</time></trkpt><trkpt lat="44.3494881" lon="8.2957983"><ele>372.2</ele><time>2026-04-15T14:52:01.167Z</time></trkpt><trkpt lat="44.3494171" lon="8.2958752"><ele>373.8</ele><time>2026-04-15T14:52:03.167Z</time></trkpt><trkpt lat="44.3493329" lon="8.2959534"><ele>375.40000000000003</ele><time>2026-04-15T14:52:05.167Z</time></trkpt><trkpt lat="44.3492627" lon="8.2960459"><ele>377.0</ele><time>2026-04-15T14:52:07.167Z</time></trkpt><trkpt lat="44.3491764" lon="8.2961093"><ele>377.0</ele><time>2026-04-15T14:52:09.167Z</time></trkpt><trkpt lat="44.3490953" lon="8.2961837"><ele>377.0</ele><time>2026-04-15T14:52:11.166Z</time></trkpt><trkpt lat="44.3490191" lon="8.296245"><ele>377.0</ele><time>2026-04-15T14:52:13.167Z</time></trkpt><trkpt lat="44.3489367" lon="8.2963111"><ele>377.0</ele><time>2026-04-15T14:52:15.167Z</time></trkpt><trkpt lat="44.3488471" lon="8.2963571"><ele>377.0</ele><time>2026-04-15T14:52:17.165Z</time></trkpt><trkpt lat="44.3487518" lon="8.2964016"><ele>376.40000000000003</ele><time>2026-04-15T14:52:19.167Z</time></trkpt><trkpt lat="44.348669" lon="8.296438"><ele>375.8</ele><time>2026-04-15T14:52:21.167Z</time></trkpt><trkpt lat="44.3485743" lon="8.2964956"><ele>375.2</ele><time>2026-04-15T14:52:23.166Z</time></trkpt><trkpt lat="44.3484706" lon="8.2965304"><ele>374.6</ele><time>2026-04-15T14:52:25.167Z</time></trkpt><trkpt lat="44.3483779" lon="8.2965587"><ele>374.0</ele><time>2026-04-15T14:52:27.167Z</time></trkpt><trkpt lat="44.3482812" lon="8.2965827"><ele>374.0</ele><time>2026-04-15T14:52:29.166Z</time></trkpt><trkpt lat="44.3481854" lon="8.2966089"><ele>374.0</ele><time>2026-04-15T14:52:31.166Z</time></trkpt><trkpt lat="44.3480884" lon="8.2966248"><ele>374.0</ele><time>2026-04-15T14:52:33.167Z</time></trkpt><trkpt lat="44.3480039" lon="8.2966449"><ele>374.0</ele><time>2026-04-15T14:52:35.167Z</time></trkpt><trkpt lat="44.347905" lon="8.29666"><ele>374.0</ele><time>2026-04-15T14:52:37.166Z</time></trkpt><trkpt lat="44.3478133" lon="8.2966808"><ele>375.2</ele><time>2026-04-15T14:52:39.166Z</time></trkpt><trkpt lat="44.3477117" lon="8.2966903"><ele>376.4</ele><time>2026-04-15T14:52:41.166Z</time></trkpt><trkpt lat="44.3476073" lon="8.2966978"><ele>377.6</ele><time>2026-04-15T14:52:43.166Z</time></trkpt><trkpt lat="44.3475107" lon="8.2967135"><ele>378.8</ele><time>2026-04-15T14:52:45.167Z</time></trkpt><trkpt lat="44.3474084" lon="8.2967212"><ele>380.0</ele><time>2026-04-15T14:52:47.167Z</time></trkpt><trkpt lat="44.3473039" lon="8.2967359"><ele>380.6</ele><time>2026-04-15T14:52:49.165Z</time></trkpt><trkpt lat="44.3471964" lon="8.2967454"><ele>381.2</ele><time>2026-04-15T14:52:51.166Z</time></trkpt><trkpt lat="44.3470916" lon="8.2967581"><ele>381.79999999999995</ele><time>2026-04-15T14:52:53.167Z</time></trkpt><trkpt lat="44.3469897" lon="8.2967731"><ele>382.4</ele><time>2026-04-15T14:52:55.167Z</time></trkpt><trkpt lat="44.3468952" lon="8.2967781"><ele>383.0</ele><time>2026-04-15T14:52:57.166Z</time></trkpt><trkpt lat="44.3467826" lon="8.2967797"><ele>383.0</ele><time>2026-04-15T14:52:59.166Z</time></trkpt><trkpt lat="44.3466773" lon="8.2967732"><ele>383.0</ele><time>2026-04-15T14:53:01.165Z</time></trkpt><trkpt lat="44.3465649" lon="8.2967718"><ele>383.0</ele><time>2026-04-15T14:53:03.166Z</time></trkpt><trkpt lat="44.346459" lon="8.2967972"><ele>383.0</ele><time>2026-04-15T14:53:05.166Z</time></trkpt><trkpt lat="44.3463485" lon="8.2968258"><ele>383.0</ele><time>2026-04-15T14:53:07.166Z</time></trkpt><trkpt lat="44.3462327" lon="8.2968749"><ele>384.0</ele><time>2026-04-15T14:53:09.166Z</time></trkpt><trkpt lat="44.3461194" lon="8.2969319"><ele>385.0</ele><time>2026-04-15T14:53:11.167Z</time></trkpt><trkpt lat="44.3460183" lon="8.2970061"><ele>386.0</ele><time>2026-04-15T14:53:13.167Z</time></trkpt><trkpt lat="44.3459299" lon="8.2970886"><ele>387.0</ele><time>2026-04-15T14:53:15.166Z</time></trkpt><trkpt lat="44.3458424" lon="8.2971911"><ele>386.20000000000005</ele><time>2026-04-15T14:53:17.167Z</time></trkpt><trkpt lat="44.3457666" lon="8.297306"><ele>385.4</ele><time>2026-04-15T14:53:19.166Z</time></trkpt><trkpt lat="44.345691" lon="8.2973995"><ele>384.6</ele><time>2026-04-15T14:53:21.165Z</time></trkpt><trkpt lat="44.3456197" lon="8.2974844"><ele>383.79999999999995</ele><time>2026-04-15T14:53:23.167Z</time></trkpt><trkpt lat="44.3455494" lon="8.2975822"><ele>383.0</ele><time>2026-04-15T14:53:25.165Z</time></trkpt><trkpt lat="44.3454815" lon="8.2976753"><ele>384.33333333333337</ele><time>2026-04-15T14:53:27.167Z</time></trkpt><trkpt lat="44.3454159" lon="8.2977646"><ele>385.6666666666667</ele><time>2026-04-15T14:53:29.167Z</time></trkpt><trkpt lat="44.3453558" lon="8.2978459"><ele>387.0</ele><time>2026-04-15T14:53:31.167Z</time></trkpt><trkpt lat="44.3452983" lon="8.2979366"><ele>388.33333333333337</ele><time>2026-04-15T14:53:33.167Z</time></trkpt><trkpt lat="44.3452655" lon="8.2980462"><ele>389.6666666666667</ele><time>2026-04-15T14:53:35.166Z</time></trkpt><trkpt lat="44.3452421" lon="8.2981643"><ele>391.0</ele><time>2026-04-15T14:53:37.166Z</time></trkpt><trkpt lat="44.345228" lon="8.2982752"><ele>391.00000000000006</ele><time>2026-04-15T14:53:39.166Z</time></trkpt><trkpt lat="44.3452194" lon="8.2983888"><ele>391.0</ele><time>2026-04-15T14:53:41.167Z</time></trkpt><trkpt lat="44.3452241" lon="8.2985063"><ele>391.0</ele><time>2026-04-15T14:53:43.166Z</time></trkpt><trkpt lat="44.3452409" lon="8.2986239"><ele>391.0</ele><time>2026-04-15T14:53:45.166Z</time></trkpt><trkpt lat="44.3452596" lon="8.2987292"><ele>391.00000000000006</ele><time>2026-04-15T14:53:47.165Z</time></trkpt><trkpt lat="44.3452873" lon="8.2988342"><ele>391.0</ele><time>2026-04-15T14:53:49.165Z</time></trkpt><trkpt lat="44.3453193" lon="8.2989361"><ele>391.6666666666667</ele><time>2026-04-15T14:53:51.165Z</time></trkpt><trkpt lat="44.3453509" lon="8.2990474"><ele>392.33333333333337</ele><time>2026-04-15T14:53:53.166Z</time></trkpt><trkpt lat="44.3453834" lon="8.2991486"><ele>393.0</ele><time>2026-04-15T14:53:55.166Z</time></trkpt><trkpt lat="44.3454213" lon="8.2992418"><ele>393.66666666666663</ele><time>2026-04-15T14:53:57.167Z</time></trkpt><trkpt lat="44.3454568" lon="8.2993364"><ele>394.3333333333333</ele><time>2026-04-15T14:53:59.166Z</time></trkpt><trkpt lat="44.3454972" lon="8.299431"><ele>395.0</ele><time>2026-04-15T14:54:01.165Z</time></trkpt><trkpt lat="44.3455441" lon="8.2995221"><ele>395.16666666666663</ele><time>2026-04-15T14:54:03.167Z</time></trkpt><trkpt lat="44.3455938" lon="8.299607"><ele>395.3333333333333</ele><time>2026-04-15T14:54:05.164Z</time></trkpt><trkpt lat="44.3456488" lon="8.2996855"><ele>395.5</ele><time>2026-04-15T14:54:07.167Z</time></trkpt><trkpt lat="44.3456989" lon="8.2997592"><ele>395.66666666666663</ele><time>2026-04-15T14:54:09.166Z</time></trkpt><trkpt lat="44.3457552" lon="8.2998259"><ele>395.8333333333333</ele><time>2026-04-15T14:54:11.167Z</time></trkpt><trkpt lat="44.3458233" lon="8.2998862"><ele>396.0</ele><time>2026-04-15T14:54:13.165Z</time></trkpt><trkpt lat="44.3458881" lon="8.2999374"><ele>396.0</ele><time>2026-04-15T14:54:15.165Z</time></trkpt><trkpt lat="44.3459565" lon="8.2999798"><ele>396.0</ele><time>2026-04-15T14:54:17.166Z</time></trkpt><trkpt lat="44.3460254" lon="8.3000125"><ele>396.0</ele><time>2026-04-15T14:54:19.167Z</time></trkpt><trkpt lat="44.3460905" lon="8.3000355"><ele>396.0</ele><time>2026-04-15T14:54:21.167Z</time></trkpt><trkpt lat="44.3461515" lon="8.300063"><ele>396.0</ele><time>2026-04-15T14:54:23.166Z</time></trkpt><trkpt lat="44.3462113" lon="8.300097"><ele>396.0</ele><time>2026-04-15T14:54:25.165Z</time></trkpt><trkpt lat="44.3462718" lon="8.3001485"><ele>396.0</ele><time>2026-04-15T14:54:27.167Z</time></trkpt><trkpt lat="44.3463285" lon="8.3002135"><ele>396.0</ele><time>2026-04-15T14:54:29.167Z</time></trkpt><trkpt lat="44.3463775" lon="8.3002887"><ele>396.0</ele><time>2026-04-15T14:54:31.167Z</time></trkpt><trkpt lat="44.3464228" lon="8.3003721"><ele>396.0</ele><time>2026-04-15T14:54:33.167Z</time></trkpt><trkpt lat="44.346466" lon="8.3004633"><ele>396.0</ele><time>2026-04-15T14:54:35.165Z</time></trkpt><trkpt lat="44.3465089" lon="8.3005636"><ele>396.0</ele><time>2026-04-15T14:54:37.166Z</time></trkpt><trkpt lat="44.3465515" lon="8.3006634"><ele>396.0</ele><time>2026-04-15T14:54:39.167Z</time></trkpt><trkpt lat="44.3465947" lon="8.3007645"><ele>395.6666666666667</ele><time>2026-04-15T14:54:41.165Z</time></trkpt><trkpt lat="44.3466356" lon="8.3008629"><ele>395.33333333333337</ele><time>2026-04-15T14:54:43.166Z</time></trkpt><trkpt lat="44.3466757" lon="8.3009638"><ele>395.0</ele><time>2026-04-15T14:54:45.167Z</time></trkpt><trkpt lat="44.3467147" lon="8.3010639"><ele>394.6666666666667</ele><time>2026-04-15T14:54:47.166Z</time></trkpt><trkpt lat="44.3467567" lon="8.3011627"><ele>394.33333333333337</ele><time>2026-04-15T14:54:49.166Z</time></trkpt><trkpt lat="44.3467971" lon="8.3012513"><ele>394.0</ele><time>2026-04-15T14:54:51.166Z</time></trkpt><trkpt lat="44.3468309" lon="8.3013439"><ele>395.6</ele><time>2026-04-15T14:54:53.166Z</time></trkpt><trkpt lat="44.3468739" lon="8.3014456"><ele>397.2</ele><time>2026-04-15T14:54:55.166Z</time></trkpt><trkpt lat="44.3469242" lon="8.3015524"><ele>398.8</ele><time>2026-04-15T14:54:57.166Z</time></trkpt><trkpt lat="44.347008" lon="8.3016497"><ele>400.40000000000003</ele><time>2026-04-15T14:54:59.166Z</time></trkpt><trkpt lat="44.3470526" lon="8.3017624"><ele>402.0</ele><time>2026-04-15T14:55:01.167Z</time></trkpt><trkpt lat="44.3471056" lon="8.301861"><ele>402.0</ele><time>2026-04-15T14:55:03.166Z</time></trkpt><trkpt lat="44.3471437" lon="8.3019869"><ele>402.0</ele><time>2026-04-15T14:55:05.166Z</time></trkpt><trkpt lat="44.3471569" lon="8.3021136"><ele>402.0</ele><time>2026-04-15T14:55:07.166Z</time></trkpt><trkpt lat="44.3471725" lon="8.3022357"><ele>402.0</ele><time>2026-04-15T14:55:09.166Z</time></trkpt><trkpt lat="44.347172" lon="8.302349"><ele>402.0</ele><time>2026-04-15T14:55:11.165Z</time></trkpt><trkpt lat="44.347142" lon="8.3024655"><ele>402.0</ele><time>2026-04-15T14:55:13.166Z</time></trkpt><trkpt lat="44.3471124" lon="8.3025833"><ele>402.5</ele><time>2026-04-15T14:55:15.166Z</time></trkpt><trkpt lat="44.3470754" lon="8.3026917"><ele>403.0</ele><time>2026-04-15T14:55:17.165Z</time></trkpt><trkpt lat="44.3470397" lon="8.3028006"><ele>403.5</ele><time>2026-04-15T14:55:19.165Z</time></trkpt><trkpt lat="44.3470083" lon="8.3029268"><ele>404.0</ele><time>2026-04-15T14:55:21.165Z</time></trkpt><trkpt lat="44.3469843" lon="8.3030424"><ele>404.5</ele><time>2026-04-15T14:55:23.166Z</time></trkpt><trkpt lat="44.3469622" lon="8.3031547"><ele>405.0</ele><time>2026-04-15T14:55:25.167Z</time></trkpt><trkpt lat="44.346954" lon="8.3032661"><ele>405.1666666666667</ele><time>2026-04-15T14:55:27.166Z</time></trkpt><trkpt lat="44.3469539" lon="8.3033858"><ele>405.33333333333337</ele><time>2026-04-15T14:55:29.166Z</time></trkpt><trkpt lat="44.3469544" lon="8.3035074"><ele>405.5</ele><time>2026-04-15T14:55:31.166Z</time></trkpt><trkpt lat="44.3469406" lon="8.303626"><ele>405.6666666666667</ele><time>2026-04-15T14:55:33.166Z</time></trkpt><trkpt lat="44.3469161" lon="8.3037407"><ele>405.83333333333337</ele><time>2026-04-15T14:55:35.167Z</time></trkpt><trkpt lat="44.3469003" lon="8.3038599"><ele>406.0</ele><time>2026-04-15T14:55:37.164Z</time></trkpt><trkpt lat="44.3468372" lon="8.3039635"><ele>405.6</ele><time>2026-04-15T14:55:39.166Z</time></trkpt><trkpt lat="44.3467997" lon="8.304082"><ele>405.20000000000005</ele><time>2026-04-15T14:55:41.166Z</time></trkpt><trkpt lat="44.3467623" lon="8.3042048"><ele>404.79999999999995</ele><time>2026-04-15T14:55:43.164Z</time></trkpt><trkpt lat="44.346727" lon="8.3043314"><ele>404.4</ele><time>2026-04-15T14:55:45.165Z</time></trkpt><trkpt lat="44.3466932" lon="8.3044619"><ele>404.0</ele><time>2026-04-15T14:55:47.165Z</time></trkpt><trkpt lat="44.3466594" lon="8.3045679"><ele>404.0</ele><time>2026-04-15T14:55:49.165Z</time></trkpt><trkpt lat="44.3466174" lon="8.3046797"><ele>404.0</ele><time>2026-04-15T14:55:51.165Z</time></trkpt><trkpt lat="44.3465591" lon="8.3048023"><ele>404.0</ele><time>2026-04-15T14:55:53.166Z</time></trkpt><trkpt lat="44.3465247" lon="8.304877"><ele>404.0</ele><time>2026-04-15T14:55:54.167Z</time></trkpt><trkpt lat="44.3464905" lon="8.3050487"><ele>404.0</ele><time>2026-04-15T14:55:56.166Z</time></trkpt><trkpt lat="44.3464619" lon="8.3051892"><ele>403.8333333333333</ele><time>2026-04-15T14:55:58.164Z</time></trkpt><trkpt lat="44.3464505" lon="8.3052796"><ele>403.66666666666663</ele><time>2026-04-15T14:55:59.166Z</time></trkpt><trkpt lat="44.3464313" lon="8.3054429"><ele>403.5</ele><time>2026-04-15T14:56:01.166Z</time></trkpt><trkpt lat="44.3464139" lon="8.3055321"><ele>403.33333333333337</ele><time>2026-04-15T14:56:02.166Z</time></trkpt><trkpt lat="44.3464022" lon="8.3056192"><ele>403.1666666666667</ele><time>2026-04-15T14:56:03.166Z</time></trkpt><trkpt lat="44.3463826" lon="8.3057051"><ele>403.0</ele><time>2026-04-15T14:56:04.166Z</time></trkpt><trkpt lat="44.3463538" lon="8.3058711"><ele>402.33333333333337</ele><time>2026-04-15T14:56:06.165Z</time></trkpt><trkpt lat="44.346349" lon="8.306002"><ele>401.6666666666667</ele><time>2026-04-15T14:56:08.165Z</time></trkpt><trkpt lat="44.3464257" lon="8.3060848"><ele>401.0</ele><time>2026-04-15T14:56:10.166Z</time></trkpt><trkpt lat="44.3464915" lon="8.3061054"><ele>400.33333333333337</ele><time>2026-04-15T14:56:11.166Z</time></trkpt><trkpt lat="44.3465587" lon="8.3061291"><ele>399.6666666666667</ele><time>2026-04-15T14:56:12.166Z</time></trkpt><trkpt lat="44.346623" lon="8.3061383"><ele>399.0</ele><time>2026-04-15T14:56:13.166Z</time></trkpt><trkpt lat="44.3466892" lon="8.3061487"><ele>399.0</ele><time>2026-04-15T14:56:14.166Z</time></trkpt><trkpt lat="44.3467554" lon="8.3061554"><ele>399.0</ele><time>2026-04-15T14:56:15.166Z</time></trkpt><trkpt lat="44.346859" lon="8.3061564"><ele>399.0</ele><time>2026-04-15T14:56:17.166Z</time></trkpt><trkpt lat="44.3469563" lon="8.3061758"><ele>399.0</ele><time>2026-04-15T14:56:19.166Z</time></trkpt><trkpt lat="44.3469645" lon="8.3062722"><ele>399.0</ele><time>2026-04-15T14:56:21.165Z</time></trkpt><trkpt lat="44.3469827" lon="8.3063927"><ele>399.0</ele><time>2026-04-15T14:56:23.166Z</time></trkpt><trkpt lat="44.3469897" lon="8.3065347"><ele>398.2</ele><time>2026-04-15T14:56:25.165Z</time></trkpt><trkpt lat="44.3470254" lon="8.3066965"><ele>397.4</ele><time>2026-04-15T14:56:27.167Z</time></trkpt><trkpt lat="44.3470641" lon="8.3068581"><ele>396.6</ele><time>2026-04-15T14:56:29.165Z</time></trkpt><trkpt lat="44.3470937" lon="8.3069383"><ele>395.8</ele><time>2026-04-15T14:56:30.165Z</time></trkpt><trkpt lat="44.3471261" lon="8.30702"><ele>395.0</ele><time>2026-04-15T14:56:31.166Z</time></trkpt><trkpt lat="44.3471443" lon="8.3071965"><ele>394.4285714285714</ele><time>2026-04-15T14:56:33.165Z</time></trkpt><trkpt lat="44.3471809" lon="8.3072814"><ele>393.8571428571429</ele><time>2026-04-15T14:56:34.166Z</time></trkpt><trkpt lat="44.3472189" lon="8.3073593"><ele>393.2857142857143</ele><time>2026-04-15T14:56:35.166Z</time></trkpt><trkpt lat="44.3472583" lon="8.3074395"><ele>392.71428571428567</ele><time>2026-04-15T14:56:36.166Z</time></trkpt><trkpt lat="44.3472934" lon="8.3075282"><ele>392.1428571428571</ele><time>2026-04-15T14:56:37.166Z</time></trkpt><trkpt lat="44.347326" lon="8.3076215"><ele>391.57142857142856</ele><time>2026-04-15T14:56:38.165Z</time></trkpt><trkpt lat="44.3473631" lon="8.3077123"><ele>391.0</ele><time>2026-04-15T14:56:39.164Z</time></trkpt><trkpt lat="44.3473877" lon="8.3078117"><ele>391.6666666666667</ele><time>2026-04-15T14:56:40.165Z</time></trkpt><trkpt lat="44.3474246" lon="8.3079103"><ele>392.33333333333337</ele><time>2026-04-15T14:56:41.165Z</time></trkpt><trkpt lat="44.3474591" lon="8.3080083"><ele>393.0</ele><time>2026-04-15T14:56:42.166Z</time></trkpt><trkpt lat="44.3474711" lon="8.3081311"><ele>393.66666666666663</ele><time>2026-04-15T14:56:43.166Z</time></trkpt><trkpt lat="44.3474624" lon="8.3082438"><ele>394.3333333333333</ele><time>2026-04-15T14:56:44.165Z</time></trkpt><trkpt lat="44.34746" lon="8.3083613"><ele>395.0</ele><time>2026-04-15T14:56:45.166Z</time></trkpt><trkpt lat="44.347449" lon="8.3084726"><ele>394.99999999999994</ele><time>2026-04-15T14:56:46.165Z</time></trkpt><trkpt lat="44.3474246" lon="8.3085913"><ele>395.0</ele><time>2026-04-15T14:56:47.166Z</time></trkpt><trkpt lat="44.3473821" lon="8.3087092"><ele>395.0</ele><time>2026-04-15T14:56:48.165Z</time></trkpt><trkpt lat="44.3473353" lon="8.3087945"><ele>395.0</ele><time>2026-04-15T14:56:49.165Z</time></trkpt><trkpt lat="44.3472742" lon="8.3088914"><ele>394.99999999999994</ele><time>2026-04-15T14:56:50.165Z</time></trkpt><trkpt lat="44.3472148" lon="8.3089769"><ele>395.0</ele><time>2026-04-15T14:56:51.166Z</time></trkpt><trkpt lat="44.3471574" lon="8.3090746"><ele>394.2</ele><time>2026-04-15T14:56:52.165Z</time></trkpt><trkpt lat="44.3471062" lon="8.3091661"><ele>393.4</ele><time>2026-04-15T14:56:53.166Z</time></trkpt><trkpt lat="44.3470579" lon="8.3092803"><ele>392.6</ele><time>2026-04-15T14:56:54.166Z</time></trkpt><trkpt lat="44.3470193" lon="8.3093941"><ele>391.8</ele><time>2026-04-15T14:56:55.164Z</time></trkpt><trkpt lat="44.3469636" lon="8.3095165"><ele>391.0</ele><time>2026-04-15T14:56:56.165Z</time></trkpt><trkpt lat="44.3469289" lon="8.3096368"><ele>391.0</ele><time>2026-04-15T14:56:57.167Z</time></trkpt><trkpt lat="44.3469256" lon="8.3097705"><ele>391.0</ele><time>2026-04-15T14:56:58.167Z</time></trkpt><trkpt lat="44.3468988" lon="8.3099055"><ele>391.0</ele><time>2026-04-15T14:56:59.166Z</time></trkpt><trkpt lat="44.3468803" lon="8.310031"><ele>391.0</ele><time>2026-04-15T14:57:00.166Z</time></trkpt><trkpt lat="44.3468897" lon="8.3101708"><ele>391.0</ele><time>2026-04-15T14:57:01.166Z</time></trkpt><trkpt lat="44.3468914" lon="8.3103093"><ele>391.0</ele><time>2026-04-15T14:57:02.166Z</time></trkpt><trkpt lat="44.3469061" lon="8.3104196"><ele>391.0</ele><time>2026-04-15T14:57:03.165Z</time></trkpt><trkpt lat="44.3469173" lon="8.3105536"><ele>391.0</ele><time>2026-04-15T14:57:04.164Z</time></trkpt><trkpt lat="44.3468918" lon="8.3107089"><ele>391.0</ele><time>2026-04-15T14:57:05.164Z</time></trkpt><trkpt lat="44.3468924" lon="8.3108579"><ele>391.0</ele><time>2026-04-15T14:57:06.166Z</time></trkpt><trkpt lat="44.3469156" lon="8.3109805"><ele>390.6</ele><time>2026-04-15T14:57:07.167Z</time></trkpt><trkpt lat="44.346927" lon="8.3111084"><ele>390.20000000000005</ele><time>2026-04-15T14:57:08.166Z</time></trkpt><trkpt lat="44.3469329" lon="8.3112432"><ele>389.79999999999995</ele><time>2026-04-15T14:57:09.164Z</time></trkpt><trkpt lat="44.3469307" lon="8.3113946"><ele>389.4</ele><time>2026-04-15T14:57:10.166Z</time></trkpt><trkpt lat="44.346922" lon="8.3115374"><ele>389.0</ele><time>2026-04-15T14:57:11.166Z</time></trkpt><trkpt lat="44.3469297" lon="8.3116932"><ele>388.6</ele><time>2026-04-15T14:57:12.166Z</time></trkpt><trkpt lat="44.346926" lon="8.3118257"><ele>388.2</ele><time>2026-04-15T14:57:13.166Z</time></trkpt><trkpt lat="44.3469168" lon="8.3119682"><ele>387.8</ele><time>2026-04-15T14:57:14.166Z</time></trkpt><trkpt lat="44.3468912" lon="8.3121096"><ele>387.40000000000003</ele><time>2026-04-15T14:57:15.165Z</time></trkpt><trkpt lat="44.3468831" lon="8.3122467"><ele>387.0</ele><time>2026-04-15T14:57:16.166Z</time></trkpt><trkpt lat="44.3468702" lon="8.3123862"><ele>387.0</ele><time>2026-04-15T14:57:17.165Z</time></trkpt><trkpt lat="44.3468474" lon="8.312522"><ele>387.0</ele><time>2026-04-15T14:57:18.167Z</time></trkpt><trkpt lat="44.3468209" lon="8.3126559"><ele>387.0</ele><time>2026-04-15T14:57:19.165Z</time></trkpt><trkpt lat="44.346799" lon="8.3127865"><ele>387.0</ele><time>2026-04-15T14:57:20.166Z</time></trkpt><trkpt lat="44.3467711" lon="8.3129158"><ele>387.0</ele><time>2026-04-15T14:57:21.167Z</time></trkpt><trkpt lat="44.3467384" lon="8.3130296"><ele>385.8</ele><time>2026-04-15T14:57:22.166Z</time></trkpt><trkpt lat="44.3467019" lon="8.3131494"><ele>384.6</ele><time>2026-04-15T14:57:23.165Z</time></trkpt><trkpt lat="44.3466643" lon="8.3132699"><ele>383.40000000000003</ele><time>2026-04-15T14:57:24.166Z</time></trkpt><trkpt lat="44.3466279" lon="8.3133888"><ele>382.20000000000005</ele><time>2026-04-15T14:57:25.166Z</time></trkpt><trkpt lat="44.3465835" lon="8.3134946"><ele>381.0</ele><time>2026-04-15T14:57:26.165Z</time></trkpt><trkpt lat="44.3465308" lon="8.3135951"><ele>381.0</ele><time>2026-04-15T14:57:27.166Z</time></trkpt><trkpt lat="44.3464915" lon="8.3136976"><ele>381.0</ele><time>2026-04-15T14:57:28.165Z</time></trkpt><trkpt lat="44.3464433" lon="8.31378"><ele>381.0</ele><time>2026-04-15T14:57:29.166Z</time></trkpt><trkpt lat="44.3463993" lon="8.3138724"><ele>381.0</ele><time>2026-04-15T14:57:30.164Z</time></trkpt><trkpt lat="44.3463566" lon="8.3139714"><ele>381.0</ele><time>2026-04-15T14:57:31.165Z</time></trkpt><trkpt lat="44.3463134" lon="8.3140689"><ele>381.0</ele><time>2026-04-15T14:57:32.165Z</time></trkpt><trkpt lat="44.346271" lon="8.3141581"><ele>382.3333333333333</ele><time>2026-04-15T14:57:33.165Z</time></trkpt><trkpt lat="44.3462239" lon="8.3142369"><ele>383.66666666666663</ele><time>2026-04-15T14:57:34.166Z</time></trkpt><trkpt lat="44.3461887" lon="8.3143243"><ele>385.0</ele><time>2026-04-15T14:57:35.165Z</time></trkpt><trkpt lat="44.3461639" lon="8.3144225"><ele>386.3333333333333</ele><time>2026-04-15T14:57:36.165Z</time></trkpt><trkpt lat="44.3461144" lon="8.3145701"><ele>387.66666666666663</ele><time>2026-04-15T14:57:38.166Z</time></trkpt><trkpt lat="44.3460856" lon="8.3146498"><ele>389.0</ele><time>2026-04-15T14:57:39.165Z</time></trkpt><trkpt lat="44.3460563" lon="8.3147291"><ele>388.2</ele><time>2026-04-15T14:57:40.166Z</time></trkpt><trkpt lat="44.3460077" lon="8.3148866"><ele>387.4</ele><time>2026-04-15T14:57:42.166Z</time></trkpt><trkpt lat="44.3459612" lon="8.3150464"><ele>386.6</ele><time>2026-04-15T14:57:44.166Z</time></trkpt><trkpt lat="44.3459406" lon="8.3151325"><ele>385.8</ele><time>2026-04-15T14:57:45.165Z</time></trkpt><trkpt lat="44.3459058" lon="8.3152978"><ele>385.0</ele><time>2026-04-15T14:57:47.166Z</time></trkpt><trkpt lat="44.3458567" lon="8.3154467"><ele>384.5</ele><time>2026-04-15T14:57:49.166Z</time></trkpt><trkpt lat="44.345838" lon="8.3155963"><ele>384.0</ele><time>2026-04-15T14:57:51.166Z</time></trkpt><trkpt lat="44.3458069" lon="8.3157631"><ele>383.5</ele><time>2026-04-15T14:57:53.166Z</time></trkpt><trkpt lat="44.3457783" lon="8.3159299"><ele>383.0</ele><time>2026-04-15T14:57:55.165Z</time></trkpt><trkpt lat="44.345756" lon="8.3161006"><ele>383.0</ele><time>2026-04-15T14:57:57.166Z</time></trkpt><trkpt lat="44.3457354" lon="8.3162668"><ele>383.0</ele><time>2026-04-15T14:57:59.165Z</time></trkpt><trkpt lat="44.3456984" lon="8.3164236"><ele>383.0</ele><time>2026-04-15T14:58:01.166Z</time></trkpt><trkpt lat="44.3456764" lon="8.3165768"><ele>383.0</ele><time>2026-04-15T14:58:03.166Z</time></trkpt><trkpt lat="44.3456687" lon="8.3166658"><ele>383.0</ele><time>2026-04-15T14:58:04.166Z</time></trkpt><trkpt lat="44.345639" lon="8.31681"><ele>382.25</ele><time>2026-04-15T14:58:06.166Z</time></trkpt><trkpt lat="44.3456106" lon="8.3169735"><ele>381.5</ele><time>2026-04-15T14:58:08.166Z</time></trkpt><trkpt lat="44.3455809" lon="8.3171347"><ele>380.75</ele><time>2026-04-15T14:58:10.167Z</time></trkpt><trkpt lat="44.3455589" lon="8.31727"><ele>380.0</ele><time>2026-04-15T14:58:12.165Z</time></trkpt><trkpt lat="44.3455314" lon="8.3174384"><ele>384.8</ele><time>2026-04-15T14:58:14.165Z</time></trkpt><trkpt lat="44.3455087" lon="8.3175932"><ele>389.6</ele><time>2026-04-15T14:58:16.165Z</time></trkpt><trkpt lat="44.3454835" lon="8.3177366"><ele>394.4</ele><time>2026-04-15T14:58:18.166Z</time></trkpt><trkpt lat="44.3454704" lon="8.3178811"><ele>399.2</ele><time>2026-04-15T14:58:20.166Z</time></trkpt><trkpt lat="44.3454624" lon="8.3179741"><ele>404.0</ele><time>2026-04-15T14:58:21.166Z</time></trkpt><trkpt lat="44.3454294" lon="8.3181351"><ele>404.0</ele><time>2026-04-15T14:58:23.166Z</time></trkpt><trkpt lat="44.345402" lon="8.3182957"><ele>404.0</ele><time>2026-04-15T14:58:25.166Z</time></trkpt><trkpt lat="44.3453754" lon="8.3184618"><ele>404.0</ele><time>2026-04-15T14:58:27.166Z</time></trkpt><trkpt lat="44.3453597" lon="8.3185506"><ele>404.0</ele><time>2026-04-15T14:58:28.165Z</time></trkpt><trkpt lat="44.3453298" lon="8.3187079"><ele>404.0</ele><time>2026-04-15T14:58:30.164Z</time></trkpt><trkpt lat="44.3453149" lon="8.318796"><ele>404.0</ele><time>2026-04-15T14:58:31.166Z</time></trkpt><trkpt lat="44.3452978" lon="8.3189477"><ele>404.0</ele><time>2026-04-15T14:58:33.166Z</time></trkpt><trkpt lat="44.3452767" lon="8.3191148"><ele>404.0</ele><time>2026-04-15T14:58:35.166Z</time></trkpt><trkpt lat="44.3452743" lon="8.3192708"><ele>404.0</ele><time>2026-04-15T14:58:37.165Z</time></trkpt><trkpt lat="44.3452974" lon="8.3193918"><ele>404.0</ele><time>2026-04-15T14:58:39.165Z</time></trkpt><trkpt lat="44.3453186" lon="8.3195259"><ele>404.0</ele><time>2026-04-15T14:58:41.166Z</time></trkpt><trkpt lat="44.3453473" lon="8.319663"><ele>404.0</ele><time>2026-04-15T14:58:43.166Z</time></trkpt><trkpt lat="44.345391" lon="8.3198217"><ele>404.0</ele><time>2026-04-15T14:58:45.165Z</time></trkpt><trkpt lat="44.3454405" lon="8.3199635"><ele>404.0</ele><time>2026-04-15T14:58:47.165Z</time></trkpt><trkpt lat="44.3454949" lon="8.3200888"><ele>404.0</ele><time>2026-04-15T14:58:49.166Z</time></trkpt><trkpt lat="44.3455438" lon="8.3202153"><ele>403.6</ele><time>2026-04-15T14:58:51.165Z</time></trkpt><trkpt lat="44.3455707" lon="8.3203437"><ele>403.2</ele><time>2026-04-15T14:58:53.166Z</time></trkpt><trkpt lat="44.3455927" lon="8.3204515"><ele>402.8</ele><time>2026-04-15T14:58:55.166Z</time></trkpt><trkpt lat="44.3455711" lon="8.3205885"><ele>402.40000000000003</ele><time>2026-04-15T14:58:57.166Z</time></trkpt><trkpt lat="44.3455573" lon="8.3207115"><ele>402.0</ele><time>2026-04-15T14:58:59.166Z</time></trkpt><trkpt lat="44.3455156" lon="8.3208583"><ele>402.0</ele><time>2026-04-15T14:59:01.166Z</time></trkpt><trkpt lat="44.3454633" lon="8.3210088"><ele>402.0</ele><time>2026-04-15T14:59:03.166Z</time></trkpt><trkpt lat="44.3454014" lon="8.3211364"><ele>402.0</ele><time>2026-04-15T14:59:05.166Z</time></trkpt><trkpt lat="44.345324" lon="8.3212655"><ele>402.0</ele><time>2026-04-15T14:59:07.166Z</time></trkpt><trkpt lat="44.3452797" lon="8.321329"><ele>402.0</ele><time>2026-04-15T14:59:08.164Z</time></trkpt><trkpt lat="44.3451854" lon="8.3214508"><ele>399.1666666666667</ele><time>2026-04-15T14:59:10.165Z</time></trkpt><trkpt lat="44.3451307" lon="8.3215064"><ele>396.33333333333337</ele><time>2026-04-15T14:59:11.166Z</time></trkpt><trkpt lat="44.3450821" lon="8.3215627"><ele>393.5</ele><time>2026-04-15T14:59:12.167Z</time></trkpt><trkpt lat="44.345027" lon="8.3216113"><ele>390.6666666666667</ele><time>2026-04-15T14:59:13.163Z</time></trkpt><trkpt lat="44.3449293" lon="8.3217103"><ele>387.83333333333337</ele><time>2026-04-15T14:59:15.165Z</time></trkpt><trkpt lat="44.3448328" lon="8.3218014"><ele>385.0</ele><time>2026-04-15T14:59:17.166Z</time></trkpt><trkpt lat="44.3447457" lon="8.3218918"><ele>384.2</ele><time>2026-04-15T14:59:19.165Z</time></trkpt><trkpt lat="44.3446591" lon="8.3219855"><ele>383.4</ele><time>2026-04-15T14:59:21.166Z</time></trkpt><trkpt lat="44.3445769" lon="8.3220596"><ele>382.6</ele><time>2026-04-15T14:59:23.165Z</time></trkpt><trkpt lat="44.3444901" lon="8.3221409"><ele>381.8</ele><time>2026-04-15T14:59:25.165Z</time></trkpt><trkpt lat="44.3443956" lon="8.3222334"><ele>381.0</ele><time>2026-04-15T14:59:27.166Z</time></trkpt><trkpt lat="44.3443023" lon="8.322324"><ele>381.0</ele><time>2026-04-15T14:59:29.165Z</time></trkpt><trkpt lat="44.3442134" lon="8.3224169"><ele>381.0</ele><time>2026-04-15T14:59:31.165Z</time></trkpt><trkpt lat="44.3441231" lon="8.3225086"><ele>381.0</ele><time>2026-04-15T14:59:33.166Z</time></trkpt><trkpt lat="44.34406" lon="8.3225405"><ele>381.0</ele><time>2026-04-15T14:59:34.166Z</time></trkpt><trkpt lat="44.3439499" lon="8.3226176"><ele>381.0</ele><time>2026-04-15T14:59:36.166Z</time></trkpt><trkpt lat="44.3438605" lon="8.3227174"><ele>380.8</ele><time>2026-04-15T14:59:38.165Z</time></trkpt><trkpt lat="44.3437784" lon="8.3227926"><ele>380.6</ele><time>2026-04-15T14:59:40.166Z</time></trkpt><trkpt lat="44.3436942" lon="8.3228792"><ele>380.4</ele><time>2026-04-15T14:59:42.165Z</time></trkpt><trkpt lat="44.343617" lon="8.322965"><ele>380.2</ele><time>2026-04-15T14:59:44.166Z</time></trkpt><trkpt lat="44.3435288" lon="8.3230519"><ele>380.0</ele><time>2026-04-15T14:59:46.165Z</time></trkpt><trkpt lat="44.3434468" lon="8.3231379"><ele>380.0</ele><time>2026-04-15T14:59:48.166Z</time></trkpt><trkpt lat="44.3433537" lon="8.3232305"><ele>380.0</ele><time>2026-04-15T14:59:50.165Z</time></trkpt><trkpt lat="44.3432706" lon="8.3233306"><ele>380.0</ele><time>2026-04-15T14:59:52.165Z</time></trkpt><trkpt lat="44.3431829" lon="8.3234057"><ele>380.0</ele><time>2026-04-15T14:59:54.165Z</time></trkpt><trkpt lat="44.3430897" lon="8.3234745"><ele>380.0</ele><time>2026-04-15T14:59:56.165Z</time></trkpt><trkpt lat="44.3430043" lon="8.3235533"><ele>382.6</ele><time>2026-04-15T14:59:58.166Z</time></trkpt><trkpt lat="44.3429199" lon="8.3236191"><ele>385.2</ele><time>2026-04-15T15:00:00.166Z</time></trkpt><trkpt lat="44.3428072" lon="8.3236344"><ele>387.79999999999995</ele><time>2026-04-15T15:00:02.165Z</time></trkpt><trkpt lat="44.3426938" lon="8.3236221"><ele>390.4</ele><time>2026-04-15T15:00:04.165Z</time></trkpt><trkpt lat="44.3426063" lon="8.3235867"><ele>393.0</ele><time>2026-04-15T15:00:06.166Z</time></trkpt><trkpt lat="44.3425103" lon="8.3235487"><ele>393.0</ele><time>2026-04-15T15:00:08.165Z</time></trkpt><trkpt lat="44.3424077" lon="8.3235619"><ele>393.0</ele><time>2026-04-15T15:00:10.165Z</time></trkpt><trkpt lat="44.3423134" lon="8.3236173"><ele>393.0</ele><time>2026-04-15T15:00:12.165Z</time></trkpt><trkpt lat="44.3422189" lon="8.3236857"><ele>393.0</ele><time>2026-04-15T15:00:14.166Z</time></trkpt><trkpt lat="44.3421292" lon="8.3237742"><ele>393.0</ele><time>2026-04-15T15:00:16.164Z</time></trkpt><trkpt lat="44.3420424" lon="8.3238798"><ele>391.2</ele><time>2026-04-15T15:00:18.165Z</time></trkpt><trkpt lat="44.3419781" lon="8.3239968"><ele>389.4</ele><time>2026-04-15T15:00:20.165Z</time></trkpt><trkpt lat="44.3419421" lon="8.3241363"><ele>387.59999999999997</ele><time>2026-04-15T15:00:22.165Z</time></trkpt><trkpt lat="44.3419149" lon="8.3242835"><ele>385.79999999999995</ele><time>2026-04-15T15:00:24.166Z</time></trkpt><trkpt lat="44.3418859" lon="8.3244266"><ele>384.0</ele><time>2026-04-15T15:00:26.166Z</time></trkpt><trkpt lat="44.3418521" lon="8.3245663"><ele>384.0</ele><time>2026-04-15T15:00:28.166Z</time></trkpt><trkpt lat="44.3418187" lon="8.3246969"><ele>384.0</ele><time>2026-04-15T15:00:30.164Z</time></trkpt><trkpt lat="44.3417669" lon="8.3248151"><ele>384.0</ele><time>2026-04-15T15:00:32.165Z</time></trkpt><trkpt lat="44.3416977" lon="8.324916"><ele>384.0</ele><time>2026-04-15T15:00:34.165Z</time></trkpt><trkpt lat="44.3416234" lon="8.3250012"><ele>384.0</ele><time>2026-04-15T15:00:36.165Z</time></trkpt><trkpt lat="44.3415345" lon="8.3250675"><ele>383.4</ele><time>2026-04-15T15:00:38.165Z</time></trkpt><trkpt lat="44.3414452" lon="8.3251486"><ele>382.79999999999995</ele><time>2026-04-15T15:00:40.166Z</time></trkpt><trkpt lat="44.3413525" lon="8.3252298"><ele>382.20000000000005</ele><time>2026-04-15T15:00:42.165Z</time></trkpt><trkpt lat="44.34127" lon="8.3253219"><ele>381.6</ele><time>2026-04-15T15:00:44.165Z</time></trkpt><trkpt lat="44.3411858" lon="8.3254086"><ele>381.0</ele><time>2026-04-15T15:00:46.165Z</time></trkpt><trkpt lat="44.3411064" lon="8.3254749"><ele>381.4</ele><time>2026-04-15T15:00:48.165Z</time></trkpt><trkpt lat="44.3410425" lon="8.3255629"><ele>381.8</ele><time>2026-04-15T15:00:50.166Z</time></trkpt><trkpt lat="44.3409673" lon="8.3256399"><ele>382.2</ele><time>2026-04-15T15:00:52.165Z</time></trkpt><trkpt lat="44.3408821" lon="8.3257393"><ele>382.59999999999997</ele><time>2026-04-15T15:00:54.166Z</time></trkpt><trkpt lat="44.3407971" lon="8.3258194"><ele>383.0</ele><time>2026-04-15T15:00:56.165Z</time></trkpt><trkpt lat="44.3407162" lon="8.3258647"><ele>383.0</ele><time>2026-04-15T15:00:58.165Z</time></trkpt><trkpt lat="44.3406408" lon="8.3259595"><ele>383.0</ele><time>2026-04-15T15:01:00.164Z</time></trkpt><trkpt lat="44.3405757" lon="8.3260475"><ele>383.0</ele><time>2026-04-15T15:01:02.166Z</time></trkpt><trkpt lat="44.3404597" lon="8.3261098"><ele>383.0</ele><time>2026-04-15T15:01:04.165Z</time></trkpt><trkpt lat="44.3403811" lon="8.3262068"><ele>383.0</ele><time>2026-04-15T15:01:06.165Z</time></trkpt><trkpt lat="44.3403097" lon="8.3262895"><ele>383.0</ele><time>2026-04-15T15:01:08.165Z</time></trkpt><trkpt lat="44.3401892" lon="8.3263299"><ele>383.0</ele><time>2026-04-15T15:01:10.165Z</time></trkpt><trkpt lat="44.3401252" lon="8.3263366"><ele>383.0</ele><time>2026-04-15T15:01:11.164Z</time></trkpt><trkpt lat="44.3399881" lon="8.3263969"><ele>383.0</ele><time>2026-04-15T15:01:13.165Z</time></trkpt><trkpt lat="44.3399268" lon="8.326428"><ele>383.0</ele><time>2026-04-15T15:01:14.166Z</time></trkpt><trkpt lat="44.3399029" lon="8.3265414"><ele>383.2</ele><time>2026-04-15T15:01:16.165Z</time></trkpt><trkpt lat="44.3398413" lon="8.326612"><ele>383.4</ele><time>2026-04-15T15:01:18.165Z</time></trkpt><trkpt lat="44.3397362" lon="8.3266936"><ele>383.59999999999997</ele><time>2026-04-15T15:01:20.166Z</time></trkpt><trkpt lat="44.3396646" lon="8.3267676"><ele>383.79999999999995</ele><time>2026-04-15T15:01:22.164Z</time></trkpt><trkpt lat="44.3395949" lon="8.3268325"><ele>384.0</ele><time>2026-04-15T15:01:24.166Z</time></trkpt><trkpt lat="44.3395265" lon="8.3269077"><ele>384.0</ele><time>2026-04-15T15:01:26.165Z</time></trkpt><trkpt lat="44.3394635" lon="8.3270166"><ele>384.0</ele><time>2026-04-15T15:01:29.165Z</time></trkpt><trkpt lat="44.3393886" lon="8.3270971"><ele>384.0</ele><time>2026-04-15T15:01:31.164Z</time></trkpt><trkpt lat="44.3393022" lon="8.3271724"><ele>384.0</ele><time>2026-04-15T15:01:34.164Z</time></trkpt><trkpt lat="44.3392456" lon="8.3273194"><ele>384.0</ele><time>2026-04-15T15:01:35.164Z</time></trkpt><trkpt lat="44.3391745" lon="8.3273908"><ele>384.79999999999995</ele><time>2026-04-15T15:01:37.165Z</time></trkpt><trkpt lat="44.3391015" lon="8.3274692"><ele>385.59999999999997</ele><time>2026-04-15T15:01:39.166Z</time></trkpt><trkpt lat="44.3390259" lon="8.3275551"><ele>386.4</ele><time>2026-04-15T15:01:41.166Z</time></trkpt><trkpt lat="44.3389419" lon="8.3276468"><ele>387.2</ele><time>2026-04-15T15:01:43.165Z</time></trkpt><trkpt lat="44.3388988" lon="8.3277179"><ele>388.0</ele><time>2026-04-15T15:01:44.166Z</time></trkpt><trkpt lat="44.3388318" lon="8.3277976"><ele>388.0</ele><time>2026-04-15T15:01:46.166Z</time></trkpt><trkpt lat="44.3387471" lon="8.327859"><ele>388.0</ele><time>2026-04-15T15:01:48.166Z</time></trkpt><trkpt lat="44.3386748" lon="8.3279299"><ele>388.0</ele><time>2026-04-15T15:01:50.166Z</time></trkpt><trkpt lat="44.3385986" lon="8.3279983"><ele>388.0</ele><time>2026-04-15T15:01:52.166Z</time></trkpt><trkpt lat="44.3385206" lon="8.328073"><ele>388.0</ele><time>2026-04-15T15:01:54.166Z</time></trkpt><trkpt lat="44.3384467" lon="8.328153"><ele>388.0</ele><time>2026-04-15T15:01:56.166Z</time></trkpt><trkpt lat="44.3383672" lon="8.3282345"><ele>388.0</ele><time>2026-04-15T15:01:58.166Z</time></trkpt><trkpt lat="44.3382955" lon="8.3283032"><ele>388.0</ele><time>2026-04-15T15:02:00.164Z</time></trkpt><trkpt lat="44.3382265" lon="8.3283905"><ele>388.0</ele><time>2026-04-15T15:02:02.167Z</time></trkpt><trkpt lat="44.338153" lon="8.3284711"><ele>388.0</ele><time>2026-04-15T15:02:04.165Z</time></trkpt><trkpt lat="44.3380833" lon="8.3285534"><ele>388.00000000000006</ele><time>2026-04-15T15:02:06.166Z</time></trkpt><trkpt lat="44.3380219" lon="8.3286358"><ele>388.0</ele><time>2026-04-15T15:02:08.165Z</time></trkpt><trkpt lat="44.3379604" lon="8.328722"><ele>388.0</ele><time>2026-04-15T15:02:10.166Z</time></trkpt><trkpt lat="44.3379051" lon="8.3288372"><ele>388.0</ele><time>2026-04-15T15:02:12.164Z</time></trkpt><trkpt lat="44.3378398" lon="8.3288935"><ele>388.00000000000006</ele><time>2026-04-15T15:02:14.165Z</time></trkpt><trkpt lat="44.3377702" lon="8.3289714"><ele>388.0</ele><time>2026-04-15T15:02:16.165Z</time></trkpt><trkpt lat="44.3377181" lon="8.3290728"><ele>388.0</ele><time>2026-04-15T15:02:18.166Z</time></trkpt><trkpt lat="44.3376853" lon="8.3291944"><ele>388.0</ele><time>2026-04-15T15:02:20.165Z</time></trkpt><trkpt lat="44.3376235" lon="8.329307"><ele>388.0</ele><time>2026-04-15T15:02:22.165Z</time></trkpt><trkpt lat="44.3375728" lon="8.3294005"><ele>388.0</ele><time>2026-04-15T15:02:24.166Z</time></trkpt><trkpt lat="44.3375285" lon="8.3295039"><ele>388.0</ele><time>2026-04-15T15:02:26.166Z</time></trkpt><trkpt lat="44.3374869" lon="8.3296193"><ele>389.0</ele><time>2026-04-15T15:02:28.164Z</time></trkpt><trkpt lat="44.3374595" lon="8.3297336"><ele>390.0</ele><time>2026-04-15T15:02:30.164Z</time></trkpt><trkpt lat="44.3374322" lon="8.3298508"><ele>391.0</ele><time>2026-04-15T15:02:32.166Z</time></trkpt><trkpt lat="44.3374076" lon="8.3299836"><ele>392.0</ele><time>2026-04-15T15:02:34.165Z</time></trkpt><trkpt lat="44.3374009" lon="8.3301198"><ele>393.0</ele><time>2026-04-15T15:02:36.165Z</time></trkpt><trkpt lat="44.3373641" lon="8.330224"><ele>393.0</ele><time>2026-04-15T15:02:38.166Z</time></trkpt><trkpt lat="44.3373391" lon="8.3303341"><ele>393.0</ele><time>2026-04-15T15:02:40.165Z</time></trkpt><trkpt lat="44.3373085" lon="8.3304564"><ele>393.0</ele><time>2026-04-15T15:02:42.163Z</time></trkpt><trkpt lat="44.3372907" lon="8.3305676"><ele>393.0</ele><time>2026-04-15T15:02:44.166Z</time></trkpt><trkpt lat="44.3372616" lon="8.3306874"><ele>393.0</ele><time>2026-04-15T15:02:46.165Z</time></trkpt><trkpt lat="44.3372537" lon="8.3308003"><ele>393.0</ele><time>2026-04-15T15:02:48.166Z</time></trkpt><trkpt lat="44.337241" lon="8.3309122"><ele>393.0</ele><time>2026-04-15T15:02:50.164Z</time></trkpt><trkpt lat="44.3372304" lon="8.3310324"><ele>393.0</ele><time>2026-04-15T15:02:52.164Z</time></trkpt><trkpt lat="44.3372143" lon="8.3311466"><ele>393.0</ele><time>2026-04-15T15:02:54.164Z</time></trkpt><trkpt lat="44.3371932" lon="8.3312566"><ele>393.0</ele><time>2026-04-15T15:02:56.166Z</time></trkpt><trkpt lat="44.3371656" lon="8.3313429"><ele>393.0</ele><time>2026-04-15T15:02:58.165Z</time></trkpt><trkpt lat="44.337139" lon="8.3314583"><ele>393.0</ele><time>2026-04-15T15:03:00.166Z</time></trkpt><trkpt lat="44.3371176" lon="8.3315743"><ele>393.3333333333333</ele><time>2026-04-15T15:03:02.166Z</time></trkpt><trkpt lat="44.3370962" lon="8.3316982"><ele>393.66666666666663</ele><time>2026-04-15T15:03:04.165Z</time></trkpt><trkpt lat="44.3370864" lon="8.3318171"><ele>394.0</ele><time>2026-04-15T15:03:06.164Z</time></trkpt><trkpt lat="44.3370725" lon="8.3319217"><ele>394.3333333333333</ele><time>2026-04-15T15:03:08.164Z</time></trkpt><trkpt lat="44.3370564" lon="8.3320214"><ele>394.66666666666663</ele><time>2026-04-15T15:03:10.165Z</time></trkpt><trkpt lat="44.3370435" lon="8.3321125"><ele>395.0</ele><time>2026-04-15T15:03:12.164Z</time></trkpt><trkpt lat="44.3370323" lon="8.3322152"><ele>395.66666666666663</ele><time>2026-04-15T15:03:14.165Z</time></trkpt><trkpt lat="44.3370165" lon="8.3323187"><ele>396.3333333333333</ele><time>2026-04-15T15:03:16.166Z</time></trkpt><trkpt lat="44.3369979" lon="8.3324261"><ele>397.0</ele><time>2026-04-15T15:03:18.165Z</time></trkpt><trkpt lat="44.3369779" lon="8.3325376"><ele>397.66666666666663</ele><time>2026-04-15T15:03:20.165Z</time></trkpt><trkpt lat="44.3369663" lon="8.33264"><ele>398.3333333333333</ele><time>2026-04-15T15:03:22.165Z</time></trkpt><trkpt lat="44.3369473" lon="8.3327421"><ele>399.0</ele><time>2026-04-15T15:03:24.165Z</time></trkpt><trkpt lat="44.3369226" lon="8.3328489"><ele>399.0</ele><time>2026-04-15T15:03:26.166Z</time></trkpt><trkpt lat="44.3368981" lon="8.3329622"><ele>399.0</ele><time>2026-04-15T15:03:28.164Z</time></trkpt><trkpt lat="44.3368858" lon="8.3330583"><ele>399.0</ele><time>2026-04-15T15:03:30.166Z</time></trkpt><trkpt lat="44.3368732" lon="8.3331469"><ele>399.0</ele><time>2026-04-15T15:03:32.165Z</time></trkpt><trkpt lat="44.3368382" lon="8.3332806"><ele>399.0</ele><time>2026-04-15T15:03:34.165Z</time></trkpt><trkpt lat="44.3367978" lon="8.3334012"><ele>399.0</ele><time>2026-04-15T15:03:36.165Z</time></trkpt><trkpt lat="44.3367605" lon="8.3335083"><ele>399.3333333333333</ele><time>2026-04-15T15:03:38.165Z</time></trkpt><trkpt lat="44.3367342" lon="8.3336017"><ele>399.66666666666663</ele><time>2026-04-15T15:03:40.165Z</time></trkpt><trkpt lat="44.3367106" lon="8.3337045"><ele>400.0</ele><time>2026-04-15T15:03:42.166Z</time></trkpt><trkpt lat="44.3366829" lon="8.3338243"><ele>400.3333333333333</ele><time>2026-04-15T15:03:44.165Z</time></trkpt><trkpt lat="44.336658" lon="8.3339525"><ele>400.66666666666663</ele><time>2026-04-15T15:03:46.166Z</time></trkpt><trkpt lat="44.33666" lon="8.3340676"><ele>401.0</ele><time>2026-04-15T15:03:48.165Z</time></trkpt><trkpt lat="44.3366164" lon="8.3341925"><ele>401.8</ele><time>2026-04-15T15:03:50.165Z</time></trkpt><trkpt lat="44.3365703" lon="8.3343333"><ele>402.6</ele><time>2026-04-15T15:03:52.165Z</time></trkpt><trkpt lat="44.3365329" lon="8.3344723"><ele>403.4</ele><time>2026-04-15T15:03:54.166Z</time></trkpt><trkpt lat="44.3364902" lon="8.3346015"><ele>404.2</ele><time>2026-04-15T15:03:56.166Z</time></trkpt><trkpt lat="44.3364615" lon="8.3347232"><ele>405.0</ele><time>2026-04-15T15:03:58.166Z</time></trkpt><trkpt lat="44.3364378" lon="8.3348167"><ele>406.0</ele><time>2026-04-15T15:03:59.165Z</time></trkpt><trkpt lat="44.3364148" lon="8.3349529"><ele>407.0</ele><time>2026-04-15T15:04:01.164Z</time></trkpt><trkpt lat="44.3363685" lon="8.3350733"><ele>408.0</ele><time>2026-04-15T15:04:03.165Z</time></trkpt><trkpt lat="44.3363423" lon="8.3352031"><ele>409.0</ele><time>2026-04-15T15:04:05.164Z</time></trkpt><trkpt lat="44.3363113" lon="8.3353309"><ele>410.0</ele><time>2026-04-15T15:04:07.165Z</time></trkpt><trkpt lat="44.3362662" lon="8.3354494"><ele>408.16666666666663</ele><time>2026-04-15T15:04:09.164Z</time></trkpt><trkpt lat="44.3362387" lon="8.3355694"><ele>406.3333333333333</ele><time>2026-04-15T15:04:11.165Z</time></trkpt><trkpt lat="44.3362134" lon="8.3356953"><ele>404.5</ele><time>2026-04-15T15:04:13.165Z</time></trkpt><trkpt lat="44.336182" lon="8.3358096"><ele>402.66666666666663</ele><time>2026-04-15T15:04:15.164Z</time></trkpt><trkpt lat="44.3361631" lon="8.3359142"><ele>400.8333333333333</ele><time>2026-04-15T15:04:17.165Z</time></trkpt><trkpt lat="44.3361367" lon="8.3360392"><ele>399.0</ele><time>2026-04-15T15:04:19.164Z</time></trkpt><trkpt lat="44.3361125" lon="8.3361672"><ele>399.0</ele><time>2026-04-15T15:04:21.166Z</time></trkpt><trkpt lat="44.3360926" lon="8.3362811"><ele>399.0</ele><time>2026-04-15T15:04:23.166Z</time></trkpt><trkpt lat="44.3360606" lon="8.3363849"><ele>399.0</ele><time>2026-04-15T15:04:25.165Z</time></trkpt><trkpt lat="44.3360229" lon="8.3364957"><ele>399.0</ele><time>2026-04-15T15:04:27.166Z</time></trkpt><trkpt lat="44.3359936" lon="8.3366072"><ele>399.0</ele><time>2026-04-15T15:04:29.165Z</time></trkpt><trkpt lat="44.335963" lon="8.3367325"><ele>399.0</ele><time>2026-04-15T15:04:31.165Z</time></trkpt><trkpt lat="44.335945" lon="8.3368608"><ele>399.79999999999995</ele><time>2026-04-15T15:04:33.166Z</time></trkpt><trkpt lat="44.3359107" lon="8.3369972"><ele>400.59999999999997</ele><time>2026-04-15T15:04:35.164Z</time></trkpt><trkpt lat="44.3359503" lon="8.3371295"><ele>401.4</ele><time>2026-04-15T15:04:37.165Z</time></trkpt><trkpt lat="44.3359618" lon="8.3372482"><ele>402.2</ele><time>2026-04-15T15:04:38.165Z</time></trkpt><trkpt lat="44.33593" lon="8.3373467"><ele>403.0</ele><time>2026-04-15T15:04:40.165Z</time></trkpt><trkpt lat="44.3358735" lon="8.3374441"><ele>403.33333333333337</ele><time>2026-04-15T15:04:42.166Z</time></trkpt><trkpt lat="44.33587" lon="8.3375626"><ele>403.6666666666667</ele><time>2026-04-15T15:04:44.164Z</time></trkpt><trkpt lat="44.3358593" lon="8.3376673"><ele>404.0</ele><time>2026-04-15T15:04:46.165Z</time></trkpt><trkpt lat="44.3358641" lon="8.3377984"><ele>404.33333333333337</ele><time>2026-04-15T15:04:48.164Z</time></trkpt><trkpt lat="44.3358412" lon="8.3379224"><ele>404.6666666666667</ele><time>2026-04-15T15:04:50.165Z</time></trkpt><trkpt lat="44.3358449" lon="8.3380458"><ele>405.0</ele><time>2026-04-15T15:04:52.166Z</time></trkpt><trkpt lat="44.3358375" lon="8.3381632"><ele>405.0</ele><time>2026-04-15T15:04:54.166Z</time></trkpt><trkpt lat="44.3358248" lon="8.3382684"><ele>405.0</ele><time>2026-04-15T15:04:56.165Z</time></trkpt><trkpt lat="44.3357506" lon="8.3383382"><ele>405.0</ele><time>2026-04-15T15:04:59.165Z</time></trkpt><trkpt lat="44.3356703" lon="8.3383471"><ele>405.0</ele><time>2026-04-15T15:05:01.164Z</time></trkpt><trkpt lat="44.3355796" lon="8.3383457"><ele>405.0</ele><time>2026-04-15T15:05:03.166Z</time></trkpt><trkpt lat="44.3355023" lon="8.3383627"><ele>405.0</ele><time>2026-04-15T15:05:05.163Z</time></trkpt><trkpt lat="44.3354316" lon="8.3383812"><ele>406.1428571428571</ele><time>2026-04-15T15:05:07.165Z</time></trkpt><trkpt lat="44.3353564" lon="8.3383905"><ele>407.2857142857143</ele><time>2026-04-15T15:05:09.164Z</time></trkpt><trkpt lat="44.3352754" lon="8.3383588"><ele>408.42857142857144</ele><time>2026-04-15T15:05:11.166Z</time></trkpt><trkpt lat="44.3352017" lon="8.3383266"><ele>409.57142857142856</ele><time>2026-04-15T15:05:13.165Z</time></trkpt><trkpt lat="44.3351482" lon="8.3382671"><ele>410.7142857142857</ele><time>2026-04-15T15:05:15.165Z</time></trkpt><trkpt lat="44.335104" lon="8.3382011"><ele>411.85714285714283</ele><time>2026-04-15T15:05:17.165Z</time></trkpt><trkpt lat="44.3350766" lon="8.3380966"><ele>413.0</ele><time>2026-04-15T15:05:19.165Z</time></trkpt><trkpt lat="44.3350711" lon="8.3379711"><ele>413.0</ele><time>2026-04-15T15:05:21.165Z</time></trkpt><trkpt lat="44.3350587" lon="8.3378237"><ele>413.0</ele><time>2026-04-15T15:05:23.164Z</time></trkpt><trkpt lat="44.3350658" lon="8.3376591"><ele>413.0</ele><time>2026-04-15T15:05:25.165Z</time></trkpt><trkpt lat="44.335072" lon="8.3375019"><ele>413.0</ele><time>2026-04-15T15:05:27.165Z</time></trkpt><trkpt lat="44.3350762" lon="8.3373449"><ele>413.0</ele><time>2026-04-15T15:05:29.165Z</time></trkpt><trkpt lat="44.3350794" lon="8.3372551"><ele>411.0</ele><time>2026-04-15T15:05:30.166Z</time></trkpt><trkpt lat="44.3350777" lon="8.3370891"><ele>409.0</ele><time>2026-04-15T15:05:32.166Z</time></trkpt><trkpt lat="44.3350624" lon="8.3369172"><ele>407.0</ele><time>2026-04-15T15:05:34.166Z</time></trkpt><trkpt lat="44.3350626" lon="8.3368187"><ele>405.0</ele><time>2026-04-15T15:05:35.165Z</time></trkpt><trkpt lat="44.33508" lon="8.3367287"><ele>403.0</ele><time>2026-04-15T15:05:36.164Z</time></trkpt><trkpt lat="44.3350432" lon="8.3365583"><ele>403.0</ele><time>2026-04-15T15:05:38.165Z</time></trkpt><trkpt lat="44.3350296" lon="8.3364633"><ele>403.0</ele><time>2026-04-15T15:05:39.164Z</time></trkpt><trkpt lat="44.3350199" lon="8.3363639"><ele>403.0</ele><time>2026-04-15T15:05:40.165Z</time></trkpt><trkpt lat="44.3350209" lon="8.3362623"><ele>403.0</ele><time>2026-04-15T15:05:41.163Z</time></trkpt><trkpt lat="44.3350234" lon="8.3361633"><ele>403.0</ele><time>2026-04-15T15:05:42.164Z</time></trkpt><trkpt lat="44.3350424" lon="8.3360519"><ele>403.0</ele><time>2026-04-15T15:05:43.164Z</time></trkpt><trkpt lat="44.3350595" lon="8.3359579"><ele>403.0</ele><time>2026-04-15T15:05:44.166Z</time></trkpt><trkpt lat="44.33507" lon="8.3358629"><ele>403.2</ele><time>2026-04-15T15:05:45.164Z</time></trkpt><trkpt lat="44.3350986" lon="8.3357517"><ele>403.4</ele><time>2026-04-15T15:05:46.164Z</time></trkpt><trkpt lat="44.3351247" lon="8.3356648"><ele>403.59999999999997</ele><time>2026-04-15T15:05:47.165Z</time></trkpt><trkpt lat="44.3351352" lon="8.3355773"><ele>403.79999999999995</ele><time>2026-04-15T15:05:48.165Z</time></trkpt><trkpt lat="44.3351577" lon="8.3354032"><ele>404.0</ele><time>2026-04-15T15:05:50.165Z</time></trkpt><trkpt lat="44.3351812" lon="8.3352328"><ele>404.79999999999995</ele><time>2026-04-15T15:05:52.165Z</time></trkpt><trkpt lat="44.3352226" lon="8.3350881"><ele>405.59999999999997</ele><time>2026-04-15T15:05:54.165Z</time></trkpt><trkpt lat="44.3352571" lon="8.3349476"><ele>406.4</ele><time>2026-04-15T15:05:56.165Z</time></trkpt><trkpt lat="44.3352848" lon="8.3347938"><ele>407.2</ele><time>2026-04-15T15:05:58.164Z</time></trkpt><trkpt lat="44.335292" lon="8.3346679"><ele>408.0</ele><time>2026-04-15T15:06:00.165Z</time></trkpt><trkpt lat="44.3353041" lon="8.3345617"><ele>408.4</ele><time>2026-04-15T15:06:02.166Z</time></trkpt><trkpt lat="44.3353226" lon="8.3343861"><ele>408.79999999999995</ele><time>2026-04-15T15:06:04.164Z</time></trkpt><trkpt lat="44.335354" lon="8.3343041"><ele>409.2</ele><time>2026-04-15T15:06:05.164Z</time></trkpt><trkpt lat="44.3354095" lon="8.3341324"><ele>409.6</ele><time>2026-04-15T15:06:06.164Z</time></trkpt><trkpt lat="44.3354326" lon="8.3339757"><ele>410.0</ele><time>2026-04-15T15:06:08.165Z</time></trkpt><trkpt lat="44.3354609" lon="8.3338422"><ele>410.4</ele><time>2026-04-15T15:06:10.165Z</time></trkpt><trkpt lat="44.3354765" lon="8.3336888"><ele>410.8</ele><time>2026-04-15T15:06:12.164Z</time></trkpt><trkpt lat="44.3354925" lon="8.3335303"><ele>411.20000000000005</ele><time>2026-04-15T15:06:14.164Z</time></trkpt><trkpt lat="44.33552" lon="8.3333909"><ele>411.6</ele><time>2026-04-15T15:06:16.164Z</time></trkpt><trkpt lat="44.3355402" lon="8.3332508"><ele>412.0</ele><time>2026-04-15T15:06:18.164Z</time></trkpt><trkpt lat="44.3355625" lon="8.3331274"><ele>408.8</ele><time>2026-04-15T15:06:20.165Z</time></trkpt><trkpt lat="44.335594" lon="8.3329951"><ele>405.6</ele><time>2026-04-15T15:06:22.163Z</time></trkpt><trkpt lat="44.3356172" lon="8.3328764"><ele>402.40000000000003</ele><time>2026-04-15T15:06:24.165Z</time></trkpt><trkpt lat="44.3356364" lon="8.3327607"><ele>399.20000000000005</ele><time>2026-04-15T15:06:26.165Z</time></trkpt><trkpt lat="44.3356488" lon="8.3326377"><ele>396.0</ele><time>2026-04-15T15:06:28.164Z</time></trkpt><trkpt lat="44.3356715" lon="8.3325102"><ele>396.0</ele><time>2026-04-15T15:06:30.165Z</time></trkpt><trkpt lat="44.3356705" lon="8.3323839"><ele>396.0</ele><time>2026-04-15T15:06:32.164Z</time></trkpt><trkpt lat="44.3356334" lon="8.3322743"><ele>396.0</ele><time>2026-04-15T15:06:34.165Z</time></trkpt><trkpt lat="44.3355587" lon="8.3322049"><ele>396.0</ele><time>2026-04-15T15:06:36.167Z</time></trkpt><trkpt lat="44.3354751" lon="8.3321534"><ele>396.0</ele><time>2026-04-15T15:06:38.165Z</time></trkpt><trkpt lat="44.3353919" lon="8.332125"><ele>396.0</ele><time>2026-04-15T15:06:40.165Z</time></trkpt><trkpt lat="44.3353102" lon="8.3321091"><ele>397.8333333333333</ele><time>2026-04-15T15:06:42.164Z</time></trkpt><trkpt lat="44.3352446" lon="8.3321127"><ele>399.66666666666663</ele><time>2026-04-15T15:06:44.164Z</time></trkpt><trkpt lat="44.3351662" lon="8.3321342"><ele>401.5</ele><time>2026-04-15T15:06:47.165Z</time></trkpt><trkpt lat="44.3350859" lon="8.3321567"><ele>403.3333333333333</ele><time>2026-04-15T15:06:50.164Z</time></trkpt><trkpt lat="44.335001" lon="8.3321716"><ele>405.16666666666663</ele><time>2026-04-15T15:06:53.165Z</time></trkpt><trkpt lat="44.3349259" lon="8.3321818"><ele>407.0</ele><time>2026-04-15T15:06:56.164Z</time></trkpt><trkpt lat="44.3348593" lon="8.3322037"><ele>406.8571428571429</ele><time>2026-04-15T15:06:59.165Z</time></trkpt><trkpt lat="44.3347921" lon="8.3322251"><ele>406.7142857142857</ele><time>2026-04-15T15:07:02.165Z</time></trkpt><trkpt lat="44.3347264" lon="8.3322412"><ele>406.57142857142856</ele><time>2026-04-15T15:07:05.164Z</time></trkpt><trkpt lat="44.334654" lon="8.3322485"><ele>406.42857142857144</ele><time>2026-04-15T15:07:08.164Z</time></trkpt><trkpt lat="44.3345801" lon="8.3322628"><ele>406.2857142857143</ele><time>2026-04-15T15:07:11.164Z</time></trkpt><trkpt lat="44.3345095" lon="8.3322795"><ele>406.14285714285717</ele><time>2026-04-15T15:07:14.165Z</time></trkpt><trkpt lat="44.3344323" lon="8.3322972"><ele>406.0</ele><time>2026-04-15T15:07:17.165Z</time></trkpt><trkpt lat="44.3343636" lon="8.3323178"><ele>408.1666666666667</ele><time>2026-04-15T15:07:20.165Z</time></trkpt><trkpt lat="44.3342988" lon="8.3323498"><ele>410.33333333333337</ele><time>2026-04-15T15:07:23.164Z</time></trkpt><trkpt lat="44.3342203" lon="8.3323951"><ele>412.5</ele><time>2026-04-15T15:07:27.164Z</time></trkpt><trkpt lat="44.3341446" lon="8.3324184"><ele>414.66666666666663</ele><time>2026-04-15T15:07:31.164Z</time></trkpt><trkpt lat="44.3340724" lon="8.3324358"><ele>416.8333333333333</ele><time>2026-04-15T15:07:34.165Z</time></trkpt><trkpt lat="44.3339971" lon="8.3324535"><ele>419.0</ele><time>2026-04-15T15:07:37.164Z</time></trkpt><trkpt lat="44.3339251" lon="8.3324808"><ele>421.4285714285714</ele><time>2026-04-15T15:07:40.164Z</time></trkpt><trkpt lat="44.3338581" lon="8.3324955"><ele>423.85714285714283</ele><time>2026-04-15T15:07:43.164Z</time></trkpt><trkpt lat="44.3337946" lon="8.3325185"><ele>426.2857142857143</ele><time>2026-04-15T15:07:46.165Z</time></trkpt><trkpt lat="44.3337299" lon="8.3325534"><ele>428.71428571428567</ele><time>2026-04-15T15:07:49.165Z</time></trkpt><trkpt lat="44.3336644" lon="8.3326044"><ele>431.14285714285717</ele><time>2026-04-15T15:07:52.165Z</time></trkpt><trkpt lat="44.3336001" lon="8.332646"><ele>433.57142857142856</ele><time>2026-04-15T15:07:55.164Z</time></trkpt><trkpt lat="44.3335398" lon="8.332676"><ele>436.0</ele><time>2026-04-15T15:07:58.165Z</time></trkpt><trkpt lat="44.333478" lon="8.3327178"><ele>436.0</ele><time>2026-04-15T15:08:01.163Z</time></trkpt><trkpt lat="44.3334131" lon="8.33276"><ele>436.0</ele><time>2026-04-15T15:08:04.165Z</time></trkpt><trkpt lat="44.3333378" lon="8.3328166"><ele>436.0</ele><time>2026-04-15T15:08:07.164Z</time></trkpt><trkpt lat="44.3332707" lon="8.3328469"><ele>436.0</ele><time>2026-04-15T15:08:10.165Z</time></trkpt><trkpt lat="44.3332007" lon="8.3328798"><ele>436.0</ele><time>2026-04-15T15:08:13.165Z</time></trkpt><trkpt lat="44.3331323" lon="8.3328791"><ele>436.0</ele><time>2026-04-15T15:08:16.165Z</time></trkpt><trkpt lat="44.333059" lon="8.332875"><ele>436.0</ele><time>2026-04-15T15:08:19.164Z</time></trkpt><trkpt lat="44.3329926" lon="8.3328975"><ele>435.14285714285717</ele><time>2026-04-15T15:08:22.165Z</time></trkpt><trkpt lat="44.3329081" lon="8.3329061"><ele>434.28571428571433</ele><time>2026-04-15T15:08:25.165Z</time></trkpt><trkpt lat="44.3328422" lon="8.3328961"><ele>433.42857142857144</ele><time>2026-04-15T15:08:27.165Z</time></trkpt><trkpt lat="44.3327794" lon="8.3328813"><ele>432.57142857142856</ele><time>2026-04-15T15:08:29.165Z</time></trkpt><trkpt lat="44.3327182" lon="8.3328527"><ele>431.7142857142857</ele><time>2026-04-15T15:08:31.164Z</time></trkpt><trkpt lat="44.3326586" lon="8.3327965"><ele>430.85714285714283</ele><time>2026-04-15T15:08:33.165Z</time></trkpt><trkpt lat="44.332599" lon="8.3327488"><ele>430.0</ele><time>2026-04-15T15:08:35.163Z</time></trkpt><trkpt lat="44.3325404" lon="8.3327029"><ele>430.0</ele><time>2026-04-15T15:08:37.165Z</time></trkpt><trkpt lat="44.3324744" lon="8.3326694"><ele>430.0</ele><time>2026-04-15T15:08:39.165Z</time></trkpt><trkpt lat="44.3324094" lon="8.3326607"><ele>430.0</ele><time>2026-04-15T15:08:41.165Z</time></trkpt><trkpt lat="44.332344" lon="8.3326632"><ele>430.0</ele><time>2026-04-15T15:08:43.165Z</time></trkpt><trkpt lat="44.3322872" lon="8.3327026"><ele>430.0</ele><time>2026-04-15T15:08:45.164Z</time></trkpt><trkpt lat="44.332238" lon="8.3327747"><ele>430.0</ele><time>2026-04-15T15:08:47.165Z</time></trkpt><trkpt lat="44.3321935" lon="8.3328424"><ele>430.0</ele><time>2026-04-15T15:08:49.164Z</time></trkpt><trkpt lat="44.3321492" lon="8.3329072"><ele>427.6666666666667</ele><time>2026-04-15T15:08:51.165Z</time></trkpt><trkpt lat="44.3321034" lon="8.3329712"><ele>425.33333333333337</ele><time>2026-04-15T15:08:53.164Z</time></trkpt><trkpt lat="44.3320394" lon="8.3330593"><ele>423.0</ele><time>2026-04-15T15:08:56.165Z</time></trkpt><trkpt lat="44.3319855" lon="8.3331238"><ele>420.66666666666663</ele><time>2026-04-15T15:08:58.165Z</time></trkpt><trkpt lat="44.3319248" lon="8.3331891"><ele>418.3333333333333</ele><time>2026-04-15T15:09:00.165Z</time></trkpt><trkpt lat="44.331864" lon="8.3332781"><ele>416.0</ele><time>2026-04-15T15:09:02.165Z</time></trkpt><trkpt lat="44.3317873" lon="8.3333562"><ele>416.0</ele><time>2026-04-15T15:09:04.163Z</time></trkpt><trkpt lat="44.3317011" lon="8.3334399"><ele>416.0</ele><time>2026-04-15T15:09:06.165Z</time></trkpt><trkpt lat="44.3316349" lon="8.333556"><ele>416.0</ele><time>2026-04-15T15:09:08.165Z</time></trkpt><trkpt lat="44.3315814" lon="8.3336153"><ele>416.0</ele><time>2026-04-15T15:09:09.163Z</time></trkpt><trkpt lat="44.3315194" lon="8.3336665"><ele>416.0</ele><time>2026-04-15T15:09:10.164Z</time></trkpt><trkpt lat="44.3314319" lon="8.3337912"><ele>415.2857142857143</ele><time>2026-04-15T15:09:12.164Z</time></trkpt><trkpt lat="44.3313819" lon="8.3338604"><ele>414.5714285714286</ele><time>2026-04-15T15:09:13.164Z</time></trkpt><trkpt lat="44.3313298" lon="8.3339275"><ele>413.8571428571429</ele><time>2026-04-15T15:09:14.165Z</time></trkpt><trkpt lat="44.3312846" lon="8.3339989"><ele>413.1428571428571</ele><time>2026-04-15T15:09:15.164Z</time></trkpt><trkpt lat="44.3312342" lon="8.3340676"><ele>412.42857142857144</ele><time>2026-04-15T15:09:16.163Z</time></trkpt><trkpt lat="44.3311824" lon="8.3341406"><ele>411.7142857142857</ele><time>2026-04-15T15:09:17.164Z</time></trkpt><trkpt lat="44.3311286" lon="8.3341999"><ele>411.0</ele><time>2026-04-15T15:09:18.164Z</time></trkpt><trkpt lat="44.3310728" lon="8.3342644"><ele>411.0</ele><time>2026-04-15T15:09:19.165Z</time></trkpt><trkpt lat="44.3309973" lon="8.334334"><ele>411.0</ele><time>2026-04-15T15:09:20.164Z</time></trkpt><trkpt lat="44.3309304" lon="8.3343882"><ele>411.0</ele><time>2026-04-15T15:09:21.164Z</time></trkpt><trkpt lat="44.3308591" lon="8.3344635"><ele>411.0</ele><time>2026-04-15T15:09:22.165Z</time></trkpt><trkpt lat="44.3307873" lon="8.3345339"><ele>411.0</ele><time>2026-04-15T15:09:23.164Z</time></trkpt><trkpt lat="44.3306909" lon="8.3345929"><ele>411.0</ele><time>2026-04-15T15:09:24.165Z</time></trkpt><trkpt lat="44.3306089" lon="8.3346553"><ele>411.0</ele><time>2026-04-15T15:09:25.163Z</time></trkpt><trkpt lat="44.3305245" lon="8.3347156"><ele>411.0</ele><time>2026-04-15T15:09:26.165Z</time></trkpt><trkpt lat="44.3304444" lon="8.3347671"><ele>411.0</ele><time>2026-04-15T15:09:27.165Z</time></trkpt><trkpt lat="44.3303524" lon="8.3348183"><ele>411.0</ele><time>2026-04-15T15:09:28.163Z</time></trkpt><trkpt lat="44.3302681" lon="8.3348634"><ele>411.8</ele><time>2026-04-15T15:09:29.164Z</time></trkpt><trkpt lat="44.3301899" lon="8.3348925"><ele>412.6</ele><time>2026-04-15T15:09:30.164Z</time></trkpt><trkpt lat="44.3301104" lon="8.3349434"><ele>413.4</ele><time>2026-04-15T15:09:31.165Z</time></trkpt><trkpt lat="44.3300206" lon="8.3349984"><ele>414.2</ele><time>2026-04-15T15:09:32.165Z</time></trkpt><trkpt lat="44.329931" lon="8.3350392"><ele>415.0</ele><time>2026-04-15T15:09:33.164Z</time></trkpt><trkpt lat="44.3298282" lon="8.3350958"><ele>415.0</ele><time>2026-04-15T15:09:34.165Z</time></trkpt><trkpt lat="44.3297306" lon="8.3351371"><ele>415.0</ele><time>2026-04-15T15:09:35.165Z</time></trkpt><trkpt lat="44.329637" lon="8.3351966"><ele>415.0</ele><time>2026-04-15T15:09:36.164Z</time></trkpt><trkpt lat="44.3295533" lon="8.3352317"><ele>415.0</ele><time>2026-04-15T15:09:37.164Z</time></trkpt><trkpt lat="44.3294539" lon="8.3352713"><ele>415.0</ele><time>2026-04-15T15:09:38.164Z</time></trkpt><trkpt lat="44.3293541" lon="8.3353213"><ele>413.6</ele><time>2026-04-15T15:09:39.163Z</time></trkpt><trkpt lat="44.32925" lon="8.3353283"><ele>412.2</ele><time>2026-04-15T15:09:40.164Z</time></trkpt><trkpt lat="44.3291374" lon="8.3353182"><ele>410.79999999999995</ele><time>2026-04-15T15:09:41.164Z</time></trkpt><trkpt lat="44.3290414" lon="8.335296"><ele>409.4</ele><time>2026-04-15T15:09:42.163Z</time></trkpt><trkpt lat="44.3289491" lon="8.3352453"><ele>408.0</ele><time>2026-04-15T15:09:43.163Z</time></trkpt><trkpt lat="44.328865" lon="8.3351946"><ele>408.0</ele><time>2026-04-15T15:09:44.164Z</time></trkpt><trkpt lat="44.3287826" lon="8.3351385"><ele>408.0</ele><time>2026-04-15T15:09:45.165Z</time></trkpt><trkpt lat="44.3287012" lon="8.3350942"><ele>408.0</ele><time>2026-04-15T15:09:46.164Z</time></trkpt><trkpt lat="44.328612" lon="8.3350483"><ele>408.0</ele><time>2026-04-15T15:09:47.164Z</time></trkpt><trkpt lat="44.3285365" lon="8.3350033"><ele>408.0</ele><time>2026-04-15T15:09:48.165Z</time></trkpt><trkpt lat="44.3284555" lon="8.3349609"><ele>408.0</ele><time>2026-04-15T15:09:49.164Z</time></trkpt><trkpt lat="44.3283754" lon="8.3349193"><ele>408.0</ele><time>2026-04-15T15:09:50.165Z</time></trkpt><trkpt lat="44.3282986" lon="8.3348728"><ele>408.0</ele><time>2026-04-15T15:09:51.164Z</time></trkpt><trkpt lat="44.3282181" lon="8.334825"><ele>408.0</ele><time>2026-04-15T15:09:52.164Z</time></trkpt><trkpt lat="44.3281571" lon="8.3347716"><ele>408.0</ele><time>2026-04-15T15:09:53.164Z</time></trkpt><trkpt lat="44.3280883" lon="8.3347326"><ele>408.0</ele><time>2026-04-15T15:09:54.163Z</time></trkpt><trkpt lat="44.3280281" lon="8.3346841"><ele>408.0</ele><time>2026-04-15T15:09:55.164Z</time></trkpt><trkpt lat="44.3279672" lon="8.3346486"><ele>407.8571428571429</ele><time>2026-04-15T15:09:56.165Z</time></trkpt><trkpt lat="44.3279045" lon="8.3346048"><ele>407.7142857142857</ele><time>2026-04-15T15:09:57.165Z</time></trkpt><trkpt lat="44.3278513" lon="8.3345514"><ele>407.57142857142856</ele><time>2026-04-15T15:09:58.165Z</time></trkpt><trkpt lat="44.3277969" lon="8.3345031"><ele>407.42857142857144</ele><time>2026-04-15T15:09:59.162Z</time></trkpt><trkpt lat="44.3277301" lon="8.3344606"><ele>407.2857142857143</ele><time>2026-04-15T15:10:00.165Z</time></trkpt><trkpt lat="44.3276695" lon="8.3344149"><ele>407.14285714285717</ele><time>2026-04-15T15:10:01.163Z</time></trkpt><trkpt lat="44.3276101" lon="8.3343563"><ele>407.0</ele><time>2026-04-15T15:10:02.165Z</time></trkpt><trkpt lat="44.3275204" lon="8.3342344"><ele>406.99999999999994</ele><time>2026-04-15T15:10:04.164Z</time></trkpt><trkpt lat="44.3274647" lon="8.3340753"><ele>407.0</ele><time>2026-04-15T15:10:06.165Z</time></trkpt><trkpt lat="44.3274429" lon="8.3339882"><ele>407.0</ele><time>2026-04-15T15:10:07.165Z</time></trkpt><trkpt lat="44.3274237" lon="8.3339032"><ele>407.0</ele><time>2026-04-15T15:10:08.165Z</time></trkpt><trkpt lat="44.3274125" lon="8.3338153"><ele>406.99999999999994</ele><time>2026-04-15T15:10:09.165Z</time></trkpt><trkpt lat="44.327408" lon="8.3337271"><ele>407.0</ele><time>2026-04-15T15:10:10.164Z</time></trkpt><trkpt lat="44.3274005" lon="8.3336355"><ele>405.66666666666663</ele><time>2026-04-15T15:10:11.164Z</time></trkpt><trkpt lat="44.3273974" lon="8.3335421"><ele>404.3333333333333</ele><time>2026-04-15T15:10:12.164Z</time></trkpt><trkpt lat="44.3273949" lon="8.3334477"><ele>403.0</ele><time>2026-04-15T15:10:13.163Z</time></trkpt><trkpt lat="44.3273918" lon="8.3333563"><ele>401.66666666666663</ele><time>2026-04-15T15:10:14.165Z</time></trkpt><trkpt lat="44.3273952" lon="8.3332611"><ele>400.3333333333333</ele><time>2026-04-15T15:10:15.164Z</time></trkpt><trkpt lat="44.3274068" lon="8.3330977"><ele>399.0</ele><time>2026-04-15T15:10:17.164Z</time></trkpt><trkpt lat="44.3273901" lon="8.3330078"><ele>398.7142857142857</ele><time>2026-04-15T15:10:18.164Z</time></trkpt><trkpt lat="44.3273606" lon="8.3328741"><ele>398.42857142857144</ele><time>2026-04-15T15:10:20.165Z</time></trkpt><trkpt lat="44.3273395" lon="8.3327797"><ele>398.1428571428571</ele><time>2026-04-15T15:10:21.164Z</time></trkpt><trkpt lat="44.3273092" lon="8.332684"><ele>397.8571428571429</ele><time>2026-04-15T15:10:22.164Z</time></trkpt><trkpt lat="44.3272873" lon="8.3325962"><ele>397.57142857142856</ele><time>2026-04-15T15:10:23.164Z</time></trkpt><trkpt lat="44.3272606" lon="8.3325096"><ele>397.2857142857143</ele><time>2026-04-15T15:10:24.164Z</time></trkpt><trkpt lat="44.3272356" lon="8.3324198"><ele>397.0</ele><time>2026-04-15T15:10:25.164Z</time></trkpt><trkpt lat="44.3272128" lon="8.3323322"><ele>398.25</ele><time>2026-04-15T15:10:26.165Z</time></trkpt><trkpt lat="44.3271756" lon="8.3321797"><ele>399.5</ele><time>2026-04-15T15:10:28.164Z</time></trkpt><trkpt lat="44.327152" lon="8.3320243"><ele>400.75</ele><time>2026-04-15T15:10:30.164Z</time></trkpt><trkpt lat="44.3271083" lon="8.3318717"><ele>402.0</ele><time>2026-04-15T15:10:32.163Z</time></trkpt><trkpt lat="44.3270525" lon="8.3317318"><ele>402.0</ele><time>2026-04-15T15:10:34.164Z</time></trkpt><trkpt lat="44.3270115" lon="8.331568"><ele>402.0</ele><time>2026-04-15T15:10:36.165Z</time></trkpt><trkpt lat="44.3269809" lon="8.3314894"><ele>402.0</ele><time>2026-04-15T15:10:37.164Z</time></trkpt><trkpt lat="44.3269476" lon="8.3314073"><ele>402.0</ele><time>2026-04-15T15:10:38.164Z</time></trkpt><trkpt lat="44.326912" lon="8.3313231"><ele>402.0</ele><time>2026-04-15T15:10:39.164Z</time></trkpt><trkpt lat="44.3268888" lon="8.3312403"><ele>402.0</ele><time>2026-04-15T15:10:40.165Z</time></trkpt><trkpt lat="44.3268639" lon="8.3311541"><ele>401.8333333333333</ele><time>2026-04-15T15:10:41.163Z</time></trkpt><trkpt lat="44.3268362" lon="8.331075"><ele>401.66666666666663</ele><time>2026-04-15T15:10:42.164Z</time></trkpt><trkpt lat="44.3268002" lon="8.3309921"><ele>401.5</ele><time>2026-04-15T15:10:43.163Z</time></trkpt><trkpt lat="44.3267573" lon="8.330815"><ele>401.3333333333333</ele><time>2026-04-15T15:10:45.163Z</time></trkpt><trkpt lat="44.3267389" lon="8.3307285"><ele>401.16666666666663</ele><time>2026-04-15T15:10:46.164Z</time></trkpt><trkpt lat="44.3267142" lon="8.3306459"><ele>401.0</ele><time>2026-04-15T15:10:47.163Z</time></trkpt><trkpt lat="44.3266884" lon="8.3305589"><ele>400.49999999999994</ele><time>2026-04-15T15:10:48.165Z</time></trkpt><trkpt lat="44.3266574" lon="8.330477"><ele>400.0</ele><time>2026-04-15T15:10:49.164Z</time></trkpt><trkpt lat="44.3266251" lon="8.3303911"><ele>399.5</ele><time>2026-04-15T15:10:50.164Z</time></trkpt><trkpt lat="44.3265984" lon="8.3303053"><ele>399.0</ele><time>2026-04-15T15:10:51.164Z</time></trkpt><trkpt lat="44.3265543" lon="8.3301562"><ele>398.49999999999994</ele><time>2026-04-15T15:10:53.165Z</time></trkpt><trkpt lat="44.3265391" lon="8.3300616"><ele>398.0</ele><time>2026-04-15T15:10:54.163Z</time></trkpt><trkpt lat="44.3265093" lon="8.32989"><ele>397.99999999999994</ele><time>2026-04-15T15:10:56.164Z</time></trkpt><trkpt lat="44.3264941" lon="8.3297891"><ele>398.0</ele><time>2026-04-15T15:10:57.164Z</time></trkpt><trkpt lat="44.3264777" lon="8.3296998"><ele>398.0</ele><time>2026-04-15T15:10:58.163Z</time></trkpt><trkpt lat="44.3264504" lon="8.3295233"><ele>398.0</ele><time>2026-04-15T15:11:00.163Z</time></trkpt><trkpt lat="44.326438" lon="8.3294222"><ele>397.99999999999994</ele><time>2026-04-15T15:11:01.164Z</time></trkpt><trkpt lat="44.3264275" lon="8.3293265"><ele>398.0</ele><time>2026-04-15T15:11:02.164Z</time></trkpt><trkpt lat="44.3264123" lon="8.3292348"><ele>397.85714285714283</ele><time>2026-04-15T15:11:03.164Z</time></trkpt><trkpt lat="44.326401" lon="8.3291459"><ele>397.7142857142857</ele><time>2026-04-15T15:11:04.164Z</time></trkpt><trkpt lat="44.3263924" lon="8.3290503"><ele>397.57142857142856</ele><time>2026-04-15T15:11:05.163Z</time></trkpt><trkpt lat="44.3263864" lon="8.3289606"><ele>397.42857142857144</ele><time>2026-04-15T15:11:06.163Z</time></trkpt><trkpt lat="44.326376" lon="8.328865"><ele>397.2857142857143</ele><time>2026-04-15T15:11:07.165Z</time></trkpt><trkpt lat="44.3263652" lon="8.3287636"><ele>397.1428571428571</ele><time>2026-04-15T15:11:08.164Z</time></trkpt><trkpt lat="44.3263657" lon="8.3286731"><ele>397.0</ele><time>2026-04-15T15:11:09.163Z</time></trkpt><trkpt lat="44.3263727" lon="8.3285824"><ele>398.8</ele><time>2026-04-15T15:11:10.165Z</time></trkpt><trkpt lat="44.3263657" lon="8.3284899"><ele>400.6</ele><time>2026-04-15T15:11:11.165Z</time></trkpt><trkpt lat="44.32637" lon="8.3284009"><ele>402.40000000000003</ele><time>2026-04-15T15:11:12.165Z</time></trkpt><trkpt lat="44.3263592" lon="8.3282254"><ele>404.20000000000005</ele><time>2026-04-15T15:11:14.164Z</time></trkpt><trkpt lat="44.3263428" lon="8.3280451"><ele>406.0</ele><time>2026-04-15T15:11:16.164Z</time></trkpt><trkpt lat="44.3263158" lon="8.3278788"><ele>406.00000000000006</ele><time>2026-04-15T15:11:18.164Z</time></trkpt><trkpt lat="44.3262605" lon="8.3277131"><ele>406.0</ele><time>2026-04-15T15:11:20.164Z</time></trkpt><trkpt lat="44.3262234" lon="8.3276351"><ele>406.0</ele><time>2026-04-15T15:11:21.163Z</time></trkpt><trkpt lat="44.3261745" lon="8.3275678"><ele>406.0</ele><time>2026-04-15T15:11:22.164Z</time></trkpt><trkpt lat="44.326114" lon="8.3275097"><ele>406.00000000000006</ele><time>2026-04-15T15:11:23.165Z</time></trkpt><trkpt lat="44.326054" lon="8.327459"><ele>406.0</ele><time>2026-04-15T15:11:24.165Z</time></trkpt><trkpt lat="44.325994" lon="8.327407"><ele>406.00000000000006</ele><time>2026-04-15T15:11:25.164Z</time></trkpt><trkpt lat="44.3259339" lon="8.3273539"><ele>406.0</ele><time>2026-04-15T15:11:26.165Z</time></trkpt><trkpt lat="44.325878" lon="8.327311"><ele>406.0</ele><time>2026-04-15T15:11:27.164Z</time></trkpt><trkpt lat="44.3257684" lon="8.3272452"><ele>406.0</ele><time>2026-04-15T15:11:29.164Z</time></trkpt><trkpt lat="44.3257014" lon="8.3272198"><ele>406.00000000000006</ele><time>2026-04-15T15:11:30.164Z</time></trkpt><trkpt lat="44.3256424" lon="8.3271408"><ele>406.0</ele><time>2026-04-15T15:11:31.165Z</time></trkpt><trkpt lat="44.3255804" lon="8.3271095"><ele>406.8</ele><time>2026-04-15T15:11:32.165Z</time></trkpt><trkpt lat="44.3254808" lon="8.3270787"><ele>407.6</ele><time>2026-04-15T15:11:34.164Z</time></trkpt><trkpt lat="44.3254176" lon="8.3270615"><ele>408.4</ele><time>2026-04-15T15:11:35.164Z</time></trkpt><trkpt lat="44.3253065" lon="8.3270353"><ele>409.2</ele><time>2026-04-15T15:11:37.166Z</time></trkpt><trkpt lat="44.3252321" lon="8.3270382"><ele>410.0</ele><time>2026-04-15T15:11:38.164Z</time></trkpt><trkpt lat="44.3250669" lon="8.3270427"><ele>410.0</ele><time>2026-04-15T15:11:40.165Z</time></trkpt><trkpt lat="44.3249561" lon="8.3270867"><ele>410.0</ele><time>2026-04-15T15:11:41.163Z</time></trkpt><trkpt lat="44.3248634" lon="8.3270291"><ele>410.0</ele><time>2026-04-15T15:11:43.164Z</time></trkpt><trkpt lat="44.3247744" lon="8.3270035"><ele>410.0</ele><time>2026-04-15T15:11:44.164Z</time></trkpt><trkpt lat="44.3246368" lon="8.3269709"><ele>410.0</ele><time>2026-04-15T15:11:46.164Z</time></trkpt><trkpt lat="44.3245748" lon="8.3269498"><ele>412.16666666666663</ele><time>2026-04-15T15:11:47.164Z</time></trkpt><trkpt lat="44.3244676" lon="8.3268743"><ele>414.3333333333333</ele><time>2026-04-15T15:11:49.164Z</time></trkpt><trkpt lat="44.3244025" lon="8.3268533"><ele>416.5</ele><time>2026-04-15T15:11:50.163Z</time></trkpt><trkpt lat="44.3243083" lon="8.3267781"><ele>418.66666666666663</ele><time>2026-04-15T15:11:52.163Z</time></trkpt><trkpt lat="44.324256" lon="8.3267106"><ele>420.8333333333333</ele><time>2026-04-15T15:11:53.163Z</time></trkpt><trkpt lat="44.3242127" lon="8.3266456"><ele>423.0</ele><time>2026-04-15T15:11:54.163Z</time></trkpt><trkpt lat="44.3241885" lon="8.326553"><ele>423.0</ele><time>2026-04-15T15:11:55.164Z</time></trkpt><trkpt lat="44.324142" lon="8.3264161"><ele>423.0</ele><time>2026-04-15T15:11:57.164Z</time></trkpt><trkpt lat="44.3241466" lon="8.3262678"><ele>423.0</ele><time>2026-04-15T15:11:59.164Z</time></trkpt><trkpt lat="44.3241258" lon="8.3261096"><ele>423.0</ele><time>2026-04-15T15:12:00.164Z</time></trkpt><trkpt lat="44.3241156" lon="8.3259516"><ele>423.0</ele><time>2026-04-15T15:12:02.163Z</time></trkpt><trkpt lat="44.3241089" lon="8.3257937"><ele>420.4</ele><time>2026-04-15T15:12:04.163Z</time></trkpt><trkpt lat="44.3240739" lon="8.3256281"><ele>417.79999999999995</ele><time>2026-04-15T15:12:06.165Z</time></trkpt><trkpt lat="44.3240485" lon="8.3254562"><ele>415.2</ele><time>2026-04-15T15:12:08.164Z</time></trkpt><trkpt lat="44.3240409" lon="8.325368"><ele>412.6</ele><time>2026-04-15T15:12:09.165Z</time></trkpt><trkpt lat="44.3240047" lon="8.325219"><ele>410.0</ele><time>2026-04-15T15:12:11.165Z</time></trkpt><trkpt lat="44.3239812" lon="8.3250492"><ele>410.16666666666663</ele><time>2026-04-15T15:12:13.163Z</time></trkpt><trkpt lat="44.3239641" lon="8.3249642"><ele>410.3333333333333</ele><time>2026-04-15T15:12:14.164Z</time></trkpt><trkpt lat="44.3239493" lon="8.324875"><ele>410.5</ele><time>2026-04-15T15:12:15.164Z</time></trkpt><trkpt lat="44.323934" lon="8.3247867"><ele>410.66666666666663</ele><time>2026-04-15T15:12:16.164Z</time></trkpt><trkpt lat="44.323899" lon="8.3246167"><ele>410.8333333333333</ele><time>2026-04-15T15:12:18.163Z</time></trkpt><trkpt lat="44.323895" lon="8.3245159"><ele>411.0</ele><time>2026-04-15T15:12:19.165Z</time></trkpt><trkpt lat="44.3238708" lon="8.324428"><ele>411.0</ele><time>2026-04-15T15:12:20.165Z</time></trkpt><trkpt lat="44.3238564" lon="8.3243186"><ele>411.0</ele><time>2026-04-15T15:12:21.163Z</time></trkpt><trkpt lat="44.3238422" lon="8.3242314"><ele>411.0</ele><time>2026-04-15T15:12:22.164Z</time></trkpt><trkpt lat="44.3237675" lon="8.3240897"><ele>411.0</ele><time>2026-04-15T15:12:24.163Z</time></trkpt><trkpt lat="44.3237336" lon="8.3240102"><ele>411.0</ele><time>2026-04-15T15:12:25.163Z</time></trkpt><trkpt lat="44.3236372" lon="8.3239183"><ele>411.0</ele><time>2026-04-15T15:12:27.165Z</time></trkpt><trkpt lat="44.3235396" lon="8.3238467"><ele>411.0</ele><time>2026-04-15T15:12:29.164Z</time></trkpt><trkpt lat="44.3234218" lon="8.3238221"><ele>411.0</ele><time>2026-04-15T15:12:31.164Z</time></trkpt><trkpt lat="44.3233486" lon="8.3238622"><ele>411.0</ele><time>2026-04-15T15:12:32.164Z</time></trkpt><trkpt lat="44.323219" lon="8.3239166"><ele>411.0</ele><time>2026-04-15T15:12:34.165Z</time></trkpt><trkpt lat="44.3231653" lon="8.3239725"><ele>411.0</ele><time>2026-04-15T15:12:35.163Z</time></trkpt><trkpt lat="44.3231047" lon="8.3240254"><ele>411.0</ele><time>2026-04-15T15:12:36.164Z</time></trkpt><trkpt lat="44.3230364" lon="8.324063"><ele>411.0</ele><time>2026-04-15T15:12:37.165Z</time></trkpt><trkpt lat="44.3229868" lon="8.3241231"><ele>411.0</ele><time>2026-04-15T15:12:38.163Z</time></trkpt><trkpt lat="44.3229339" lon="8.3241776"><ele>411.0</ele><time>2026-04-15T15:12:39.163Z</time></trkpt><trkpt lat="44.3228464" lon="8.3242858"><ele>411.0</ele><time>2026-04-15T15:12:41.164Z</time></trkpt><trkpt lat="44.3227369" lon="8.3243761"><ele>411.0</ele><time>2026-04-15T15:12:43.164Z</time></trkpt><trkpt lat="44.322628" lon="8.3244557"><ele>411.0</ele><time>2026-04-15T15:12:45.165Z</time></trkpt><trkpt lat="44.3225686" lon="8.3244883"><ele>411.0</ele><time>2026-04-15T15:12:46.164Z</time></trkpt><trkpt lat="44.3224929" lon="8.3244996"><ele>411.0</ele><time>2026-04-15T15:12:47.164Z</time></trkpt><trkpt lat="44.3223739" lon="8.3244972"><ele>411.0</ele><time>2026-04-15T15:12:49.163Z</time></trkpt><trkpt lat="44.3223086" lon="8.3244748"><ele>411.0</ele><time>2026-04-15T15:12:50.164Z</time></trkpt><trkpt lat="44.3221954" lon="8.3243955"><ele>410.6666666666667</ele><time>2026-04-15T15:12:52.164Z</time></trkpt><trkpt lat="44.3221448" lon="8.3243398"><ele>410.33333333333337</ele><time>2026-04-15T15:12:53.164Z</time></trkpt><trkpt lat="44.3220959" lon="8.3242767"><ele>410.0</ele><time>2026-04-15T15:12:54.163Z</time></trkpt><trkpt lat="44.3220302" lon="8.3241661"><ele>409.6666666666667</ele><time>2026-04-15T15:12:56.423Z</time></trkpt><trkpt lat="44.3219345" lon="8.3240187"><ele>409.33333333333337</ele><time>2026-04-15T15:12:58.164Z</time></trkpt><trkpt lat="44.3218861" lon="8.3239605"><ele>409.0</ele><time>2026-04-15T15:12:59.163Z</time></trkpt><trkpt lat="44.3218345" lon="8.323908"><ele>409.00000000000006</ele><time>2026-04-15T15:13:00.164Z</time></trkpt><trkpt lat="44.3217834" lon="8.3238522"><ele>409.0</ele><time>2026-04-15T15:13:01.162Z</time></trkpt><trkpt lat="44.3217261" lon="8.3238072"><ele>409.0</ele><time>2026-04-15T15:13:02.163Z</time></trkpt><trkpt lat="44.3216145" lon="8.3237299"><ele>409.0</ele><time>2026-04-15T15:13:04.162Z</time></trkpt><trkpt lat="44.3215544" lon="8.3236987"><ele>409.00000000000006</ele><time>2026-04-15T15:13:05.164Z</time></trkpt><trkpt lat="44.3214918" lon="8.3236666"><ele>409.0</ele><time>2026-04-15T15:13:06.164Z</time></trkpt><trkpt lat="44.3214293" lon="8.3236351"><ele>409.1428571428571</ele><time>2026-04-15T15:13:07.164Z</time></trkpt><trkpt lat="44.3213686" lon="8.3236079"><ele>409.28571428571433</ele><time>2026-04-15T15:13:08.164Z</time></trkpt><trkpt lat="44.3213085" lon="8.3235817"><ele>409.42857142857144</ele><time>2026-04-15T15:13:09.164Z</time></trkpt><trkpt lat="44.3212449" lon="8.3235506"><ele>409.57142857142856</ele><time>2026-04-15T15:13:10.164Z</time></trkpt><trkpt lat="44.3211791" lon="8.3235238"><ele>409.71428571428567</ele><time>2026-04-15T15:13:11.163Z</time></trkpt><trkpt lat="44.321117" lon="8.3234963"><ele>409.8571428571429</ele><time>2026-04-15T15:13:12.163Z</time></trkpt><trkpt lat="44.3210484" lon="8.3234607"><ele>410.0</ele><time>2026-04-15T15:13:13.164Z</time></trkpt><trkpt lat="44.3209828" lon="8.3234298"><ele>409.99999999999994</ele><time>2026-04-15T15:13:14.163Z</time></trkpt><trkpt lat="44.3209186" lon="8.3234002"><ele>410.0</ele><time>2026-04-15T15:13:15.164Z</time></trkpt><trkpt lat="44.3208542" lon="8.3233736"><ele>410.0</ele><time>2026-04-15T15:13:16.164Z</time></trkpt><trkpt lat="44.3207915" lon="8.3233411"><ele>410.0</ele><time>2026-04-15T15:13:17.164Z</time></trkpt><trkpt lat="44.3207312" lon="8.3233134"><ele>409.99999999999994</ele><time>2026-04-15T15:13:18.163Z</time></trkpt><trkpt lat="44.3206697" lon="8.3232778"><ele>410.0</ele><time>2026-04-15T15:13:19.164Z</time></trkpt><trkpt lat="44.3205475" lon="8.323226"><ele>410.16666666666663</ele><time>2026-04-15T15:13:21.164Z</time></trkpt><trkpt lat="44.3204844" lon="8.3231924"><ele>410.3333333333333</ele><time>2026-04-15T15:13:22.164Z</time></trkpt><trkpt lat="44.3204244" lon="8.3231604"><ele>410.5</ele><time>2026-04-15T15:13:23.163Z</time></trkpt><trkpt lat="44.3203106" lon="8.3230868"><ele>410.66666666666663</ele><time>2026-04-15T15:13:25.164Z</time></trkpt><trkpt lat="44.3202508" lon="8.3230554"><ele>410.8333333333333</ele><time>2026-04-15T15:13:26.162Z</time></trkpt><trkpt lat="44.3201897" lon="8.3230218"><ele>411.0</ele><time>2026-04-15T15:13:27.165Z</time></trkpt><trkpt lat="44.3201261" lon="8.3229924"><ele>411.0</ele><time>2026-04-15T15:13:28.163Z</time></trkpt><trkpt lat="44.3200633" lon="8.3229605"><ele>411.0</ele><time>2026-04-15T15:13:29.164Z</time></trkpt><trkpt lat="44.3199934" lon="8.3229383"><ele>411.0</ele><time>2026-04-15T15:13:30.164Z</time></trkpt><trkpt lat="44.3199249" lon="8.322899"><ele>411.0</ele><time>2026-04-15T15:13:31.163Z</time></trkpt><trkpt lat="44.3198459" lon="8.3228551"><ele>411.0</ele><time>2026-04-15T15:13:32.163Z</time></trkpt><trkpt lat="44.3197845" lon="8.3228081"><ele>411.0</ele><time>2026-04-15T15:13:33.163Z</time></trkpt><trkpt lat="44.3196872" lon="8.3227288"><ele>412.20000000000005</ele><time>2026-04-15T15:13:35.163Z</time></trkpt><trkpt lat="44.3196152" lon="8.3225947"><ele>413.40000000000003</ele><time>2026-04-15T15:13:37.164Z</time></trkpt><trkpt lat="44.3195792" lon="8.3225184"><ele>414.6</ele><time>2026-04-15T15:13:38.164Z</time></trkpt><trkpt lat="44.3195254" lon="8.322459"><ele>415.8</ele><time>2026-04-15T15:13:39.164Z</time></trkpt><trkpt lat="44.3194713" lon="8.3224013"><ele>417.0</ele><time>2026-04-15T15:13:40.165Z</time></trkpt><trkpt lat="44.3193788" lon="8.3222765"><ele>416.42857142857144</ele><time>2026-04-15T15:13:42.164Z</time></trkpt><trkpt lat="44.3193279" lon="8.3222137"><ele>415.85714285714283</ele><time>2026-04-15T15:13:43.164Z</time></trkpt><trkpt lat="44.3192842" lon="8.3221417"><ele>415.2857142857143</ele><time>2026-04-15T15:13:44.165Z</time></trkpt><trkpt lat="44.3192365" lon="8.3220795"><ele>414.7142857142857</ele><time>2026-04-15T15:13:45.163Z</time></trkpt><trkpt lat="44.3191836" lon="8.3220193"><ele>414.1428571428571</ele><time>2026-04-15T15:13:46.164Z</time></trkpt><trkpt lat="44.3191393" lon="8.3219532"><ele>413.57142857142856</ele><time>2026-04-15T15:13:47.164Z</time></trkpt><trkpt lat="44.3190887" lon="8.3218983"><ele>413.0</ele><time>2026-04-15T15:13:48.164Z</time></trkpt><trkpt lat="44.3190451" lon="8.3218303"><ele>412.99999999999994</ele><time>2026-04-15T15:13:49.163Z</time></trkpt><trkpt lat="44.3189974" lon="8.321772"><ele>413.0</ele><time>2026-04-15T15:13:50.164Z</time></trkpt><trkpt lat="44.318953" lon="8.3217096"><ele>413.0</ele><time>2026-04-15T15:13:51.164Z</time></trkpt><trkpt lat="44.3189089" lon="8.3216406"><ele>413.0</ele><time>2026-04-15T15:13:52.164Z</time></trkpt><trkpt lat="44.3188682" lon="8.3215643"><ele>412.99999999999994</ele><time>2026-04-15T15:13:53.162Z</time></trkpt><trkpt lat="44.3188028" lon="8.3214138"><ele>413.0</ele><time>2026-04-15T15:13:55.164Z</time></trkpt><trkpt lat="44.3187711" lon="8.321336"><ele>413.8333333333333</ele><time>2026-04-15T15:13:56.164Z</time></trkpt><trkpt lat="44.3187546" lon="8.3212444"><ele>414.66666666666663</ele><time>2026-04-15T15:13:57.164Z</time></trkpt><trkpt lat="44.3187014" lon="8.3210872"><ele>415.5</ele><time>2026-04-15T15:13:59.162Z</time></trkpt><trkpt lat="44.3186692" lon="8.3210075"><ele>416.33333333333337</ele><time>2026-04-15T15:14:00.163Z</time></trkpt><trkpt lat="44.3186464" lon="8.3209189"><ele>417.1666666666667</ele><time>2026-04-15T15:14:01.164Z</time></trkpt><trkpt lat="44.3185867" lon="8.3207773"><ele>418.0</ele><time>2026-04-15T15:14:03.164Z</time></trkpt><trkpt lat="44.3185374" lon="8.3206404"><ele>417.00000000000006</ele><time>2026-04-15T15:14:05.164Z</time></trkpt><trkpt lat="44.3185055" lon="8.3205571"><ele>416.0</ele><time>2026-04-15T15:14:06.164Z</time></trkpt><trkpt lat="44.3184431" lon="8.3204019"><ele>415.0</ele><time>2026-04-15T15:14:08.164Z</time></trkpt><trkpt lat="44.3184067" lon="8.3203237"><ele>414.0</ele><time>2026-04-15T15:14:09.164Z</time></trkpt><trkpt lat="44.3183715" lon="8.3202441"><ele>413.00000000000006</ele><time>2026-04-15T15:14:10.163Z</time></trkpt><trkpt lat="44.3183217" lon="8.3201742"><ele>412.0</ele><time>2026-04-15T15:14:11.164Z</time></trkpt><trkpt lat="44.3182721" lon="8.3201144"><ele>412.00000000000006</ele><time>2026-04-15T15:14:12.164Z</time></trkpt><trkpt lat="44.318162" lon="8.320085"><ele>412.0</ele><time>2026-04-15T15:14:14.164Z</time></trkpt><trkpt lat="44.3180869" lon="8.3200622"><ele>412.0</ele><time>2026-04-15T15:14:15.164Z</time></trkpt><trkpt lat="44.3180236" lon="8.3200526"><ele>412.0</ele><time>2026-04-15T15:14:16.164Z</time></trkpt><trkpt lat="44.3179583" lon="8.3200584"><ele>412.00000000000006</ele><time>2026-04-15T15:14:17.165Z</time></trkpt><trkpt lat="44.3178852" lon="8.3200449"><ele>412.0</ele><time>2026-04-15T15:14:18.164Z</time></trkpt><trkpt lat="44.3178193" lon="8.3200385"><ele>413.33333333333337</ele><time>2026-04-15T15:14:19.164Z</time></trkpt><trkpt lat="44.3176864" lon="8.3200247"><ele>414.6666666666667</ele><time>2026-04-15T15:14:21.164Z</time></trkpt><trkpt lat="44.3176104" lon="8.3200028"><ele>416.0</ele><time>2026-04-15T15:14:22.164Z</time></trkpt><trkpt lat="44.3175453" lon="8.319988"><ele>417.33333333333337</ele><time>2026-04-15T15:14:23.164Z</time></trkpt><trkpt lat="44.3174847" lon="8.3199502"><ele>418.6666666666667</ele><time>2026-04-15T15:14:24.163Z</time></trkpt><trkpt lat="44.3174175" lon="8.3199008"><ele>420.0</ele><time>2026-04-15T15:14:25.164Z</time></trkpt><trkpt lat="44.3173634" lon="8.3198376"><ele>420.0</ele><time>2026-04-15T15:14:26.164Z</time></trkpt><trkpt lat="44.3173242" lon="8.3197626"><ele>420.0</ele><time>2026-04-15T15:14:27.164Z</time></trkpt><trkpt lat="44.3172314" lon="8.3196481"><ele>420.0</ele><time>2026-04-15T15:14:29.163Z</time></trkpt><trkpt lat="44.3171672" lon="8.319521"><ele>420.0</ele><time>2026-04-15T15:14:31.164Z</time></trkpt><trkpt lat="44.3171108" lon="8.3194136"><ele>420.0</ele><time>2026-04-15T15:14:33.163Z</time></trkpt><trkpt lat="44.3170529" lon="8.3193394"><ele>421.1666666666667</ele><time>2026-04-15T15:14:35.165Z</time></trkpt><trkpt lat="44.3170078" lon="8.3192755"><ele>422.33333333333337</ele><time>2026-04-15T15:14:37.164Z</time></trkpt><trkpt lat="44.3169811" lon="8.3193683"><ele>423.5</ele><time>2026-04-15T15:14:41.163Z</time></trkpt><trkpt lat="44.3170207" lon="8.3194577"><ele>424.6666666666667</ele><time>2026-04-15T15:14:43.164Z</time></trkpt><trkpt lat="44.3170579" lon="8.319529"><ele>425.83333333333337</ele><time>2026-04-15T15:14:44.165Z</time></trkpt><trkpt lat="44.3171396" lon="8.3196642"><ele>427.0</ele><time>2026-04-15T15:14:46.165Z</time></trkpt><trkpt lat="44.3171874" lon="8.3197394"><ele>425.83333333333337</ele><time>2026-04-15T15:14:47.164Z</time></trkpt><trkpt lat="44.3172354" lon="8.3198265"><ele>424.6666666666667</ele><time>2026-04-15T15:14:48.165Z</time></trkpt><trkpt lat="44.3172833" lon="8.3199114"><ele>423.5</ele><time>2026-04-15T15:14:49.163Z</time></trkpt><trkpt lat="44.3173365" lon="8.3199779"><ele>422.33333333333337</ele><time>2026-04-15T15:14:50.164Z</time></trkpt><trkpt lat="44.31741" lon="8.3200427"><ele>421.1666666666667</ele><time>2026-04-15T15:14:51.164Z</time></trkpt><trkpt lat="44.3175184" lon="8.3200965"><ele>420.0</ele><time>2026-04-15T15:14:53.164Z</time></trkpt><trkpt lat="44.3175826" lon="8.3201195"><ele>420.0</ele><time>2026-04-15T15:14:54.163Z</time></trkpt><trkpt lat="44.3176473" lon="8.3201259"><ele>420.0</ele><time>2026-04-15T15:14:55.164Z</time></trkpt><trkpt lat="44.3177105" lon="8.3201318"><ele>420.0</ele><time>2026-04-15T15:14:56.163Z</time></trkpt><trkpt lat="44.3178325" lon="8.3201488"><ele>420.0</ele><time>2026-04-15T15:14:58.164Z</time></trkpt><trkpt lat="44.3179512" lon="8.3201388"><ele>420.0</ele><time>2026-04-15T15:15:00.163Z</time></trkpt><trkpt lat="44.3180713" lon="8.3201591"><ele>419.6</ele><time>2026-04-15T15:15:02.164Z</time></trkpt><trkpt lat="44.3181809" lon="8.3201933"><ele>419.2</ele><time>2026-04-15T15:15:04.164Z</time></trkpt><trkpt lat="44.318276" lon="8.3202596"><ele>418.79999999999995</ele><time>2026-04-15T15:15:06.164Z</time></trkpt><trkpt lat="44.3183504" lon="8.3203651"><ele>418.4</ele><time>2026-04-15T15:15:08.164Z</time></trkpt><trkpt lat="44.318418" lon="8.320487"><ele>418.0</ele><time>2026-04-15T15:15:10.164Z</time></trkpt><trkpt lat="44.3184727" lon="8.3206176"><ele>418.0</ele><time>2026-04-15T15:15:12.164Z</time></trkpt><trkpt lat="44.3185263" lon="8.3207381"><ele>418.0</ele><time>2026-04-15T15:15:14.164Z</time></trkpt><trkpt lat="44.3185688" lon="8.3208805"><ele>418.0</ele><time>2026-04-15T15:15:16.164Z</time></trkpt><trkpt lat="44.3186253" lon="8.3210215"><ele>418.0</ele><time>2026-04-15T15:15:18.164Z</time></trkpt><trkpt lat="44.3186707" lon="8.3211741"><ele>418.0</ele><time>2026-04-15T15:15:20.164Z</time></trkpt><trkpt lat="44.3187158" lon="8.3212991"><ele>418.4</ele><time>2026-04-15T15:15:22.164Z</time></trkpt><trkpt lat="44.3187736" lon="8.3214368"><ele>418.79999999999995</ele><time>2026-04-15T15:15:24.163Z</time></trkpt><trkpt lat="44.3188184" lon="8.3215708"><ele>419.2</ele><time>2026-04-15T15:15:26.163Z</time></trkpt><trkpt lat="44.3188719" lon="8.3217081"><ele>419.6</ele><time>2026-04-15T15:15:28.164Z</time></trkpt><trkpt lat="44.3189279" lon="8.3218247"><ele>420.0</ele><time>2026-04-15T15:15:30.162Z</time></trkpt><trkpt lat="44.3190034" lon="8.321919"><ele>419.4</ele><time>2026-04-15T15:15:32.163Z</time></trkpt><trkpt lat="44.3190842" lon="8.3220232"><ele>418.8</ele><time>2026-04-15T15:15:34.162Z</time></trkpt><trkpt lat="44.3191607" lon="8.3221379"><ele>418.20000000000005</ele><time>2026-04-15T15:15:36.164Z</time></trkpt><trkpt lat="44.3192408" lon="8.3222495"><ele>417.6</ele><time>2026-04-15T15:15:38.164Z</time></trkpt><trkpt lat="44.3193201" lon="8.3223505"><ele>417.0</ele><time>2026-04-15T15:15:40.164Z</time></trkpt><trkpt lat="44.3194016" lon="8.3224445"><ele>417.0</ele><time>2026-04-15T15:15:42.163Z</time></trkpt><trkpt lat="44.3194873" lon="8.3225596"><ele>417.0</ele><time>2026-04-15T15:15:44.163Z</time></trkpt><trkpt lat="44.3195698" lon="8.3226597"><ele>417.0</ele><time>2026-04-15T15:15:46.164Z</time></trkpt><trkpt lat="44.3196654" lon="8.3227493"><ele>417.0</ele><time>2026-04-15T15:15:48.164Z</time></trkpt><trkpt lat="44.3197468" lon="8.3228291"><ele>417.0</ele><time>2026-04-15T15:15:50.163Z</time></trkpt><trkpt lat="44.3198344" lon="8.3228989"><ele>416.8333333333333</ele><time>2026-04-15T15:15:52.164Z</time></trkpt><trkpt lat="44.3199081" lon="8.3229701"><ele>416.66666666666663</ele><time>2026-04-15T15:15:54.164Z</time></trkpt><trkpt lat="44.319993" lon="8.3230155"><ele>416.5</ele><time>2026-04-15T15:15:56.164Z</time></trkpt><trkpt lat="44.3200796" lon="8.3230511"><ele>416.3333333333333</ele><time>2026-04-15T15:15:58.164Z</time></trkpt><trkpt lat="44.3201551" lon="8.3230787"><ele>416.16666666666663</ele><time>2026-04-15T15:16:00.164Z</time></trkpt><trkpt lat="44.3202312" lon="8.3231097"><ele>416.0</ele><time>2026-04-15T15:16:02.164Z</time></trkpt><trkpt lat="44.3203129" lon="8.3231547"><ele>415.99999999999994</ele><time>2026-04-15T15:16:04.164Z</time></trkpt><trkpt lat="44.3204082" lon="8.3232096"><ele>416.0</ele><time>2026-04-15T15:16:06.164Z</time></trkpt><trkpt lat="44.3204684" lon="8.3232388"><ele>416.0</ele><time>2026-04-15T15:16:07.164Z</time></trkpt><trkpt lat="44.320532" lon="8.3232773"><ele>416.0</ele><time>2026-04-15T15:16:08.163Z</time></trkpt><trkpt lat="44.3205901" lon="8.323315"><ele>415.99999999999994</ele><time>2026-04-15T15:16:09.164Z</time></trkpt><trkpt lat="44.3207033" lon="8.3233701"><ele>416.0</ele><time>2026-04-15T15:16:11.163Z</time></trkpt><trkpt lat="44.3207961" lon="8.3234347"><ele>414.8</ele><time>2026-04-15T15:16:13.164Z</time></trkpt><trkpt lat="44.3209009" lon="8.3234715"><ele>413.6</ele><time>2026-04-15T15:16:15.163Z</time></trkpt><trkpt lat="44.3209847" lon="8.3235198"><ele>412.4</ele><time>2026-04-15T15:16:17.163Z</time></trkpt><trkpt lat="44.3210778" lon="8.3235675"><ele>411.2</ele><time>2026-04-15T15:16:19.164Z</time></trkpt><trkpt lat="44.3211703" lon="8.3236127"><ele>410.0</ele><time>2026-04-15T15:16:21.163Z</time></trkpt><trkpt lat="44.3212553" lon="8.3236453"><ele>409.99999999999994</ele><time>2026-04-15T15:16:23.163Z</time></trkpt><trkpt lat="44.3213341" lon="8.3236868"><ele>410.0</ele><time>2026-04-15T15:16:25.164Z</time></trkpt><trkpt lat="44.3214107" lon="8.3237074"><ele>410.0</ele><time>2026-04-15T15:16:27.162Z</time></trkpt><trkpt lat="44.3214788" lon="8.3237449"><ele>410.0</ele><time>2026-04-15T15:16:29.163Z</time></trkpt><trkpt lat="44.3215438" lon="8.3237874"><ele>409.99999999999994</ele><time>2026-04-15T15:16:31.163Z</time></trkpt><trkpt lat="44.3216183" lon="8.323825"><ele>410.0</ele><time>2026-04-15T15:16:33.163Z</time></trkpt><trkpt lat="44.321692" lon="8.323866"><ele>409.0</ele><time>2026-04-15T15:16:35.163Z</time></trkpt><trkpt lat="44.3217586" lon="8.3239161"><ele>409.0</ele><time>2026-04-15T15:16:37.163Z</time></trkpt><trkpt lat="44.3217372" lon="8.3240197"><ele>409.0</ele><time>2026-04-15T15:16:51.164Z</time></trkpt><trkpt lat="44.3216883" lon="8.3240776"><ele>409.0</ele><time>2026-04-15T15:17:26.164Z</time></trkpt></trkseg></trk></gpx>